<?xml version="1.0" encoding="UTF-8" standalone="no" ?>
<gpx xmlns="http://www.topografix.com/GPX/1/1" xmlns:xsi="http://www.w3.org/2001/XMLSchema-instance" xsi:schemaLocation="http://www.topografix.com/GPX/1/1 http://www.topografix.com/GPX/1/1/gpx.xsd" version="1.1" creator="VisuGPX - https://www.visugpx.com">
  <metadata>
    <name>GRP Tour de la Planèze J4 : Paulhac St Flour</name>
    <desc><![CDATA[File with points/tracks from Locus Free/3.8.2]]></desc>
  </metadata>
  <trk>
    <name><![CDATA[Paulhac st Flour]]></name>
    <desc><![CDATA[8h:02m:01s | 35.1 km]]></desc>
    <trkseg>
      <trkpt lat="45.00423" lon="2.90663">
        <ele>1129.5</ele>
        <time>2015-04-29T06:42:58Z</time>
      </trkpt>
      <trkpt lat="45.00431" lon="2.90642">
        <ele>1160.18</ele>
        <time>2015-04-29T06:43:09Z</time>
      </trkpt>
      <trkpt lat="45.00438" lon="2.90626">
        <ele>1160.73</ele>
        <time>2015-04-29T06:43:19Z</time>
      </trkpt>
      <trkpt lat="45.00445" lon="2.90614">
        <ele>1165.73</ele>
        <time>2015-04-29T06:43:29Z</time>
      </trkpt>
      <trkpt lat="45.00451" lon="2.90602">
        <ele>1170.94</ele>
        <time>2015-04-29T06:43:39Z</time>
      </trkpt>
      <trkpt lat="45.00456" lon="2.90586">
        <ele>1174.68</ele>
        <time>2015-04-29T06:43:49Z</time>
      </trkpt>
      <trkpt lat="45.00465" lon="2.90572">
        <ele>1174.75</ele>
        <time>2015-04-29T06:43:59Z</time>
      </trkpt>
      <trkpt lat="45.00472" lon="2.90564">
        <ele>1171.28</ele>
        <time>2015-04-29T06:44:09Z</time>
      </trkpt>
      <trkpt lat="45.00482" lon="2.9055">
        <ele>1173.73</ele>
        <time>2015-04-29T06:44:19Z</time>
      </trkpt>
      <trkpt lat="45.00493" lon="2.90538">
        <ele>1178</ele>
        <time>2015-04-29T06:44:29Z</time>
      </trkpt>
      <trkpt lat="45.00506" lon="2.90531">
        <ele>1178.73</ele>
        <time>2015-04-29T06:44:39Z</time>
      </trkpt>
      <trkpt lat="45.00519" lon="2.90527">
        <ele>1175.56</ele>
        <time>2015-04-29T06:44:49Z</time>
      </trkpt>
      <trkpt lat="45.00533" lon="2.90525">
        <ele>1175.95</ele>
        <time>2015-04-29T06:44:59Z</time>
      </trkpt>
      <trkpt lat="45.00542" lon="2.90526">
        <ele>1182.73</ele>
        <time>2015-04-29T06:45:09Z</time>
      </trkpt>
      <trkpt lat="45.00556" lon="2.90522">
        <ele>1183.01</ele>
        <time>2015-04-29T06:45:19Z</time>
      </trkpt>
      <trkpt lat="45.00571" lon="2.90521">
        <ele>1180.94</ele>
        <time>2015-04-29T06:45:29Z</time>
      </trkpt>
      <trkpt lat="45.0058" lon="2.90519">
        <ele>1175.15</ele>
        <time>2015-04-29T06:45:39Z</time>
      </trkpt>
      <trkpt lat="45.00587" lon="2.90516">
        <ele>1167.33</ele>
        <time>2015-04-29T06:45:49Z</time>
      </trkpt>
      <trkpt lat="45.00596" lon="2.90511">
        <ele>1163.25</ele>
        <time>2015-04-29T06:45:59Z</time>
      </trkpt>
      <trkpt lat="45.00601" lon="2.90508">
        <ele>1160.52</ele>
        <time>2015-04-29T06:46:09Z</time>
      </trkpt>
      <trkpt lat="45.00615" lon="2.90505">
        <ele>1157.91</ele>
        <time>2015-04-29T06:46:19Z</time>
      </trkpt>
      <trkpt lat="45.00625" lon="2.90504">
        <ele>1157.05</ele>
        <time>2015-04-29T06:46:29Z</time>
      </trkpt>
      <trkpt lat="45.00637" lon="2.90506">
        <ele>1155.77</ele>
        <time>2015-04-29T06:46:39Z</time>
      </trkpt>
      <trkpt lat="45.00651" lon="2.90512">
        <ele>1155.44</ele>
        <time>2015-04-29T06:46:49Z</time>
      </trkpt>
      <trkpt lat="45.00662" lon="2.9052">
        <ele>1151.06</ele>
        <time>2015-04-29T06:46:59Z</time>
      </trkpt>
      <trkpt lat="45.00676" lon="2.90524">
        <ele>1157.92</ele>
        <time>2015-04-29T06:47:09Z</time>
      </trkpt>
      <trkpt lat="45.00687" lon="2.9053">
        <ele>1162.93</ele>
        <time>2015-04-29T06:47:19Z</time>
      </trkpt>
      <trkpt lat="45.00695" lon="2.90521">
        <ele>1170.23</ele>
        <time>2015-04-29T06:48:09Z</time>
      </trkpt>
      <trkpt lat="45.00706" lon="2.90525">
        <ele>1166.16</ele>
        <time>2015-04-29T06:48:19Z</time>
      </trkpt>
      <trkpt lat="45.00725" lon="2.90526">
        <ele>1169.88</ele>
        <time>2015-04-29T06:48:29Z</time>
      </trkpt>
      <trkpt lat="45.00736" lon="2.90526">
        <ele>1170.11</ele>
        <time>2015-04-29T06:48:39Z</time>
      </trkpt>
      <trkpt lat="45.00746" lon="2.90526">
        <ele>1168.43</ele>
        <time>2015-04-29T06:48:49Z</time>
      </trkpt>
      <trkpt lat="45.00755" lon="2.90521">
        <ele>1162.74</ele>
        <time>2015-04-29T06:48:59Z</time>
      </trkpt>
      <trkpt lat="45.00763" lon="2.90523">
        <ele>1164.94</ele>
        <time>2015-04-29T06:49:09Z</time>
      </trkpt>
      <trkpt lat="45.00766" lon="2.90523">
        <ele>1164</ele>
        <time>2015-04-29T06:49:19Z</time>
      </trkpt>
      <trkpt lat="45.00786" lon="2.90519">
        <ele>1161.97</ele>
        <time>2015-04-29T06:49:29Z</time>
      </trkpt>
      <trkpt lat="45.00809" lon="2.90519">
        <ele>1166.93</ele>
        <time>2015-04-29T06:49:39Z</time>
      </trkpt>
      <trkpt lat="45.00825" lon="2.90516">
        <ele>1167.82</ele>
        <time>2015-04-29T06:49:49Z</time>
      </trkpt>
      <trkpt lat="45.00839" lon="2.90513">
        <ele>1166.77</ele>
        <time>2015-04-29T06:49:59Z</time>
      </trkpt>
      <trkpt lat="45.00852" lon="2.90512">
        <ele>1165.71</ele>
        <time>2015-04-29T06:50:09Z</time>
      </trkpt>
      <trkpt lat="45.00861" lon="2.90511">
        <ele>1164</ele>
        <time>2015-04-29T06:50:19Z</time>
      </trkpt>
      <trkpt lat="45.00875" lon="2.90508">
        <ele>1162.19</ele>
        <time>2015-04-29T06:50:29Z</time>
      </trkpt>
      <trkpt lat="45.0089" lon="2.90505">
        <ele>1165.24</ele>
        <time>2015-04-29T06:50:39Z</time>
      </trkpt>
      <trkpt lat="45.00904" lon="2.90509">
        <ele>1168.03</ele>
        <time>2015-04-29T06:50:49Z</time>
      </trkpt>
      <trkpt lat="45.00916" lon="2.90513">
        <ele>1169.98</ele>
        <time>2015-04-29T06:50:59Z</time>
      </trkpt>
      <trkpt lat="45.00928" lon="2.90518">
        <ele>1169.97</ele>
        <time>2015-04-29T06:51:09Z</time>
      </trkpt>
      <trkpt lat="45.00932" lon="2.90528">
        <ele>1173.42</ele>
        <time>2015-04-29T06:51:19Z</time>
      </trkpt>
      <trkpt lat="45.00938" lon="2.90545">
        <ele>1168.68</ele>
        <time>2015-04-29T06:51:29Z</time>
      </trkpt>
      <trkpt lat="45.00949" lon="2.90558">
        <ele>1169.44</ele>
        <time>2015-04-29T06:51:39Z</time>
      </trkpt>
      <trkpt lat="45.00955" lon="2.90577">
        <ele>1169</ele>
        <time>2015-04-29T06:51:49Z</time>
      </trkpt>
      <trkpt lat="45.00959" lon="2.90595">
        <ele>1167.08</ele>
        <time>2015-04-29T06:51:59Z</time>
      </trkpt>
      <trkpt lat="45.00966" lon="2.90611">
        <ele>1166.77</ele>
        <time>2015-04-29T06:52:09Z</time>
      </trkpt>
      <trkpt lat="45.00967" lon="2.90624">
        <ele>1165</ele>
        <time>2015-04-29T06:52:19Z</time>
      </trkpt>
      <trkpt lat="45.00993" lon="2.90659">
        <ele>1159.25</ele>
        <time>2015-04-29T06:52:59Z</time>
      </trkpt>
      <trkpt lat="45.00978" lon="2.90639">
        <ele>1168.88</ele>
        <time>2015-04-29T06:53:09Z</time>
      </trkpt>
      <trkpt lat="45.00985" lon="2.90649">
        <ele>1168.85</ele>
        <time>2015-04-29T06:53:19Z</time>
      </trkpt>
      <trkpt lat="45.00998" lon="2.9066">
        <ele>1172.94</ele>
        <time>2015-04-29T06:53:29Z</time>
      </trkpt>
      <trkpt lat="45.01008" lon="2.90669">
        <ele>1171.31</ele>
        <time>2015-04-29T06:53:39Z</time>
      </trkpt>
      <trkpt lat="45.01021" lon="2.90675">
        <ele>1172</ele>
        <time>2015-04-29T06:53:49Z</time>
      </trkpt>
      <trkpt lat="45.01034" lon="2.90681">
        <ele>1169.21</ele>
        <time>2015-04-29T06:53:59Z</time>
      </trkpt>
      <trkpt lat="45.01046" lon="2.90687">
        <ele>1171.94</ele>
        <time>2015-04-29T06:54:09Z</time>
      </trkpt>
      <trkpt lat="45.0106" lon="2.90692">
        <ele>1171.06</ele>
        <time>2015-04-29T06:54:19Z</time>
      </trkpt>
      <trkpt lat="45.01071" lon="2.90689">
        <ele>1169.01</ele>
        <time>2015-04-29T06:54:29Z</time>
      </trkpt>
      <trkpt lat="45.01081" lon="2.90683">
        <ele>1169.92</ele>
        <time>2015-04-29T06:54:39Z</time>
      </trkpt>
      <trkpt lat="45.0109" lon="2.90669">
        <ele>1171.25</ele>
        <time>2015-04-29T06:54:49Z</time>
      </trkpt>
      <trkpt lat="45.01098" lon="2.90656">
        <ele>1171</ele>
        <time>2015-04-29T06:54:59Z</time>
      </trkpt>
      <trkpt lat="45.01106" lon="2.90638">
        <ele>1168.94</ele>
        <time>2015-04-29T06:55:09Z</time>
      </trkpt>
      <trkpt lat="45.01115" lon="2.90623">
        <ele>1167</ele>
        <time>2015-04-29T06:55:19Z</time>
      </trkpt>
      <trkpt lat="45.01124" lon="2.90609">
        <ele>1168.98</ele>
        <time>2015-04-29T06:55:29Z</time>
      </trkpt>
      <trkpt lat="45.01132" lon="2.90596">
        <ele>1169.81</ele>
        <time>2015-04-29T06:55:39Z</time>
      </trkpt>
      <trkpt lat="45.0114" lon="2.90586">
        <ele>1170</ele>
        <time>2015-04-29T06:55:49Z</time>
      </trkpt>
      <trkpt lat="45.01148" lon="2.90569">
        <ele>1170.82</ele>
        <time>2015-04-29T06:55:59Z</time>
      </trkpt>
      <trkpt lat="45.01154" lon="2.90549">
        <ele>1172.74</ele>
        <time>2015-04-29T06:56:09Z</time>
      </trkpt>
      <trkpt lat="45.0116" lon="2.90531">
        <ele>1169.82</ele>
        <time>2015-04-29T06:56:19Z</time>
      </trkpt>
      <trkpt lat="45.01168" lon="2.90519">
        <ele>1169.77</ele>
        <time>2015-04-29T06:56:29Z</time>
      </trkpt>
      <trkpt lat="45.01177" lon="2.90502">
        <ele>1170.88</ele>
        <time>2015-04-29T06:56:39Z</time>
      </trkpt>
      <trkpt lat="45.01188" lon="2.9049">
        <ele>1170.33</ele>
        <time>2015-04-29T06:56:49Z</time>
      </trkpt>
      <trkpt lat="45.012" lon="2.90482">
        <ele>1172</ele>
        <time>2015-04-29T06:56:59Z</time>
      </trkpt>
      <trkpt lat="45.01211" lon="2.90476">
        <ele>1173</ele>
        <time>2015-04-29T06:57:09Z</time>
      </trkpt>
      <trkpt lat="45.01211" lon="2.90474">
        <ele>1171</ele>
        <time>2015-04-29T06:57:19Z</time>
      </trkpt>
      <trkpt lat="45.01212" lon="2.90476">
        <ele>1171</ele>
        <time>2015-04-29T06:57:58Z</time>
      </trkpt>
      <trkpt lat="45.01212" lon="2.90477">
        <ele>1169.5</ele>
        <time>2015-04-29T06:58:11Z</time>
      </trkpt>
      <trkpt lat="45.01213" lon="2.90479">
        <ele>1169.99</ele>
        <time>2015-04-29T06:58:21Z</time>
      </trkpt>
      <trkpt lat="45.01216" lon="2.90478">
        <ele>1170.94</ele>
        <time>2015-04-29T06:58:31Z</time>
      </trkpt>
      <trkpt lat="45.01229" lon="2.90475">
        <ele>1174.99</ele>
        <time>2015-04-29T06:58:41Z</time>
      </trkpt>
      <trkpt lat="45.01242" lon="2.90469">
        <ele>1174.01</ele>
        <time>2015-04-29T06:58:51Z</time>
      </trkpt>
      <trkpt lat="45.01254" lon="2.90464">
        <ele>1174.95</ele>
        <time>2015-04-29T06:59:01Z</time>
      </trkpt>
      <trkpt lat="45.01268" lon="2.90459">
        <ele>1176.93</ele>
        <time>2015-04-29T06:59:11Z</time>
      </trkpt>
      <trkpt lat="45.01283" lon="2.90456">
        <ele>1176.01</ele>
        <time>2015-04-29T06:59:21Z</time>
      </trkpt>
      <trkpt lat="45.01294" lon="2.90452">
        <ele>1174.7</ele>
        <time>2015-04-29T06:59:31Z</time>
      </trkpt>
      <trkpt lat="45.01296" lon="2.90451">
        <ele>1175</ele>
        <time>2015-04-29T06:59:41Z</time>
      </trkpt>
      <trkpt lat="45.01299" lon="2.90439">
        <ele>1176.5</ele>
        <time>2015-04-29T06:59:51Z</time>
      </trkpt>
      <trkpt lat="45.01311" lon="2.90444">
        <ele>1175.3</ele>
        <time>2015-04-29T07:00:01Z</time>
      </trkpt>
      <trkpt lat="45.01324" lon="2.90438">
        <ele>1173.06</ele>
        <time>2015-04-29T07:00:11Z</time>
      </trkpt>
      <trkpt lat="45.01335" lon="2.90432">
        <ele>1173</ele>
        <time>2015-04-29T07:00:21Z</time>
      </trkpt>
      <trkpt lat="45.01347" lon="2.90423">
        <ele>1169.8</ele>
        <time>2015-04-29T07:00:31Z</time>
      </trkpt>
      <trkpt lat="45.01358" lon="2.90414">
        <ele>1171.75</ele>
        <time>2015-04-29T07:00:41Z</time>
      </trkpt>
      <trkpt lat="45.01369" lon="2.90405">
        <ele>1169.8</ele>
        <time>2015-04-29T07:00:51Z</time>
      </trkpt>
      <trkpt lat="45.01381" lon="2.90396">
        <ele>1168.69</ele>
        <time>2015-04-29T07:01:01Z</time>
      </trkpt>
      <trkpt lat="45.01392" lon="2.90386">
        <ele>1166.98</ele>
        <time>2015-04-29T07:01:11Z</time>
      </trkpt>
      <trkpt lat="45.01404" lon="2.90377">
        <ele>1167.98</ele>
        <time>2015-04-29T07:01:21Z</time>
      </trkpt>
      <trkpt lat="45.01415" lon="2.9037">
        <ele>1167.99</ele>
        <time>2015-04-29T07:01:31Z</time>
      </trkpt>
      <trkpt lat="45.01429" lon="2.90362">
        <ele>1168.75</ele>
        <time>2015-04-29T07:01:41Z</time>
      </trkpt>
      <trkpt lat="45.0144" lon="2.90355">
        <ele>1169</ele>
        <time>2015-04-29T07:01:51Z</time>
      </trkpt>
      <trkpt lat="45.0145" lon="2.90347">
        <ele>1171</ele>
        <time>2015-04-29T07:02:01Z</time>
      </trkpt>
      <trkpt lat="45.01461" lon="2.90339">
        <ele>1169.25</ele>
        <time>2015-04-29T07:02:11Z</time>
      </trkpt>
      <trkpt lat="45.01472" lon="2.9033">
        <ele>1168.25</ele>
        <time>2015-04-29T07:02:21Z</time>
      </trkpt>
      <trkpt lat="45.01523" lon="2.90291">
        <ele>1175.25</ele>
        <time>2015-04-29T07:02:58Z</time>
      </trkpt>
      <trkpt lat="45.01529" lon="2.90285">
        <ele>1173.98</ele>
        <time>2015-04-29T07:03:08Z</time>
      </trkpt>
      <trkpt lat="45.01538" lon="2.90275">
        <ele>1171.85</ele>
        <time>2015-04-29T07:03:18Z</time>
      </trkpt>
      <trkpt lat="45.01547" lon="2.90268">
        <ele>1171.98</ele>
        <time>2015-04-29T07:03:28Z</time>
      </trkpt>
      <trkpt lat="45.01557" lon="2.90256">
        <ele>1172.25</ele>
        <time>2015-04-29T07:03:38Z</time>
      </trkpt>
      <trkpt lat="45.01567" lon="2.90247">
        <ele>1171.21</ele>
        <time>2015-04-29T07:03:48Z</time>
      </trkpt>
      <trkpt lat="45.01577" lon="2.90241">
        <ele>1170.25</ele>
        <time>2015-04-29T07:03:58Z</time>
      </trkpt>
      <trkpt lat="45.01587" lon="2.90232">
        <ele>1170.25</ele>
        <time>2015-04-29T07:04:08Z</time>
      </trkpt>
      <trkpt lat="45.01592" lon="2.90224">
        <ele>1171.99</ele>
        <time>2015-04-29T07:04:18Z</time>
      </trkpt>
      <trkpt lat="45.01604" lon="2.9021">
        <ele>1172</ele>
        <time>2015-04-29T07:04:28Z</time>
      </trkpt>
      <trkpt lat="45.01617" lon="2.90197">
        <ele>1171.49</ele>
        <time>2015-04-29T07:04:38Z</time>
      </trkpt>
      <trkpt lat="45.0163" lon="2.90184">
        <ele>1171.73</ele>
        <time>2015-04-29T07:04:48Z</time>
      </trkpt>
      <trkpt lat="45.01643" lon="2.90177">
        <ele>1172.75</ele>
        <time>2015-04-29T07:04:58Z</time>
      </trkpt>
      <trkpt lat="45.01655" lon="2.90169">
        <ele>1173.06</ele>
        <time>2015-04-29T07:05:08Z</time>
      </trkpt>
      <trkpt lat="45.01667" lon="2.9016">
        <ele>1179.73</ele>
        <time>2015-04-29T07:05:18Z</time>
      </trkpt>
      <trkpt lat="45.0168" lon="2.90147">
        <ele>1182.92</ele>
        <time>2015-04-29T07:05:28Z</time>
      </trkpt>
      <trkpt lat="45.01691" lon="2.90138">
        <ele>1182.93</ele>
        <time>2015-04-29T07:05:38Z</time>
      </trkpt>
      <trkpt lat="45.01702" lon="2.90128">
        <ele>1181.94</ele>
        <time>2015-04-29T07:05:48Z</time>
      </trkpt>
      <trkpt lat="45.0171" lon="2.90117">
        <ele>1175.79</ele>
        <time>2015-04-29T07:05:58Z</time>
      </trkpt>
      <trkpt lat="45.01722" lon="2.90111">
        <ele>1177</ele>
        <time>2015-04-29T07:06:08Z</time>
      </trkpt>
      <trkpt lat="45.01735" lon="2.90103">
        <ele>1176.31</ele>
        <time>2015-04-29T07:06:18Z</time>
      </trkpt>
      <trkpt lat="45.01747" lon="2.90095">
        <ele>1174.25</ele>
        <time>2015-04-29T07:06:28Z</time>
      </trkpt>
      <trkpt lat="45.0176" lon="2.90091">
        <ele>1170.04</ele>
        <time>2015-04-29T07:06:38Z</time>
      </trkpt>
      <trkpt lat="45.01775" lon="2.90093">
        <ele>1173.5</ele>
        <time>2015-04-29T07:06:48Z</time>
      </trkpt>
      <trkpt lat="45.01781" lon="2.90095">
        <ele>1171.75</ele>
        <time>2015-04-29T07:06:58Z</time>
      </trkpt>
      <trkpt lat="45.01791" lon="2.90103">
        <ele>1174.93</ele>
        <time>2015-04-29T07:07:08Z</time>
      </trkpt>
      <trkpt lat="45.018" lon="2.90105">
        <ele>1177.66</ele>
        <time>2015-04-29T07:07:18Z</time>
      </trkpt>
      <trkpt lat="45.01806" lon="2.90105">
        <ele>1178.75</ele>
        <time>2015-04-29T07:07:28Z</time>
      </trkpt>
      <trkpt lat="45.01808" lon="2.90105">
        <ele>1178.94</ele>
        <time>2015-04-29T07:08:00Z</time>
      </trkpt>
      <trkpt lat="45.01819" lon="2.90095">
        <ele>1180.97</ele>
        <time>2015-04-29T07:08:10Z</time>
      </trkpt>
      <trkpt lat="45.01831" lon="2.90081">
        <ele>1183.7</ele>
        <time>2015-04-29T07:08:20Z</time>
      </trkpt>
      <trkpt lat="45.01843" lon="2.90072">
        <ele>1182.68</ele>
        <time>2015-04-29T07:08:30Z</time>
      </trkpt>
      <trkpt lat="45.01854" lon="2.90064">
        <ele>1179.31</ele>
        <time>2015-04-29T07:08:40Z</time>
      </trkpt>
      <trkpt lat="45.01865" lon="2.90062">
        <ele>1177.02</ele>
        <time>2015-04-29T07:08:50Z</time>
      </trkpt>
      <trkpt lat="45.01878" lon="2.90056">
        <ele>1181.73</ele>
        <time>2015-04-29T07:09:00Z</time>
      </trkpt>
      <trkpt lat="45.01892" lon="2.90052">
        <ele>1178.69</ele>
        <time>2015-04-29T07:09:10Z</time>
      </trkpt>
      <trkpt lat="45.01902" lon="2.9005">
        <ele>1183.17</ele>
        <time>2015-04-29T07:09:20Z</time>
      </trkpt>
      <trkpt lat="45.01903" lon="2.90051">
        <ele>1185.94</ele>
        <time>2015-04-29T07:09:32Z</time>
      </trkpt>
      <trkpt lat="45.01905" lon="2.90051">
        <ele>1186</ele>
        <time>2015-04-29T07:09:45Z</time>
      </trkpt>
      <trkpt lat="45.01922" lon="2.9004">
        <ele>1185.31</ele>
        <time>2015-04-29T07:09:55Z</time>
      </trkpt>
      <trkpt lat="45.01936" lon="2.90032">
        <ele>1188.98</ele>
        <time>2015-04-29T07:10:05Z</time>
      </trkpt>
      <trkpt lat="45.01937" lon="2.90031">
        <ele>1190.75</ele>
        <time>2015-04-29T07:10:15Z</time>
      </trkpt>
      <trkpt lat="45.01938" lon="2.9003">
        <ele>1191</ele>
        <time>2015-04-29T07:10:29Z</time>
      </trkpt>
      <trkpt lat="45.01948" lon="2.90022">
        <ele>1188</ele>
        <time>2015-04-29T07:10:39Z</time>
      </trkpt>
      <trkpt lat="45.0196" lon="2.90013">
        <ele>1189.98</ele>
        <time>2015-04-29T07:10:49Z</time>
      </trkpt>
      <trkpt lat="45.01972" lon="2.90003">
        <ele>1189</ele>
        <time>2015-04-29T07:10:59Z</time>
      </trkpt>
      <trkpt lat="45.01982" lon="2.89989">
        <ele>1190.67</ele>
        <time>2015-04-29T07:11:09Z</time>
      </trkpt>
      <trkpt lat="45.01994" lon="2.89978">
        <ele>1189.94</ele>
        <time>2015-04-29T07:11:19Z</time>
      </trkpt>
      <trkpt lat="45.02006" lon="2.89966">
        <ele>1189.27</ele>
        <time>2015-04-29T07:11:29Z</time>
      </trkpt>
      <trkpt lat="45.02017" lon="2.89956">
        <ele>1189</ele>
        <time>2015-04-29T07:11:39Z</time>
      </trkpt>
      <trkpt lat="45.02026" lon="2.89943">
        <ele>1189.08</ele>
        <time>2015-04-29T07:11:49Z</time>
      </trkpt>
      <trkpt lat="45.02036" lon="2.89934">
        <ele>1190.81</ele>
        <time>2015-04-29T07:11:59Z</time>
      </trkpt>
      <trkpt lat="45.02038" lon="2.89931">
        <ele>1190</ele>
        <time>2015-04-29T07:12:09Z</time>
      </trkpt>
      <trkpt lat="45.02039" lon="2.89931">
        <ele>1191</ele>
        <time>2015-04-29T07:12:24Z</time>
      </trkpt>
      <trkpt lat="45.02041" lon="2.89929">
        <ele>1191.75</ele>
        <time>2015-04-29T07:14:26Z</time>
      </trkpt>
      <trkpt lat="45.02051" lon="2.89919">
        <ele>1190.79</ele>
        <time>2015-04-29T07:14:36Z</time>
      </trkpt>
      <trkpt lat="45.02059" lon="2.8991">
        <ele>1186.07</ele>
        <time>2015-04-29T07:14:46Z</time>
      </trkpt>
      <trkpt lat="45.02067" lon="2.89897">
        <ele>1186.06</ele>
        <time>2015-04-29T07:14:56Z</time>
      </trkpt>
      <trkpt lat="45.02076" lon="2.89883">
        <ele>1188.25</ele>
        <time>2015-04-29T07:15:06Z</time>
      </trkpt>
      <trkpt lat="45.02084" lon="2.89865">
        <ele>1184.02</ele>
        <time>2015-04-29T07:15:16Z</time>
      </trkpt>
      <trkpt lat="45.02093" lon="2.8985">
        <ele>1183.28</ele>
        <time>2015-04-29T07:15:26Z</time>
      </trkpt>
      <trkpt lat="45.02101" lon="2.89838">
        <ele>1183.94</ele>
        <time>2015-04-29T07:15:36Z</time>
      </trkpt>
      <trkpt lat="45.02112" lon="2.89822">
        <ele>1183.94</ele>
        <time>2015-04-29T07:15:46Z</time>
      </trkpt>
      <trkpt lat="45.02122" lon="2.89807">
        <ele>1183.27</ele>
        <time>2015-04-29T07:15:56Z</time>
      </trkpt>
      <trkpt lat="45.02128" lon="2.89793">
        <ele>1180.39</ele>
        <time>2015-04-29T07:16:06Z</time>
      </trkpt>
      <trkpt lat="45.02139" lon="2.89777">
        <ele>1180.75</ele>
        <time>2015-04-29T07:16:16Z</time>
      </trkpt>
      <trkpt lat="45.02147" lon="2.89768">
        <ele>1179.07</ele>
        <time>2015-04-29T07:16:26Z</time>
      </trkpt>
      <trkpt lat="45.02154" lon="2.89752">
        <ele>1179.25</ele>
        <time>2015-04-29T07:16:36Z</time>
      </trkpt>
      <trkpt lat="45.02161" lon="2.89735">
        <ele>1179.2</ele>
        <time>2015-04-29T07:16:46Z</time>
      </trkpt>
      <trkpt lat="45.02167" lon="2.89717">
        <ele>1178.06</ele>
        <time>2015-04-29T07:16:56Z</time>
      </trkpt>
      <trkpt lat="45.0217" lon="2.89697">
        <ele>1182.77</ele>
        <time>2015-04-29T07:17:06Z</time>
      </trkpt>
      <trkpt lat="45.02178" lon="2.89684">
        <ele>1178.2</ele>
        <time>2015-04-29T07:17:16Z</time>
      </trkpt>
      <trkpt lat="45.02179" lon="2.89666">
        <ele>1178.75</ele>
        <time>2015-04-29T07:17:26Z</time>
      </trkpt>
      <trkpt lat="45.02179" lon="2.89644">
        <ele>1174.99</ele>
        <time>2015-04-29T07:17:36Z</time>
      </trkpt>
      <trkpt lat="45.02177" lon="2.89624">
        <ele>1179.13</ele>
        <time>2015-04-29T07:17:46Z</time>
      </trkpt>
      <trkpt lat="45.0218" lon="2.8961">
        <ele>1179.96</ele>
        <time>2015-04-29T07:17:56Z</time>
      </trkpt>
      <trkpt lat="45.02181" lon="2.89595">
        <ele>1178.75</ele>
        <time>2015-04-29T07:18:06Z</time>
      </trkpt>
      <trkpt lat="45.02185" lon="2.89578">
        <ele>1175.02</ele>
        <time>2015-04-29T07:18:16Z</time>
      </trkpt>
      <trkpt lat="45.02189" lon="2.8956">
        <ele>1168.83</ele>
        <time>2015-04-29T07:18:26Z</time>
      </trkpt>
      <trkpt lat="45.02199" lon="2.89546">
        <ele>1175.43</ele>
        <time>2015-04-29T07:18:36Z</time>
      </trkpt>
      <trkpt lat="45.02213" lon="2.89549">
        <ele>1174.25</ele>
        <time>2015-04-29T07:18:46Z</time>
      </trkpt>
      <trkpt lat="45.02215" lon="2.89549">
        <ele>1172</ele>
        <time>2015-04-29T07:18:56Z</time>
      </trkpt>
      <trkpt lat="45.02216" lon="2.89551">
        <ele>1172.05</ele>
        <time>2015-04-29T07:19:10Z</time>
      </trkpt>
      <trkpt lat="45.02224" lon="2.89566">
        <ele>1173.81</ele>
        <time>2015-04-29T07:19:20Z</time>
      </trkpt>
      <trkpt lat="45.02226" lon="2.89585">
        <ele>1176.75</ele>
        <time>2015-04-29T07:19:30Z</time>
      </trkpt>
      <trkpt lat="45.02231" lon="2.89601">
        <ele>1177</ele>
        <time>2015-04-29T07:19:40Z</time>
      </trkpt>
      <trkpt lat="45.0224" lon="2.89619">
        <ele>1178.57</ele>
        <time>2015-04-29T07:19:50Z</time>
      </trkpt>
      <trkpt lat="45.02247" lon="2.89639">
        <ele>1179.06</ele>
        <time>2015-04-29T07:20:00Z</time>
      </trkpt>
      <trkpt lat="45.02257" lon="2.89655">
        <ele>1180.69</ele>
        <time>2015-04-29T07:20:10Z</time>
      </trkpt>
      <trkpt lat="45.02269" lon="2.8966">
        <ele>1182.05</ele>
        <time>2015-04-29T07:20:20Z</time>
      </trkpt>
      <trkpt lat="45.02282" lon="2.89662">
        <ele>1181.43</ele>
        <time>2015-04-29T07:20:30Z</time>
      </trkpt>
      <trkpt lat="45.0229" lon="2.8967">
        <ele>1179.04</ele>
        <time>2015-04-29T07:20:40Z</time>
      </trkpt>
      <trkpt lat="45.02297" lon="2.8968">
        <ele>1179.75</ele>
        <time>2015-04-29T07:20:50Z</time>
      </trkpt>
      <trkpt lat="45.02307" lon="2.89688">
        <ele>1184.98</ele>
        <time>2015-04-29T07:21:00Z</time>
      </trkpt>
      <trkpt lat="45.02309" lon="2.89692">
        <ele>1184.81</ele>
        <time>2015-04-29T07:21:10Z</time>
      </trkpt>
      <trkpt lat="45.02314" lon="2.89707">
        <ele>1183.36</ele>
        <time>2015-04-29T07:21:20Z</time>
      </trkpt>
      <trkpt lat="45.02321" lon="2.89716">
        <ele>1180</ele>
        <time>2015-04-29T07:21:30Z</time>
      </trkpt>
      <trkpt lat="45.02327" lon="2.89735">
        <ele>1182.94</ele>
        <time>2015-04-29T07:21:40Z</time>
      </trkpt>
      <trkpt lat="45.02329" lon="2.89753">
        <ele>1184.75</ele>
        <time>2015-04-29T07:21:50Z</time>
      </trkpt>
      <trkpt lat="45.02332" lon="2.89774">
        <ele>1188.75</ele>
        <time>2015-04-29T07:22:00Z</time>
      </trkpt>
      <trkpt lat="45.02341" lon="2.89791">
        <ele>1190</ele>
        <time>2015-04-29T07:22:10Z</time>
      </trkpt>
      <trkpt lat="45.0235" lon="2.89803">
        <ele>1187.25</ele>
        <time>2015-04-29T07:22:20Z</time>
      </trkpt>
      <trkpt lat="45.02357" lon="2.89818">
        <ele>1186</ele>
        <time>2015-04-29T07:22:30Z</time>
      </trkpt>
      <trkpt lat="45.0236" lon="2.89832">
        <ele>1185.75</ele>
        <time>2015-04-29T07:22:40Z</time>
      </trkpt>
      <trkpt lat="45.02367" lon="2.89847">
        <ele>1184.75</ele>
        <time>2015-04-29T07:22:50Z</time>
      </trkpt>
      <trkpt lat="45.02375" lon="2.89862">
        <ele>1186.75</ele>
        <time>2015-04-29T07:23:00Z</time>
      </trkpt>
      <trkpt lat="45.0238" lon="2.89874">
        <ele>1187</ele>
        <time>2015-04-29T07:23:10Z</time>
      </trkpt>
      <trkpt lat="45.02391" lon="2.89887">
        <ele>1190.92</ele>
        <time>2015-04-29T07:23:20Z</time>
      </trkpt>
      <trkpt lat="45.02396" lon="2.89883">
        <ele>1187.25</ele>
        <time>2015-04-29T07:23:30Z</time>
      </trkpt>
      <trkpt lat="45.02401" lon="2.89866">
        <ele>1187</ele>
        <time>2015-04-29T07:23:40Z</time>
      </trkpt>
      <trkpt lat="45.02403" lon="2.89849">
        <ele>1187.25</ele>
        <time>2015-04-29T07:23:50Z</time>
      </trkpt>
      <trkpt lat="45.02403" lon="2.89834">
        <ele>1188.94</ele>
        <time>2015-04-29T07:24:00Z</time>
      </trkpt>
      <trkpt lat="45.02403" lon="2.89817">
        <ele>1188.73</ele>
        <time>2015-04-29T07:24:10Z</time>
      </trkpt>
      <trkpt lat="45.02403" lon="2.89798">
        <ele>1191.75</ele>
        <time>2015-04-29T07:24:20Z</time>
      </trkpt>
      <trkpt lat="45.02404" lon="2.8978">
        <ele>1195.06</ele>
        <time>2015-04-29T07:24:30Z</time>
      </trkpt>
      <trkpt lat="45.0241" lon="2.8977">
        <ele>1197.79</ele>
        <time>2015-04-29T07:24:40Z</time>
      </trkpt>
      <trkpt lat="45.02414" lon="2.89756">
        <ele>1194.77</ele>
        <time>2015-04-29T07:24:50Z</time>
      </trkpt>
      <trkpt lat="45.02414" lon="2.89741">
        <ele>1193.25</ele>
        <time>2015-04-29T07:25:00Z</time>
      </trkpt>
      <trkpt lat="45.02414" lon="2.89727">
        <ele>1190</ele>
        <time>2015-04-29T07:25:10Z</time>
      </trkpt>
      <trkpt lat="45.02413" lon="2.89709">
        <ele>1190.25</ele>
        <time>2015-04-29T07:25:20Z</time>
      </trkpt>
      <trkpt lat="45.02416" lon="2.89695">
        <ele>1190.98</ele>
        <time>2015-04-29T07:25:30Z</time>
      </trkpt>
      <trkpt lat="45.02415" lon="2.89674">
        <ele>1196.62</ele>
        <time>2015-04-29T07:25:40Z</time>
      </trkpt>
      <trkpt lat="45.02416" lon="2.89659">
        <ele>1198.61</ele>
        <time>2015-04-29T07:25:50Z</time>
      </trkpt>
      <trkpt lat="45.02416" lon="2.89641">
        <ele>1204.19</ele>
        <time>2015-04-29T07:26:00Z</time>
      </trkpt>
      <trkpt lat="45.02418" lon="2.89622">
        <ele>1205.11</ele>
        <time>2015-04-29T07:26:10Z</time>
      </trkpt>
      <trkpt lat="45.02419" lon="2.89606">
        <ele>1205.81</ele>
        <time>2015-04-29T07:26:20Z</time>
      </trkpt>
      <trkpt lat="45.02416" lon="2.89589">
        <ele>1205.2</ele>
        <time>2015-04-29T07:26:30Z</time>
      </trkpt>
      <trkpt lat="45.02417" lon="2.89573">
        <ele>1210.02</ele>
        <time>2015-04-29T07:26:40Z</time>
      </trkpt>
      <trkpt lat="45.02413" lon="2.8956">
        <ele>1208.24</ele>
        <time>2015-04-29T07:26:50Z</time>
      </trkpt>
      <trkpt lat="45.0241" lon="2.89542">
        <ele>1207.02</ele>
        <time>2015-04-29T07:27:00Z</time>
      </trkpt>
      <trkpt lat="45.02406" lon="2.89523">
        <ele>1208</ele>
        <time>2015-04-29T07:27:10Z</time>
      </trkpt>
      <trkpt lat="45.02407" lon="2.89508">
        <ele>1206.05</ele>
        <time>2015-04-29T07:27:20Z</time>
      </trkpt>
      <trkpt lat="45.02407" lon="2.89492">
        <ele>1208.02</ele>
        <time>2015-04-29T07:27:30Z</time>
      </trkpt>
      <trkpt lat="45.02407" lon="2.89474">
        <ele>1205.74</ele>
        <time>2015-04-29T07:27:40Z</time>
      </trkpt>
      <trkpt lat="45.02408" lon="2.89456">
        <ele>1209.67</ele>
        <time>2015-04-29T07:27:50Z</time>
      </trkpt>
      <trkpt lat="45.0241" lon="2.89436">
        <ele>1210.01</ele>
        <time>2015-04-29T07:28:00Z</time>
      </trkpt>
      <trkpt lat="45.02413" lon="2.89415">
        <ele>1209.08</ele>
        <time>2015-04-29T07:28:10Z</time>
      </trkpt>
      <trkpt lat="45.02416" lon="2.89397">
        <ele>1210.2</ele>
        <time>2015-04-29T07:28:20Z</time>
      </trkpt>
      <trkpt lat="45.02419" lon="2.89383">
        <ele>1211.17</ele>
        <time>2015-04-29T07:28:30Z</time>
      </trkpt>
      <trkpt lat="45.0242" lon="2.89368">
        <ele>1212</ele>
        <time>2015-04-29T07:28:40Z</time>
      </trkpt>
      <trkpt lat="45.02423" lon="2.8935">
        <ele>1214.69</ele>
        <time>2015-04-29T07:28:50Z</time>
      </trkpt>
      <trkpt lat="45.02425" lon="2.89332">
        <ele>1213.74</ele>
        <time>2015-04-29T07:29:00Z</time>
      </trkpt>
      <trkpt lat="45.02427" lon="2.89312">
        <ele>1215.02</ele>
        <time>2015-04-29T07:29:10Z</time>
      </trkpt>
      <trkpt lat="45.02428" lon="2.89296">
        <ele>1216</ele>
        <time>2015-04-29T07:29:20Z</time>
      </trkpt>
      <trkpt lat="45.02428" lon="2.89281">
        <ele>1217.06</ele>
        <time>2015-04-29T07:29:30Z</time>
      </trkpt>
      <trkpt lat="45.02428" lon="2.89266">
        <ele>1217.73</ele>
        <time>2015-04-29T07:29:40Z</time>
      </trkpt>
      <trkpt lat="45.02427" lon="2.89249">
        <ele>1218</ele>
        <time>2015-04-29T07:29:50Z</time>
      </trkpt>
      <trkpt lat="45.02428" lon="2.89232">
        <ele>1216.27</ele>
        <time>2015-04-29T07:30:00Z</time>
      </trkpt>
      <trkpt lat="45.02429" lon="2.89218">
        <ele>1217.98</ele>
        <time>2015-04-29T07:30:10Z</time>
      </trkpt>
      <trkpt lat="45.0243" lon="2.89203">
        <ele>1220.75</ele>
        <time>2015-04-29T07:30:20Z</time>
      </trkpt>
      <trkpt lat="45.02431" lon="2.89187">
        <ele>1221.99</ele>
        <time>2015-04-29T07:30:30Z</time>
      </trkpt>
      <trkpt lat="45.02432" lon="2.89171">
        <ele>1223.76</ele>
        <time>2015-04-29T07:30:40Z</time>
      </trkpt>
      <trkpt lat="45.02434" lon="2.89154">
        <ele>1226.92</ele>
        <time>2015-04-29T07:30:50Z</time>
      </trkpt>
      <trkpt lat="45.02438" lon="2.8914">
        <ele>1224</ele>
        <time>2015-04-29T07:31:00Z</time>
      </trkpt>
      <trkpt lat="45.02445" lon="2.89128">
        <ele>1223.93</ele>
        <time>2015-04-29T07:31:10Z</time>
      </trkpt>
      <trkpt lat="45.02454" lon="2.8912">
        <ele>1227.73</ele>
        <time>2015-04-29T07:31:20Z</time>
      </trkpt>
      <trkpt lat="45.02465" lon="2.89111">
        <ele>1232.72</ele>
        <time>2015-04-29T07:31:30Z</time>
      </trkpt>
      <trkpt lat="45.02477" lon="2.89107">
        <ele>1237.75</ele>
        <time>2015-04-29T07:31:40Z</time>
      </trkpt>
      <trkpt lat="45.02488" lon="2.89107">
        <ele>1237</ele>
        <time>2015-04-29T07:31:50Z</time>
      </trkpt>
      <trkpt lat="45.02497" lon="2.89101">
        <ele>1238</ele>
        <time>2015-04-29T07:32:00Z</time>
      </trkpt>
      <trkpt lat="45.02505" lon="2.89089">
        <ele>1240.28</ele>
        <time>2015-04-29T07:32:10Z</time>
      </trkpt>
      <trkpt lat="45.02514" lon="2.89076">
        <ele>1241.06</ele>
        <time>2015-04-29T07:32:20Z</time>
      </trkpt>
      <trkpt lat="45.02523" lon="2.89063">
        <ele>1244.96</ele>
        <time>2015-04-29T07:32:30Z</time>
      </trkpt>
      <trkpt lat="45.02525" lon="2.89053">
        <ele>1247.19</ele>
        <time>2015-04-29T07:32:40Z</time>
      </trkpt>
      <trkpt lat="45.02528" lon="2.89048">
        <ele>1244.27</ele>
        <time>2015-04-29T07:32:50Z</time>
      </trkpt>
      <trkpt lat="45.02537" lon="2.89029">
        <ele>1241.32</ele>
        <time>2015-04-29T07:33:00Z</time>
      </trkpt>
      <trkpt lat="45.02544" lon="2.89012">
        <ele>1240</ele>
        <time>2015-04-29T07:33:10Z</time>
      </trkpt>
      <trkpt lat="45.0255" lon="2.88999">
        <ele>1241.02</ele>
        <time>2015-04-29T07:33:20Z</time>
      </trkpt>
      <trkpt lat="45.02548" lon="2.88991">
        <ele>1246.67</ele>
        <time>2015-04-29T07:33:30Z</time>
      </trkpt>
      <trkpt lat="45.02551" lon="2.88986">
        <ele>1245.75</ele>
        <time>2015-04-29T07:33:40Z</time>
      </trkpt>
      <trkpt lat="45.02554" lon="2.88966">
        <ele>1245</ele>
        <time>2015-04-29T07:33:50Z</time>
      </trkpt>
      <trkpt lat="45.0256" lon="2.88948">
        <ele>1246.79</ele>
        <time>2015-04-29T07:34:00Z</time>
      </trkpt>
      <trkpt lat="45.02562" lon="2.8893">
        <ele>1249.8</ele>
        <time>2015-04-29T07:34:10Z</time>
      </trkpt>
      <trkpt lat="45.02567" lon="2.88915">
        <ele>1250.94</ele>
        <time>2015-04-29T07:34:20Z</time>
      </trkpt>
      <trkpt lat="45.0257" lon="2.88902">
        <ele>1252.05</ele>
        <time>2015-04-29T07:34:30Z</time>
      </trkpt>
      <trkpt lat="45.02575" lon="2.88885">
        <ele>1250.2</ele>
        <time>2015-04-29T07:34:40Z</time>
      </trkpt>
      <trkpt lat="45.02582" lon="2.8887">
        <ele>1243.33</ele>
        <time>2015-04-29T07:34:50Z</time>
      </trkpt>
      <trkpt lat="45.02583" lon="2.8887">
        <ele>1243.75</ele>
        <time>2015-04-29T07:35:00Z</time>
      </trkpt>
      <trkpt lat="45.02583" lon="2.88868">
        <ele>1243</ele>
        <time>2015-04-29T07:35:10Z</time>
      </trkpt>
      <trkpt lat="45.02583" lon="2.88869">
        <ele>1243.14</ele>
        <time>2015-04-29T07:35:27Z</time>
      </trkpt>
      <trkpt lat="45.02583" lon="2.88867">
        <ele>1243.11</ele>
        <time>2015-04-29T07:35:39Z</time>
      </trkpt>
      <trkpt lat="45.02587" lon="2.88851">
        <ele>1244.99</ele>
        <time>2015-04-29T07:35:49Z</time>
      </trkpt>
      <trkpt lat="45.02591" lon="2.88833">
        <ele>1249.01</ele>
        <time>2015-04-29T07:35:59Z</time>
      </trkpt>
      <trkpt lat="45.02596" lon="2.88821">
        <ele>1253.79</ele>
        <time>2015-04-29T07:36:09Z</time>
      </trkpt>
      <trkpt lat="45.02596" lon="2.88811">
        <ele>1252.31</ele>
        <time>2015-04-29T07:36:19Z</time>
      </trkpt>
      <trkpt lat="45.02597" lon="2.888">
        <ele>1252</ele>
        <time>2015-04-29T07:36:29Z</time>
      </trkpt>
      <trkpt lat="45.02603" lon="2.88781">
        <ele>1252.86</ele>
        <time>2015-04-29T07:36:39Z</time>
      </trkpt>
      <trkpt lat="45.02605" lon="2.88759">
        <ele>1247.02</ele>
        <time>2015-04-29T07:36:49Z</time>
      </trkpt>
      <trkpt lat="45.02608" lon="2.88747">
        <ele>1244.99</ele>
        <time>2015-04-29T07:36:59Z</time>
      </trkpt>
      <trkpt lat="45.02608" lon="2.88745">
        <ele>1245</ele>
        <time>2015-04-29T07:37:09Z</time>
      </trkpt>
      <trkpt lat="45.02609" lon="2.88744">
        <ele>1245</ele>
        <time>2015-04-29T07:37:25Z</time>
      </trkpt>
      <trkpt lat="45.02614" lon="2.88727">
        <ele>1245</ele>
        <time>2015-04-29T07:37:35Z</time>
      </trkpt>
      <trkpt lat="45.0262" lon="2.88707">
        <ele>1245.92</ele>
        <time>2015-04-29T07:37:45Z</time>
      </trkpt>
      <trkpt lat="45.02626" lon="2.8869">
        <ele>1242.08</ele>
        <time>2015-04-29T07:37:55Z</time>
      </trkpt>
      <trkpt lat="45.02631" lon="2.88675">
        <ele>1243.81</ele>
        <time>2015-04-29T07:38:05Z</time>
      </trkpt>
      <trkpt lat="45.02636" lon="2.88658">
        <ele>1243.8</ele>
        <time>2015-04-29T07:38:15Z</time>
      </trkpt>
      <trkpt lat="45.02643" lon="2.88631">
        <ele>1242.26</ele>
        <time>2015-04-29T07:38:25Z</time>
      </trkpt>
      <trkpt lat="45.02645" lon="2.88626">
        <ele>1242.65</ele>
        <time>2015-04-29T07:38:35Z</time>
      </trkpt>
      <trkpt lat="45.02647" lon="2.88613">
        <ele>1246.68</ele>
        <time>2015-04-29T07:38:45Z</time>
      </trkpt>
      <trkpt lat="45.02649" lon="2.88596">
        <ele>1247.95</ele>
        <time>2015-04-29T07:38:55Z</time>
      </trkpt>
      <trkpt lat="45.0265" lon="2.88578">
        <ele>1248.74</ele>
        <time>2015-04-29T07:39:05Z</time>
      </trkpt>
      <trkpt lat="45.02655" lon="2.88564">
        <ele>1245.95</ele>
        <time>2015-04-29T07:39:15Z</time>
      </trkpt>
      <trkpt lat="45.02659" lon="2.88544">
        <ele>1243.03</ele>
        <time>2015-04-29T07:39:25Z</time>
      </trkpt>
      <trkpt lat="45.02664" lon="2.88524">
        <ele>1242.48</ele>
        <time>2015-04-29T07:39:35Z</time>
      </trkpt>
      <trkpt lat="45.02671" lon="2.88512">
        <ele>1242.26</ele>
        <time>2015-04-29T07:39:45Z</time>
      </trkpt>
      <trkpt lat="45.02672" lon="2.88503">
        <ele>1243.73</ele>
        <time>2015-04-29T07:39:55Z</time>
      </trkpt>
      <trkpt lat="45.02677" lon="2.88476">
        <ele>1246.73</ele>
        <time>2015-04-29T07:40:05Z</time>
      </trkpt>
      <trkpt lat="45.0268" lon="2.88455">
        <ele>1249.25</ele>
        <time>2015-04-29T07:40:15Z</time>
      </trkpt>
      <trkpt lat="45.02685" lon="2.88437">
        <ele>1247.81</ele>
        <time>2015-04-29T07:40:25Z</time>
      </trkpt>
      <trkpt lat="45.02693" lon="2.8842">
        <ele>1244.97</ele>
        <time>2015-04-29T07:40:35Z</time>
      </trkpt>
      <trkpt lat="45.02695" lon="2.88402">
        <ele>1244</ele>
        <time>2015-04-29T07:40:45Z</time>
      </trkpt>
      <trkpt lat="45.02697" lon="2.88384">
        <ele>1245.27</ele>
        <time>2015-04-29T07:40:55Z</time>
      </trkpt>
      <trkpt lat="45.02703" lon="2.88371">
        <ele>1240.25</ele>
        <time>2015-04-29T07:41:05Z</time>
      </trkpt>
      <trkpt lat="45.02709" lon="2.88353">
        <ele>1235.01</ele>
        <time>2015-04-29T07:41:15Z</time>
      </trkpt>
      <trkpt lat="45.02714" lon="2.88333">
        <ele>1238.73</ele>
        <time>2015-04-29T07:41:25Z</time>
      </trkpt>
      <trkpt lat="45.02719" lon="2.88315">
        <ele>1236.3</ele>
        <time>2015-04-29T07:41:35Z</time>
      </trkpt>
      <trkpt lat="45.02721" lon="2.88297">
        <ele>1240.74</ele>
        <time>2015-04-29T07:41:45Z</time>
      </trkpt>
      <trkpt lat="45.02724" lon="2.8828">
        <ele>1244.73</ele>
        <time>2015-04-29T07:41:55Z</time>
      </trkpt>
      <trkpt lat="45.02731" lon="2.88258">
        <ele>1245.01</ele>
        <time>2015-04-29T07:42:05Z</time>
      </trkpt>
      <trkpt lat="45.02735" lon="2.88241">
        <ele>1245.06</ele>
        <time>2015-04-29T07:42:15Z</time>
      </trkpt>
      <trkpt lat="45.0274" lon="2.8822">
        <ele>1250.62</ele>
        <time>2015-04-29T07:42:25Z</time>
      </trkpt>
      <trkpt lat="45.02744" lon="2.88203">
        <ele>1250.02</ele>
        <time>2015-04-29T07:42:35Z</time>
      </trkpt>
      <trkpt lat="45.02748" lon="2.88186">
        <ele>1246.97</ele>
        <time>2015-04-29T07:42:45Z</time>
      </trkpt>
      <trkpt lat="45.02754" lon="2.88169">
        <ele>1246.02</ele>
        <time>2015-04-29T07:42:55Z</time>
      </trkpt>
      <trkpt lat="45.02757" lon="2.88153">
        <ele>1243.76</ele>
        <time>2015-04-29T07:43:05Z</time>
      </trkpt>
      <trkpt lat="45.02762" lon="2.88137">
        <ele>1248.91</ele>
        <time>2015-04-29T07:43:15Z</time>
      </trkpt>
      <trkpt lat="45.02767" lon="2.88118">
        <ele>1248</ele>
        <time>2015-04-29T07:43:25Z</time>
      </trkpt>
      <trkpt lat="45.02772" lon="2.88103">
        <ele>1250.8</ele>
        <time>2015-04-29T07:43:35Z</time>
      </trkpt>
      <trkpt lat="45.02776" lon="2.88085">
        <ele>1246.12</ele>
        <time>2015-04-29T07:43:45Z</time>
      </trkpt>
      <trkpt lat="45.02779" lon="2.88069">
        <ele>1246.19</ele>
        <time>2015-04-29T07:43:55Z</time>
      </trkpt>
      <trkpt lat="45.02784" lon="2.88054">
        <ele>1248.87</ele>
        <time>2015-04-29T07:44:05Z</time>
      </trkpt>
      <trkpt lat="45.02785" lon="2.88045">
        <ele>1250.02</ele>
        <time>2015-04-29T07:44:15Z</time>
      </trkpt>
      <trkpt lat="45.02789" lon="2.88029">
        <ele>1249.19</ele>
        <time>2015-04-29T07:44:25Z</time>
      </trkpt>
      <trkpt lat="45.02793" lon="2.88006">
        <ele>1251.69</ele>
        <time>2015-04-29T07:44:35Z</time>
      </trkpt>
      <trkpt lat="45.02796" lon="2.87993">
        <ele>1255</ele>
        <time>2015-04-29T07:44:45Z</time>
      </trkpt>
      <trkpt lat="45.02802" lon="2.87976">
        <ele>1256.95</ele>
        <time>2015-04-29T07:44:55Z</time>
      </trkpt>
      <trkpt lat="45.02807" lon="2.87957">
        <ele>1258.24</ele>
        <time>2015-04-29T07:45:05Z</time>
      </trkpt>
      <trkpt lat="45.02811" lon="2.8794">
        <ele>1254.14</ele>
        <time>2015-04-29T07:45:15Z</time>
      </trkpt>
      <trkpt lat="45.02814" lon="2.87925">
        <ele>1252.97</ele>
        <time>2015-04-29T07:45:25Z</time>
      </trkpt>
      <trkpt lat="45.02816" lon="2.87908">
        <ele>1263.99</ele>
        <time>2015-04-29T07:45:35Z</time>
      </trkpt>
      <trkpt lat="45.02822" lon="2.87902">
        <ele>1258.08</ele>
        <time>2015-04-29T07:45:45Z</time>
      </trkpt>
      <trkpt lat="45.02822" lon="2.879">
        <ele>1258</ele>
        <time>2015-04-29T07:45:55Z</time>
      </trkpt>
      <trkpt lat="45.02822" lon="2.87902">
        <ele>1258.93</ele>
        <time>2015-04-29T07:46:07Z</time>
      </trkpt>
      <trkpt lat="45.02825" lon="2.87908">
        <ele>1258</ele>
        <time>2015-04-29T07:46:17Z</time>
      </trkpt>
      <trkpt lat="45.02832" lon="2.87921">
        <ele>1260.73</ele>
        <time>2015-04-29T07:46:27Z</time>
      </trkpt>
      <trkpt lat="45.0284" lon="2.87932">
        <ele>1262.95</ele>
        <time>2015-04-29T07:46:37Z</time>
      </trkpt>
      <trkpt lat="45.02851" lon="2.87942">
        <ele>1265</ele>
        <time>2015-04-29T07:46:47Z</time>
      </trkpt>
      <trkpt lat="45.02859" lon="2.87948">
        <ele>1267.7</ele>
        <time>2015-04-29T07:46:57Z</time>
      </trkpt>
      <trkpt lat="45.0287" lon="2.87956">
        <ele>1270.73</ele>
        <time>2015-04-29T07:47:07Z</time>
      </trkpt>
      <trkpt lat="45.02884" lon="2.87967">
        <ele>1276.91</ele>
        <time>2015-04-29T07:47:17Z</time>
      </trkpt>
      <trkpt lat="45.02892" lon="2.87974">
        <ele>1276.25</ele>
        <time>2015-04-29T07:47:27Z</time>
      </trkpt>
      <trkpt lat="45.02904" lon="2.8798">
        <ele>1276.19</ele>
        <time>2015-04-29T07:47:37Z</time>
      </trkpt>
      <trkpt lat="45.02959" lon="2.87989">
        <ele>1281.75</ele>
        <time>2015-04-29T07:48:18Z</time>
      </trkpt>
      <trkpt lat="45.02961" lon="2.87996">
        <ele>1284.06</ele>
        <time>2015-04-29T07:48:28Z</time>
      </trkpt>
      <trkpt lat="45.02959" lon="2.87997">
        <ele>1283.19</ele>
        <time>2015-04-29T07:48:38Z</time>
      </trkpt>
      <trkpt lat="45.02972" lon="2.88005">
        <ele>1272.73</ele>
        <time>2015-04-29T07:48:48Z</time>
      </trkpt>
      <trkpt lat="45.02985" lon="2.8801">
        <ele>1271.51</ele>
        <time>2015-04-29T07:48:58Z</time>
      </trkpt>
      <trkpt lat="45.02995" lon="2.88014">
        <ele>1271.82</ele>
        <time>2015-04-29T07:49:08Z</time>
      </trkpt>
      <trkpt lat="45.0301" lon="2.88019">
        <ele>1273.28</ele>
        <time>2015-04-29T07:49:18Z</time>
      </trkpt>
      <trkpt lat="45.03025" lon="2.88023">
        <ele>1272.98</ele>
        <time>2015-04-29T07:49:28Z</time>
      </trkpt>
      <trkpt lat="45.03038" lon="2.88026">
        <ele>1272.82</ele>
        <time>2015-04-29T07:49:38Z</time>
      </trkpt>
      <trkpt lat="45.03051" lon="2.88029">
        <ele>1272.87</ele>
        <time>2015-04-29T07:49:48Z</time>
      </trkpt>
      <trkpt lat="45.03062" lon="2.88031">
        <ele>1274.69</ele>
        <time>2015-04-29T07:49:58Z</time>
      </trkpt>
      <trkpt lat="45.03071" lon="2.8803">
        <ele>1274</ele>
        <time>2015-04-29T07:50:08Z</time>
      </trkpt>
      <trkpt lat="45.03079" lon="2.88034">
        <ele>1275.04</ele>
        <time>2015-04-29T07:50:18Z</time>
      </trkpt>
      <trkpt lat="45.03087" lon="2.88033">
        <ele>1271.21</ele>
        <time>2015-04-29T07:50:28Z</time>
      </trkpt>
      <trkpt lat="45.03102" lon="2.88034">
        <ele>1277.04</ele>
        <time>2015-04-29T07:50:38Z</time>
      </trkpt>
      <trkpt lat="45.03111" lon="2.88035">
        <ele>1278.75</ele>
        <time>2015-04-29T07:50:48Z</time>
      </trkpt>
      <trkpt lat="45.03124" lon="2.88039">
        <ele>1278</ele>
        <time>2015-04-29T07:50:58Z</time>
      </trkpt>
      <trkpt lat="45.03139" lon="2.88042">
        <ele>1278.76</ele>
        <time>2015-04-29T07:51:08Z</time>
      </trkpt>
      <trkpt lat="45.03155" lon="2.88041">
        <ele>1275.17</ele>
        <time>2015-04-29T07:51:18Z</time>
      </trkpt>
      <trkpt lat="45.03168" lon="2.88046">
        <ele>1276.98</ele>
        <time>2015-04-29T07:51:28Z</time>
      </trkpt>
      <trkpt lat="45.03176" lon="2.88051">
        <ele>1275.06</ele>
        <time>2015-04-29T07:51:38Z</time>
      </trkpt>
      <trkpt lat="45.03175" lon="2.88052">
        <ele>1271</ele>
        <time>2015-04-29T07:51:48Z</time>
      </trkpt>
      <trkpt lat="45.03175" lon="2.8805">
        <ele>1272</ele>
        <time>2015-04-29T07:52:00Z</time>
      </trkpt>
      <trkpt lat="45.03184" lon="2.88051">
        <ele>1273.87</ele>
        <time>2015-04-29T07:52:10Z</time>
      </trkpt>
      <trkpt lat="45.03197" lon="2.88059">
        <ele>1272</ele>
        <time>2015-04-29T07:52:20Z</time>
      </trkpt>
      <trkpt lat="45.03206" lon="2.88065">
        <ele>1270.96</ele>
        <time>2015-04-29T07:52:30Z</time>
      </trkpt>
      <trkpt lat="45.03213" lon="2.88069">
        <ele>1271.8</ele>
        <time>2015-04-29T07:52:40Z</time>
      </trkpt>
      <trkpt lat="45.03261" lon="2.88051">
        <ele>1279.15</ele>
        <time>2015-04-29T07:53:20Z</time>
      </trkpt>
      <trkpt lat="45.03267" lon="2.88048">
        <ele>1281.06</ele>
        <time>2015-04-29T07:53:30Z</time>
      </trkpt>
      <trkpt lat="45.03275" lon="2.88037">
        <ele>1276.06</ele>
        <time>2015-04-29T07:53:40Z</time>
      </trkpt>
      <trkpt lat="45.03282" lon="2.88028">
        <ele>1272.95</ele>
        <time>2015-04-29T07:53:50Z</time>
      </trkpt>
      <trkpt lat="45.03284" lon="2.88026">
        <ele>1270.02</ele>
        <time>2015-04-29T07:54:00Z</time>
      </trkpt>
      <trkpt lat="45.03292" lon="2.88032">
        <ele>1274.06</ele>
        <time>2015-04-29T07:54:10Z</time>
      </trkpt>
      <trkpt lat="45.03304" lon="2.88041">
        <ele>1275.91</ele>
        <time>2015-04-29T07:54:20Z</time>
      </trkpt>
      <trkpt lat="45.033" lon="2.88015">
        <ele>1272.8</ele>
        <time>2015-04-29T07:54:30Z</time>
      </trkpt>
      <trkpt lat="45.03303" lon="2.87999">
        <ele>1268.63</ele>
        <time>2015-04-29T07:54:40Z</time>
      </trkpt>
      <trkpt lat="45.03313" lon="2.87992">
        <ele>1260.72</ele>
        <time>2015-04-29T07:54:50Z</time>
      </trkpt>
      <trkpt lat="45.03319" lon="2.87974">
        <ele>1263.05</ele>
        <time>2015-04-29T07:55:00Z</time>
      </trkpt>
      <trkpt lat="45.0333" lon="2.87957">
        <ele>1272.9</ele>
        <time>2015-04-29T07:55:10Z</time>
      </trkpt>
      <trkpt lat="45.03338" lon="2.87942">
        <ele>1276.05</ele>
        <time>2015-04-29T07:55:20Z</time>
      </trkpt>
      <trkpt lat="45.03348" lon="2.87924">
        <ele>1279</ele>
        <time>2015-04-29T07:55:30Z</time>
      </trkpt>
      <trkpt lat="45.03355" lon="2.87912">
        <ele>1281</ele>
        <time>2015-04-29T07:55:40Z</time>
      </trkpt>
      <trkpt lat="45.03361" lon="2.87899">
        <ele>1280.95</ele>
        <time>2015-04-29T07:55:50Z</time>
      </trkpt>
      <trkpt lat="45.03368" lon="2.87884">
        <ele>1279.27</ele>
        <time>2015-04-29T07:56:00Z</time>
      </trkpt>
      <trkpt lat="45.03376" lon="2.87873">
        <ele>1279</ele>
        <time>2015-04-29T07:56:10Z</time>
      </trkpt>
      <trkpt lat="45.03384" lon="2.87861">
        <ele>1278.94</ele>
        <time>2015-04-29T07:56:20Z</time>
      </trkpt>
      <trkpt lat="45.03393" lon="2.87848">
        <ele>1282.25</ele>
        <time>2015-04-29T07:56:30Z</time>
      </trkpt>
      <trkpt lat="45.03404" lon="2.87835">
        <ele>1275</ele>
        <time>2015-04-29T07:56:40Z</time>
      </trkpt>
      <trkpt lat="45.03412" lon="2.87824">
        <ele>1276.86</ele>
        <time>2015-04-29T07:56:50Z</time>
      </trkpt>
      <trkpt lat="45.03419" lon="2.87809">
        <ele>1275.06</ele>
        <time>2015-04-29T07:57:00Z</time>
      </trkpt>
      <trkpt lat="45.03423" lon="2.87797">
        <ele>1277.01</ele>
        <time>2015-04-29T07:57:10Z</time>
      </trkpt>
      <trkpt lat="45.03431" lon="2.87782">
        <ele>1279.98</ele>
        <time>2015-04-29T07:57:20Z</time>
      </trkpt>
      <trkpt lat="45.03429" lon="2.87766">
        <ele>1279.74</ele>
        <time>2015-04-29T07:57:30Z</time>
      </trkpt>
      <trkpt lat="45.03429" lon="2.8775">
        <ele>1277.96</ele>
        <time>2015-04-29T07:57:40Z</time>
      </trkpt>
      <trkpt lat="45.0342" lon="2.87664">
        <ele>1291.44</ele>
        <time>2015-04-29T07:58:20Z</time>
      </trkpt>
      <trkpt lat="45.03426" lon="2.87657">
        <ele>1292.11</ele>
        <time>2015-04-29T07:58:30Z</time>
      </trkpt>
      <trkpt lat="45.03426" lon="2.87646">
        <ele>1286.99</ele>
        <time>2015-04-29T07:58:40Z</time>
      </trkpt>
      <trkpt lat="45.0342" lon="2.87637">
        <ele>1284.81</ele>
        <time>2015-04-29T07:58:50Z</time>
      </trkpt>
      <trkpt lat="45.03417" lon="2.87627">
        <ele>1281.03</ele>
        <time>2015-04-29T07:59:00Z</time>
      </trkpt>
      <trkpt lat="45.03411" lon="2.87613">
        <ele>1286.73</ele>
        <time>2015-04-29T07:59:10Z</time>
      </trkpt>
      <trkpt lat="45.03405" lon="2.87598">
        <ele>1279.32</ele>
        <time>2015-04-29T07:59:20Z</time>
      </trkpt>
      <trkpt lat="45.03398" lon="2.87583">
        <ele>1278.44</ele>
        <time>2015-04-29T07:59:30Z</time>
      </trkpt>
      <trkpt lat="45.03391" lon="2.87572">
        <ele>1275.2</ele>
        <time>2015-04-29T07:59:40Z</time>
      </trkpt>
      <trkpt lat="45.03385" lon="2.87558">
        <ele>1275.06</ele>
        <time>2015-04-29T07:59:50Z</time>
      </trkpt>
      <trkpt lat="45.03377" lon="2.87537">
        <ele>1283.93</ele>
        <time>2015-04-29T08:00:00Z</time>
      </trkpt>
      <trkpt lat="45.03366" lon="2.87516">
        <ele>1293.69</ele>
        <time>2015-04-29T08:00:10Z</time>
      </trkpt>
      <trkpt lat="45.0336" lon="2.875">
        <ele>1288.33</ele>
        <time>2015-04-29T08:00:20Z</time>
      </trkpt>
      <trkpt lat="45.03356" lon="2.87486">
        <ele>1288.08</ele>
        <time>2015-04-29T08:00:30Z</time>
      </trkpt>
      <trkpt lat="45.03356" lon="2.87475">
        <ele>1287.19</ele>
        <time>2015-04-29T08:00:40Z</time>
      </trkpt>
      <trkpt lat="45.03357" lon="2.87472">
        <ele>1288.98</ele>
        <time>2015-04-29T08:00:50Z</time>
      </trkpt>
      <trkpt lat="45.03357" lon="2.87459">
        <ele>1290</ele>
        <time>2015-04-29T08:01:00Z</time>
      </trkpt>
      <trkpt lat="45.03358" lon="2.87443">
        <ele>1291.57</ele>
        <time>2015-04-29T08:01:10Z</time>
      </trkpt>
      <trkpt lat="45.03359" lon="2.87426">
        <ele>1287.06</ele>
        <time>2015-04-29T08:01:20Z</time>
      </trkpt>
      <trkpt lat="45.03359" lon="2.87409">
        <ele>1290.67</ele>
        <time>2015-04-29T08:01:30Z</time>
      </trkpt>
      <trkpt lat="45.03357" lon="2.8739">
        <ele>1295.05</ele>
        <time>2015-04-29T08:01:40Z</time>
      </trkpt>
      <trkpt lat="45.03355" lon="2.87372">
        <ele>1297</ele>
        <time>2015-04-29T08:01:50Z</time>
      </trkpt>
      <trkpt lat="45.03352" lon="2.87355">
        <ele>1299.98</ele>
        <time>2015-04-29T08:02:00Z</time>
      </trkpt>
      <trkpt lat="45.03348" lon="2.87339">
        <ele>1300.96</ele>
        <time>2015-04-29T08:02:10Z</time>
      </trkpt>
      <trkpt lat="45.03346" lon="2.87324">
        <ele>1302.69</ele>
        <time>2015-04-29T08:02:20Z</time>
      </trkpt>
      <trkpt lat="45.03343" lon="2.87308">
        <ele>1301</ele>
        <time>2015-04-29T08:02:30Z</time>
      </trkpt>
      <trkpt lat="45.03341" lon="2.87294">
        <ele>1300.97</ele>
        <time>2015-04-29T08:02:40Z</time>
      </trkpt>
      <trkpt lat="45.03335" lon="2.87231">
        <ele>1303.98</ele>
        <time>2015-04-29T08:03:20Z</time>
      </trkpt>
      <trkpt lat="45.03342" lon="2.87205">
        <ele>1313.3</ele>
        <time>2015-04-29T08:03:30Z</time>
      </trkpt>
      <trkpt lat="45.03339" lon="2.87194">
        <ele>1304.2</ele>
        <time>2015-04-29T08:03:40Z</time>
      </trkpt>
      <trkpt lat="45.03337" lon="2.87188">
        <ele>1294.87</ele>
        <time>2015-04-29T08:03:50Z</time>
      </trkpt>
      <trkpt lat="45.03337" lon="2.87178">
        <ele>1287.01</ele>
        <time>2015-04-29T08:04:00Z</time>
      </trkpt>
      <trkpt lat="45.03332" lon="2.87163">
        <ele>1286.58</ele>
        <time>2015-04-29T08:04:10Z</time>
      </trkpt>
      <trkpt lat="45.03331" lon="2.87146">
        <ele>1287.69</ele>
        <time>2015-04-29T08:04:20Z</time>
      </trkpt>
      <trkpt lat="45.0333" lon="2.87124">
        <ele>1290</ele>
        <time>2015-04-29T08:04:30Z</time>
      </trkpt>
      <trkpt lat="45.03328" lon="2.87108">
        <ele>1293.94</ele>
        <time>2015-04-29T08:04:40Z</time>
      </trkpt>
      <trkpt lat="45.03327" lon="2.87099">
        <ele>1299.73</ele>
        <time>2015-04-29T08:04:50Z</time>
      </trkpt>
      <trkpt lat="45.03326" lon="2.87085">
        <ele>1303.91</ele>
        <time>2015-04-29T08:05:00Z</time>
      </trkpt>
      <trkpt lat="45.03325" lon="2.87069">
        <ele>1301.02</ele>
        <time>2015-04-29T08:05:10Z</time>
      </trkpt>
      <trkpt lat="45.03321" lon="2.87047">
        <ele>1306</ele>
        <time>2015-04-29T08:05:20Z</time>
      </trkpt>
      <trkpt lat="45.03316" lon="2.8703">
        <ele>1308.99</ele>
        <time>2015-04-29T08:05:30Z</time>
      </trkpt>
      <trkpt lat="45.03312" lon="2.8702">
        <ele>1305.27</ele>
        <time>2015-04-29T08:05:40Z</time>
      </trkpt>
      <trkpt lat="45.0331" lon="2.87009">
        <ele>1304.25</ele>
        <time>2015-04-29T08:05:50Z</time>
      </trkpt>
      <trkpt lat="45.03309" lon="2.86993">
        <ele>1303.08</ele>
        <time>2015-04-29T08:06:00Z</time>
      </trkpt>
      <trkpt lat="45.03309" lon="2.86979">
        <ele>1297.31</ele>
        <time>2015-04-29T08:06:10Z</time>
      </trkpt>
      <trkpt lat="45.03309" lon="2.86959">
        <ele>1297.7</ele>
        <time>2015-04-29T08:06:20Z</time>
      </trkpt>
      <trkpt lat="45.03306" lon="2.8693">
        <ele>1312.85</ele>
        <time>2015-04-29T08:06:30Z</time>
      </trkpt>
      <trkpt lat="45.03302" lon="2.86906">
        <ele>1315.8</ele>
        <time>2015-04-29T08:06:40Z</time>
      </trkpt>
      <trkpt lat="45.03303" lon="2.86892">
        <ele>1316.06</ele>
        <time>2015-04-29T08:06:50Z</time>
      </trkpt>
      <trkpt lat="45.03305" lon="2.86877">
        <ele>1311.09</ele>
        <time>2015-04-29T08:07:00Z</time>
      </trkpt>
      <trkpt lat="45.03304" lon="2.86856">
        <ele>1312.8</ele>
        <time>2015-04-29T08:07:10Z</time>
      </trkpt>
      <trkpt lat="45.03302" lon="2.86833">
        <ele>1314.74</ele>
        <time>2015-04-29T08:07:20Z</time>
      </trkpt>
      <trkpt lat="45.03313" lon="2.86817">
        <ele>1305.38</ele>
        <time>2015-04-29T08:07:30Z</time>
      </trkpt>
      <trkpt lat="45.03321" lon="2.86803">
        <ele>1304.89</ele>
        <time>2015-04-29T08:07:40Z</time>
      </trkpt>
      <trkpt lat="45.03355" lon="2.86729">
        <ele>1306.09</ele>
        <time>2015-04-29T08:08:21Z</time>
      </trkpt>
      <trkpt lat="45.0336" lon="2.86718">
        <ele>1319.5</ele>
        <time>2015-04-29T08:08:31Z</time>
      </trkpt>
      <trkpt lat="45.03362" lon="2.86707">
        <ele>1319.99</ele>
        <time>2015-04-29T08:08:41Z</time>
      </trkpt>
      <trkpt lat="45.03362" lon="2.86698">
        <ele>1319.26</ele>
        <time>2015-04-29T08:08:51Z</time>
      </trkpt>
      <trkpt lat="45.03368" lon="2.86682">
        <ele>1316.52</ele>
        <time>2015-04-29T08:09:01Z</time>
      </trkpt>
      <trkpt lat="45.03377" lon="2.86671">
        <ele>1312.29</ele>
        <time>2015-04-29T08:09:11Z</time>
      </trkpt>
      <trkpt lat="45.03384" lon="2.86657">
        <ele>1317.25</ele>
        <time>2015-04-29T08:09:21Z</time>
      </trkpt>
      <trkpt lat="45.03389" lon="2.86641">
        <ele>1319.99</ele>
        <time>2015-04-29T08:09:31Z</time>
      </trkpt>
      <trkpt lat="45.03394" lon="2.86619">
        <ele>1316.69</ele>
        <time>2015-04-29T08:09:41Z</time>
      </trkpt>
      <trkpt lat="45.034" lon="2.86602">
        <ele>1316.89</ele>
        <time>2015-04-29T08:09:51Z</time>
      </trkpt>
      <trkpt lat="45.03408" lon="2.8659">
        <ele>1313.49</ele>
        <time>2015-04-29T08:10:01Z</time>
      </trkpt>
      <trkpt lat="45.03411" lon="2.86573">
        <ele>1320.24</ele>
        <time>2015-04-29T08:10:11Z</time>
      </trkpt>
      <trkpt lat="45.03414" lon="2.86558">
        <ele>1327.08</ele>
        <time>2015-04-29T08:10:21Z</time>
      </trkpt>
      <trkpt lat="45.03423" lon="2.86546">
        <ele>1324.86</ele>
        <time>2015-04-29T08:10:31Z</time>
      </trkpt>
      <trkpt lat="45.03422" lon="2.86545">
        <ele>1322</ele>
        <time>2015-04-29T08:10:41Z</time>
      </trkpt>
      <trkpt lat="45.03422" lon="2.86543">
        <ele>1320.25</ele>
        <time>2015-04-29T08:11:19Z</time>
      </trkpt>
      <trkpt lat="45.0343" lon="2.8653">
        <ele>1318</ele>
        <time>2015-04-29T08:11:29Z</time>
      </trkpt>
      <trkpt lat="45.03437" lon="2.86513">
        <ele>1321.17</ele>
        <time>2015-04-29T08:11:39Z</time>
      </trkpt>
      <trkpt lat="45.03444" lon="2.86495">
        <ele>1318.4</ele>
        <time>2015-04-29T08:11:49Z</time>
      </trkpt>
      <trkpt lat="45.03452" lon="2.8648">
        <ele>1320.68</ele>
        <time>2015-04-29T08:11:59Z</time>
      </trkpt>
      <trkpt lat="45.03461" lon="2.86467">
        <ele>1320.76</ele>
        <time>2015-04-29T08:12:09Z</time>
      </trkpt>
      <trkpt lat="45.03458" lon="2.86446">
        <ele>1322.77</ele>
        <time>2015-04-29T08:12:19Z</time>
      </trkpt>
      <trkpt lat="45.03462" lon="2.8643">
        <ele>1320.83</ele>
        <time>2015-04-29T08:12:29Z</time>
      </trkpt>
      <trkpt lat="45.03469" lon="2.86416">
        <ele>1321.51</ele>
        <time>2015-04-29T08:12:39Z</time>
      </trkpt>
      <trkpt lat="45.03473" lon="2.86399">
        <ele>1329.93</ele>
        <time>2015-04-29T08:12:49Z</time>
      </trkpt>
      <trkpt lat="45.03482" lon="2.86347">
        <ele>1340.48</ele>
        <time>2015-04-29T08:13:21Z</time>
      </trkpt>
      <trkpt lat="45.0349" lon="2.86319">
        <ele>1341.06</ele>
        <time>2015-04-29T08:13:31Z</time>
      </trkpt>
      <trkpt lat="45.03496" lon="2.86296">
        <ele>1340.02</ele>
        <time>2015-04-29T08:13:41Z</time>
      </trkpt>
      <trkpt lat="45.03501" lon="2.86279">
        <ele>1338.06</ele>
        <time>2015-04-29T08:13:51Z</time>
      </trkpt>
      <trkpt lat="45.03506" lon="2.86265">
        <ele>1338.25</ele>
        <time>2015-04-29T08:14:01Z</time>
      </trkpt>
      <trkpt lat="45.03506" lon="2.8627">
        <ele>1336.95</ele>
        <time>2015-04-29T08:14:11Z</time>
      </trkpt>
      <trkpt lat="45.03502" lon="2.86272">
        <ele>1338.94</ele>
        <time>2015-04-29T08:14:21Z</time>
      </trkpt>
      <trkpt lat="45.03506" lon="2.86273">
        <ele>1334.03</ele>
        <time>2015-04-29T08:14:31Z</time>
      </trkpt>
      <trkpt lat="45.03507" lon="2.86275">
        <ele>1335</ele>
        <time>2015-04-29T08:14:41Z</time>
      </trkpt>
      <trkpt lat="45.03507" lon="2.86273">
        <ele>1335</ele>
        <time>2015-04-29T08:14:55Z</time>
      </trkpt>
      <trkpt lat="45.03517" lon="2.86263">
        <ele>1337.19</ele>
        <time>2015-04-29T08:15:05Z</time>
      </trkpt>
      <trkpt lat="45.03528" lon="2.86255">
        <ele>1338.69</ele>
        <time>2015-04-29T08:15:15Z</time>
      </trkpt>
      <trkpt lat="45.03537" lon="2.86248">
        <ele>1336.99</ele>
        <time>2015-04-29T08:15:25Z</time>
      </trkpt>
      <trkpt lat="45.03546" lon="2.8624">
        <ele>1333.01</ele>
        <time>2015-04-29T08:15:35Z</time>
      </trkpt>
      <trkpt lat="45.03556" lon="2.86234">
        <ele>1332.74</ele>
        <time>2015-04-29T08:15:45Z</time>
      </trkpt>
      <trkpt lat="45.03559" lon="2.86228">
        <ele>1337.91</ele>
        <time>2015-04-29T08:15:55Z</time>
      </trkpt>
      <trkpt lat="45.0357" lon="2.86229">
        <ele>1339</ele>
        <time>2015-04-29T08:16:05Z</time>
      </trkpt>
      <trkpt lat="45.03582" lon="2.86234">
        <ele>1336.11</ele>
        <time>2015-04-29T08:16:15Z</time>
      </trkpt>
      <trkpt lat="45.03592" lon="2.86234">
        <ele>1336</ele>
        <time>2015-04-29T08:16:25Z</time>
      </trkpt>
      <trkpt lat="45.03606" lon="2.86237">
        <ele>1340</ele>
        <time>2015-04-29T08:16:35Z</time>
      </trkpt>
      <trkpt lat="45.03615" lon="2.86239">
        <ele>1338.58</ele>
        <time>2015-04-29T08:16:45Z</time>
      </trkpt>
      <trkpt lat="45.03625" lon="2.86238">
        <ele>1340.69</ele>
        <time>2015-04-29T08:16:55Z</time>
      </trkpt>
      <trkpt lat="45.0363" lon="2.86238">
        <ele>1342.75</ele>
        <time>2015-04-29T08:17:05Z</time>
      </trkpt>
      <trkpt lat="45.03647" lon="2.86239">
        <ele>1343.94</ele>
        <time>2015-04-29T08:17:15Z</time>
      </trkpt>
      <trkpt lat="45.03664" lon="2.8624">
        <ele>1346.81</ele>
        <time>2015-04-29T08:17:25Z</time>
      </trkpt>
      <trkpt lat="45.03679" lon="2.86239">
        <ele>1353.96</ele>
        <time>2015-04-29T08:17:35Z</time>
      </trkpt>
      <trkpt lat="45.03691" lon="2.86243">
        <ele>1351.45</ele>
        <time>2015-04-29T08:17:45Z</time>
      </trkpt>
      <trkpt lat="45.03748" lon="2.86277">
        <ele>1359.02</ele>
        <time>2015-04-29T08:18:22Z</time>
      </trkpt>
      <trkpt lat="45.03748" lon="2.86273">
        <ele>1350.27</ele>
        <time>2015-04-29T08:18:32Z</time>
      </trkpt>
      <trkpt lat="45.03758" lon="2.86278">
        <ele>1356.89</ele>
        <time>2015-04-29T08:18:42Z</time>
      </trkpt>
      <trkpt lat="45.03768" lon="2.86282">
        <ele>1356.8</ele>
        <time>2015-04-29T08:18:52Z</time>
      </trkpt>
      <trkpt lat="45.03779" lon="2.86289">
        <ele>1354.25</ele>
        <time>2015-04-29T08:19:02Z</time>
      </trkpt>
      <trkpt lat="45.03786" lon="2.86293">
        <ele>1355.23</ele>
        <time>2015-04-29T08:19:12Z</time>
      </trkpt>
      <trkpt lat="45.03802" lon="2.86297">
        <ele>1357.12</ele>
        <time>2015-04-29T08:19:22Z</time>
      </trkpt>
      <trkpt lat="45.03816" lon="2.863">
        <ele>1355.55</ele>
        <time>2015-04-29T08:19:32Z</time>
      </trkpt>
      <trkpt lat="45.03829" lon="2.86307">
        <ele>1357</ele>
        <time>2015-04-29T08:19:42Z</time>
      </trkpt>
      <trkpt lat="45.03839" lon="2.86308">
        <ele>1353.82</ele>
        <time>2015-04-29T08:19:52Z</time>
      </trkpt>
      <trkpt lat="45.03852" lon="2.86308">
        <ele>1352.25</ele>
        <time>2015-04-29T08:20:02Z</time>
      </trkpt>
      <trkpt lat="45.03865" lon="2.8631">
        <ele>1354.93</ele>
        <time>2015-04-29T08:20:12Z</time>
      </trkpt>
      <trkpt lat="45.0388" lon="2.86315">
        <ele>1350.49</ele>
        <time>2015-04-29T08:20:22Z</time>
      </trkpt>
      <trkpt lat="45.03894" lon="2.86321">
        <ele>1351.25</ele>
        <time>2015-04-29T08:20:32Z</time>
      </trkpt>
      <trkpt lat="45.03912" lon="2.86323">
        <ele>1357.25</ele>
        <time>2015-04-29T08:20:42Z</time>
      </trkpt>
      <trkpt lat="45.03922" lon="2.86328">
        <ele>1355.37</ele>
        <time>2015-04-29T08:20:52Z</time>
      </trkpt>
      <trkpt lat="45.0393" lon="2.86333">
        <ele>1353.81</ele>
        <time>2015-04-29T08:21:02Z</time>
      </trkpt>
      <trkpt lat="45.0394" lon="2.86336">
        <ele>1354.79</ele>
        <time>2015-04-29T08:21:12Z</time>
      </trkpt>
      <trkpt lat="45.03956" lon="2.86338">
        <ele>1355.68</ele>
        <time>2015-04-29T08:21:22Z</time>
      </trkpt>
      <trkpt lat="45.03968" lon="2.8634">
        <ele>1355</ele>
        <time>2015-04-29T08:21:32Z</time>
      </trkpt>
      <trkpt lat="45.03982" lon="2.86341">
        <ele>1354</ele>
        <time>2015-04-29T08:21:42Z</time>
      </trkpt>
      <trkpt lat="45.03995" lon="2.86345">
        <ele>1351</ele>
        <time>2015-04-29T08:21:52Z</time>
      </trkpt>
      <trkpt lat="45.04005" lon="2.86351">
        <ele>1354</ele>
        <time>2015-04-29T08:22:02Z</time>
      </trkpt>
      <trkpt lat="45.04017" lon="2.86352">
        <ele>1354.06</ele>
        <time>2015-04-29T08:22:12Z</time>
      </trkpt>
      <trkpt lat="45.04025" lon="2.8636">
        <ele>1357.98</ele>
        <time>2015-04-29T08:22:22Z</time>
      </trkpt>
      <trkpt lat="45.0404" lon="2.86365">
        <ele>1361.62</ele>
        <time>2015-04-29T08:22:32Z</time>
      </trkpt>
      <trkpt lat="45.04054" lon="2.86366">
        <ele>1361.25</ele>
        <time>2015-04-29T08:22:42Z</time>
      </trkpt>
      <trkpt lat="45.04094" lon="2.86384">
        <ele>1339.07</ele>
        <time>2015-04-29T08:23:22Z</time>
      </trkpt>
      <trkpt lat="45.04113" lon="2.86387">
        <ele>1347.35</ele>
        <time>2015-04-29T08:23:32Z</time>
      </trkpt>
      <trkpt lat="45.04125" lon="2.86394">
        <ele>1349.02</ele>
        <time>2015-04-29T08:23:42Z</time>
      </trkpt>
      <trkpt lat="45.04136" lon="2.86395">
        <ele>1350.12</ele>
        <time>2015-04-29T08:23:52Z</time>
      </trkpt>
      <trkpt lat="45.04142" lon="2.86395">
        <ele>1352.25</ele>
        <time>2015-04-29T08:24:02Z</time>
      </trkpt>
      <trkpt lat="45.04148" lon="2.86397">
        <ele>1351.99</ele>
        <time>2015-04-29T08:24:12Z</time>
      </trkpt>
      <trkpt lat="45.04168" lon="2.86402">
        <ele>1354.5</ele>
        <time>2015-04-29T08:24:22Z</time>
      </trkpt>
      <trkpt lat="45.04183" lon="2.86411">
        <ele>1350.01</ele>
        <time>2015-04-29T08:24:32Z</time>
      </trkpt>
      <trkpt lat="45.04197" lon="2.86417">
        <ele>1351.69</ele>
        <time>2015-04-29T08:24:42Z</time>
      </trkpt>
      <trkpt lat="45.04207" lon="2.86424">
        <ele>1353.92</ele>
        <time>2015-04-29T08:24:52Z</time>
      </trkpt>
      <trkpt lat="45.04213" lon="2.86427">
        <ele>1352</ele>
        <time>2015-04-29T08:25:02Z</time>
      </trkpt>
      <trkpt lat="45.04227" lon="2.86431">
        <ele>1353.25</ele>
        <time>2015-04-29T08:25:12Z</time>
      </trkpt>
      <trkpt lat="45.04239" lon="2.86432">
        <ele>1352.93</ele>
        <time>2015-04-29T08:25:22Z</time>
      </trkpt>
      <trkpt lat="45.04249" lon="2.86434">
        <ele>1352.08</ele>
        <time>2015-04-29T08:25:32Z</time>
      </trkpt>
      <trkpt lat="45.04264" lon="2.86441">
        <ele>1341.32</ele>
        <time>2015-04-29T08:25:42Z</time>
      </trkpt>
      <trkpt lat="45.04271" lon="2.86444">
        <ele>1340.26</ele>
        <time>2015-04-29T08:25:52Z</time>
      </trkpt>
      <trkpt lat="45.04283" lon="2.86445">
        <ele>1340.08</ele>
        <time>2015-04-29T08:26:02Z</time>
      </trkpt>
      <trkpt lat="45.04293" lon="2.86448">
        <ele>1341.56</ele>
        <time>2015-04-29T08:26:12Z</time>
      </trkpt>
      <trkpt lat="45.0431" lon="2.86445">
        <ele>1344.31</ele>
        <time>2015-04-29T08:26:22Z</time>
      </trkpt>
      <trkpt lat="45.04323" lon="2.86448">
        <ele>1339.75</ele>
        <time>2015-04-29T08:26:32Z</time>
      </trkpt>
      <trkpt lat="45.04335" lon="2.86446">
        <ele>1346.87</ele>
        <time>2015-04-29T08:26:42Z</time>
      </trkpt>
      <trkpt lat="45.04342" lon="2.86448">
        <ele>1345.74</ele>
        <time>2015-04-29T08:26:52Z</time>
      </trkpt>
      <trkpt lat="45.04353" lon="2.86452">
        <ele>1342.04</ele>
        <time>2015-04-29T08:27:02Z</time>
      </trkpt>
      <trkpt lat="45.04372" lon="2.86454">
        <ele>1344.68</ele>
        <time>2015-04-29T08:27:12Z</time>
      </trkpt>
      <trkpt lat="45.0439" lon="2.86458">
        <ele>1347.25</ele>
        <time>2015-04-29T08:27:22Z</time>
      </trkpt>
      <trkpt lat="45.04403" lon="2.8646">
        <ele>1345.77</ele>
        <time>2015-04-29T08:27:32Z</time>
      </trkpt>
      <trkpt lat="45.04413" lon="2.86461">
        <ele>1342.06</ele>
        <time>2015-04-29T08:27:42Z</time>
      </trkpt>
      <trkpt lat="45.04468" lon="2.8646">
        <ele>1354.42</ele>
        <time>2015-04-29T08:28:21Z</time>
      </trkpt>
      <trkpt lat="45.04468" lon="2.86457">
        <ele>1343.27</ele>
        <time>2015-04-29T08:28:31Z</time>
      </trkpt>
      <trkpt lat="45.04467" lon="2.86455">
        <ele>1343</ele>
        <time>2015-04-29T08:28:41Z</time>
      </trkpt>
      <trkpt lat="45.04467" lon="2.86457">
        <ele>1342.25</ele>
        <time>2015-04-29T08:29:01Z</time>
      </trkpt>
      <trkpt lat="45.04475" lon="2.86464">
        <ele>1339.99</ele>
        <time>2015-04-29T08:29:11Z</time>
      </trkpt>
      <trkpt lat="45.04483" lon="2.86476">
        <ele>1342.25</ele>
        <time>2015-04-29T08:29:21Z</time>
      </trkpt>
      <trkpt lat="45.04497" lon="2.86477">
        <ele>1342.01</ele>
        <time>2015-04-29T08:29:31Z</time>
      </trkpt>
      <trkpt lat="45.04501" lon="2.86477">
        <ele>1345.8</ele>
        <time>2015-04-29T08:29:41Z</time>
      </trkpt>
      <trkpt lat="45.04509" lon="2.8648">
        <ele>1342.03</ele>
        <time>2015-04-29T08:29:51Z</time>
      </trkpt>
      <trkpt lat="45.04523" lon="2.86485">
        <ele>1344.06</ele>
        <time>2015-04-29T08:30:01Z</time>
      </trkpt>
      <trkpt lat="45.04541" lon="2.86482">
        <ele>1343.02</ele>
        <time>2015-04-29T08:30:11Z</time>
      </trkpt>
      <trkpt lat="45.04559" lon="2.8648">
        <ele>1343.74</ele>
        <time>2015-04-29T08:30:21Z</time>
      </trkpt>
      <trkpt lat="45.04567" lon="2.86484">
        <ele>1343.06</ele>
        <time>2015-04-29T08:30:31Z</time>
      </trkpt>
      <trkpt lat="45.04579" lon="2.86488">
        <ele>1340.29</ele>
        <time>2015-04-29T08:30:41Z</time>
      </trkpt>
      <trkpt lat="45.04594" lon="2.86493">
        <ele>1339.96</ele>
        <time>2015-04-29T08:30:51Z</time>
      </trkpt>
      <trkpt lat="45.04601" lon="2.86494">
        <ele>1337.27</ele>
        <time>2015-04-29T08:31:01Z</time>
      </trkpt>
      <trkpt lat="45.04607" lon="2.86499">
        <ele>1335</ele>
        <time>2015-04-29T08:31:11Z</time>
      </trkpt>
      <trkpt lat="45.04625" lon="2.86506">
        <ele>1336.06</ele>
        <time>2015-04-29T08:31:21Z</time>
      </trkpt>
      <trkpt lat="45.04637" lon="2.86518">
        <ele>1335.06</ele>
        <time>2015-04-29T08:31:31Z</time>
      </trkpt>
      <trkpt lat="45.04646" lon="2.86532">
        <ele>1334.94</ele>
        <time>2015-04-29T08:31:41Z</time>
      </trkpt>
      <trkpt lat="45.04659" lon="2.86539">
        <ele>1338.45</ele>
        <time>2015-04-29T08:31:51Z</time>
      </trkpt>
      <trkpt lat="45.04669" lon="2.86544">
        <ele>1334.94</ele>
        <time>2015-04-29T08:32:01Z</time>
      </trkpt>
      <trkpt lat="45.04667" lon="2.86544">
        <ele>1336</ele>
        <time>2015-04-29T08:32:11Z</time>
      </trkpt>
      <trkpt lat="45.04663" lon="2.86532">
        <ele>1335.76</ele>
        <time>2015-04-29T08:32:21Z</time>
      </trkpt>
      <trkpt lat="45.04663" lon="2.8653">
        <ele>1335.19</ele>
        <time>2015-04-29T08:32:22Z</time>
      </trkpt>
      <trkpt lat="45.04673" lon="2.86542">
        <ele>1343</ele>
        <time>2015-04-29T08:37:40Z</time>
      </trkpt>
      <trkpt lat="45.04694" lon="2.86562">
        <ele>1338.5</ele>
        <time>2015-04-29T08:38:11Z</time>
      </trkpt>
      <trkpt lat="45.0471" lon="2.86554">
        <ele>1340.67</ele>
        <time>2015-04-29T08:38:22Z</time>
      </trkpt>
      <trkpt lat="45.04719" lon="2.86562">
        <ele>1333.27</ele>
        <time>2015-04-29T08:38:32Z</time>
      </trkpt>
      <trkpt lat="45.04725" lon="2.8657">
        <ele>1329.08</ele>
        <time>2015-04-29T08:38:42Z</time>
      </trkpt>
      <trkpt lat="45.04736" lon="2.86575">
        <ele>1331.94</ele>
        <time>2015-04-29T08:38:52Z</time>
      </trkpt>
      <trkpt lat="45.0475" lon="2.86581">
        <ele>1332.05</ele>
        <time>2015-04-29T08:39:02Z</time>
      </trkpt>
      <trkpt lat="45.04759" lon="2.86586">
        <ele>1332.97</ele>
        <time>2015-04-29T08:39:12Z</time>
      </trkpt>
      <trkpt lat="45.0477" lon="2.86591">
        <ele>1332.25</ele>
        <time>2015-04-29T08:39:22Z</time>
      </trkpt>
      <trkpt lat="45.04778" lon="2.86594">
        <ele>1332.26</ele>
        <time>2015-04-29T08:39:32Z</time>
      </trkpt>
      <trkpt lat="45.04776" lon="2.86595">
        <ele>1331.06</ele>
        <time>2015-04-29T08:39:42Z</time>
      </trkpt>
      <trkpt lat="45.04777" lon="2.86594">
        <ele>1329.02</ele>
        <time>2015-04-29T08:39:52Z</time>
      </trkpt>
      <trkpt lat="45.04778" lon="2.86594">
        <ele>1329</ele>
        <time>2015-04-29T08:40:10Z</time>
      </trkpt>
      <trkpt lat="45.0478" lon="2.86597">
        <ele>1330.25</ele>
        <time>2015-04-29T08:40:20Z</time>
      </trkpt>
      <trkpt lat="45.04784" lon="2.86601">
        <ele>1325.99</ele>
        <time>2015-04-29T08:40:30Z</time>
      </trkpt>
      <trkpt lat="45.04785" lon="2.86599">
        <ele>1326.75</ele>
        <time>2015-04-29T08:40:40Z</time>
      </trkpt>
      <trkpt lat="45.04797" lon="2.86603">
        <ele>1328.07</ele>
        <time>2015-04-29T08:40:50Z</time>
      </trkpt>
      <trkpt lat="45.0481" lon="2.86606">
        <ele>1328.87</ele>
        <time>2015-04-29T08:41:00Z</time>
      </trkpt>
      <trkpt lat="45.04825" lon="2.86612">
        <ele>1333.68</ele>
        <time>2015-04-29T08:41:10Z</time>
      </trkpt>
      <trkpt lat="45.04839" lon="2.86621">
        <ele>1335.05</ele>
        <time>2015-04-29T08:41:20Z</time>
      </trkpt>
      <trkpt lat="45.04853" lon="2.86624">
        <ele>1333</ele>
        <time>2015-04-29T08:41:30Z</time>
      </trkpt>
      <trkpt lat="45.04865" lon="2.86626">
        <ele>1331.74</ele>
        <time>2015-04-29T08:41:40Z</time>
      </trkpt>
      <trkpt lat="45.04881" lon="2.86631">
        <ele>1330.06</ele>
        <time>2015-04-29T08:41:50Z</time>
      </trkpt>
      <trkpt lat="45.04897" lon="2.86637">
        <ele>1328</ele>
        <time>2015-04-29T08:42:00Z</time>
      </trkpt>
      <trkpt lat="45.04907" lon="2.86646">
        <ele>1329</ele>
        <time>2015-04-29T08:42:10Z</time>
      </trkpt>
      <trkpt lat="45.0491" lon="2.86646">
        <ele>1334</ele>
        <time>2015-04-29T08:42:20Z</time>
      </trkpt>
      <trkpt lat="45.04924" lon="2.86651">
        <ele>1330</ele>
        <time>2015-04-29T08:42:30Z</time>
      </trkpt>
      <trkpt lat="45.04978" lon="2.86681">
        <ele>1331.82</ele>
        <time>2015-04-29T08:43:09Z</time>
      </trkpt>
      <trkpt lat="45.04987" lon="2.8669">
        <ele>1328.27</ele>
        <time>2015-04-29T08:43:19Z</time>
      </trkpt>
      <trkpt lat="45.04995" lon="2.86702">
        <ele>1326.25</ele>
        <time>2015-04-29T08:43:29Z</time>
      </trkpt>
      <trkpt lat="45.05001" lon="2.86715">
        <ele>1326.17</ele>
        <time>2015-04-29T08:43:39Z</time>
      </trkpt>
      <trkpt lat="45.05006" lon="2.86733">
        <ele>1326</ele>
        <time>2015-04-29T08:43:49Z</time>
      </trkpt>
      <trkpt lat="45.05013" lon="2.86744">
        <ele>1324.06</ele>
        <time>2015-04-29T08:43:59Z</time>
      </trkpt>
      <trkpt lat="45.05021" lon="2.86761">
        <ele>1325.25</ele>
        <time>2015-04-29T08:44:09Z</time>
      </trkpt>
      <trkpt lat="45.05021" lon="2.86762">
        <ele>1322.5</ele>
        <time>2015-04-29T08:44:19Z</time>
      </trkpt>
      <trkpt lat="45.05028" lon="2.86779">
        <ele>1325.01</ele>
        <time>2015-04-29T08:44:29Z</time>
      </trkpt>
      <trkpt lat="45.05038" lon="2.8679">
        <ele>1319.77</ele>
        <time>2015-04-29T08:44:39Z</time>
      </trkpt>
      <trkpt lat="45.05043" lon="2.86806">
        <ele>1319.31</ele>
        <time>2015-04-29T08:44:49Z</time>
      </trkpt>
      <trkpt lat="45.05048" lon="2.86821">
        <ele>1319.06</ele>
        <time>2015-04-29T08:44:59Z</time>
      </trkpt>
      <trkpt lat="45.05056" lon="2.86835">
        <ele>1319</ele>
        <time>2015-04-29T08:45:09Z</time>
      </trkpt>
      <trkpt lat="45.05064" lon="2.86852">
        <ele>1319</ele>
        <time>2015-04-29T08:45:19Z</time>
      </trkpt>
      <trkpt lat="45.05071" lon="2.86866">
        <ele>1319.88</ele>
        <time>2015-04-29T08:45:29Z</time>
      </trkpt>
      <trkpt lat="45.05077" lon="2.86883">
        <ele>1316.92</ele>
        <time>2015-04-29T08:45:39Z</time>
      </trkpt>
      <trkpt lat="45.05085" lon="2.86896">
        <ele>1317.98</ele>
        <time>2015-04-29T08:45:49Z</time>
      </trkpt>
      <trkpt lat="45.05093" lon="2.86911">
        <ele>1316.99</ele>
        <time>2015-04-29T08:45:59Z</time>
      </trkpt>
      <trkpt lat="45.05099" lon="2.86927">
        <ele>1318</ele>
        <time>2015-04-29T08:46:09Z</time>
      </trkpt>
      <trkpt lat="45.05108" lon="2.8694">
        <ele>1317</ele>
        <time>2015-04-29T08:46:19Z</time>
      </trkpt>
      <trkpt lat="45.05115" lon="2.86953">
        <ele>1318</ele>
        <time>2015-04-29T08:46:29Z</time>
      </trkpt>
      <trkpt lat="45.05118" lon="2.86954">
        <ele>1316.01</ele>
        <time>2015-04-29T08:46:39Z</time>
      </trkpt>
      <trkpt lat="45.05119" lon="2.86951">
        <ele>1316.2</ele>
        <time>2015-04-29T08:46:49Z</time>
      </trkpt>
      <trkpt lat="45.05121" lon="2.86958">
        <ele>1316.36</ele>
        <time>2015-04-29T08:46:59Z</time>
      </trkpt>
      <trkpt lat="45.05128" lon="2.86974">
        <ele>1315.06</ele>
        <time>2015-04-29T08:47:09Z</time>
      </trkpt>
      <trkpt lat="45.05133" lon="2.86988">
        <ele>1317.73</ele>
        <time>2015-04-29T08:47:19Z</time>
      </trkpt>
      <trkpt lat="45.0514" lon="2.87004">
        <ele>1315.99</ele>
        <time>2015-04-29T08:47:29Z</time>
      </trkpt>
      <trkpt lat="45.05145" lon="2.87019">
        <ele>1315.25</ele>
        <time>2015-04-29T08:47:39Z</time>
      </trkpt>
      <trkpt lat="45.05163" lon="2.87077">
        <ele>1312.81</ele>
        <time>2015-04-29T08:48:10Z</time>
      </trkpt>
      <trkpt lat="45.05176" lon="2.87087">
        <ele>1310.97</ele>
        <time>2015-04-29T08:48:20Z</time>
      </trkpt>
      <trkpt lat="45.05181" lon="2.87104">
        <ele>1306.32</ele>
        <time>2015-04-29T08:48:30Z</time>
      </trkpt>
      <trkpt lat="45.05186" lon="2.87119">
        <ele>1306.25</ele>
        <time>2015-04-29T08:48:40Z</time>
      </trkpt>
      <trkpt lat="45.05193" lon="2.87133">
        <ele>1305.94</ele>
        <time>2015-04-29T08:48:50Z</time>
      </trkpt>
      <trkpt lat="45.05199" lon="2.87151">
        <ele>1307</ele>
        <time>2015-04-29T08:49:00Z</time>
      </trkpt>
      <trkpt lat="45.05205" lon="2.87168">
        <ele>1307.18</ele>
        <time>2015-04-29T08:49:10Z</time>
      </trkpt>
      <trkpt lat="45.0521" lon="2.87187">
        <ele>1307</ele>
        <time>2015-04-29T08:49:20Z</time>
      </trkpt>
      <trkpt lat="45.05215" lon="2.87208">
        <ele>1306.25</ele>
        <time>2015-04-29T08:49:30Z</time>
      </trkpt>
      <trkpt lat="45.05218" lon="2.87228">
        <ele>1305.7</ele>
        <time>2015-04-29T08:49:40Z</time>
      </trkpt>
      <trkpt lat="45.05217" lon="2.87248">
        <ele>1309</ele>
        <time>2015-04-29T08:49:50Z</time>
      </trkpt>
      <trkpt lat="45.05215" lon="2.87268">
        <ele>1309.75</ele>
        <time>2015-04-29T08:50:00Z</time>
      </trkpt>
      <trkpt lat="45.05215" lon="2.87287">
        <ele>1309.08</ele>
        <time>2015-04-29T08:50:10Z</time>
      </trkpt>
      <trkpt lat="45.05214" lon="2.87305">
        <ele>1310.18</ele>
        <time>2015-04-29T08:50:20Z</time>
      </trkpt>
      <trkpt lat="45.05216" lon="2.87322">
        <ele>1307.07</ele>
        <time>2015-04-29T08:50:30Z</time>
      </trkpt>
      <trkpt lat="45.05218" lon="2.87337">
        <ele>1301.27</ele>
        <time>2015-04-29T08:50:40Z</time>
      </trkpt>
      <trkpt lat="45.0522" lon="2.87352">
        <ele>1298.02</ele>
        <time>2015-04-29T08:50:50Z</time>
      </trkpt>
      <trkpt lat="45.05224" lon="2.87371">
        <ele>1294.07</ele>
        <time>2015-04-29T08:51:00Z</time>
      </trkpt>
      <trkpt lat="45.05228" lon="2.87388">
        <ele>1291.27</ele>
        <time>2015-04-29T08:51:10Z</time>
      </trkpt>
      <trkpt lat="45.05234" lon="2.87406">
        <ele>1288.06</ele>
        <time>2015-04-29T08:51:20Z</time>
      </trkpt>
      <trkpt lat="45.05243" lon="2.87421">
        <ele>1287.75</ele>
        <time>2015-04-29T08:51:30Z</time>
      </trkpt>
      <trkpt lat="45.05248" lon="2.87437">
        <ele>1284</ele>
        <time>2015-04-29T08:51:40Z</time>
      </trkpt>
      <trkpt lat="45.05255" lon="2.87453">
        <ele>1283.02</ele>
        <time>2015-04-29T08:51:50Z</time>
      </trkpt>
      <trkpt lat="45.05262" lon="2.87473">
        <ele>1283.69</ele>
        <time>2015-04-29T08:52:00Z</time>
      </trkpt>
      <trkpt lat="45.05268" lon="2.87492">
        <ele>1288</ele>
        <time>2015-04-29T08:52:10Z</time>
      </trkpt>
      <trkpt lat="45.05275" lon="2.87509">
        <ele>1290.67</ele>
        <time>2015-04-29T08:52:20Z</time>
      </trkpt>
      <trkpt lat="45.0528" lon="2.87525">
        <ele>1287.56</ele>
        <time>2015-04-29T08:52:30Z</time>
      </trkpt>
      <trkpt lat="45.05287" lon="2.87541">
        <ele>1289</ele>
        <time>2015-04-29T08:52:40Z</time>
      </trkpt>
      <trkpt lat="45.05292" lon="2.87559">
        <ele>1289.89</ele>
        <time>2015-04-29T08:52:50Z</time>
      </trkpt>
      <trkpt lat="45.05296" lon="2.87578">
        <ele>1290</ele>
        <time>2015-04-29T08:53:00Z</time>
      </trkpt>
      <trkpt lat="45.05298" lon="2.87597">
        <ele>1286.08</ele>
        <time>2015-04-29T08:53:10Z</time>
      </trkpt>
      <trkpt lat="45.05299" lon="2.87617">
        <ele>1284.94</ele>
        <time>2015-04-29T08:53:20Z</time>
      </trkpt>
      <trkpt lat="45.05301" lon="2.87632">
        <ele>1282.19</ele>
        <time>2015-04-29T08:53:30Z</time>
      </trkpt>
      <trkpt lat="45.05304" lon="2.87648">
        <ele>1281.7</ele>
        <time>2015-04-29T08:53:40Z</time>
      </trkpt>
      <trkpt lat="45.05305" lon="2.87666">
        <ele>1280.2</ele>
        <time>2015-04-29T08:53:50Z</time>
      </trkpt>
      <trkpt lat="45.05307" lon="2.87686">
        <ele>1282.06</ele>
        <time>2015-04-29T08:54:00Z</time>
      </trkpt>
      <trkpt lat="45.05309" lon="2.87706">
        <ele>1282.75</ele>
        <time>2015-04-29T08:54:10Z</time>
      </trkpt>
      <trkpt lat="45.05309" lon="2.87722">
        <ele>1283.99</ele>
        <time>2015-04-29T08:54:20Z</time>
      </trkpt>
      <trkpt lat="45.05313" lon="2.87742">
        <ele>1283</ele>
        <time>2015-04-29T08:54:30Z</time>
      </trkpt>
      <trkpt lat="45.05315" lon="2.87759">
        <ele>1286.73</ele>
        <time>2015-04-29T08:54:40Z</time>
      </trkpt>
      <trkpt lat="45.05318" lon="2.87777">
        <ele>1286</ele>
        <time>2015-04-29T08:54:50Z</time>
      </trkpt>
      <trkpt lat="45.05321" lon="2.87799">
        <ele>1282.52</ele>
        <time>2015-04-29T08:55:00Z</time>
      </trkpt>
      <trkpt lat="45.05322" lon="2.8782">
        <ele>1281.99</ele>
        <time>2015-04-29T08:55:10Z</time>
      </trkpt>
      <trkpt lat="45.05326" lon="2.8784">
        <ele>1278.25</ele>
        <time>2015-04-29T08:55:20Z</time>
      </trkpt>
      <trkpt lat="45.05329" lon="2.87857">
        <ele>1276.8</ele>
        <time>2015-04-29T08:55:30Z</time>
      </trkpt>
      <trkpt lat="45.05331" lon="2.87873">
        <ele>1274.08</ele>
        <time>2015-04-29T08:55:40Z</time>
      </trkpt>
      <trkpt lat="45.05331" lon="2.87889">
        <ele>1271.31</ele>
        <time>2015-04-29T08:55:50Z</time>
      </trkpt>
      <trkpt lat="45.05331" lon="2.87901">
        <ele>1272.94</ele>
        <time>2015-04-29T08:56:00Z</time>
      </trkpt>
      <trkpt lat="45.0533" lon="2.87924">
        <ele>1274.25</ele>
        <time>2015-04-29T08:56:10Z</time>
      </trkpt>
      <trkpt lat="45.05329" lon="2.87948">
        <ele>1278.94</ele>
        <time>2015-04-29T08:56:20Z</time>
      </trkpt>
      <trkpt lat="45.05329" lon="2.87969">
        <ele>1278.02</ele>
        <time>2015-04-29T08:56:30Z</time>
      </trkpt>
      <trkpt lat="45.05331" lon="2.87976">
        <ele>1278.76</ele>
        <time>2015-04-29T08:56:40Z</time>
      </trkpt>
      <trkpt lat="45.05333" lon="2.87976">
        <ele>1280</ele>
        <time>2015-04-29T08:56:50Z</time>
      </trkpt>
      <trkpt lat="45.05332" lon="2.8798">
        <ele>1281.63</ele>
        <time>2015-04-29T08:57:00Z</time>
      </trkpt>
      <trkpt lat="45.0533" lon="2.87986">
        <ele>1281.05</ele>
        <time>2015-04-29T08:57:10Z</time>
      </trkpt>
      <trkpt lat="45.0533" lon="2.87985">
        <ele>1279.99</ele>
        <time>2015-04-29T08:57:43Z</time>
      </trkpt>
      <trkpt lat="45.05331" lon="2.87984">
        <ele>1280.23</ele>
        <time>2015-04-29T08:57:55Z</time>
      </trkpt>
      <trkpt lat="45.05333" lon="2.88001">
        <ele>1278.45</ele>
        <time>2015-04-29T08:58:05Z</time>
      </trkpt>
      <trkpt lat="45.05334" lon="2.88022">
        <ele>1278.22</ele>
        <time>2015-04-29T08:58:15Z</time>
      </trkpt>
      <trkpt lat="45.05335" lon="2.8804">
        <ele>1275.26</ele>
        <time>2015-04-29T08:58:25Z</time>
      </trkpt>
      <trkpt lat="45.05338" lon="2.8806">
        <ele>1277.5</ele>
        <time>2015-04-29T08:58:35Z</time>
      </trkpt>
      <trkpt lat="45.0534" lon="2.8808">
        <ele>1279.25</ele>
        <time>2015-04-29T08:58:45Z</time>
      </trkpt>
      <trkpt lat="45.05342" lon="2.881">
        <ele>1281.79</ele>
        <time>2015-04-29T08:58:55Z</time>
      </trkpt>
      <trkpt lat="45.05345" lon="2.88119">
        <ele>1283.06</ele>
        <time>2015-04-29T08:59:05Z</time>
      </trkpt>
      <trkpt lat="45.05347" lon="2.88143">
        <ele>1278.75</ele>
        <time>2015-04-29T08:59:15Z</time>
      </trkpt>
      <trkpt lat="45.05348" lon="2.88164">
        <ele>1277.31</ele>
        <time>2015-04-29T08:59:25Z</time>
      </trkpt>
      <trkpt lat="45.0535" lon="2.88183">
        <ele>1274.27</ele>
        <time>2015-04-29T08:59:35Z</time>
      </trkpt>
      <trkpt lat="45.05352" lon="2.88203">
        <ele>1271.82</ele>
        <time>2015-04-29T08:59:45Z</time>
      </trkpt>
      <trkpt lat="45.05355" lon="2.8822">
        <ele>1271</ele>
        <time>2015-04-29T08:59:55Z</time>
      </trkpt>
      <trkpt lat="45.05357" lon="2.8824">
        <ele>1271.93</ele>
        <time>2015-04-29T09:00:05Z</time>
      </trkpt>
      <trkpt lat="45.05358" lon="2.88261">
        <ele>1273</ele>
        <time>2015-04-29T09:00:15Z</time>
      </trkpt>
      <trkpt lat="45.05361" lon="2.88277">
        <ele>1270.02</ele>
        <time>2015-04-29T09:00:25Z</time>
      </trkpt>
      <trkpt lat="45.05362" lon="2.88278">
        <ele>1270.95</ele>
        <time>2015-04-29T09:00:35Z</time>
      </trkpt>
      <trkpt lat="45.05362" lon="2.88279">
        <ele>1272.3</ele>
        <time>2015-04-29T09:01:22Z</time>
      </trkpt>
      <trkpt lat="45.05366" lon="2.88298">
        <ele>1268.8</ele>
        <time>2015-04-29T09:01:32Z</time>
      </trkpt>
      <trkpt lat="45.05368" lon="2.88315">
        <ele>1270</ele>
        <time>2015-04-29T09:01:42Z</time>
      </trkpt>
      <trkpt lat="45.05371" lon="2.88329">
        <ele>1270.75</ele>
        <time>2015-04-29T09:01:52Z</time>
      </trkpt>
      <trkpt lat="45.05372" lon="2.88344">
        <ele>1269.81</ele>
        <time>2015-04-29T09:02:02Z</time>
      </trkpt>
      <trkpt lat="45.05376" lon="2.88361">
        <ele>1266</ele>
        <time>2015-04-29T09:02:12Z</time>
      </trkpt>
      <trkpt lat="45.05383" lon="2.88376">
        <ele>1265.06</ele>
        <time>2015-04-29T09:02:22Z</time>
      </trkpt>
      <trkpt lat="45.05386" lon="2.88392">
        <ele>1263.01</ele>
        <time>2015-04-29T09:02:32Z</time>
      </trkpt>
      <trkpt lat="45.05392" lon="2.88407">
        <ele>1261.25</ele>
        <time>2015-04-29T09:02:42Z</time>
      </trkpt>
      <trkpt lat="45.05397" lon="2.88424">
        <ele>1258.95</ele>
        <time>2015-04-29T09:02:52Z</time>
      </trkpt>
      <trkpt lat="45.05401" lon="2.88441">
        <ele>1259.19</ele>
        <time>2015-04-29T09:03:02Z</time>
      </trkpt>
      <trkpt lat="45.05405" lon="2.88458">
        <ele>1260.8</ele>
        <time>2015-04-29T09:03:12Z</time>
      </trkpt>
      <trkpt lat="45.05404" lon="2.88473">
        <ele>1257.06</ele>
        <time>2015-04-29T09:03:22Z</time>
      </trkpt>
      <trkpt lat="45.05405" lon="2.88474">
        <ele>1259</ele>
        <time>2015-04-29T09:03:32Z</time>
      </trkpt>
      <trkpt lat="45.05405" lon="2.88476">
        <ele>1258.06</ele>
        <time>2015-04-29T09:03:53Z</time>
      </trkpt>
      <trkpt lat="45.05401" lon="2.88485">
        <ele>1256.75</ele>
        <time>2015-04-29T09:04:03Z</time>
      </trkpt>
      <trkpt lat="45.054" lon="2.88486">
        <ele>1257.25</ele>
        <time>2015-04-29T09:04:27Z</time>
      </trkpt>
      <trkpt lat="45.0539" lon="2.88495">
        <ele>1258.69</ele>
        <time>2015-04-29T09:04:37Z</time>
      </trkpt>
      <trkpt lat="45.05381" lon="2.8849">
        <ele>1260.8</ele>
        <time>2015-04-29T09:04:47Z</time>
      </trkpt>
      <trkpt lat="45.05377" lon="2.88487">
        <ele>1263</ele>
        <time>2015-04-29T09:04:57Z</time>
      </trkpt>
      <trkpt lat="45.05378" lon="2.88488">
        <ele>1262</ele>
        <time>2015-04-29T09:05:07Z</time>
      </trkpt>
      <trkpt lat="45.05379" lon="2.88489">
        <ele>1264</ele>
        <time>2015-04-29T09:05:17Z</time>
      </trkpt>
      <trkpt lat="45.05379" lon="2.8849">
        <ele>1264.75</ele>
        <time>2015-04-29T09:05:51Z</time>
      </trkpt>
      <trkpt lat="45.05379" lon="2.88489">
        <ele>1264</ele>
        <time>2015-04-29T09:06:03Z</time>
      </trkpt>
      <trkpt lat="45.05375" lon="2.88492">
        <ele>1267.11</ele>
        <time>2015-04-29T09:06:13Z</time>
      </trkpt>
      <trkpt lat="45.05356" lon="2.88491">
        <ele>1254.55</ele>
        <time>2015-04-29T09:06:23Z</time>
      </trkpt>
      <trkpt lat="45.05342" lon="2.88496">
        <ele>1255.06</ele>
        <time>2015-04-29T09:06:33Z</time>
      </trkpt>
      <trkpt lat="45.05331" lon="2.88506">
        <ele>1253.81</ele>
        <time>2015-04-29T09:06:43Z</time>
      </trkpt>
      <trkpt lat="45.05321" lon="2.88514">
        <ele>1250.06</ele>
        <time>2015-04-29T09:06:53Z</time>
      </trkpt>
      <trkpt lat="45.05309" lon="2.88519">
        <ele>1249.98</ele>
        <time>2015-04-29T09:07:03Z</time>
      </trkpt>
      <trkpt lat="45.05298" lon="2.88527">
        <ele>1250.81</ele>
        <time>2015-04-29T09:07:13Z</time>
      </trkpt>
      <trkpt lat="45.05287" lon="2.88541">
        <ele>1254</ele>
        <time>2015-04-29T09:07:23Z</time>
      </trkpt>
      <trkpt lat="45.05275" lon="2.88554">
        <ele>1255.94</ele>
        <time>2015-04-29T09:07:33Z</time>
      </trkpt>
      <trkpt lat="45.05264" lon="2.88568">
        <ele>1257.19</ele>
        <time>2015-04-29T09:07:43Z</time>
      </trkpt>
      <trkpt lat="45.05253" lon="2.8858">
        <ele>1257</ele>
        <time>2015-04-29T09:07:53Z</time>
      </trkpt>
      <trkpt lat="45.05241" lon="2.88587">
        <ele>1256</ele>
        <time>2015-04-29T09:08:03Z</time>
      </trkpt>
      <trkpt lat="45.05231" lon="2.88591">
        <ele>1254.02</ele>
        <time>2015-04-29T09:08:13Z</time>
      </trkpt>
      <trkpt lat="45.05221" lon="2.88595">
        <ele>1251.8</ele>
        <time>2015-04-29T09:08:23Z</time>
      </trkpt>
      <trkpt lat="45.05211" lon="2.88593">
        <ele>1253.23</ele>
        <time>2015-04-29T09:08:33Z</time>
      </trkpt>
      <trkpt lat="45.052" lon="2.88605">
        <ele>1255.16</ele>
        <time>2015-04-29T09:08:43Z</time>
      </trkpt>
      <trkpt lat="45.05189" lon="2.88611">
        <ele>1254</ele>
        <time>2015-04-29T09:08:53Z</time>
      </trkpt>
      <trkpt lat="45.05179" lon="2.88624">
        <ele>1252.94</ele>
        <time>2015-04-29T09:09:03Z</time>
      </trkpt>
      <trkpt lat="45.05169" lon="2.88632">
        <ele>1250.74</ele>
        <time>2015-04-29T09:09:13Z</time>
      </trkpt>
      <trkpt lat="45.05171" lon="2.88648">
        <ele>1246</ele>
        <time>2015-04-29T09:09:23Z</time>
      </trkpt>
      <trkpt lat="45.05173" lon="2.88667">
        <ele>1246.02</ele>
        <time>2015-04-29T09:09:33Z</time>
      </trkpt>
      <trkpt lat="45.05173" lon="2.88687">
        <ele>1243.06</ele>
        <time>2015-04-29T09:09:43Z</time>
      </trkpt>
      <trkpt lat="45.05171" lon="2.88704">
        <ele>1242.72</ele>
        <time>2015-04-29T09:09:53Z</time>
      </trkpt>
      <trkpt lat="45.05169" lon="2.88721">
        <ele>1243.17</ele>
        <time>2015-04-29T09:10:03Z</time>
      </trkpt>
      <trkpt lat="45.05166" lon="2.88732">
        <ele>1240.07</ele>
        <time>2015-04-29T09:10:13Z</time>
      </trkpt>
      <trkpt lat="45.05169" lon="2.88738">
        <ele>1240.23</ele>
        <time>2015-04-29T09:10:23Z</time>
      </trkpt>
      <trkpt lat="45.05159" lon="2.88748">
        <ele>1237.19</ele>
        <time>2015-04-29T09:10:33Z</time>
      </trkpt>
      <trkpt lat="45.05148" lon="2.88756">
        <ele>1236</ele>
        <time>2015-04-29T09:10:43Z</time>
      </trkpt>
      <trkpt lat="45.05138" lon="2.88763">
        <ele>1236.98</ele>
        <time>2015-04-29T09:10:53Z</time>
      </trkpt>
      <trkpt lat="45.05125" lon="2.88764">
        <ele>1237.25</ele>
        <time>2015-04-29T09:11:03Z</time>
      </trkpt>
      <trkpt lat="45.05111" lon="2.88763">
        <ele>1234.52</ele>
        <time>2015-04-29T09:11:13Z</time>
      </trkpt>
      <trkpt lat="45.051" lon="2.88767">
        <ele>1236.75</ele>
        <time>2015-04-29T09:11:23Z</time>
      </trkpt>
      <trkpt lat="45.05088" lon="2.88777">
        <ele>1238.69</ele>
        <time>2015-04-29T09:11:33Z</time>
      </trkpt>
      <trkpt lat="45.05076" lon="2.88783">
        <ele>1239.05</ele>
        <time>2015-04-29T09:11:43Z</time>
      </trkpt>
      <trkpt lat="45.05076" lon="2.88785">
        <ele>1238</ele>
        <time>2015-04-29T09:11:53Z</time>
      </trkpt>
      <trkpt lat="45.05075" lon="2.88786">
        <ele>1238.94</ele>
        <time>2015-04-29T09:12:08Z</time>
      </trkpt>
      <trkpt lat="45.05068" lon="2.88806">
        <ele>1240</ele>
        <time>2015-04-29T09:12:18Z</time>
      </trkpt>
      <trkpt lat="45.05062" lon="2.88827">
        <ele>1241</ele>
        <time>2015-04-29T09:12:28Z</time>
      </trkpt>
      <trkpt lat="45.05058" lon="2.88841">
        <ele>1240.99</ele>
        <time>2015-04-29T09:12:38Z</time>
      </trkpt>
      <trkpt lat="45.05054" lon="2.88855">
        <ele>1241.01</ele>
        <time>2015-04-29T09:12:48Z</time>
      </trkpt>
      <trkpt lat="45.05049" lon="2.88875">
        <ele>1240.04</ele>
        <time>2015-04-29T09:12:58Z</time>
      </trkpt>
      <trkpt lat="45.05042" lon="2.88892">
        <ele>1237.93</ele>
        <time>2015-04-29T09:13:08Z</time>
      </trkpt>
      <trkpt lat="45.05034" lon="2.88909">
        <ele>1242.18</ele>
        <time>2015-04-29T09:13:18Z</time>
      </trkpt>
      <trkpt lat="45.05027" lon="2.88927">
        <ele>1245.98</ele>
        <time>2015-04-29T09:13:28Z</time>
      </trkpt>
      <trkpt lat="45.05018" lon="2.8894">
        <ele>1241.25</ele>
        <time>2015-04-29T09:13:38Z</time>
      </trkpt>
      <trkpt lat="45.05009" lon="2.88956">
        <ele>1240.24</ele>
        <time>2015-04-29T09:13:48Z</time>
      </trkpt>
      <trkpt lat="45.05002" lon="2.8897">
        <ele>1238.99</ele>
        <time>2015-04-29T09:13:58Z</time>
      </trkpt>
      <trkpt lat="45.04994" lon="2.88987">
        <ele>1242.19</ele>
        <time>2015-04-29T09:14:08Z</time>
      </trkpt>
      <trkpt lat="45.04987" lon="2.89002">
        <ele>1243.03</ele>
        <time>2015-04-29T09:14:18Z</time>
      </trkpt>
      <trkpt lat="45.04978" lon="2.89013">
        <ele>1244.98</ele>
        <time>2015-04-29T09:14:28Z</time>
      </trkpt>
      <trkpt lat="45.04969" lon="2.89029">
        <ele>1247.94</ele>
        <time>2015-04-29T09:14:38Z</time>
      </trkpt>
      <trkpt lat="45.0496" lon="2.89043">
        <ele>1243.06</ele>
        <time>2015-04-29T09:14:48Z</time>
      </trkpt>
      <trkpt lat="45.0495" lon="2.89061">
        <ele>1240.01</ele>
        <time>2015-04-29T09:14:58Z</time>
      </trkpt>
      <trkpt lat="45.04942" lon="2.89077">
        <ele>1241.69</ele>
        <time>2015-04-29T09:15:08Z</time>
      </trkpt>
      <trkpt lat="45.04936" lon="2.8909">
        <ele>1241.77</ele>
        <time>2015-04-29T09:15:18Z</time>
      </trkpt>
      <trkpt lat="45.04927" lon="2.89103">
        <ele>1243</ele>
        <time>2015-04-29T09:15:28Z</time>
      </trkpt>
      <trkpt lat="45.04916" lon="2.89122">
        <ele>1244.05</ele>
        <time>2015-04-29T09:15:38Z</time>
      </trkpt>
      <trkpt lat="45.0491" lon="2.89138">
        <ele>1244</ele>
        <time>2015-04-29T09:15:48Z</time>
      </trkpt>
      <trkpt lat="45.04902" lon="2.89153">
        <ele>1243.02</ele>
        <time>2015-04-29T09:15:58Z</time>
      </trkpt>
      <trkpt lat="45.04893" lon="2.89163">
        <ele>1243.01</ele>
        <time>2015-04-29T09:16:08Z</time>
      </trkpt>
      <trkpt lat="45.04884" lon="2.89177">
        <ele>1244.94</ele>
        <time>2015-04-29T09:16:18Z</time>
      </trkpt>
      <trkpt lat="45.04876" lon="2.8919">
        <ele>1244.94</ele>
        <time>2015-04-29T09:16:28Z</time>
      </trkpt>
      <trkpt lat="45.04865" lon="2.89203">
        <ele>1243.75</ele>
        <time>2015-04-29T09:16:38Z</time>
      </trkpt>
      <trkpt lat="45.04854" lon="2.89216">
        <ele>1242</ele>
        <time>2015-04-29T09:16:48Z</time>
      </trkpt>
      <trkpt lat="45.04846" lon="2.89228">
        <ele>1241</ele>
        <time>2015-04-29T09:16:58Z</time>
      </trkpt>
      <trkpt lat="45.04835" lon="2.89231">
        <ele>1234.31</ele>
        <time>2015-04-29T09:17:08Z</time>
      </trkpt>
      <trkpt lat="45.04826" lon="2.89246">
        <ele>1237.75</ele>
        <time>2015-04-29T09:17:18Z</time>
      </trkpt>
      <trkpt lat="45.04813" lon="2.89265">
        <ele>1239.08</ele>
        <time>2015-04-29T09:17:28Z</time>
      </trkpt>
      <trkpt lat="45.04805" lon="2.89277">
        <ele>1238.94</ele>
        <time>2015-04-29T09:17:38Z</time>
      </trkpt>
      <trkpt lat="45.04796" lon="2.89288">
        <ele>1238.06</ele>
        <time>2015-04-29T09:17:48Z</time>
      </trkpt>
      <trkpt lat="45.04787" lon="2.893">
        <ele>1236.73</ele>
        <time>2015-04-29T09:17:58Z</time>
      </trkpt>
      <trkpt lat="45.04776" lon="2.89317">
        <ele>1234.33</ele>
        <time>2015-04-29T09:18:08Z</time>
      </trkpt>
      <trkpt lat="45.04766" lon="2.89332">
        <ele>1232.76</ele>
        <time>2015-04-29T09:18:18Z</time>
      </trkpt>
      <trkpt lat="45.04756" lon="2.89344">
        <ele>1232.07</ele>
        <time>2015-04-29T09:18:28Z</time>
      </trkpt>
      <trkpt lat="45.04744" lon="2.89357">
        <ele>1235</ele>
        <time>2015-04-29T09:18:38Z</time>
      </trkpt>
      <trkpt lat="45.04733" lon="2.89362">
        <ele>1234.25</ele>
        <time>2015-04-29T09:18:48Z</time>
      </trkpt>
      <trkpt lat="45.04723" lon="2.89364">
        <ele>1232.76</ele>
        <time>2015-04-29T09:18:58Z</time>
      </trkpt>
      <trkpt lat="45.04709" lon="2.89366">
        <ele>1232.67</ele>
        <time>2015-04-29T09:19:08Z</time>
      </trkpt>
      <trkpt lat="45.04701" lon="2.89366">
        <ele>1229.02</ele>
        <time>2015-04-29T09:19:18Z</time>
      </trkpt>
      <trkpt lat="45.04701" lon="2.89368">
        <ele>1230</ele>
        <time>2015-04-29T09:19:28Z</time>
      </trkpt>
      <trkpt lat="45.04701" lon="2.89369">
        <ele>1232</ele>
        <time>2015-04-29T09:19:42Z</time>
      </trkpt>
      <trkpt lat="45.04704" lon="2.89382">
        <ele>1235.93</ele>
        <time>2015-04-29T09:19:52Z</time>
      </trkpt>
      <trkpt lat="45.04708" lon="2.89396">
        <ele>1236</ele>
        <time>2015-04-29T09:20:02Z</time>
      </trkpt>
      <trkpt lat="45.04713" lon="2.89417">
        <ele>1234.02</ele>
        <time>2015-04-29T09:20:12Z</time>
      </trkpt>
      <trkpt lat="45.0472" lon="2.89432">
        <ele>1233</ele>
        <time>2015-04-29T09:20:22Z</time>
      </trkpt>
      <trkpt lat="45.04728" lon="2.89448">
        <ele>1237.75</ele>
        <time>2015-04-29T09:20:32Z</time>
      </trkpt>
      <trkpt lat="45.04728" lon="2.89457">
        <ele>1236.76</ele>
        <time>2015-04-29T09:20:42Z</time>
      </trkpt>
      <trkpt lat="45.04725" lon="2.89456">
        <ele>1237</ele>
        <time>2015-04-29T09:20:52Z</time>
      </trkpt>
      <trkpt lat="45.04727" lon="2.89458">
        <ele>1235.25</ele>
        <time>2015-04-29T09:21:07Z</time>
      </trkpt>
      <trkpt lat="45.04738" lon="2.89476">
        <ele>1233.28</ele>
        <time>2015-04-29T09:21:17Z</time>
      </trkpt>
      <trkpt lat="45.04748" lon="2.89491">
        <ele>1234.05</ele>
        <time>2015-04-29T09:21:27Z</time>
      </trkpt>
      <trkpt lat="45.04758" lon="2.89505">
        <ele>1235.75</ele>
        <time>2015-04-29T09:21:37Z</time>
      </trkpt>
      <trkpt lat="45.04768" lon="2.89518">
        <ele>1234.2</ele>
        <time>2015-04-29T09:21:47Z</time>
      </trkpt>
      <trkpt lat="45.04782" lon="2.8953">
        <ele>1235.99</ele>
        <time>2015-04-29T09:21:57Z</time>
      </trkpt>
      <trkpt lat="45.04792" lon="2.89544">
        <ele>1237.06</ele>
        <time>2015-04-29T09:22:07Z</time>
      </trkpt>
      <trkpt lat="45.048" lon="2.89557">
        <ele>1236</ele>
        <time>2015-04-29T09:22:17Z</time>
      </trkpt>
      <trkpt lat="45.04809" lon="2.89573">
        <ele>1236</ele>
        <time>2015-04-29T09:22:27Z</time>
      </trkpt>
      <trkpt lat="45.04814" lon="2.89589">
        <ele>1237</ele>
        <time>2015-04-29T09:22:37Z</time>
      </trkpt>
      <trkpt lat="45.0482" lon="2.89606">
        <ele>1234</ele>
        <time>2015-04-29T09:22:47Z</time>
      </trkpt>
      <trkpt lat="45.04826" lon="2.8962">
        <ele>1234</ele>
        <time>2015-04-29T09:22:57Z</time>
      </trkpt>
      <trkpt lat="45.04833" lon="2.89635">
        <ele>1233.94</ele>
        <time>2015-04-29T09:23:07Z</time>
      </trkpt>
      <trkpt lat="45.0484" lon="2.8965">
        <ele>1234.06</ele>
        <time>2015-04-29T09:23:17Z</time>
      </trkpt>
      <trkpt lat="45.04849" lon="2.89664">
        <ele>1234.75</ele>
        <time>2015-04-29T09:23:27Z</time>
      </trkpt>
      <trkpt lat="45.04857" lon="2.89679">
        <ele>1235.75</ele>
        <time>2015-04-29T09:23:37Z</time>
      </trkpt>
      <trkpt lat="45.04863" lon="2.89694">
        <ele>1234.75</ele>
        <time>2015-04-29T09:23:47Z</time>
      </trkpt>
      <trkpt lat="45.04868" lon="2.8971">
        <ele>1234.75</ele>
        <time>2015-04-29T09:23:57Z</time>
      </trkpt>
      <trkpt lat="45.04875" lon="2.89725">
        <ele>1236</ele>
        <time>2015-04-29T09:24:07Z</time>
      </trkpt>
      <trkpt lat="45.04881" lon="2.89742">
        <ele>1235.19</ele>
        <time>2015-04-29T09:24:17Z</time>
      </trkpt>
      <trkpt lat="45.04888" lon="2.89757">
        <ele>1235.06</ele>
        <time>2015-04-29T09:24:27Z</time>
      </trkpt>
      <trkpt lat="45.04892" lon="2.89775">
        <ele>1236</ele>
        <time>2015-04-29T09:24:37Z</time>
      </trkpt>
      <trkpt lat="45.04897" lon="2.89791">
        <ele>1235.26</ele>
        <time>2015-04-29T09:24:47Z</time>
      </trkpt>
      <trkpt lat="45.04901" lon="2.89808">
        <ele>1235.01</ele>
        <time>2015-04-29T09:24:57Z</time>
      </trkpt>
      <trkpt lat="45.04908" lon="2.89824">
        <ele>1234.94</ele>
        <time>2015-04-29T09:25:07Z</time>
      </trkpt>
      <trkpt lat="45.04914" lon="2.89841">
        <ele>1234.06</ele>
        <time>2015-04-29T09:25:17Z</time>
      </trkpt>
      <trkpt lat="45.04921" lon="2.89857">
        <ele>1234.69</ele>
        <time>2015-04-29T09:25:27Z</time>
      </trkpt>
      <trkpt lat="45.04927" lon="2.89874">
        <ele>1235</ele>
        <time>2015-04-29T09:25:37Z</time>
      </trkpt>
      <trkpt lat="45.04935" lon="2.8989">
        <ele>1234.02</ele>
        <time>2015-04-29T09:25:47Z</time>
      </trkpt>
      <trkpt lat="45.04942" lon="2.89906">
        <ele>1234</ele>
        <time>2015-04-29T09:25:57Z</time>
      </trkpt>
      <trkpt lat="45.04951" lon="2.89922">
        <ele>1235.69</ele>
        <time>2015-04-29T09:26:07Z</time>
      </trkpt>
      <trkpt lat="45.0496" lon="2.89939">
        <ele>1234</ele>
        <time>2015-04-29T09:26:17Z</time>
      </trkpt>
      <trkpt lat="45.04968" lon="2.89955">
        <ele>1236.07</ele>
        <time>2015-04-29T09:26:27Z</time>
      </trkpt>
      <trkpt lat="45.04975" lon="2.8997">
        <ele>1237</ele>
        <time>2015-04-29T09:26:37Z</time>
      </trkpt>
      <trkpt lat="45.04983" lon="2.89987">
        <ele>1233.75</ele>
        <time>2015-04-29T09:26:47Z</time>
      </trkpt>
      <trkpt lat="45.04989" lon="2.90004">
        <ele>1231.31</ele>
        <time>2015-04-29T09:26:57Z</time>
      </trkpt>
      <trkpt lat="45.04997" lon="2.90018">
        <ele>1233.25</ele>
        <time>2015-04-29T09:27:07Z</time>
      </trkpt>
      <trkpt lat="45.05004" lon="2.90034">
        <ele>1231.95</ele>
        <time>2015-04-29T09:27:17Z</time>
      </trkpt>
      <trkpt lat="45.0501" lon="2.9005">
        <ele>1232</ele>
        <time>2015-04-29T09:27:27Z</time>
      </trkpt>
      <trkpt lat="45.05017" lon="2.90068">
        <ele>1228.07</ele>
        <time>2015-04-29T09:27:37Z</time>
      </trkpt>
      <trkpt lat="45.05023" lon="2.90085">
        <ele>1231</ele>
        <time>2015-04-29T09:27:47Z</time>
      </trkpt>
      <trkpt lat="45.0503" lon="2.901">
        <ele>1230.27</ele>
        <time>2015-04-29T09:27:57Z</time>
      </trkpt>
      <trkpt lat="45.05037" lon="2.90117">
        <ele>1231.31</ele>
        <time>2015-04-29T09:28:07Z</time>
      </trkpt>
      <trkpt lat="45.05045" lon="2.90132">
        <ele>1232.93</ele>
        <time>2015-04-29T09:28:17Z</time>
      </trkpt>
      <trkpt lat="45.05052" lon="2.90148">
        <ele>1230.02</ele>
        <time>2015-04-29T09:28:27Z</time>
      </trkpt>
      <trkpt lat="45.05052" lon="2.90151">
        <ele>1229.98</ele>
        <time>2015-04-29T09:28:37Z</time>
      </trkpt>
      <trkpt lat="45.05052" lon="2.90147">
        <ele>1228</ele>
        <time>2015-04-29T09:28:47Z</time>
      </trkpt>
      <trkpt lat="45.05052" lon="2.90147">
        <ele>1230.51</ele>
        <time>2015-04-29T09:30:26Z</time>
      </trkpt>
      <trkpt lat="45.05057" lon="2.90164">
        <ele>1230</ele>
        <time>2015-04-29T09:30:36Z</time>
      </trkpt>
      <trkpt lat="45.05063" lon="2.90182">
        <ele>1232.73</ele>
        <time>2015-04-29T09:30:46Z</time>
      </trkpt>
      <trkpt lat="45.05065" lon="2.90202">
        <ele>1230.94</ele>
        <time>2015-04-29T09:30:56Z</time>
      </trkpt>
      <trkpt lat="45.05067" lon="2.9022">
        <ele>1229.25</ele>
        <time>2015-04-29T09:31:06Z</time>
      </trkpt>
      <trkpt lat="45.05066" lon="2.9024">
        <ele>1230.05</ele>
        <time>2015-04-29T09:31:16Z</time>
      </trkpt>
      <trkpt lat="45.05066" lon="2.90256">
        <ele>1230</ele>
        <time>2015-04-29T09:31:26Z</time>
      </trkpt>
      <trkpt lat="45.05066" lon="2.90273">
        <ele>1227.99</ele>
        <time>2015-04-29T09:31:36Z</time>
      </trkpt>
      <trkpt lat="45.05065" lon="2.9029">
        <ele>1227.94</ele>
        <time>2015-04-29T09:31:46Z</time>
      </trkpt>
      <trkpt lat="45.05065" lon="2.90306">
        <ele>1227</ele>
        <time>2015-04-29T09:31:56Z</time>
      </trkpt>
      <trkpt lat="45.05064" lon="2.90328">
        <ele>1224.75</ele>
        <time>2015-04-29T09:32:06Z</time>
      </trkpt>
      <trkpt lat="45.05064" lon="2.90347">
        <ele>1225.49</ele>
        <time>2015-04-29T09:32:16Z</time>
      </trkpt>
      <trkpt lat="45.05066" lon="2.9037">
        <ele>1223.25</ele>
        <time>2015-04-29T09:32:26Z</time>
      </trkpt>
      <trkpt lat="45.05066" lon="2.90392">
        <ele>1223</ele>
        <time>2015-04-29T09:32:36Z</time>
      </trkpt>
      <trkpt lat="45.05066" lon="2.90411">
        <ele>1222.2</ele>
        <time>2015-04-29T09:32:46Z</time>
      </trkpt>
      <trkpt lat="45.05066" lon="2.90426">
        <ele>1220.25</ele>
        <time>2015-04-29T09:32:56Z</time>
      </trkpt>
      <trkpt lat="45.05067" lon="2.90444">
        <ele>1217.02</ele>
        <time>2015-04-29T09:33:06Z</time>
      </trkpt>
      <trkpt lat="45.05067" lon="2.90463">
        <ele>1217</ele>
        <time>2015-04-29T09:33:16Z</time>
      </trkpt>
      <trkpt lat="45.05066" lon="2.90479">
        <ele>1217</ele>
        <time>2015-04-29T09:33:26Z</time>
      </trkpt>
      <trkpt lat="45.05067" lon="2.90493">
        <ele>1214</ele>
        <time>2015-04-29T09:33:36Z</time>
      </trkpt>
      <trkpt lat="45.05067" lon="2.9051">
        <ele>1213.99</ele>
        <time>2015-04-29T09:33:46Z</time>
      </trkpt>
      <trkpt lat="45.05066" lon="2.90529">
        <ele>1211.32</ele>
        <time>2015-04-29T09:33:56Z</time>
      </trkpt>
      <trkpt lat="45.05068" lon="2.90548">
        <ele>1210.87</ele>
        <time>2015-04-29T09:34:06Z</time>
      </trkpt>
      <trkpt lat="45.05069" lon="2.90567">
        <ele>1208.05</ele>
        <time>2015-04-29T09:34:16Z</time>
      </trkpt>
      <trkpt lat="45.05069" lon="2.90585">
        <ele>1209.11</ele>
        <time>2015-04-29T09:34:26Z</time>
      </trkpt>
      <trkpt lat="45.05073" lon="2.90602">
        <ele>1206.06</ele>
        <time>2015-04-29T09:34:36Z</time>
      </trkpt>
      <trkpt lat="45.05076" lon="2.90621">
        <ele>1206.19</ele>
        <time>2015-04-29T09:34:46Z</time>
      </trkpt>
      <trkpt lat="45.05079" lon="2.90637">
        <ele>1203.25</ele>
        <time>2015-04-29T09:34:56Z</time>
      </trkpt>
      <trkpt lat="45.05081" lon="2.90654">
        <ele>1205</ele>
        <time>2015-04-29T09:35:06Z</time>
      </trkpt>
      <trkpt lat="45.05083" lon="2.90673">
        <ele>1202.94</ele>
        <time>2015-04-29T09:35:16Z</time>
      </trkpt>
      <trkpt lat="45.05088" lon="2.9069">
        <ele>1201.01</ele>
        <time>2015-04-29T09:35:26Z</time>
      </trkpt>
      <trkpt lat="45.05091" lon="2.90709">
        <ele>1201.06</ele>
        <time>2015-04-29T09:35:36Z</time>
      </trkpt>
      <trkpt lat="45.05092" lon="2.90729">
        <ele>1202.23</ele>
        <time>2015-04-29T09:35:46Z</time>
      </trkpt>
      <trkpt lat="45.05093" lon="2.90747">
        <ele>1203</ele>
        <time>2015-04-29T09:35:56Z</time>
      </trkpt>
      <trkpt lat="45.05093" lon="2.9076">
        <ele>1202.98</ele>
        <time>2015-04-29T09:36:06Z</time>
      </trkpt>
      <trkpt lat="45.0509" lon="2.90774">
        <ele>1206.51</ele>
        <time>2015-04-29T09:36:16Z</time>
      </trkpt>
      <trkpt lat="45.0509" lon="2.90793">
        <ele>1204.07</ele>
        <time>2015-04-29T09:36:26Z</time>
      </trkpt>
      <trkpt lat="45.05089" lon="2.90818">
        <ele>1204</ele>
        <time>2015-04-29T09:36:36Z</time>
      </trkpt>
      <trkpt lat="45.05089" lon="2.90838">
        <ele>1204</ele>
        <time>2015-04-29T09:36:46Z</time>
      </trkpt>
      <trkpt lat="45.05089" lon="2.90857">
        <ele>1202</ele>
        <time>2015-04-29T09:36:56Z</time>
      </trkpt>
      <trkpt lat="45.0509" lon="2.90874">
        <ele>1200</ele>
        <time>2015-04-29T09:37:06Z</time>
      </trkpt>
      <trkpt lat="45.05091" lon="2.90893">
        <ele>1201.01</ele>
        <time>2015-04-29T09:37:16Z</time>
      </trkpt>
      <trkpt lat="45.05092" lon="2.90912">
        <ele>1201.25</ele>
        <time>2015-04-29T09:37:26Z</time>
      </trkpt>
      <trkpt lat="45.05093" lon="2.90932">
        <ele>1202.95</ele>
        <time>2015-04-29T09:37:36Z</time>
      </trkpt>
      <trkpt lat="45.05094" lon="2.90947">
        <ele>1199.02</ele>
        <time>2015-04-29T09:37:46Z</time>
      </trkpt>
      <trkpt lat="45.05095" lon="2.90963">
        <ele>1197.8</ele>
        <time>2015-04-29T09:37:56Z</time>
      </trkpt>
      <trkpt lat="45.05096" lon="2.90983">
        <ele>1199.94</ele>
        <time>2015-04-29T09:38:06Z</time>
      </trkpt>
      <trkpt lat="45.05096" lon="2.91001">
        <ele>1200.26</ele>
        <time>2015-04-29T09:38:16Z</time>
      </trkpt>
      <trkpt lat="45.05099" lon="2.91017">
        <ele>1196.81</ele>
        <time>2015-04-29T09:38:26Z</time>
      </trkpt>
      <trkpt lat="45.05099" lon="2.91038">
        <ele>1197</ele>
        <time>2015-04-29T09:38:36Z</time>
      </trkpt>
      <trkpt lat="45.05102" lon="2.91055">
        <ele>1191.28</ele>
        <time>2015-04-29T09:38:46Z</time>
      </trkpt>
      <trkpt lat="45.05104" lon="2.91072">
        <ele>1191.5</ele>
        <time>2015-04-29T09:38:56Z</time>
      </trkpt>
      <trkpt lat="45.05108" lon="2.91091">
        <ele>1191.38</ele>
        <time>2015-04-29T09:39:06Z</time>
      </trkpt>
      <trkpt lat="45.05111" lon="2.91106">
        <ele>1190.25</ele>
        <time>2015-04-29T09:39:16Z</time>
      </trkpt>
      <trkpt lat="45.05116" lon="2.91123">
        <ele>1188.94</ele>
        <time>2015-04-29T09:39:26Z</time>
      </trkpt>
      <trkpt lat="45.0512" lon="2.91141">
        <ele>1189.25</ele>
        <time>2015-04-29T09:39:36Z</time>
      </trkpt>
      <trkpt lat="45.05124" lon="2.9116">
        <ele>1190.8</ele>
        <time>2015-04-29T09:39:46Z</time>
      </trkpt>
      <trkpt lat="45.05126" lon="2.91178">
        <ele>1192</ele>
        <time>2015-04-29T09:39:56Z</time>
      </trkpt>
      <trkpt lat="45.05129" lon="2.91193">
        <ele>1187.98</ele>
        <time>2015-04-29T09:40:06Z</time>
      </trkpt>
      <trkpt lat="45.05133" lon="2.91198">
        <ele>1184.14</ele>
        <time>2015-04-29T09:40:16Z</time>
      </trkpt>
      <trkpt lat="45.05133" lon="2.91219">
        <ele>1182.88</ele>
        <time>2015-04-29T09:40:26Z</time>
      </trkpt>
      <trkpt lat="45.05132" lon="2.91234">
        <ele>1181.74</ele>
        <time>2015-04-29T09:40:36Z</time>
      </trkpt>
      <trkpt lat="45.05133" lon="2.9125">
        <ele>1181</ele>
        <time>2015-04-29T09:40:46Z</time>
      </trkpt>
      <trkpt lat="45.05137" lon="2.9126">
        <ele>1177.71</ele>
        <time>2015-04-29T09:40:56Z</time>
      </trkpt>
      <trkpt lat="45.05137" lon="2.9128">
        <ele>1183.68</ele>
        <time>2015-04-29T09:41:06Z</time>
      </trkpt>
      <trkpt lat="45.05137" lon="2.91304">
        <ele>1183.17</ele>
        <time>2015-04-29T09:41:16Z</time>
      </trkpt>
      <trkpt lat="45.05137" lon="2.91328">
        <ele>1184.75</ele>
        <time>2015-04-29T09:41:26Z</time>
      </trkpt>
      <trkpt lat="45.05138" lon="2.91352">
        <ele>1184</ele>
        <time>2015-04-29T09:41:36Z</time>
      </trkpt>
      <trkpt lat="45.05138" lon="2.91372">
        <ele>1185.75</ele>
        <time>2015-04-29T09:41:46Z</time>
      </trkpt>
      <trkpt lat="45.05139" lon="2.91391">
        <ele>1183.32</ele>
        <time>2015-04-29T09:41:56Z</time>
      </trkpt>
      <trkpt lat="45.05136" lon="2.9141">
        <ele>1181.75</ele>
        <time>2015-04-29T09:42:06Z</time>
      </trkpt>
      <trkpt lat="45.05135" lon="2.9143">
        <ele>1183</ele>
        <time>2015-04-29T09:42:16Z</time>
      </trkpt>
      <trkpt lat="45.05135" lon="2.91448">
        <ele>1182.75</ele>
        <time>2015-04-29T09:42:26Z</time>
      </trkpt>
      <trkpt lat="45.05132" lon="2.91467">
        <ele>1182.94</ele>
        <time>2015-04-29T09:42:36Z</time>
      </trkpt>
      <trkpt lat="45.05129" lon="2.91489">
        <ele>1181.49</ele>
        <time>2015-04-29T09:42:46Z</time>
      </trkpt>
      <trkpt lat="45.05127" lon="2.91502">
        <ele>1182.48</ele>
        <time>2015-04-29T09:42:56Z</time>
      </trkpt>
      <trkpt lat="45.05123" lon="2.91518">
        <ele>1184.73</ele>
        <time>2015-04-29T09:43:06Z</time>
      </trkpt>
      <trkpt lat="45.05119" lon="2.91528">
        <ele>1185.45</ele>
        <time>2015-04-29T09:43:16Z</time>
      </trkpt>
      <trkpt lat="45.0511" lon="2.91542">
        <ele>1186.06</ele>
        <time>2015-04-29T09:43:26Z</time>
      </trkpt>
      <trkpt lat="45.05104" lon="2.91558">
        <ele>1181.99</ele>
        <time>2015-04-29T09:43:36Z</time>
      </trkpt>
      <trkpt lat="45.05097" lon="2.91577">
        <ele>1183.25</ele>
        <time>2015-04-29T09:43:46Z</time>
      </trkpt>
      <trkpt lat="45.05091" lon="2.91595">
        <ele>1182</ele>
        <time>2015-04-29T09:43:56Z</time>
      </trkpt>
      <trkpt lat="45.05091" lon="2.916">
        <ele>1180.25</ele>
        <time>2015-04-29T09:44:06Z</time>
      </trkpt>
      <trkpt lat="45.0509" lon="2.91602">
        <ele>1180.75</ele>
        <time>2015-04-29T09:44:18Z</time>
      </trkpt>
      <trkpt lat="45.05086" lon="2.91621">
        <ele>1183.04</ele>
        <time>2015-04-29T09:44:28Z</time>
      </trkpt>
      <trkpt lat="45.05085" lon="2.91638">
        <ele>1179.32</ele>
        <time>2015-04-29T09:44:38Z</time>
      </trkpt>
      <trkpt lat="45.05087" lon="2.91656">
        <ele>1176.06</ele>
        <time>2015-04-29T09:44:48Z</time>
      </trkpt>
      <trkpt lat="45.05088" lon="2.91678">
        <ele>1178.73</ele>
        <time>2015-04-29T09:44:58Z</time>
      </trkpt>
      <trkpt lat="45.05088" lon="2.91697">
        <ele>1175.25</ele>
        <time>2015-04-29T09:45:08Z</time>
      </trkpt>
      <trkpt lat="45.05093" lon="2.91712">
        <ele>1172.06</ele>
        <time>2015-04-29T09:45:18Z</time>
      </trkpt>
      <trkpt lat="45.05093" lon="2.91729">
        <ele>1169.03</ele>
        <time>2015-04-29T09:45:28Z</time>
      </trkpt>
      <trkpt lat="45.05093" lon="2.91741">
        <ele>1170.25</ele>
        <time>2015-04-29T09:45:38Z</time>
      </trkpt>
      <trkpt lat="45.05089" lon="2.91761">
        <ele>1171.06</ele>
        <time>2015-04-29T09:45:48Z</time>
      </trkpt>
      <trkpt lat="45.05086" lon="2.91777">
        <ele>1169.27</ele>
        <time>2015-04-29T09:45:58Z</time>
      </trkpt>
      <trkpt lat="45.05083" lon="2.91796">
        <ele>1169</ele>
        <time>2015-04-29T09:46:08Z</time>
      </trkpt>
      <trkpt lat="45.05081" lon="2.9181">
        <ele>1167.02</ele>
        <time>2015-04-29T09:46:18Z</time>
      </trkpt>
      <trkpt lat="45.05076" lon="2.91831">
        <ele>1165</ele>
        <time>2015-04-29T09:46:28Z</time>
      </trkpt>
      <trkpt lat="45.05074" lon="2.91842">
        <ele>1165.75</ele>
        <time>2015-04-29T09:46:38Z</time>
      </trkpt>
      <trkpt lat="45.05072" lon="2.91855">
        <ele>1166</ele>
        <time>2015-04-29T09:46:48Z</time>
      </trkpt>
      <trkpt lat="45.05068" lon="2.91879">
        <ele>1166.94</ele>
        <time>2015-04-29T09:46:58Z</time>
      </trkpt>
      <trkpt lat="45.05064" lon="2.91901">
        <ele>1162.33</ele>
        <time>2015-04-29T09:47:08Z</time>
      </trkpt>
      <trkpt lat="45.05059" lon="2.9192">
        <ele>1163.94</ele>
        <time>2015-04-29T09:47:18Z</time>
      </trkpt>
      <trkpt lat="45.05056" lon="2.91935">
        <ele>1165</ele>
        <time>2015-04-29T09:47:28Z</time>
      </trkpt>
      <trkpt lat="45.05052" lon="2.9195">
        <ele>1163</ele>
        <time>2015-04-29T09:47:38Z</time>
      </trkpt>
      <trkpt lat="45.05047" lon="2.91969">
        <ele>1159</ele>
        <time>2015-04-29T09:47:48Z</time>
      </trkpt>
      <trkpt lat="45.05041" lon="2.91992">
        <ele>1160.98</ele>
        <time>2015-04-29T09:47:58Z</time>
      </trkpt>
      <trkpt lat="45.05038" lon="2.92007">
        <ele>1161</ele>
        <time>2015-04-29T09:48:08Z</time>
      </trkpt>
      <trkpt lat="45.05032" lon="2.92026">
        <ele>1163.19</ele>
        <time>2015-04-29T09:48:18Z</time>
      </trkpt>
      <trkpt lat="45.05022" lon="2.9204">
        <ele>1163.25</ele>
        <time>2015-04-29T09:48:28Z</time>
      </trkpt>
      <trkpt lat="45.0501" lon="2.92047">
        <ele>1162.77</ele>
        <time>2015-04-29T09:48:38Z</time>
      </trkpt>
      <trkpt lat="45.04998" lon="2.92043">
        <ele>1163</ele>
        <time>2015-04-29T09:48:48Z</time>
      </trkpt>
      <trkpt lat="45.04986" lon="2.92039">
        <ele>1165.69</ele>
        <time>2015-04-29T09:48:58Z</time>
      </trkpt>
      <trkpt lat="45.04973" lon="2.92041">
        <ele>1163.98</ele>
        <time>2015-04-29T09:49:08Z</time>
      </trkpt>
      <trkpt lat="45.0496" lon="2.92036">
        <ele>1162.9</ele>
        <time>2015-04-29T09:49:18Z</time>
      </trkpt>
      <trkpt lat="45.04948" lon="2.92031">
        <ele>1163</ele>
        <time>2015-04-29T09:49:28Z</time>
      </trkpt>
      <trkpt lat="45.04935" lon="2.92028">
        <ele>1164.69</ele>
        <time>2015-04-29T09:49:38Z</time>
      </trkpt>
      <trkpt lat="45.04922" lon="2.92024">
        <ele>1166.92</ele>
        <time>2015-04-29T09:49:48Z</time>
      </trkpt>
      <trkpt lat="45.04911" lon="2.92023">
        <ele>1166</ele>
        <time>2015-04-29T09:49:58Z</time>
      </trkpt>
      <trkpt lat="45.04896" lon="2.92024">
        <ele>1166.25</ele>
        <time>2015-04-29T09:50:08Z</time>
      </trkpt>
      <trkpt lat="45.04885" lon="2.92018">
        <ele>1165.24</ele>
        <time>2015-04-29T09:50:18Z</time>
      </trkpt>
      <trkpt lat="45.04875" lon="2.92007">
        <ele>1156.14</ele>
        <time>2015-04-29T09:50:28Z</time>
      </trkpt>
      <trkpt lat="45.04866" lon="2.91997">
        <ele>1155.31</ele>
        <time>2015-04-29T09:50:38Z</time>
      </trkpt>
      <trkpt lat="45.04863" lon="2.91987">
        <ele>1148.25</ele>
        <time>2015-04-29T09:50:48Z</time>
      </trkpt>
      <trkpt lat="45.04858" lon="2.91973">
        <ele>1150</ele>
        <time>2015-04-29T09:50:58Z</time>
      </trkpt>
      <trkpt lat="45.04846" lon="2.91972">
        <ele>1155.68</ele>
        <time>2015-04-29T09:51:08Z</time>
      </trkpt>
      <trkpt lat="45.04836" lon="2.91978">
        <ele>1155.82</ele>
        <time>2015-04-29T09:51:18Z</time>
      </trkpt>
      <trkpt lat="45.04825" lon="2.91985">
        <ele>1157.99</ele>
        <time>2015-04-29T09:51:28Z</time>
      </trkpt>
      <trkpt lat="45.04813" lon="2.91993">
        <ele>1157.97</ele>
        <time>2015-04-29T09:51:38Z</time>
      </trkpt>
      <trkpt lat="45.04804" lon="2.92006">
        <ele>1153</ele>
        <time>2015-04-29T09:51:48Z</time>
      </trkpt>
      <trkpt lat="45.04794" lon="2.9202">
        <ele>1153.94</ele>
        <time>2015-04-29T09:51:58Z</time>
      </trkpt>
      <trkpt lat="45.04786" lon="2.92034">
        <ele>1156.98</ele>
        <time>2015-04-29T09:52:08Z</time>
      </trkpt>
      <trkpt lat="45.04783" lon="2.92042">
        <ele>1156.7</ele>
        <time>2015-04-29T09:52:18Z</time>
      </trkpt>
      <trkpt lat="45.04776" lon="2.92056">
        <ele>1150.07</ele>
        <time>2015-04-29T09:52:28Z</time>
      </trkpt>
      <trkpt lat="45.04771" lon="2.92069">
        <ele>1152.94</ele>
        <time>2015-04-29T09:52:38Z</time>
      </trkpt>
      <trkpt lat="45.04771" lon="2.92087">
        <ele>1150.68</ele>
        <time>2015-04-29T09:52:48Z</time>
      </trkpt>
      <trkpt lat="45.04779" lon="2.92096">
        <ele>1150.2</ele>
        <time>2015-04-29T09:52:58Z</time>
      </trkpt>
      <trkpt lat="45.04792" lon="2.92105">
        <ele>1150.69</ele>
        <time>2015-04-29T09:53:08Z</time>
      </trkpt>
      <trkpt lat="45.04805" lon="2.92114">
        <ele>1153.25</ele>
        <time>2015-04-29T09:53:18Z</time>
      </trkpt>
      <trkpt lat="45.04813" lon="2.92124">
        <ele>1151.11</ele>
        <time>2015-04-29T09:53:28Z</time>
      </trkpt>
      <trkpt lat="45.04822" lon="2.92139">
        <ele>1149.23</ele>
        <time>2015-04-29T09:53:38Z</time>
      </trkpt>
      <trkpt lat="45.0483" lon="2.92152">
        <ele>1148.25</ele>
        <time>2015-04-29T09:53:48Z</time>
      </trkpt>
      <trkpt lat="45.04839" lon="2.92169">
        <ele>1150.25</ele>
        <time>2015-04-29T09:53:58Z</time>
      </trkpt>
      <trkpt lat="45.04844" lon="2.92184">
        <ele>1149.06</ele>
        <time>2015-04-29T09:54:08Z</time>
      </trkpt>
      <trkpt lat="45.04852" lon="2.92199">
        <ele>1146.5</ele>
        <time>2015-04-29T09:54:18Z</time>
      </trkpt>
      <trkpt lat="45.04861" lon="2.92215">
        <ele>1147.14</ele>
        <time>2015-04-29T09:54:28Z</time>
      </trkpt>
      <trkpt lat="45.04864" lon="2.92227">
        <ele>1141.02</ele>
        <time>2015-04-29T09:54:38Z</time>
      </trkpt>
      <trkpt lat="45.04876" lon="2.92242">
        <ele>1143</ele>
        <time>2015-04-29T09:54:48Z</time>
      </trkpt>
      <trkpt lat="45.04885" lon="2.9226">
        <ele>1146.25</ele>
        <time>2015-04-29T09:54:58Z</time>
      </trkpt>
      <trkpt lat="45.04894" lon="2.92276">
        <ele>1147.75</ele>
        <time>2015-04-29T09:55:08Z</time>
      </trkpt>
      <trkpt lat="45.04904" lon="2.92291">
        <ele>1148.81</ele>
        <time>2015-04-29T09:55:18Z</time>
      </trkpt>
      <trkpt lat="45.04914" lon="2.92307">
        <ele>1147.05</ele>
        <time>2015-04-29T09:55:28Z</time>
      </trkpt>
      <trkpt lat="45.04921" lon="2.92324">
        <ele>1146.81</ele>
        <time>2015-04-29T09:55:38Z</time>
      </trkpt>
      <trkpt lat="45.04929" lon="2.92338">
        <ele>1144.26</ele>
        <time>2015-04-29T09:55:48Z</time>
      </trkpt>
      <trkpt lat="45.04935" lon="2.92355">
        <ele>1143</ele>
        <time>2015-04-29T09:55:58Z</time>
      </trkpt>
      <trkpt lat="45.04944" lon="2.92369">
        <ele>1145.7</ele>
        <time>2015-04-29T09:56:08Z</time>
      </trkpt>
      <trkpt lat="45.0495" lon="2.9238">
        <ele>1145.98</ele>
        <time>2015-04-29T09:56:18Z</time>
      </trkpt>
      <trkpt lat="45.0495" lon="2.92381">
        <ele>1146</ele>
        <time>2015-04-29T09:56:40Z</time>
      </trkpt>
      <trkpt lat="45.04957" lon="2.92396">
        <ele>1144</ele>
        <time>2015-04-29T09:56:50Z</time>
      </trkpt>
      <trkpt lat="45.04966" lon="2.92413">
        <ele>1141</ele>
        <time>2015-04-29T09:57:00Z</time>
      </trkpt>
      <trkpt lat="45.04976" lon="2.92429">
        <ele>1139.06</ele>
        <time>2015-04-29T09:57:10Z</time>
      </trkpt>
      <trkpt lat="45.04982" lon="2.92446">
        <ele>1138.69</ele>
        <time>2015-04-29T09:57:20Z</time>
      </trkpt>
      <trkpt lat="45.04989" lon="2.92462">
        <ele>1139.77</ele>
        <time>2015-04-29T09:57:30Z</time>
      </trkpt>
      <trkpt lat="45.04992" lon="2.92477">
        <ele>1138.95</ele>
        <time>2015-04-29T09:57:40Z</time>
      </trkpt>
      <trkpt lat="45.04995" lon="2.92492">
        <ele>1139.75</ele>
        <time>2015-04-29T09:57:50Z</time>
      </trkpt>
      <trkpt lat="45.05001" lon="2.92508">
        <ele>1138.33</ele>
        <time>2015-04-29T09:58:00Z</time>
      </trkpt>
      <trkpt lat="45.05008" lon="2.92525">
        <ele>1139</ele>
        <time>2015-04-29T09:58:10Z</time>
      </trkpt>
      <trkpt lat="45.05014" lon="2.92542">
        <ele>1137.06</ele>
        <time>2015-04-29T09:58:20Z</time>
      </trkpt>
      <trkpt lat="45.0502" lon="2.92558">
        <ele>1136.02</ele>
        <time>2015-04-29T09:58:30Z</time>
      </trkpt>
      <trkpt lat="45.05024" lon="2.92574">
        <ele>1138.74</ele>
        <time>2015-04-29T09:58:40Z</time>
      </trkpt>
      <trkpt lat="45.05029" lon="2.92587">
        <ele>1136</ele>
        <time>2015-04-29T09:58:50Z</time>
      </trkpt>
      <trkpt lat="45.05035" lon="2.92602">
        <ele>1132.15</ele>
        <time>2015-04-29T09:59:00Z</time>
      </trkpt>
      <trkpt lat="45.05058" lon="2.92638">
        <ele>1118.47</ele>
        <time>2015-04-29T09:59:37Z</time>
      </trkpt>
      <trkpt lat="45.05083" lon="2.92649">
        <ele>1129.87</ele>
        <time>2015-04-29T09:59:47Z</time>
      </trkpt>
      <trkpt lat="45.05098" lon="2.9266">
        <ele>1133.89</ele>
        <time>2015-04-29T09:59:57Z</time>
      </trkpt>
      <trkpt lat="45.05108" lon="2.92671">
        <ele>1129.2</ele>
        <time>2015-04-29T10:00:07Z</time>
      </trkpt>
      <trkpt lat="45.05116" lon="2.92677">
        <ele>1117.56</ele>
        <time>2015-04-29T10:00:17Z</time>
      </trkpt>
      <trkpt lat="45.05127" lon="2.9269">
        <ele>1120.99</ele>
        <time>2015-04-29T10:00:27Z</time>
      </trkpt>
      <trkpt lat="45.05138" lon="2.92703">
        <ele>1123</ele>
        <time>2015-04-29T10:00:37Z</time>
      </trkpt>
      <trkpt lat="45.05145" lon="2.92708">
        <ele>1126</ele>
        <time>2015-04-29T10:00:47Z</time>
      </trkpt>
      <trkpt lat="45.05157" lon="2.92719">
        <ele>1124.05</ele>
        <time>2015-04-29T10:00:57Z</time>
      </trkpt>
      <trkpt lat="45.05168" lon="2.9273">
        <ele>1123</ele>
        <time>2015-04-29T10:01:07Z</time>
      </trkpt>
      <trkpt lat="45.05177" lon="2.92741">
        <ele>1121.2</ele>
        <time>2015-04-29T10:01:17Z</time>
      </trkpt>
      <trkpt lat="45.05187" lon="2.92753">
        <ele>1121.02</ele>
        <time>2015-04-29T10:01:27Z</time>
      </trkpt>
      <trkpt lat="45.05198" lon="2.92765">
        <ele>1120</ele>
        <time>2015-04-29T10:01:37Z</time>
      </trkpt>
      <trkpt lat="45.05205" lon="2.92778">
        <ele>1120.06</ele>
        <time>2015-04-29T10:01:47Z</time>
      </trkpt>
      <trkpt lat="45.05211" lon="2.92791">
        <ele>1119.02</ele>
        <time>2015-04-29T10:01:57Z</time>
      </trkpt>
      <trkpt lat="45.05218" lon="2.92805">
        <ele>1118.94</ele>
        <time>2015-04-29T10:02:07Z</time>
      </trkpt>
      <trkpt lat="45.05226" lon="2.92821">
        <ele>1118.94</ele>
        <time>2015-04-29T10:02:17Z</time>
      </trkpt>
      <trkpt lat="45.05236" lon="2.92835">
        <ele>1120.18</ele>
        <time>2015-04-29T10:02:27Z</time>
      </trkpt>
      <trkpt lat="45.05244" lon="2.92851">
        <ele>1119</ele>
        <time>2015-04-29T10:02:37Z</time>
      </trkpt>
      <trkpt lat="45.05252" lon="2.92865">
        <ele>1120</ele>
        <time>2015-04-29T10:02:47Z</time>
      </trkpt>
      <trkpt lat="45.05259" lon="2.92881">
        <ele>1119.02</ele>
        <time>2015-04-29T10:02:57Z</time>
      </trkpt>
      <trkpt lat="45.05266" lon="2.92896">
        <ele>1120.95</ele>
        <time>2015-04-29T10:03:07Z</time>
      </trkpt>
      <trkpt lat="45.05275" lon="2.92911">
        <ele>1120.75</ele>
        <time>2015-04-29T10:03:17Z</time>
      </trkpt>
      <trkpt lat="45.05283" lon="2.92924">
        <ele>1121.75</ele>
        <time>2015-04-29T10:03:27Z</time>
      </trkpt>
      <trkpt lat="45.05289" lon="2.92935">
        <ele>1121.06</ele>
        <time>2015-04-29T10:03:37Z</time>
      </trkpt>
      <trkpt lat="45.05293" lon="2.92949">
        <ele>1119.07</ele>
        <time>2015-04-29T10:03:47Z</time>
      </trkpt>
      <trkpt lat="45.05296" lon="2.92965">
        <ele>1118.05</ele>
        <time>2015-04-29T10:03:57Z</time>
      </trkpt>
      <trkpt lat="45.05292" lon="2.92981">
        <ele>1117</ele>
        <time>2015-04-29T10:04:07Z</time>
      </trkpt>
      <trkpt lat="45.05287" lon="2.92998">
        <ele>1117.75</ele>
        <time>2015-04-29T10:04:17Z</time>
      </trkpt>
      <trkpt lat="45.0528" lon="2.93015">
        <ele>1117.02</ele>
        <time>2015-04-29T10:04:27Z</time>
      </trkpt>
      <trkpt lat="45.05274" lon="2.93031">
        <ele>1118.94</ele>
        <time>2015-04-29T10:04:37Z</time>
      </trkpt>
      <trkpt lat="45.05268" lon="2.93048">
        <ele>1119.81</ele>
        <time>2015-04-29T10:04:47Z</time>
      </trkpt>
      <trkpt lat="45.05264" lon="2.93064">
        <ele>1119</ele>
        <time>2015-04-29T10:04:57Z</time>
      </trkpt>
      <trkpt lat="45.05261" lon="2.93082">
        <ele>1118</ele>
        <time>2015-04-29T10:05:07Z</time>
      </trkpt>
      <trkpt lat="45.05259" lon="2.93098">
        <ele>1117</ele>
        <time>2015-04-29T10:05:17Z</time>
      </trkpt>
      <trkpt lat="45.05257" lon="2.93115">
        <ele>1115.07</ele>
        <time>2015-04-29T10:05:27Z</time>
      </trkpt>
      <trkpt lat="45.05256" lon="2.93136">
        <ele>1116.95</ele>
        <time>2015-04-29T10:05:37Z</time>
      </trkpt>
      <trkpt lat="45.05253" lon="2.93156">
        <ele>1112.79</ele>
        <time>2015-04-29T10:05:47Z</time>
      </trkpt>
      <trkpt lat="45.05249" lon="2.93172">
        <ele>1113.01</ele>
        <time>2015-04-29T10:05:57Z</time>
      </trkpt>
      <trkpt lat="45.05246" lon="2.93186">
        <ele>1114.74</ele>
        <time>2015-04-29T10:06:07Z</time>
      </trkpt>
      <trkpt lat="45.05243" lon="2.93205">
        <ele>1117.87</ele>
        <time>2015-04-29T10:06:17Z</time>
      </trkpt>
      <trkpt lat="45.05242" lon="2.93225">
        <ele>1121.93</ele>
        <time>2015-04-29T10:06:27Z</time>
      </trkpt>
      <trkpt lat="45.05242" lon="2.93242">
        <ele>1121.07</ele>
        <time>2015-04-29T10:06:37Z</time>
      </trkpt>
      <trkpt lat="45.05242" lon="2.93258">
        <ele>1118.19</ele>
        <time>2015-04-29T10:06:47Z</time>
      </trkpt>
      <trkpt lat="45.05239" lon="2.93277">
        <ele>1119.19</ele>
        <time>2015-04-29T10:06:57Z</time>
      </trkpt>
      <trkpt lat="45.05241" lon="2.93299">
        <ele>1117.13</ele>
        <time>2015-04-29T10:07:07Z</time>
      </trkpt>
      <trkpt lat="45.05241" lon="2.93317">
        <ele>1119.75</ele>
        <time>2015-04-29T10:07:17Z</time>
      </trkpt>
      <trkpt lat="45.05242" lon="2.93331">
        <ele>1110.43</ele>
        <time>2015-04-29T10:07:27Z</time>
      </trkpt>
      <trkpt lat="45.05246" lon="2.93345">
        <ele>1113.56</ele>
        <time>2015-04-29T10:07:37Z</time>
      </trkpt>
      <trkpt lat="45.05259" lon="2.93349">
        <ele>1112.71</ele>
        <time>2015-04-29T10:07:47Z</time>
      </trkpt>
      <trkpt lat="45.05272" lon="2.93353">
        <ele>1110.81</ele>
        <time>2015-04-29T10:07:57Z</time>
      </trkpt>
      <trkpt lat="45.05282" lon="2.93354">
        <ele>1109.19</ele>
        <time>2015-04-29T10:08:07Z</time>
      </trkpt>
      <trkpt lat="45.05285" lon="2.93337">
        <ele>1112.42</ele>
        <time>2015-04-29T10:08:17Z</time>
      </trkpt>
      <trkpt lat="45.05285" lon="2.93321">
        <ele>1113.01</ele>
        <time>2015-04-29T10:08:27Z</time>
      </trkpt>
      <trkpt lat="45.05282" lon="2.93313">
        <ele>1112.74</ele>
        <time>2015-04-29T10:08:37Z</time>
      </trkpt>
      <trkpt lat="45.05281" lon="2.93312">
        <ele>1112.94</ele>
        <time>2015-04-29T10:08:38Z</time>
      </trkpt>
      <trkpt lat="45.05291" lon="2.93302">
        <ele>1133.75</ele>
        <time>2015-04-29T10:51:34Z</time>
      </trkpt>
      <trkpt lat="45.0529" lon="2.93325">
        <ele>1124.19</ele>
        <time>2015-04-29T10:51:44Z</time>
      </trkpt>
      <trkpt lat="45.05288" lon="2.93341">
        <ele>1117.32</ele>
        <time>2015-04-29T10:51:54Z</time>
      </trkpt>
      <trkpt lat="45.05278" lon="2.93353">
        <ele>1117.56</ele>
        <time>2015-04-29T10:52:04Z</time>
      </trkpt>
      <trkpt lat="45.05268" lon="2.93364">
        <ele>1119</ele>
        <time>2015-04-29T10:52:14Z</time>
      </trkpt>
      <trkpt lat="45.05255" lon="2.93369">
        <ele>1121</ele>
        <time>2015-04-29T10:52:24Z</time>
      </trkpt>
      <trkpt lat="45.05245" lon="2.93374">
        <ele>1117.32</ele>
        <time>2015-04-29T10:52:34Z</time>
      </trkpt>
      <trkpt lat="45.05237" lon="2.93375">
        <ele>1116.88</ele>
        <time>2015-04-29T10:52:44Z</time>
      </trkpt>
      <trkpt lat="45.05235" lon="2.93372">
        <ele>1118.98</ele>
        <time>2015-04-29T10:52:54Z</time>
      </trkpt>
      <trkpt lat="45.05233" lon="2.93368">
        <ele>1120</ele>
        <time>2015-04-29T10:53:04Z</time>
      </trkpt>
      <trkpt lat="45.05222" lon="2.93368">
        <ele>1120.06</ele>
        <time>2015-04-29T10:53:14Z</time>
      </trkpt>
      <trkpt lat="45.05211" lon="2.93369">
        <ele>1121.8</ele>
        <time>2015-04-29T10:53:24Z</time>
      </trkpt>
      <trkpt lat="45.05198" lon="2.93369">
        <ele>1117.32</ele>
        <time>2015-04-29T10:53:34Z</time>
      </trkpt>
      <trkpt lat="45.05187" lon="2.93368">
        <ele>1116.93</ele>
        <time>2015-04-29T10:53:44Z</time>
      </trkpt>
      <trkpt lat="45.05174" lon="2.93367">
        <ele>1119.98</ele>
        <time>2015-04-29T10:53:54Z</time>
      </trkpt>
      <trkpt lat="45.05163" lon="2.9337">
        <ele>1120.12</ele>
        <time>2015-04-29T10:54:04Z</time>
      </trkpt>
      <trkpt lat="45.05154" lon="2.9338">
        <ele>1114.3</ele>
        <time>2015-04-29T10:54:14Z</time>
      </trkpt>
      <trkpt lat="45.05142" lon="2.93382">
        <ele>1115.19</ele>
        <time>2015-04-29T10:54:24Z</time>
      </trkpt>
      <trkpt lat="45.05137" lon="2.93377">
        <ele>1109.78</ele>
        <time>2015-04-29T10:54:34Z</time>
      </trkpt>
      <trkpt lat="45.05125" lon="2.93386">
        <ele>1109.25</ele>
        <time>2015-04-29T10:54:44Z</time>
      </trkpt>
      <trkpt lat="45.05111" lon="2.9339">
        <ele>1110.92</ele>
        <time>2015-04-29T10:54:54Z</time>
      </trkpt>
      <trkpt lat="45.05096" lon="2.93397">
        <ele>1112.12</ele>
        <time>2015-04-29T10:55:04Z</time>
      </trkpt>
      <trkpt lat="45.05083" lon="2.9341">
        <ele>1115.95</ele>
        <time>2015-04-29T10:55:14Z</time>
      </trkpt>
      <trkpt lat="45.05071" lon="2.93424">
        <ele>1118.75</ele>
        <time>2015-04-29T10:55:24Z</time>
      </trkpt>
      <trkpt lat="45.05062" lon="2.93431">
        <ele>1117.25</ele>
        <time>2015-04-29T10:55:34Z</time>
      </trkpt>
      <trkpt lat="45.05058" lon="2.93436">
        <ele>1113</ele>
        <time>2015-04-29T10:55:44Z</time>
      </trkpt>
      <trkpt lat="45.05055" lon="2.93446">
        <ele>1110.01</ele>
        <time>2015-04-29T10:55:54Z</time>
      </trkpt>
      <trkpt lat="45.05032" lon="2.93508">
        <ele>1111.5</ele>
        <time>2015-04-29T10:56:34Z</time>
      </trkpt>
      <trkpt lat="45.05043" lon="2.93533">
        <ele>1106.75</ele>
        <time>2015-04-29T10:56:44Z</time>
      </trkpt>
      <trkpt lat="45.05046" lon="2.93552">
        <ele>1107.08</ele>
        <time>2015-04-29T10:56:54Z</time>
      </trkpt>
      <trkpt lat="45.0505" lon="2.93569">
        <ele>1104.06</ele>
        <time>2015-04-29T10:57:04Z</time>
      </trkpt>
      <trkpt lat="45.05053" lon="2.93587">
        <ele>1103.75</ele>
        <time>2015-04-29T10:57:14Z</time>
      </trkpt>
      <trkpt lat="45.05053" lon="2.93604">
        <ele>1104.25</ele>
        <time>2015-04-29T10:57:24Z</time>
      </trkpt>
      <trkpt lat="45.05053" lon="2.93621">
        <ele>1104</ele>
        <time>2015-04-29T10:57:34Z</time>
      </trkpt>
      <trkpt lat="45.05055" lon="2.93635">
        <ele>1102.12</ele>
        <time>2015-04-29T10:57:44Z</time>
      </trkpt>
      <trkpt lat="45.05062" lon="2.93648">
        <ele>1097.35</ele>
        <time>2015-04-29T10:57:54Z</time>
      </trkpt>
      <trkpt lat="45.05065" lon="2.93659">
        <ele>1097.12</ele>
        <time>2015-04-29T10:58:04Z</time>
      </trkpt>
      <trkpt lat="45.05067" lon="2.93676">
        <ele>1096.25</ele>
        <time>2015-04-29T10:58:14Z</time>
      </trkpt>
      <trkpt lat="45.0507" lon="2.93694">
        <ele>1096.75</ele>
        <time>2015-04-29T10:58:24Z</time>
      </trkpt>
      <trkpt lat="45.05073" lon="2.93711">
        <ele>1095.75</ele>
        <time>2015-04-29T10:58:34Z</time>
      </trkpt>
      <trkpt lat="45.05076" lon="2.93726">
        <ele>1095.69</ele>
        <time>2015-04-29T10:58:44Z</time>
      </trkpt>
      <trkpt lat="45.05078" lon="2.93743">
        <ele>1097.73</ele>
        <time>2015-04-29T10:58:54Z</time>
      </trkpt>
      <trkpt lat="45.05079" lon="2.93759">
        <ele>1098</ele>
        <time>2015-04-29T10:59:04Z</time>
      </trkpt>
      <trkpt lat="45.0508" lon="2.93774">
        <ele>1102</ele>
        <time>2015-04-29T10:59:14Z</time>
      </trkpt>
      <trkpt lat="45.0508" lon="2.93789">
        <ele>1098.37</ele>
        <time>2015-04-29T10:59:24Z</time>
      </trkpt>
      <trkpt lat="45.05086" lon="2.93801">
        <ele>1100.02</ele>
        <time>2015-04-29T10:59:34Z</time>
      </trkpt>
      <trkpt lat="45.05091" lon="2.93817">
        <ele>1098.98</ele>
        <time>2015-04-29T10:59:44Z</time>
      </trkpt>
      <trkpt lat="45.05097" lon="2.9383">
        <ele>1101.75</ele>
        <time>2015-04-29T10:59:54Z</time>
      </trkpt>
      <trkpt lat="45.05108" lon="2.93836">
        <ele>1098.02</ele>
        <time>2015-04-29T11:00:04Z</time>
      </trkpt>
      <trkpt lat="45.05113" lon="2.93851">
        <ele>1097.75</ele>
        <time>2015-04-29T11:00:14Z</time>
      </trkpt>
      <trkpt lat="45.0511" lon="2.93866">
        <ele>1099.95</ele>
        <time>2015-04-29T11:00:24Z</time>
      </trkpt>
      <trkpt lat="45.05103" lon="2.93882">
        <ele>1101.75</ele>
        <time>2015-04-29T11:00:34Z</time>
      </trkpt>
      <trkpt lat="45.05095" lon="2.93899">
        <ele>1101</ele>
        <time>2015-04-29T11:00:44Z</time>
      </trkpt>
      <trkpt lat="45.05091" lon="2.93912">
        <ele>1097.27</ele>
        <time>2015-04-29T11:00:54Z</time>
      </trkpt>
      <trkpt lat="45.05052" lon="2.93997">
        <ele>1114.95</ele>
        <time>2015-04-29T11:01:34Z</time>
      </trkpt>
      <trkpt lat="45.05056" lon="2.93995">
        <ele>1105.08</ele>
        <time>2015-04-29T11:01:44Z</time>
      </trkpt>
      <trkpt lat="45.05056" lon="2.94004">
        <ele>1102.25</ele>
        <time>2015-04-29T11:01:54Z</time>
      </trkpt>
      <trkpt lat="45.05052" lon="2.94018">
        <ele>1103</ele>
        <time>2015-04-29T11:02:04Z</time>
      </trkpt>
      <trkpt lat="45.05048" lon="2.94034">
        <ele>1100.56</ele>
        <time>2015-04-29T11:02:14Z</time>
      </trkpt>
      <trkpt lat="45.05045" lon="2.94048">
        <ele>1099.75</ele>
        <time>2015-04-29T11:02:24Z</time>
      </trkpt>
      <trkpt lat="45.05041" lon="2.94063">
        <ele>1097.27</ele>
        <time>2015-04-29T11:02:34Z</time>
      </trkpt>
      <trkpt lat="45.05039" lon="2.94076">
        <ele>1091.75</ele>
        <time>2015-04-29T11:02:44Z</time>
      </trkpt>
      <trkpt lat="45.05036" lon="2.94091">
        <ele>1092.75</ele>
        <time>2015-04-29T11:02:54Z</time>
      </trkpt>
      <trkpt lat="45.05031" lon="2.94105">
        <ele>1091</ele>
        <time>2015-04-29T11:03:04Z</time>
      </trkpt>
      <trkpt lat="45.05026" lon="2.94121">
        <ele>1092.64</ele>
        <time>2015-04-29T11:03:14Z</time>
      </trkpt>
      <trkpt lat="45.05019" lon="2.94139">
        <ele>1093</ele>
        <time>2015-04-29T11:03:24Z</time>
      </trkpt>
      <trkpt lat="45.05015" lon="2.94156">
        <ele>1091.13</ele>
        <time>2015-04-29T11:03:34Z</time>
      </trkpt>
      <trkpt lat="45.05011" lon="2.94172">
        <ele>1092</ele>
        <time>2015-04-29T11:03:44Z</time>
      </trkpt>
      <trkpt lat="45.05005" lon="2.94189">
        <ele>1091.25</ele>
        <time>2015-04-29T11:03:54Z</time>
      </trkpt>
      <trkpt lat="45.05" lon="2.94205">
        <ele>1092.7</ele>
        <time>2015-04-29T11:04:04Z</time>
      </trkpt>
      <trkpt lat="45.04996" lon="2.94222">
        <ele>1093.81</ele>
        <time>2015-04-29T11:04:14Z</time>
      </trkpt>
      <trkpt lat="45.04993" lon="2.9424">
        <ele>1095.69</ele>
        <time>2015-04-29T11:04:24Z</time>
      </trkpt>
      <trkpt lat="45.04988" lon="2.94258">
        <ele>1095.98</ele>
        <time>2015-04-29T11:04:34Z</time>
      </trkpt>
      <trkpt lat="45.04986" lon="2.94275">
        <ele>1095.02</ele>
        <time>2015-04-29T11:04:44Z</time>
      </trkpt>
      <trkpt lat="45.04986" lon="2.94288">
        <ele>1093.58</ele>
        <time>2015-04-29T11:04:54Z</time>
      </trkpt>
      <trkpt lat="45.04986" lon="2.94303">
        <ele>1091.03</ele>
        <time>2015-04-29T11:05:04Z</time>
      </trkpt>
      <trkpt lat="45.04987" lon="2.94321">
        <ele>1090</ele>
        <time>2015-04-29T11:05:14Z</time>
      </trkpt>
      <trkpt lat="45.04985" lon="2.94341">
        <ele>1091.81</ele>
        <time>2015-04-29T11:05:24Z</time>
      </trkpt>
      <trkpt lat="45.04984" lon="2.94361">
        <ele>1092.01</ele>
        <time>2015-04-29T11:05:34Z</time>
      </trkpt>
      <trkpt lat="45.04979" lon="2.94381">
        <ele>1094.25</ele>
        <time>2015-04-29T11:05:44Z</time>
      </trkpt>
      <trkpt lat="45.04977" lon="2.94397">
        <ele>1092.94</ele>
        <time>2015-04-29T11:05:54Z</time>
      </trkpt>
      <trkpt lat="45.04976" lon="2.94413">
        <ele>1092</ele>
        <time>2015-04-29T11:06:04Z</time>
      </trkpt>
      <trkpt lat="45.04978" lon="2.94452">
        <ele>1086</ele>
        <time>2015-04-29T11:06:35Z</time>
      </trkpt>
      <trkpt lat="45.04981" lon="2.94438">
        <ele>1086.91</ele>
        <time>2015-04-29T11:06:45Z</time>
      </trkpt>
      <trkpt lat="45.0498" lon="2.9444">
        <ele>1087</ele>
        <time>2015-04-29T11:06:59Z</time>
      </trkpt>
      <trkpt lat="45.0498" lon="2.9446">
        <ele>1086</ele>
        <time>2015-04-29T11:07:09Z</time>
      </trkpt>
      <trkpt lat="45.04982" lon="2.94478">
        <ele>1086</ele>
        <time>2015-04-29T11:07:19Z</time>
      </trkpt>
      <trkpt lat="45.04981" lon="2.94495">
        <ele>1086.24</ele>
        <time>2015-04-29T11:07:29Z</time>
      </trkpt>
      <trkpt lat="45.04979" lon="2.94514">
        <ele>1085.94</ele>
        <time>2015-04-29T11:07:39Z</time>
      </trkpt>
      <trkpt lat="45.04979" lon="2.94529">
        <ele>1084.27</ele>
        <time>2015-04-29T11:07:49Z</time>
      </trkpt>
      <trkpt lat="45.04978" lon="2.94543">
        <ele>1087</ele>
        <time>2015-04-29T11:07:59Z</time>
      </trkpt>
      <trkpt lat="45.04976" lon="2.94558">
        <ele>1088.25</ele>
        <time>2015-04-29T11:08:09Z</time>
      </trkpt>
      <trkpt lat="45.04977" lon="2.94574">
        <ele>1085</ele>
        <time>2015-04-29T11:08:19Z</time>
      </trkpt>
      <trkpt lat="45.04972" lon="2.94594">
        <ele>1088.93</ele>
        <time>2015-04-29T11:08:29Z</time>
      </trkpt>
      <trkpt lat="45.0497" lon="2.94608">
        <ele>1085.02</ele>
        <time>2015-04-29T11:08:39Z</time>
      </trkpt>
      <trkpt lat="45.04971" lon="2.94606">
        <ele>1086</ele>
        <time>2015-04-29T11:08:49Z</time>
      </trkpt>
      <trkpt lat="45.04972" lon="2.94606">
        <ele>1087.69</ele>
        <time>2015-04-29T11:09:11Z</time>
      </trkpt>
      <trkpt lat="45.04972" lon="2.94619">
        <ele>1087.01</ele>
        <time>2015-04-29T11:09:21Z</time>
      </trkpt>
      <trkpt lat="45.04969" lon="2.94639">
        <ele>1084.82</ele>
        <time>2015-04-29T11:09:31Z</time>
      </trkpt>
      <trkpt lat="45.04966" lon="2.94659">
        <ele>1086.06</ele>
        <time>2015-04-29T11:09:41Z</time>
      </trkpt>
      <trkpt lat="45.04965" lon="2.94674">
        <ele>1083.95</ele>
        <time>2015-04-29T11:09:51Z</time>
      </trkpt>
      <trkpt lat="45.04967" lon="2.9469">
        <ele>1082</ele>
        <time>2015-04-29T11:10:01Z</time>
      </trkpt>
      <trkpt lat="45.04967" lon="2.94708">
        <ele>1078.06</ele>
        <time>2015-04-29T11:10:11Z</time>
      </trkpt>
      <trkpt lat="45.04969" lon="2.94725">
        <ele>1076.07</ele>
        <time>2015-04-29T11:10:21Z</time>
      </trkpt>
      <trkpt lat="45.04968" lon="2.94743">
        <ele>1077.74</ele>
        <time>2015-04-29T11:10:31Z</time>
      </trkpt>
      <trkpt lat="45.0497" lon="2.94758">
        <ele>1076.05</ele>
        <time>2015-04-29T11:10:41Z</time>
      </trkpt>
      <trkpt lat="45.04973" lon="2.94775">
        <ele>1074.06</ele>
        <time>2015-04-29T11:10:51Z</time>
      </trkpt>
      <trkpt lat="45.04975" lon="2.94791">
        <ele>1073</ele>
        <time>2015-04-29T11:11:01Z</time>
      </trkpt>
      <trkpt lat="45.04991" lon="2.94838">
        <ele>1069.48</ele>
        <time>2015-04-29T11:11:36Z</time>
      </trkpt>
      <trkpt lat="45.04988" lon="2.94867">
        <ele>1072.17</ele>
        <time>2015-04-29T11:11:46Z</time>
      </trkpt>
      <trkpt lat="45.04991" lon="2.94884">
        <ele>1071.01</ele>
        <time>2015-04-29T11:11:56Z</time>
      </trkpt>
      <trkpt lat="45.04994" lon="2.94898">
        <ele>1069.75</ele>
        <time>2015-04-29T11:12:06Z</time>
      </trkpt>
      <trkpt lat="45.04993" lon="2.94912">
        <ele>1067.83</ele>
        <time>2015-04-29T11:12:16Z</time>
      </trkpt>
      <trkpt lat="45.04996" lon="2.94928">
        <ele>1065.83</ele>
        <time>2015-04-29T11:12:26Z</time>
      </trkpt>
      <trkpt lat="45.05003" lon="2.94943">
        <ele>1072.48</ele>
        <time>2015-04-29T11:12:36Z</time>
      </trkpt>
      <trkpt lat="45.0501" lon="2.9496">
        <ele>1073.68</ele>
        <time>2015-04-29T11:12:46Z</time>
      </trkpt>
      <trkpt lat="45.05015" lon="2.94974">
        <ele>1069.19</ele>
        <time>2015-04-29T11:12:56Z</time>
      </trkpt>
      <trkpt lat="45.05012" lon="2.94993">
        <ele>1066.24</ele>
        <time>2015-04-29T11:13:06Z</time>
      </trkpt>
      <trkpt lat="45.05008" lon="2.95014">
        <ele>1067</ele>
        <time>2015-04-29T11:13:16Z</time>
      </trkpt>
      <trkpt lat="45.05003" lon="2.95031">
        <ele>1068</ele>
        <time>2015-04-29T11:13:26Z</time>
      </trkpt>
      <trkpt lat="45.04998" lon="2.95049">
        <ele>1069.95</ele>
        <time>2015-04-29T11:13:36Z</time>
      </trkpt>
      <trkpt lat="45.04995" lon="2.95064">
        <ele>1066.97</ele>
        <time>2015-04-29T11:13:46Z</time>
      </trkpt>
      <trkpt lat="45.04988" lon="2.95081">
        <ele>1067.75</ele>
        <time>2015-04-29T11:13:56Z</time>
      </trkpt>
      <trkpt lat="45.04985" lon="2.95091">
        <ele>1068.25</ele>
        <time>2015-04-29T11:14:06Z</time>
      </trkpt>
      <trkpt lat="45.04979" lon="2.95104">
        <ele>1063.83</ele>
        <time>2015-04-29T11:14:16Z</time>
      </trkpt>
      <trkpt lat="45.04971" lon="2.95126">
        <ele>1066</ele>
        <time>2015-04-29T11:14:26Z</time>
      </trkpt>
      <trkpt lat="45.0497" lon="2.95145">
        <ele>1066.2</ele>
        <time>2015-04-29T11:14:36Z</time>
      </trkpt>
      <trkpt lat="45.0497" lon="2.95163">
        <ele>1068.89</ele>
        <time>2015-04-29T11:14:46Z</time>
      </trkpt>
      <trkpt lat="45.04974" lon="2.95176">
        <ele>1066.07</ele>
        <time>2015-04-29T11:14:56Z</time>
      </trkpt>
      <trkpt lat="45.04982" lon="2.95189">
        <ele>1063.19</ele>
        <time>2015-04-29T11:15:06Z</time>
      </trkpt>
      <trkpt lat="45.0499" lon="2.95199">
        <ele>1062.19</ele>
        <time>2015-04-29T11:15:16Z</time>
      </trkpt>
      <trkpt lat="45.04996" lon="2.95209">
        <ele>1059.88</ele>
        <time>2015-04-29T11:15:26Z</time>
      </trkpt>
      <trkpt lat="45.05" lon="2.95222">
        <ele>1059.81</ele>
        <time>2015-04-29T11:15:36Z</time>
      </trkpt>
      <trkpt lat="45.05006" lon="2.95235">
        <ele>1055.81</ele>
        <time>2015-04-29T11:15:46Z</time>
      </trkpt>
      <trkpt lat="45.05012" lon="2.95247">
        <ele>1055.73</ele>
        <time>2015-04-29T11:15:56Z</time>
      </trkpt>
      <trkpt lat="45.05014" lon="2.95263">
        <ele>1056.95</ele>
        <time>2015-04-29T11:16:06Z</time>
      </trkpt>
      <trkpt lat="45.05024" lon="2.95319">
        <ele>1065.24</ele>
        <time>2015-04-29T11:16:37Z</time>
      </trkpt>
      <trkpt lat="45.05037" lon="2.95327">
        <ele>1062.91</ele>
        <time>2015-04-29T11:16:47Z</time>
      </trkpt>
      <trkpt lat="45.05041" lon="2.95344">
        <ele>1059.01</ele>
        <time>2015-04-29T11:16:57Z</time>
      </trkpt>
      <trkpt lat="45.05045" lon="2.9536">
        <ele>1058.05</ele>
        <time>2015-04-29T11:17:07Z</time>
      </trkpt>
      <trkpt lat="45.05051" lon="2.95374">
        <ele>1056.24</ele>
        <time>2015-04-29T11:17:17Z</time>
      </trkpt>
      <trkpt lat="45.05055" lon="2.9539">
        <ele>1056.26</ele>
        <time>2015-04-29T11:17:27Z</time>
      </trkpt>
      <trkpt lat="45.05062" lon="2.95402">
        <ele>1053.58</ele>
        <time>2015-04-29T11:17:37Z</time>
      </trkpt>
      <trkpt lat="45.05073" lon="2.95412">
        <ele>1053.93</ele>
        <time>2015-04-29T11:17:47Z</time>
      </trkpt>
      <trkpt lat="45.05083" lon="2.95422">
        <ele>1053.76</ele>
        <time>2015-04-29T11:17:57Z</time>
      </trkpt>
      <trkpt lat="45.05093" lon="2.9543">
        <ele>1051.95</ele>
        <time>2015-04-29T11:18:07Z</time>
      </trkpt>
      <trkpt lat="45.05108" lon="2.95444">
        <ele>1052</ele>
        <time>2015-04-29T11:18:17Z</time>
      </trkpt>
      <trkpt lat="45.05119" lon="2.95456">
        <ele>1050.25</ele>
        <time>2015-04-29T11:18:27Z</time>
      </trkpt>
      <trkpt lat="45.05127" lon="2.95465">
        <ele>1050.95</ele>
        <time>2015-04-29T11:18:37Z</time>
      </trkpt>
      <trkpt lat="45.05134" lon="2.95473">
        <ele>1049.94</ele>
        <time>2015-04-29T11:18:47Z</time>
      </trkpt>
      <trkpt lat="45.05141" lon="2.95481">
        <ele>1052.93</ele>
        <time>2015-04-29T11:18:57Z</time>
      </trkpt>
      <trkpt lat="45.05149" lon="2.9549">
        <ele>1048.27</ele>
        <time>2015-04-29T11:19:07Z</time>
      </trkpt>
      <trkpt lat="45.05154" lon="2.95501">
        <ele>1047.02</ele>
        <time>2015-04-29T11:19:17Z</time>
      </trkpt>
      <trkpt lat="45.05163" lon="2.9551">
        <ele>1047.06</ele>
        <time>2015-04-29T11:19:27Z</time>
      </trkpt>
      <trkpt lat="45.05171" lon="2.95521">
        <ele>1047.06</ele>
        <time>2015-04-29T11:19:37Z</time>
      </trkpt>
      <trkpt lat="45.05176" lon="2.95526">
        <ele>1048.25</ele>
        <time>2015-04-29T11:19:47Z</time>
      </trkpt>
      <trkpt lat="45.05179" lon="2.95529">
        <ele>1052.92</ele>
        <time>2015-04-29T11:19:57Z</time>
      </trkpt>
      <trkpt lat="45.05182" lon="2.95536">
        <ele>1056.99</ele>
        <time>2015-04-29T11:20:07Z</time>
      </trkpt>
      <trkpt lat="45.05184" lon="2.95539">
        <ele>1054.27</ele>
        <time>2015-04-29T11:20:17Z</time>
      </trkpt>
      <trkpt lat="45.05183" lon="2.95543">
        <ele>1053.02</ele>
        <time>2015-04-29T11:20:27Z</time>
      </trkpt>
      <trkpt lat="45.05183" lon="2.95559">
        <ele>1053.19</ele>
        <time>2015-04-29T11:20:37Z</time>
      </trkpt>
      <trkpt lat="45.05183" lon="2.95575">
        <ele>1050.05</ele>
        <time>2015-04-29T11:20:47Z</time>
      </trkpt>
      <trkpt lat="45.0518" lon="2.95592">
        <ele>1050</ele>
        <time>2015-04-29T11:20:57Z</time>
      </trkpt>
      <trkpt lat="45.05168" lon="2.95659">
        <ele>1050.25</ele>
        <time>2015-04-29T11:21:38Z</time>
      </trkpt>
      <trkpt lat="45.05173" lon="2.9567">
        <ele>1033.48</ele>
        <time>2015-04-29T11:21:48Z</time>
      </trkpt>
      <trkpt lat="45.05173" lon="2.95687">
        <ele>1028.2</ele>
        <time>2015-04-29T11:21:58Z</time>
      </trkpt>
      <trkpt lat="45.05175" lon="2.95706">
        <ele>1033.44</ele>
        <time>2015-04-29T11:22:08Z</time>
      </trkpt>
      <trkpt lat="45.0518" lon="2.95724">
        <ele>1034.7</ele>
        <time>2015-04-29T11:22:18Z</time>
      </trkpt>
      <trkpt lat="45.05184" lon="2.95738">
        <ele>1039</ele>
        <time>2015-04-29T11:22:28Z</time>
      </trkpt>
      <trkpt lat="45.05188" lon="2.95761">
        <ele>1041.83</ele>
        <time>2015-04-29T11:22:38Z</time>
      </trkpt>
      <trkpt lat="45.05188" lon="2.95783">
        <ele>1046.96</ele>
        <time>2015-04-29T11:22:48Z</time>
      </trkpt>
      <trkpt lat="45.05192" lon="2.95797">
        <ele>1042.93</ele>
        <time>2015-04-29T11:22:58Z</time>
      </trkpt>
      <trkpt lat="45.05196" lon="2.95813">
        <ele>1041.93</ele>
        <time>2015-04-29T11:23:08Z</time>
      </trkpt>
      <trkpt lat="45.05199" lon="2.95825">
        <ele>1043.12</ele>
        <time>2015-04-29T11:23:18Z</time>
      </trkpt>
      <trkpt lat="45.05201" lon="2.95837">
        <ele>1046.02</ele>
        <time>2015-04-29T11:23:28Z</time>
      </trkpt>
      <trkpt lat="45.05206" lon="2.95854">
        <ele>1047.04</ele>
        <time>2015-04-29T11:23:38Z</time>
      </trkpt>
      <trkpt lat="45.05206" lon="2.95873">
        <ele>1042.75</ele>
        <time>2015-04-29T11:23:48Z</time>
      </trkpt>
      <trkpt lat="45.05209" lon="2.95891">
        <ele>1043</ele>
        <time>2015-04-29T11:23:58Z</time>
      </trkpt>
      <trkpt lat="45.05212" lon="2.95907">
        <ele>1039.94</ele>
        <time>2015-04-29T11:24:08Z</time>
      </trkpt>
      <trkpt lat="45.05215" lon="2.95925">
        <ele>1038.77</ele>
        <time>2015-04-29T11:24:18Z</time>
      </trkpt>
      <trkpt lat="45.0522" lon="2.9594">
        <ele>1040.5</ele>
        <time>2015-04-29T11:24:28Z</time>
      </trkpt>
      <trkpt lat="45.05222" lon="2.95958">
        <ele>1043.05</ele>
        <time>2015-04-29T11:24:38Z</time>
      </trkpt>
      <trkpt lat="45.05226" lon="2.95974">
        <ele>1037.99</ele>
        <time>2015-04-29T11:24:48Z</time>
      </trkpt>
      <trkpt lat="45.05229" lon="2.95989">
        <ele>1038.81</ele>
        <time>2015-04-29T11:24:58Z</time>
      </trkpt>
      <trkpt lat="45.0523" lon="2.96003">
        <ele>1038</ele>
        <time>2015-04-29T11:25:08Z</time>
      </trkpt>
      <trkpt lat="45.05233" lon="2.96021">
        <ele>1040.58</ele>
        <time>2015-04-29T11:25:18Z</time>
      </trkpt>
      <trkpt lat="45.05235" lon="2.96038">
        <ele>1041.01</ele>
        <time>2015-04-29T11:25:28Z</time>
      </trkpt>
      <trkpt lat="45.05239" lon="2.96054">
        <ele>1041.99</ele>
        <time>2015-04-29T11:25:38Z</time>
      </trkpt>
      <trkpt lat="45.05242" lon="2.96071">
        <ele>1041.5</ele>
        <time>2015-04-29T11:25:48Z</time>
      </trkpt>
      <trkpt lat="45.05242" lon="2.96091">
        <ele>1043.7</ele>
        <time>2015-04-29T11:25:58Z</time>
      </trkpt>
      <trkpt lat="45.05256" lon="2.96165">
        <ele>1044.25</ele>
        <time>2015-04-29T11:26:38Z</time>
      </trkpt>
      <trkpt lat="45.05262" lon="2.96191">
        <ele>1045.98</ele>
        <time>2015-04-29T11:26:48Z</time>
      </trkpt>
      <trkpt lat="45.05263" lon="2.96204">
        <ele>1040.24</ele>
        <time>2015-04-29T11:26:58Z</time>
      </trkpt>
      <trkpt lat="45.05266" lon="2.96221">
        <ele>1041.75</ele>
        <time>2015-04-29T11:27:08Z</time>
      </trkpt>
      <trkpt lat="45.05271" lon="2.96239">
        <ele>1042.75</ele>
        <time>2015-04-29T11:27:18Z</time>
      </trkpt>
      <trkpt lat="45.05273" lon="2.96254">
        <ele>1042.46</ele>
        <time>2015-04-29T11:27:28Z</time>
      </trkpt>
      <trkpt lat="45.05274" lon="2.96268">
        <ele>1044.81</ele>
        <time>2015-04-29T11:27:38Z</time>
      </trkpt>
      <trkpt lat="45.05277" lon="2.9629">
        <ele>1046.23</ele>
        <time>2015-04-29T11:27:48Z</time>
      </trkpt>
      <trkpt lat="45.0528" lon="2.96308">
        <ele>1042.02</ele>
        <time>2015-04-29T11:27:58Z</time>
      </trkpt>
      <trkpt lat="45.05284" lon="2.96324">
        <ele>1041.06</ele>
        <time>2015-04-29T11:28:08Z</time>
      </trkpt>
      <trkpt lat="45.05287" lon="2.96341">
        <ele>1038.31</ele>
        <time>2015-04-29T11:28:18Z</time>
      </trkpt>
      <trkpt lat="45.0529" lon="2.96352">
        <ele>1030.9</ele>
        <time>2015-04-29T11:28:28Z</time>
      </trkpt>
      <trkpt lat="45.05294" lon="2.96368">
        <ele>1030.93</ele>
        <time>2015-04-29T11:28:38Z</time>
      </trkpt>
      <trkpt lat="45.05297" lon="2.96389">
        <ele>1028.26</ele>
        <time>2015-04-29T11:28:48Z</time>
      </trkpt>
      <trkpt lat="45.05301" lon="2.96404">
        <ele>1026.75</ele>
        <time>2015-04-29T11:28:58Z</time>
      </trkpt>
      <trkpt lat="45.05303" lon="2.96424">
        <ele>1026.95</ele>
        <time>2015-04-29T11:29:08Z</time>
      </trkpt>
      <trkpt lat="45.05303" lon="2.96446">
        <ele>1029.24</ele>
        <time>2015-04-29T11:29:18Z</time>
      </trkpt>
      <trkpt lat="45.05303" lon="2.96464">
        <ele>1031.73</ele>
        <time>2015-04-29T11:29:28Z</time>
      </trkpt>
      <trkpt lat="45.053" lon="2.96481">
        <ele>1031.95</ele>
        <time>2015-04-29T11:29:38Z</time>
      </trkpt>
      <trkpt lat="45.05298" lon="2.96496">
        <ele>1032.99</ele>
        <time>2015-04-29T11:29:48Z</time>
      </trkpt>
      <trkpt lat="45.05293" lon="2.96511">
        <ele>1032.05</ele>
        <time>2015-04-29T11:29:58Z</time>
      </trkpt>
      <trkpt lat="45.05287" lon="2.9652">
        <ele>1031</ele>
        <time>2015-04-29T11:30:08Z</time>
      </trkpt>
      <trkpt lat="45.0528" lon="2.96531">
        <ele>1031</ele>
        <time>2015-04-29T11:30:18Z</time>
      </trkpt>
      <trkpt lat="45.05272" lon="2.96544">
        <ele>1032.93</ele>
        <time>2015-04-29T11:30:28Z</time>
      </trkpt>
      <trkpt lat="45.05265" lon="2.96554">
        <ele>1031.81</ele>
        <time>2015-04-29T11:30:38Z</time>
      </trkpt>
      <trkpt lat="45.05256" lon="2.96566">
        <ele>1031.81</ele>
        <time>2015-04-29T11:30:48Z</time>
      </trkpt>
      <trkpt lat="45.0525" lon="2.96578">
        <ele>1030</ele>
        <time>2015-04-29T11:30:58Z</time>
      </trkpt>
      <trkpt lat="45.05245" lon="2.96594">
        <ele>1027.25</ele>
        <time>2015-04-29T11:31:08Z</time>
      </trkpt>
      <trkpt lat="45.05226" lon="2.96642">
        <ele>1024.06</ele>
        <time>2015-04-29T11:31:40Z</time>
      </trkpt>
      <trkpt lat="45.05225" lon="2.96669">
        <ele>1026.02</ele>
        <time>2015-04-29T11:31:50Z</time>
      </trkpt>
      <trkpt lat="45.05225" lon="2.96671">
        <ele>1023.08</ele>
        <time>2015-04-29T11:32:00Z</time>
      </trkpt>
      <trkpt lat="45.05225" lon="2.96668">
        <ele>1022</ele>
        <time>2015-04-29T11:32:10Z</time>
      </trkpt>
      <trkpt lat="45.05226" lon="2.96671">
        <ele>1021.25</ele>
        <time>2015-04-29T11:32:26Z</time>
      </trkpt>
      <trkpt lat="45.05225" lon="2.96692">
        <ele>1020.01</ele>
        <time>2015-04-29T11:32:36Z</time>
      </trkpt>
      <trkpt lat="45.05222" lon="2.96711">
        <ele>1019.03</ele>
        <time>2015-04-29T11:32:46Z</time>
      </trkpt>
      <trkpt lat="45.05218" lon="2.96728">
        <ele>1021</ele>
        <time>2015-04-29T11:32:56Z</time>
      </trkpt>
      <trkpt lat="45.05212" lon="2.96743">
        <ele>1024.74</ele>
        <time>2015-04-29T11:33:06Z</time>
      </trkpt>
      <trkpt lat="45.05204" lon="2.96757">
        <ele>1023.81</ele>
        <time>2015-04-29T11:33:16Z</time>
      </trkpt>
      <trkpt lat="45.05197" lon="2.96771">
        <ele>1025.27</ele>
        <time>2015-04-29T11:33:26Z</time>
      </trkpt>
      <trkpt lat="45.05188" lon="2.96786">
        <ele>1026.98</ele>
        <time>2015-04-29T11:33:36Z</time>
      </trkpt>
      <trkpt lat="45.05179" lon="2.96799">
        <ele>1029</ele>
        <time>2015-04-29T11:33:46Z</time>
      </trkpt>
      <trkpt lat="45.0517" lon="2.96808">
        <ele>1031.81</ele>
        <time>2015-04-29T11:33:56Z</time>
      </trkpt>
      <trkpt lat="45.05162" lon="2.96817">
        <ele>1029.82</ele>
        <time>2015-04-29T11:34:06Z</time>
      </trkpt>
      <trkpt lat="45.05154" lon="2.96829">
        <ele>1029.94</ele>
        <time>2015-04-29T11:34:16Z</time>
      </trkpt>
      <trkpt lat="45.05144" lon="2.96839">
        <ele>1028.01</ele>
        <time>2015-04-29T11:34:26Z</time>
      </trkpt>
      <trkpt lat="45.05135" lon="2.96851">
        <ele>1028.81</ele>
        <time>2015-04-29T11:34:36Z</time>
      </trkpt>
      <trkpt lat="45.05126" lon="2.96862">
        <ele>1027</ele>
        <time>2015-04-29T11:34:46Z</time>
      </trkpt>
      <trkpt lat="45.05117" lon="2.9687">
        <ele>1029.87</ele>
        <time>2015-04-29T11:34:56Z</time>
      </trkpt>
      <trkpt lat="45.05108" lon="2.9688">
        <ele>1031</ele>
        <time>2015-04-29T11:35:06Z</time>
      </trkpt>
      <trkpt lat="45.051" lon="2.96891">
        <ele>1030.01</ele>
        <time>2015-04-29T11:35:16Z</time>
      </trkpt>
      <trkpt lat="45.05091" lon="2.96899">
        <ele>1032</ele>
        <time>2015-04-29T11:35:26Z</time>
      </trkpt>
      <trkpt lat="45.05081" lon="2.96906">
        <ele>1032</ele>
        <time>2015-04-29T11:35:36Z</time>
      </trkpt>
      <trkpt lat="45.05078" lon="2.96909">
        <ele>1032.12</ele>
        <time>2015-04-29T11:35:46Z</time>
      </trkpt>
      <trkpt lat="45.05073" lon="2.96922">
        <ele>1007.25</ele>
        <time>2015-04-29T11:36:39Z</time>
      </trkpt>
      <trkpt lat="45.05052" lon="2.96932">
        <ele>1031</ele>
        <time>2015-04-29T11:36:49Z</time>
      </trkpt>
      <trkpt lat="45.05042" lon="2.96945">
        <ele>1030.82</ele>
        <time>2015-04-29T11:36:59Z</time>
      </trkpt>
      <trkpt lat="45.05035" lon="2.96959">
        <ele>1028.07</ele>
        <time>2015-04-29T11:37:09Z</time>
      </trkpt>
      <trkpt lat="45.05028" lon="2.96971">
        <ele>1029.06</ele>
        <time>2015-04-29T11:37:19Z</time>
      </trkpt>
      <trkpt lat="45.05021" lon="2.96985">
        <ele>1029.19</ele>
        <time>2015-04-29T11:37:29Z</time>
      </trkpt>
      <trkpt lat="45.05016" lon="2.96998">
        <ele>1028.81</ele>
        <time>2015-04-29T11:37:39Z</time>
      </trkpt>
      <trkpt lat="45.0501" lon="2.97013">
        <ele>1030</ele>
        <time>2015-04-29T11:37:49Z</time>
      </trkpt>
      <trkpt lat="45.05003" lon="2.97024">
        <ele>1033.31</ele>
        <time>2015-04-29T11:37:59Z</time>
      </trkpt>
      <trkpt lat="45.05" lon="2.97035">
        <ele>1031.52</ele>
        <time>2015-04-29T11:38:09Z</time>
      </trkpt>
      <trkpt lat="45.05002" lon="2.97032">
        <ele>1028.25</ele>
        <time>2015-04-29T11:38:19Z</time>
      </trkpt>
      <trkpt lat="45.04997" lon="2.97043">
        <ele>1031.75</ele>
        <time>2015-04-29T11:38:29Z</time>
      </trkpt>
      <trkpt lat="45.04996" lon="2.97047">
        <ele>1029.25</ele>
        <time>2015-04-29T11:38:39Z</time>
      </trkpt>
      <trkpt lat="45.04991" lon="2.97061">
        <ele>1031.69</ele>
        <time>2015-04-29T11:38:49Z</time>
      </trkpt>
      <trkpt lat="45.04987" lon="2.9707">
        <ele>1031.3</ele>
        <time>2015-04-29T11:38:59Z</time>
      </trkpt>
      <trkpt lat="45.04987" lon="2.97069">
        <ele>1032</ele>
        <time>2015-04-29T11:39:33Z</time>
      </trkpt>
      <trkpt lat="45.04985" lon="2.97075">
        <ele>1030.08</ele>
        <time>2015-04-29T11:39:43Z</time>
      </trkpt>
      <trkpt lat="45.04978" lon="2.97092">
        <ele>1031.75</ele>
        <time>2015-04-29T11:39:53Z</time>
      </trkpt>
      <trkpt lat="45.04971" lon="2.97104">
        <ele>1028.25</ele>
        <time>2015-04-29T11:40:03Z</time>
      </trkpt>
      <trkpt lat="45.04964" lon="2.97118">
        <ele>1028.73</ele>
        <time>2015-04-29T11:40:13Z</time>
      </trkpt>
      <trkpt lat="45.04958" lon="2.97132">
        <ele>1029.78</ele>
        <time>2015-04-29T11:40:23Z</time>
      </trkpt>
      <trkpt lat="45.04954" lon="2.97147">
        <ele>1033.73</ele>
        <time>2015-04-29T11:40:33Z</time>
      </trkpt>
      <trkpt lat="45.0495" lon="2.97158">
        <ele>1035</ele>
        <time>2015-04-29T11:40:43Z</time>
      </trkpt>
      <trkpt lat="45.04947" lon="2.97163">
        <ele>1035.73</ele>
        <time>2015-04-29T11:40:53Z</time>
      </trkpt>
      <trkpt lat="45.04941" lon="2.97181">
        <ele>1035.25</ele>
        <time>2015-04-29T11:41:03Z</time>
      </trkpt>
      <trkpt lat="45.04923" lon="2.97226">
        <ele>1035.81</ele>
        <time>2015-04-29T11:41:40Z</time>
      </trkpt>
      <trkpt lat="45.04928" lon="2.97221">
        <ele>1023.99</ele>
        <time>2015-04-29T11:41:50Z</time>
      </trkpt>
      <trkpt lat="45.04929" lon="2.9722">
        <ele>1023.06</ele>
        <time>2015-04-29T11:43:27Z</time>
      </trkpt>
      <trkpt lat="45.04932" lon="2.97219">
        <ele>1026</ele>
        <time>2015-04-29T11:43:37Z</time>
      </trkpt>
      <trkpt lat="45.04928" lon="2.97232">
        <ele>1028.94</ele>
        <time>2015-04-29T11:43:47Z</time>
      </trkpt>
      <trkpt lat="45.04924" lon="2.97251">
        <ele>1032.68</ele>
        <time>2015-04-29T11:43:57Z</time>
      </trkpt>
      <trkpt lat="45.04918" lon="2.97267">
        <ele>1034.87</ele>
        <time>2015-04-29T11:44:07Z</time>
      </trkpt>
      <trkpt lat="45.04913" lon="2.97287">
        <ele>1034.06</ele>
        <time>2015-04-29T11:44:17Z</time>
      </trkpt>
      <trkpt lat="45.04909" lon="2.97304">
        <ele>1034</ele>
        <time>2015-04-29T11:44:27Z</time>
      </trkpt>
      <trkpt lat="45.04904" lon="2.97321">
        <ele>1031.07</ele>
        <time>2015-04-29T11:44:37Z</time>
      </trkpt>
      <trkpt lat="45.049" lon="2.97338">
        <ele>1028.27</ele>
        <time>2015-04-29T11:44:47Z</time>
      </trkpt>
      <trkpt lat="45.04895" lon="2.97358">
        <ele>1031.76</ele>
        <time>2015-04-29T11:44:57Z</time>
      </trkpt>
      <trkpt lat="45.04891" lon="2.97376">
        <ele>1033.06</ele>
        <time>2015-04-29T11:45:07Z</time>
      </trkpt>
      <trkpt lat="45.04886" lon="2.97395">
        <ele>1034.19</ele>
        <time>2015-04-29T11:45:17Z</time>
      </trkpt>
      <trkpt lat="45.04882" lon="2.97413">
        <ele>1037.73</ele>
        <time>2015-04-29T11:45:27Z</time>
      </trkpt>
      <trkpt lat="45.04877" lon="2.97428">
        <ele>1037.25</ele>
        <time>2015-04-29T11:45:37Z</time>
      </trkpt>
      <trkpt lat="45.04874" lon="2.97448">
        <ele>1036.95</ele>
        <time>2015-04-29T11:45:47Z</time>
      </trkpt>
      <trkpt lat="45.04869" lon="2.97465">
        <ele>1035</ele>
        <time>2015-04-29T11:45:57Z</time>
      </trkpt>
      <trkpt lat="45.04865" lon="2.97479">
        <ele>1035.26</ele>
        <time>2015-04-29T11:46:07Z</time>
      </trkpt>
      <trkpt lat="45.04839" lon="2.97555">
        <ele>1038.38</ele>
        <time>2015-04-29T11:46:40Z</time>
      </trkpt>
      <trkpt lat="45.0485" lon="2.97559">
        <ele>1032.27</ele>
        <time>2015-04-29T11:46:50Z</time>
      </trkpt>
      <trkpt lat="45.04849" lon="2.97576">
        <ele>1032.73</ele>
        <time>2015-04-29T11:47:00Z</time>
      </trkpt>
      <trkpt lat="45.04848" lon="2.97594">
        <ele>1033.95</ele>
        <time>2015-04-29T11:47:10Z</time>
      </trkpt>
      <trkpt lat="45.04848" lon="2.97611">
        <ele>1036.74</ele>
        <time>2015-04-29T11:47:20Z</time>
      </trkpt>
      <trkpt lat="45.04848" lon="2.97629">
        <ele>1040</ele>
        <time>2015-04-29T11:47:30Z</time>
      </trkpt>
      <trkpt lat="45.04849" lon="2.97648">
        <ele>1042.92</ele>
        <time>2015-04-29T11:47:40Z</time>
      </trkpt>
      <trkpt lat="45.04849" lon="2.97671">
        <ele>1042.11</ele>
        <time>2015-04-29T11:47:50Z</time>
      </trkpt>
      <trkpt lat="45.0485" lon="2.97694">
        <ele>1044.12</ele>
        <time>2015-04-29T11:48:00Z</time>
      </trkpt>
      <trkpt lat="45.04851" lon="2.97712">
        <ele>1047.98</ele>
        <time>2015-04-29T11:48:10Z</time>
      </trkpt>
      <trkpt lat="45.0485" lon="2.97728">
        <ele>1046.25</ele>
        <time>2015-04-29T11:48:20Z</time>
      </trkpt>
      <trkpt lat="45.0485" lon="2.97743">
        <ele>1043.23</ele>
        <time>2015-04-29T11:48:30Z</time>
      </trkpt>
      <trkpt lat="45.04851" lon="2.97763">
        <ele>1044.99</ele>
        <time>2015-04-29T11:48:40Z</time>
      </trkpt>
      <trkpt lat="45.04852" lon="2.97779">
        <ele>1043.75</ele>
        <time>2015-04-29T11:48:50Z</time>
      </trkpt>
      <trkpt lat="45.04851" lon="2.97795">
        <ele>1040.06</ele>
        <time>2015-04-29T11:49:00Z</time>
      </trkpt>
      <trkpt lat="45.0485" lon="2.97813">
        <ele>1037.06</ele>
        <time>2015-04-29T11:49:10Z</time>
      </trkpt>
      <trkpt lat="45.04851" lon="2.97832">
        <ele>1038</ele>
        <time>2015-04-29T11:49:20Z</time>
      </trkpt>
      <trkpt lat="45.04852" lon="2.9785">
        <ele>1036.94</ele>
        <time>2015-04-29T11:49:30Z</time>
      </trkpt>
      <trkpt lat="45.04856" lon="2.97868">
        <ele>1039.75</ele>
        <time>2015-04-29T11:49:40Z</time>
      </trkpt>
      <trkpt lat="45.04855" lon="2.97884">
        <ele>1038</ele>
        <time>2015-04-29T11:49:50Z</time>
      </trkpt>
      <trkpt lat="45.04857" lon="2.97902">
        <ele>1034.26</ele>
        <time>2015-04-29T11:50:00Z</time>
      </trkpt>
      <trkpt lat="45.04858" lon="2.9792">
        <ele>1038.8</ele>
        <time>2015-04-29T11:50:10Z</time>
      </trkpt>
      <trkpt lat="45.04861" lon="2.97938">
        <ele>1039.89</ele>
        <time>2015-04-29T11:50:20Z</time>
      </trkpt>
      <trkpt lat="45.04861" lon="2.97955">
        <ele>1041.25</ele>
        <time>2015-04-29T11:50:30Z</time>
      </trkpt>
      <trkpt lat="45.04861" lon="2.97973">
        <ele>1038.53</ele>
        <time>2015-04-29T11:50:40Z</time>
      </trkpt>
      <trkpt lat="45.04862" lon="2.97989">
        <ele>1038.34</ele>
        <time>2015-04-29T11:50:50Z</time>
      </trkpt>
      <trkpt lat="45.04859" lon="2.98009">
        <ele>1033.06</ele>
        <time>2015-04-29T11:51:00Z</time>
      </trkpt>
      <trkpt lat="45.04858" lon="2.98028">
        <ele>1027.82</ele>
        <time>2015-04-29T11:51:10Z</time>
      </trkpt>
      <trkpt lat="45.04816" lon="2.99868">
        <ele>1017</ele>
        <time>2015-04-29T12:17:17Z</time>
      </trkpt>
      <trkpt lat="45.04816" lon="2.99867">
        <ele>1016.06</ele>
        <time>2015-04-29T12:17:29Z</time>
      </trkpt>
      <trkpt lat="45.04819" lon="2.99864">
        <ele>1016.75</ele>
        <time>2015-04-29T12:17:39Z</time>
      </trkpt>
      <trkpt lat="45.04822" lon="2.9986">
        <ele>1017</ele>
        <time>2015-04-29T12:17:49Z</time>
      </trkpt>
      <trkpt lat="45.04821" lon="2.99859">
        <ele>1017</ele>
        <time>2015-04-29T12:18:06Z</time>
      </trkpt>
      <trkpt lat="45.0482" lon="2.9986">
        <ele>1015.25</ele>
        <time>2015-04-29T12:18:20Z</time>
      </trkpt>
      <trkpt lat="45.04821" lon="2.99866">
        <ele>1013</ele>
        <time>2015-04-29T12:18:30Z</time>
      </trkpt>
      <trkpt lat="45.04822" lon="2.99872">
        <ele>1014.75</ele>
        <time>2015-04-29T12:18:45Z</time>
      </trkpt>
      <trkpt lat="45.04828" lon="2.99905">
        <ele>1022.01</ele>
        <time>2015-04-29T12:18:55Z</time>
      </trkpt>
      <trkpt lat="45.0483" lon="2.99925">
        <ele>1019.27</ele>
        <time>2015-04-29T12:19:05Z</time>
      </trkpt>
      <trkpt lat="45.04834" lon="2.99946">
        <ele>1016.27</ele>
        <time>2015-04-29T12:19:15Z</time>
      </trkpt>
      <trkpt lat="45.0484" lon="2.99963">
        <ele>1014.07</ele>
        <time>2015-04-29T12:19:25Z</time>
      </trkpt>
      <trkpt lat="45.04849" lon="2.9998">
        <ele>1015.17</ele>
        <time>2015-04-29T12:19:35Z</time>
      </trkpt>
      <trkpt lat="45.04854" lon="2.99998">
        <ele>1016</ele>
        <time>2015-04-29T12:19:45Z</time>
      </trkpt>
      <trkpt lat="45.0486" lon="3.00014">
        <ele>1015.02</ele>
        <time>2015-04-29T12:19:55Z</time>
      </trkpt>
      <trkpt lat="45.04866" lon="3.00027">
        <ele>1015</ele>
        <time>2015-04-29T12:20:05Z</time>
      </trkpt>
      <trkpt lat="45.04872" lon="3.00043">
        <ele>1014.92</ele>
        <time>2015-04-29T12:20:15Z</time>
      </trkpt>
      <trkpt lat="45.04877" lon="3.00052">
        <ele>1016.98</ele>
        <time>2015-04-29T12:20:25Z</time>
      </trkpt>
      <trkpt lat="45.04884" lon="3.00072">
        <ele>1015.88</ele>
        <time>2015-04-29T12:20:35Z</time>
      </trkpt>
      <trkpt lat="45.04887" lon="3.00084">
        <ele>1015.5</ele>
        <time>2015-04-29T12:20:45Z</time>
      </trkpt>
      <trkpt lat="45.04896" lon="3.00108">
        <ele>1013.07</ele>
        <time>2015-04-29T12:20:55Z</time>
      </trkpt>
      <trkpt lat="45.04907" lon="3.0012">
        <ele>1012.99</ele>
        <time>2015-04-29T12:21:05Z</time>
      </trkpt>
      <trkpt lat="45.04919" lon="3.0013">
        <ele>1011.01</ele>
        <time>2015-04-29T12:21:15Z</time>
      </trkpt>
      <trkpt lat="45.04922" lon="3.00135">
        <ele>1011.98</ele>
        <time>2015-04-29T12:21:25Z</time>
      </trkpt>
      <trkpt lat="45.04925" lon="3.00149">
        <ele>1013.93</ele>
        <time>2015-04-29T12:21:35Z</time>
      </trkpt>
      <trkpt lat="45.0493" lon="3.00158">
        <ele>1014</ele>
        <time>2015-04-29T12:22:12Z</time>
      </trkpt>
      <trkpt lat="45.04947" lon="3.00216">
        <ele>1020.15</ele>
        <time>2015-04-29T12:22:22Z</time>
      </trkpt>
      <trkpt lat="45.0495" lon="3.00252">
        <ele>1004.74</ele>
        <time>2015-04-29T12:22:32Z</time>
      </trkpt>
      <trkpt lat="45.04955" lon="3.00269">
        <ele>1003.69</ele>
        <time>2015-04-29T12:22:42Z</time>
      </trkpt>
      <trkpt lat="45.04962" lon="3.00287">
        <ele>1003.76</ele>
        <time>2015-04-29T12:22:52Z</time>
      </trkpt>
      <trkpt lat="45.04965" lon="3.00303">
        <ele>1004</ele>
        <time>2015-04-29T12:23:02Z</time>
      </trkpt>
      <trkpt lat="45.04964" lon="3.0031">
        <ele>1005.75</ele>
        <time>2015-04-29T12:23:12Z</time>
      </trkpt>
      <trkpt lat="45.04962" lon="3.00324">
        <ele>1010.19</ele>
        <time>2015-04-29T12:23:22Z</time>
      </trkpt>
      <trkpt lat="45.04957" lon="3.00339">
        <ele>1008</ele>
        <time>2015-04-29T12:23:32Z</time>
      </trkpt>
      <trkpt lat="45.04954" lon="3.0036">
        <ele>1008.06</ele>
        <time>2015-04-29T12:23:42Z</time>
      </trkpt>
      <trkpt lat="45.04946" lon="3.00375">
        <ele>1004.89</ele>
        <time>2015-04-29T12:23:52Z</time>
      </trkpt>
      <trkpt lat="45.04941" lon="3.00396">
        <ele>1007.96</ele>
        <time>2015-04-29T12:24:02Z</time>
      </trkpt>
      <trkpt lat="45.04941" lon="3.00409">
        <ele>1004.25</ele>
        <time>2015-04-29T12:24:12Z</time>
      </trkpt>
      <trkpt lat="45.04941" lon="3.0042">
        <ele>1003.3</ele>
        <time>2015-04-29T12:24:22Z</time>
      </trkpt>
      <trkpt lat="45.04939" lon="3.0043">
        <ele>1005.51</ele>
        <time>2015-04-29T12:24:32Z</time>
      </trkpt>
      <trkpt lat="45.04927" lon="3.00449">
        <ele>1007.05</ele>
        <time>2015-04-29T12:24:42Z</time>
      </trkpt>
      <trkpt lat="45.04917" lon="3.00452">
        <ele>1005</ele>
        <time>2015-04-29T12:24:52Z</time>
      </trkpt>
      <trkpt lat="45.04905" lon="3.00458">
        <ele>1005.9</ele>
        <time>2015-04-29T12:25:02Z</time>
      </trkpt>
      <trkpt lat="45.04898" lon="3.00473">
        <ele>1007.64</ele>
        <time>2015-04-29T12:25:12Z</time>
      </trkpt>
      <trkpt lat="45.04892" lon="3.00496">
        <ele>1013.14</ele>
        <time>2015-04-29T12:25:22Z</time>
      </trkpt>
      <trkpt lat="45.0489" lon="3.00505">
        <ele>1015.26</ele>
        <time>2015-04-29T12:25:32Z</time>
      </trkpt>
      <trkpt lat="45.04887" lon="3.00521">
        <ele>1018.74</ele>
        <time>2015-04-29T12:25:42Z</time>
      </trkpt>
      <trkpt lat="45.04884" lon="3.00532">
        <ele>1020</ele>
        <time>2015-04-29T12:25:52Z</time>
      </trkpt>
      <trkpt lat="45.04884" lon="3.00552">
        <ele>1018.27</ele>
        <time>2015-04-29T12:26:02Z</time>
      </trkpt>
      <trkpt lat="45.04878" lon="3.0057">
        <ele>1014.31</ele>
        <time>2015-04-29T12:26:12Z</time>
      </trkpt>
      <trkpt lat="45.04877" lon="3.00584">
        <ele>1012.62</ele>
        <time>2015-04-29T12:26:22Z</time>
      </trkpt>
      <trkpt lat="45.04879" lon="3.00599">
        <ele>999.94</ele>
        <time>2015-04-29T12:26:32Z</time>
      </trkpt>
      <trkpt lat="45.04927" lon="3.00663">
        <ele>1012.02</ele>
        <time>2015-04-29T12:27:13Z</time>
      </trkpt>
      <trkpt lat="45.04922" lon="3.00663">
        <ele>1001.89</ele>
        <time>2015-04-29T12:27:23Z</time>
      </trkpt>
      <trkpt lat="45.04919" lon="3.00674">
        <ele>998.76</ele>
        <time>2015-04-29T12:27:33Z</time>
      </trkpt>
      <trkpt lat="45.0492" lon="3.00683">
        <ele>999</ele>
        <time>2015-04-29T12:27:43Z</time>
      </trkpt>
      <trkpt lat="45.04923" lon="3.00691">
        <ele>998.04</ele>
        <time>2015-04-29T12:27:53Z</time>
      </trkpt>
      <trkpt lat="45.04928" lon="3.00699">
        <ele>1001.98</ele>
        <time>2015-04-29T12:28:03Z</time>
      </trkpt>
      <trkpt lat="45.04924" lon="3.00713">
        <ele>999.21</ele>
        <time>2015-04-29T12:28:13Z</time>
      </trkpt>
      <trkpt lat="45.04921" lon="3.00726">
        <ele>998</ele>
        <time>2015-04-29T12:28:23Z</time>
      </trkpt>
      <trkpt lat="45.0492" lon="3.0073">
        <ele>998.01</ele>
        <time>2015-04-29T12:28:33Z</time>
      </trkpt>
      <trkpt lat="45.04919" lon="3.00749">
        <ele>996.77</ele>
        <time>2015-04-29T12:28:43Z</time>
      </trkpt>
      <trkpt lat="45.04917" lon="3.00764">
        <ele>996.3</ele>
        <time>2015-04-29T12:28:53Z</time>
      </trkpt>
      <trkpt lat="45.04913" lon="3.00781">
        <ele>997.01</ele>
        <time>2015-04-29T12:29:03Z</time>
      </trkpt>
      <trkpt lat="45.04911" lon="3.00789">
        <ele>993.38</ele>
        <time>2015-04-29T12:29:13Z</time>
      </trkpt>
      <trkpt lat="45.04907" lon="3.00803">
        <ele>989</ele>
        <time>2015-04-29T12:29:23Z</time>
      </trkpt>
      <trkpt lat="45.04901" lon="3.00814">
        <ele>987.39</ele>
        <time>2015-04-29T12:29:33Z</time>
      </trkpt>
      <trkpt lat="45.04901" lon="3.0082">
        <ele>982.95</ele>
        <time>2015-04-29T12:29:43Z</time>
      </trkpt>
      <trkpt lat="45.04901" lon="3.00827">
        <ele>976.5</ele>
        <time>2015-04-29T12:29:53Z</time>
      </trkpt>
      <trkpt lat="45.04903" lon="3.00828">
        <ele>978.73</ele>
        <time>2015-04-29T12:30:03Z</time>
      </trkpt>
      <trkpt lat="45.0491" lon="3.00846">
        <ele>981.98</ele>
        <time>2015-04-29T12:30:13Z</time>
      </trkpt>
      <trkpt lat="45.04918" lon="3.00854">
        <ele>986.02</ele>
        <time>2015-04-29T12:30:23Z</time>
      </trkpt>
      <trkpt lat="45.0492" lon="3.00862">
        <ele>985.23</ele>
        <time>2015-04-29T12:30:33Z</time>
      </trkpt>
      <trkpt lat="45.04926" lon="3.00879">
        <ele>983</ele>
        <time>2015-04-29T12:30:43Z</time>
      </trkpt>
      <trkpt lat="45.04938" lon="3.00899">
        <ele>983.05</ele>
        <time>2015-04-29T12:30:53Z</time>
      </trkpt>
      <trkpt lat="45.04936" lon="3.00905">
        <ele>978.66</ele>
        <time>2015-04-29T12:31:03Z</time>
      </trkpt>
      <trkpt lat="45.04937" lon="3.00902">
        <ele>971.02</ele>
        <time>2015-04-29T12:31:13Z</time>
      </trkpt>
      <trkpt lat="45.04945" lon="3.00892">
        <ele>968.41</ele>
        <time>2015-04-29T12:31:23Z</time>
      </trkpt>
      <trkpt lat="45.04946" lon="3.00881">
        <ele>966.69</ele>
        <time>2015-04-29T12:31:33Z</time>
      </trkpt>
      <trkpt lat="45.04998" lon="3.00835">
        <ele>950.32</ele>
        <time>2015-04-29T12:32:13Z</time>
      </trkpt>
      <trkpt lat="45.05002" lon="3.00824">
        <ele>958.23</ele>
        <time>2015-04-29T12:32:23Z</time>
      </trkpt>
      <trkpt lat="45.05009" lon="3.00811">
        <ele>956.8</ele>
        <time>2015-04-29T12:32:33Z</time>
      </trkpt>
      <trkpt lat="45.05015" lon="3.00798">
        <ele>955.26</ele>
        <time>2015-04-29T12:32:43Z</time>
      </trkpt>
      <trkpt lat="45.05025" lon="3.00792">
        <ele>952.24</ele>
        <time>2015-04-29T12:32:53Z</time>
      </trkpt>
      <trkpt lat="45.05036" lon="3.00789">
        <ele>952</ele>
        <time>2015-04-29T12:33:03Z</time>
      </trkpt>
      <trkpt lat="45.05047" lon="3.0079">
        <ele>950.61</ele>
        <time>2015-04-29T12:33:13Z</time>
      </trkpt>
      <trkpt lat="45.05057" lon="3.00789">
        <ele>946.28</ele>
        <time>2015-04-29T12:33:23Z</time>
      </trkpt>
      <trkpt lat="45.05065" lon="3.00773">
        <ele>945.95</ele>
        <time>2015-04-29T12:33:33Z</time>
      </trkpt>
      <trkpt lat="45.05076" lon="3.00762">
        <ele>945</ele>
        <time>2015-04-29T12:33:43Z</time>
      </trkpt>
      <trkpt lat="45.05081" lon="3.00768">
        <ele>943.31</ele>
        <time>2015-04-29T12:33:53Z</time>
      </trkpt>
      <trkpt lat="45.05087" lon="3.00783">
        <ele>944.93</ele>
        <time>2015-04-29T12:34:03Z</time>
      </trkpt>
      <trkpt lat="45.05098" lon="3.00792">
        <ele>947.16</ele>
        <time>2015-04-29T12:34:13Z</time>
      </trkpt>
      <trkpt lat="45.05108" lon="3.00798">
        <ele>948.99</ele>
        <time>2015-04-29T12:34:23Z</time>
      </trkpt>
      <trkpt lat="45.05117" lon="3.00809">
        <ele>956.48</ele>
        <time>2015-04-29T12:34:33Z</time>
      </trkpt>
      <trkpt lat="45.05126" lon="3.00826">
        <ele>961.92</ele>
        <time>2015-04-29T12:34:43Z</time>
      </trkpt>
      <trkpt lat="45.05133" lon="3.00843">
        <ele>964.99</ele>
        <time>2015-04-29T12:34:53Z</time>
      </trkpt>
      <trkpt lat="45.05137" lon="3.00852">
        <ele>962.96</ele>
        <time>2015-04-29T12:35:03Z</time>
      </trkpt>
      <trkpt lat="45.05143" lon="3.0086">
        <ele>962.32</ele>
        <time>2015-04-29T12:35:13Z</time>
      </trkpt>
      <trkpt lat="45.05153" lon="3.00867">
        <ele>963.98</ele>
        <time>2015-04-29T12:35:23Z</time>
      </trkpt>
      <trkpt lat="45.05158" lon="3.00875">
        <ele>957.52</ele>
        <time>2015-04-29T12:35:33Z</time>
      </trkpt>
      <trkpt lat="45.05165" lon="3.00883">
        <ele>956.19</ele>
        <time>2015-04-29T12:35:43Z</time>
      </trkpt>
      <trkpt lat="45.05174" lon="3.00891">
        <ele>953.25</ele>
        <time>2015-04-29T12:35:53Z</time>
      </trkpt>
      <trkpt lat="45.05184" lon="3.00895">
        <ele>947.02</ele>
        <time>2015-04-29T12:36:03Z</time>
      </trkpt>
      <trkpt lat="45.05196" lon="3.009">
        <ele>949.49</ele>
        <time>2015-04-29T12:36:13Z</time>
      </trkpt>
      <trkpt lat="45.05205" lon="3.00905">
        <ele>940.08</ele>
        <time>2015-04-29T12:36:23Z</time>
      </trkpt>
      <trkpt lat="45.05214" lon="3.00913">
        <ele>946.75</ele>
        <time>2015-04-29T12:36:33Z</time>
      </trkpt>
      <trkpt lat="45.05224" lon="3.00922">
        <ele>944.75</ele>
        <time>2015-04-29T12:36:43Z</time>
      </trkpt>
      <trkpt lat="45.05264" lon="3.0098">
        <ele>935.19</ele>
        <time>2015-04-29T12:37:14Z</time>
      </trkpt>
      <trkpt lat="45.05256" lon="3.00987">
        <ele>935.92</ele>
        <time>2015-04-29T12:37:24Z</time>
      </trkpt>
      <trkpt lat="45.05256" lon="3.00998">
        <ele>934.2</ele>
        <time>2015-04-29T12:37:34Z</time>
      </trkpt>
      <trkpt lat="45.05257" lon="3.01006">
        <ele>936.37</ele>
        <time>2015-04-29T12:37:44Z</time>
      </trkpt>
      <trkpt lat="45.0526" lon="3.01027">
        <ele>938.02</ele>
        <time>2015-04-29T12:37:54Z</time>
      </trkpt>
      <trkpt lat="45.05259" lon="3.01028">
        <ele>938.98</ele>
        <time>2015-04-29T12:38:04Z</time>
      </trkpt>
      <trkpt lat="45.05259" lon="3.0103">
        <ele>936.75</ele>
        <time>2015-04-29T12:38:27Z</time>
      </trkpt>
      <trkpt lat="45.05249" lon="3.01042">
        <ele>939.74</ele>
        <time>2015-04-29T12:38:37Z</time>
      </trkpt>
      <trkpt lat="45.05247" lon="3.01046">
        <ele>935.94</ele>
        <time>2015-04-29T12:38:47Z</time>
      </trkpt>
      <trkpt lat="45.05246" lon="3.01049">
        <ele>935.31</ele>
        <time>2015-04-29T12:38:57Z</time>
      </trkpt>
      <trkpt lat="45.05246" lon="3.01061">
        <ele>932.83</ele>
        <time>2015-04-29T12:39:07Z</time>
      </trkpt>
      <trkpt lat="45.05246" lon="3.01075">
        <ele>932.82</ele>
        <time>2015-04-29T12:39:17Z</time>
      </trkpt>
      <trkpt lat="45.05243" lon="3.01089">
        <ele>930.02</ele>
        <time>2015-04-29T12:39:27Z</time>
      </trkpt>
      <trkpt lat="45.05241" lon="3.01101">
        <ele>935.73</ele>
        <time>2015-04-29T12:39:37Z</time>
      </trkpt>
      <trkpt lat="45.0524" lon="3.01101">
        <ele>931.14</ele>
        <time>2015-04-29T12:39:47Z</time>
      </trkpt>
      <trkpt lat="45.05239" lon="3.01127">
        <ele>927.94</ele>
        <time>2015-04-29T12:39:57Z</time>
      </trkpt>
      <trkpt lat="45.0524" lon="3.01148">
        <ele>927.06</ele>
        <time>2015-04-29T12:40:07Z</time>
      </trkpt>
      <trkpt lat="45.05247" lon="3.01163">
        <ele>925.77</ele>
        <time>2015-04-29T12:40:17Z</time>
      </trkpt>
      <trkpt lat="45.05246" lon="3.01164">
        <ele>927</ele>
        <time>2015-04-29T12:40:27Z</time>
      </trkpt>
      <trkpt lat="45.05247" lon="3.01166">
        <ele>927</ele>
        <time>2015-04-29T12:40:52Z</time>
      </trkpt>
      <trkpt lat="45.05253" lon="3.01186">
        <ele>927.72</ele>
        <time>2015-04-29T12:41:02Z</time>
      </trkpt>
      <trkpt lat="45.05258" lon="3.01202">
        <ele>926.25</ele>
        <time>2015-04-29T12:41:12Z</time>
      </trkpt>
      <trkpt lat="45.0526" lon="3.0122">
        <ele>928.78</ele>
        <time>2015-04-29T12:41:22Z</time>
      </trkpt>
      <trkpt lat="45.05258" lon="3.01233">
        <ele>928.16</ele>
        <time>2015-04-29T12:41:32Z</time>
      </trkpt>
      <trkpt lat="45.05252" lon="3.01245">
        <ele>928.99</ele>
        <time>2015-04-29T12:41:42Z</time>
      </trkpt>
      <trkpt lat="45.05218" lon="3.0129">
        <ele>962.75</ele>
        <time>2015-04-29T12:42:15Z</time>
      </trkpt>
      <trkpt lat="45.05212" lon="3.01309">
        <ele>959.28</ele>
        <time>2015-04-29T12:42:25Z</time>
      </trkpt>
      <trkpt lat="45.05209" lon="3.01323">
        <ele>959.89</ele>
        <time>2015-04-29T12:42:35Z</time>
      </trkpt>
      <trkpt lat="45.05205" lon="3.01337">
        <ele>957.01</ele>
        <time>2015-04-29T12:42:45Z</time>
      </trkpt>
      <trkpt lat="45.05203" lon="3.01355">
        <ele>958.02</ele>
        <time>2015-04-29T12:42:55Z</time>
      </trkpt>
      <trkpt lat="45.05201" lon="3.01372">
        <ele>948.34</ele>
        <time>2015-04-29T12:43:05Z</time>
      </trkpt>
      <trkpt lat="45.052" lon="3.01386">
        <ele>940.13</ele>
        <time>2015-04-29T12:43:15Z</time>
      </trkpt>
      <trkpt lat="45.052" lon="3.01389">
        <ele>937.43</ele>
        <time>2015-04-29T12:43:25Z</time>
      </trkpt>
      <trkpt lat="45.05205" lon="3.01396">
        <ele>932.77</ele>
        <time>2015-04-29T12:43:35Z</time>
      </trkpt>
      <trkpt lat="45.05207" lon="3.01385">
        <ele>939.17</ele>
        <time>2015-04-29T12:43:45Z</time>
      </trkpt>
      <trkpt lat="45.05211" lon="3.01374">
        <ele>942.92</ele>
        <time>2015-04-29T12:43:55Z</time>
      </trkpt>
      <trkpt lat="45.05216" lon="3.01366">
        <ele>943.75</ele>
        <time>2015-04-29T12:44:05Z</time>
      </trkpt>
      <trkpt lat="45.05222" lon="3.01354">
        <ele>947.94</ele>
        <time>2015-04-29T12:44:15Z</time>
      </trkpt>
      <trkpt lat="45.0523" lon="3.01345">
        <ele>950.76</ele>
        <time>2015-04-29T12:44:25Z</time>
      </trkpt>
      <trkpt lat="45.05239" lon="3.01336">
        <ele>951.25</ele>
        <time>2015-04-29T12:44:35Z</time>
      </trkpt>
      <trkpt lat="45.05247" lon="3.01329">
        <ele>950.74</ele>
        <time>2015-04-29T12:44:45Z</time>
      </trkpt>
      <trkpt lat="45.05257" lon="3.01322">
        <ele>953.94</ele>
        <time>2015-04-29T12:44:55Z</time>
      </trkpt>
      <trkpt lat="45.05267" lon="3.01322">
        <ele>950.08</ele>
        <time>2015-04-29T12:45:05Z</time>
      </trkpt>
      <trkpt lat="45.05277" lon="3.01325">
        <ele>948.01</ele>
        <time>2015-04-29T12:45:15Z</time>
      </trkpt>
      <trkpt lat="45.05285" lon="3.0132">
        <ele>949.99</ele>
        <time>2015-04-29T12:45:25Z</time>
      </trkpt>
      <trkpt lat="45.05294" lon="3.01318">
        <ele>953.5</ele>
        <time>2015-04-29T12:45:35Z</time>
      </trkpt>
      <trkpt lat="45.05302" lon="3.01309">
        <ele>958</ele>
        <time>2015-04-29T12:45:45Z</time>
      </trkpt>
      <trkpt lat="45.05307" lon="3.01305">
        <ele>960.25</ele>
        <time>2015-04-29T12:45:55Z</time>
      </trkpt>
      <trkpt lat="45.05313" lon="3.01298">
        <ele>959.69</ele>
        <time>2015-04-29T12:46:05Z</time>
      </trkpt>
      <trkpt lat="45.05319" lon="3.01288">
        <ele>961.75</ele>
        <time>2015-04-29T12:46:15Z</time>
      </trkpt>
      <trkpt lat="45.0533" lon="3.01288">
        <ele>965.94</ele>
        <time>2015-04-29T12:46:25Z</time>
      </trkpt>
      <trkpt lat="45.05338" lon="3.0129">
        <ele>962.08</ele>
        <time>2015-04-29T12:46:35Z</time>
      </trkpt>
      <trkpt lat="45.05368" lon="3.01269">
        <ele>965.56</ele>
        <time>2015-04-29T12:47:15Z</time>
      </trkpt>
      <trkpt lat="45.05373" lon="3.01256">
        <ele>982.93</ele>
        <time>2015-04-29T12:47:25Z</time>
      </trkpt>
      <trkpt lat="45.05375" lon="3.0125">
        <ele>982.8</ele>
        <time>2015-04-29T12:47:35Z</time>
      </trkpt>
      <trkpt lat="45.05382" lon="3.01249">
        <ele>979.27</ele>
        <time>2015-04-29T12:47:45Z</time>
      </trkpt>
      <trkpt lat="45.05391" lon="3.01245">
        <ele>977.99</ele>
        <time>2015-04-29T12:47:55Z</time>
      </trkpt>
      <trkpt lat="45.05398" lon="3.01238">
        <ele>979.94</ele>
        <time>2015-04-29T12:48:05Z</time>
      </trkpt>
      <trkpt lat="45.05405" lon="3.01234">
        <ele>981.53</ele>
        <time>2015-04-29T12:48:15Z</time>
      </trkpt>
      <trkpt lat="45.05414" lon="3.01231">
        <ele>979.57</ele>
        <time>2015-04-29T12:48:25Z</time>
      </trkpt>
      <trkpt lat="45.05417" lon="3.01223">
        <ele>981.76</ele>
        <time>2015-04-29T12:48:35Z</time>
      </trkpt>
      <trkpt lat="45.05417" lon="3.01218">
        <ele>985.5</ele>
        <time>2015-04-29T12:48:45Z</time>
      </trkpt>
      <trkpt lat="45.05418" lon="3.01216">
        <ele>988</ele>
        <time>2015-04-29T12:48:55Z</time>
      </trkpt>
      <trkpt lat="45.05418" lon="3.01214">
        <ele>991.5</ele>
        <time>2015-04-29T12:49:27Z</time>
      </trkpt>
      <trkpt lat="45.05426" lon="3.01209">
        <ele>985.31</ele>
        <time>2015-04-29T12:49:37Z</time>
      </trkpt>
      <trkpt lat="45.05433" lon="3.01201">
        <ele>987.77</ele>
        <time>2015-04-29T12:49:47Z</time>
      </trkpt>
      <trkpt lat="45.05442" lon="3.01194">
        <ele>991.05</ele>
        <time>2015-04-29T12:49:57Z</time>
      </trkpt>
      <trkpt lat="45.05448" lon="3.01184">
        <ele>994.98</ele>
        <time>2015-04-29T12:50:07Z</time>
      </trkpt>
      <trkpt lat="45.05454" lon="3.01172">
        <ele>1000.94</ele>
        <time>2015-04-29T12:50:17Z</time>
      </trkpt>
      <trkpt lat="45.05459" lon="3.01162">
        <ele>1002.73</ele>
        <time>2015-04-29T12:50:27Z</time>
      </trkpt>
      <trkpt lat="45.05459" lon="3.0115">
        <ele>1000</ele>
        <time>2015-04-29T12:50:37Z</time>
      </trkpt>
      <trkpt lat="45.0546" lon="3.0115">
        <ele>1000.31</ele>
        <time>2015-04-29T12:50:51Z</time>
      </trkpt>
      <trkpt lat="45.05459" lon="3.0115">
        <ele>1002.94</ele>
        <time>2015-04-29T12:51:01Z</time>
      </trkpt>
      <trkpt lat="45.0546" lon="3.01151">
        <ele>1002</ele>
        <time>2015-04-29T12:52:18Z</time>
      </trkpt>
      <trkpt lat="45.05462" lon="3.0115">
        <ele>994.32</ele>
        <time>2015-04-29T12:52:28Z</time>
      </trkpt>
      <trkpt lat="45.05463" lon="3.0115">
        <ele>991</ele>
        <time>2015-04-29T12:52:38Z</time>
      </trkpt>
      <trkpt lat="45.05465" lon="3.01147">
        <ele>996.65</ele>
        <time>2015-04-29T12:52:48Z</time>
      </trkpt>
      <trkpt lat="45.05465" lon="3.01149">
        <ele>999</ele>
        <time>2015-04-29T12:52:58Z</time>
      </trkpt>
      <trkpt lat="45.05468" lon="3.01145">
        <ele>999.95</ele>
        <time>2015-04-29T12:53:08Z</time>
      </trkpt>
      <trkpt lat="45.05473" lon="3.01132">
        <ele>1001.99</ele>
        <time>2015-04-29T12:53:18Z</time>
      </trkpt>
      <trkpt lat="45.0548" lon="3.01116">
        <ele>1004.75</ele>
        <time>2015-04-29T12:53:28Z</time>
      </trkpt>
      <trkpt lat="45.05486" lon="3.01104">
        <ele>1004</ele>
        <time>2015-04-29T12:53:38Z</time>
      </trkpt>
      <trkpt lat="45.05493" lon="3.0109">
        <ele>1004.68</ele>
        <time>2015-04-29T12:53:48Z</time>
      </trkpt>
      <trkpt lat="45.05501" lon="3.01077">
        <ele>1004.75</ele>
        <time>2015-04-29T12:53:58Z</time>
      </trkpt>
      <trkpt lat="45.05509" lon="3.01067">
        <ele>1003</ele>
        <time>2015-04-29T12:54:08Z</time>
      </trkpt>
      <trkpt lat="45.05518" lon="3.01057">
        <ele>1006.67</ele>
        <time>2015-04-29T12:54:18Z</time>
      </trkpt>
      <trkpt lat="45.05529" lon="3.01064">
        <ele>1008</ele>
        <time>2015-04-29T12:54:28Z</time>
      </trkpt>
      <trkpt lat="45.05529" lon="3.01079">
        <ele>1010.02</ele>
        <time>2015-04-29T12:54:38Z</time>
      </trkpt>
      <trkpt lat="45.05523" lon="3.0109">
        <ele>1006.06</ele>
        <time>2015-04-29T12:54:48Z</time>
      </trkpt>
      <trkpt lat="45.05518" lon="3.01106">
        <ele>1000.55</ele>
        <time>2015-04-29T12:54:58Z</time>
      </trkpt>
      <trkpt lat="45.05515" lon="3.01117">
        <ele>994.72</ele>
        <time>2015-04-29T12:55:08Z</time>
      </trkpt>
      <trkpt lat="45.05515" lon="3.01129">
        <ele>992.27</ele>
        <time>2015-04-29T12:55:18Z</time>
      </trkpt>
      <trkpt lat="45.05519" lon="3.0114">
        <ele>995.49</ele>
        <time>2015-04-29T12:55:28Z</time>
      </trkpt>
      <trkpt lat="45.05521" lon="3.01159">
        <ele>1002.67</ele>
        <time>2015-04-29T12:55:38Z</time>
      </trkpt>
      <trkpt lat="45.05525" lon="3.01167">
        <ele>1008.05</ele>
        <time>2015-04-29T12:55:48Z</time>
      </trkpt>
      <trkpt lat="45.05532" lon="3.01184">
        <ele>1007.94</ele>
        <time>2015-04-29T12:55:58Z</time>
      </trkpt>
      <trkpt lat="45.05543" lon="3.01191">
        <ele>1010</ele>
        <time>2015-04-29T12:56:08Z</time>
      </trkpt>
      <trkpt lat="45.05555" lon="3.01195">
        <ele>1012</ele>
        <time>2015-04-29T12:56:18Z</time>
      </trkpt>
      <trkpt lat="45.05568" lon="3.01198">
        <ele>1015.98</ele>
        <time>2015-04-29T12:56:28Z</time>
      </trkpt>
      <trkpt lat="45.05582" lon="3.01197">
        <ele>1020.93</ele>
        <time>2015-04-29T12:56:38Z</time>
      </trkpt>
      <trkpt lat="45.0562" lon="3.01167">
        <ele>1014.55</ele>
        <time>2015-04-29T12:57:16Z</time>
      </trkpt>
      <trkpt lat="45.0563" lon="3.01162">
        <ele>1021.48</ele>
        <time>2015-04-29T12:57:26Z</time>
      </trkpt>
      <trkpt lat="45.05645" lon="3.01157">
        <ele>1026.75</ele>
        <time>2015-04-29T12:57:36Z</time>
      </trkpt>
      <trkpt lat="45.05655" lon="3.01157">
        <ele>1026.75</ele>
        <time>2015-04-29T12:57:46Z</time>
      </trkpt>
      <trkpt lat="45.05666" lon="3.01158">
        <ele>1028</ele>
        <time>2015-04-29T12:57:56Z</time>
      </trkpt>
      <trkpt lat="45.05673" lon="3.0115">
        <ele>1028</ele>
        <time>2015-04-29T12:58:06Z</time>
      </trkpt>
      <trkpt lat="45.05679" lon="3.01141">
        <ele>1026.75</ele>
        <time>2015-04-29T12:58:16Z</time>
      </trkpt>
      <trkpt lat="45.05681" lon="3.01124">
        <ele>1024.75</ele>
        <time>2015-04-29T12:58:26Z</time>
      </trkpt>
      <trkpt lat="45.0568" lon="3.01107">
        <ele>1025.25</ele>
        <time>2015-04-29T12:58:36Z</time>
      </trkpt>
      <trkpt lat="45.05682" lon="3.01093">
        <ele>1025.66</ele>
        <time>2015-04-29T12:58:46Z</time>
      </trkpt>
      <trkpt lat="45.05687" lon="3.01075">
        <ele>1028.73</ele>
        <time>2015-04-29T12:58:56Z</time>
      </trkpt>
      <trkpt lat="45.05689" lon="3.01074">
        <ele>1026.07</ele>
        <time>2015-04-29T12:59:06Z</time>
      </trkpt>
      <trkpt lat="45.05684" lon="3.01072">
        <ele>1027.01</ele>
        <time>2015-04-29T12:59:16Z</time>
      </trkpt>
      <trkpt lat="45.05702" lon="3.01059">
        <ele>1030.09</ele>
        <time>2015-04-29T12:59:26Z</time>
      </trkpt>
      <trkpt lat="45.05712" lon="3.01054">
        <ele>1031.92</ele>
        <time>2015-04-29T12:59:36Z</time>
      </trkpt>
      <trkpt lat="45.05723" lon="3.01063">
        <ele>1032.31</ele>
        <time>2015-04-29T12:59:46Z</time>
      </trkpt>
      <trkpt lat="45.05733" lon="3.01072">
        <ele>1033.81</ele>
        <time>2015-04-29T12:59:56Z</time>
      </trkpt>
      <trkpt lat="45.05743" lon="3.0108">
        <ele>1034</ele>
        <time>2015-04-29T13:00:06Z</time>
      </trkpt>
      <trkpt lat="45.05754" lon="3.01085">
        <ele>1033</ele>
        <time>2015-04-29T13:00:16Z</time>
      </trkpt>
      <trkpt lat="45.05767" lon="3.01091">
        <ele>1032.77</ele>
        <time>2015-04-29T13:00:26Z</time>
      </trkpt>
      <trkpt lat="45.05779" lon="3.01097">
        <ele>1034.98</ele>
        <time>2015-04-29T13:00:36Z</time>
      </trkpt>
      <trkpt lat="45.05789" lon="3.01102">
        <ele>1035</ele>
        <time>2015-04-29T13:00:46Z</time>
      </trkpt>
      <trkpt lat="45.058" lon="3.01107">
        <ele>1036.98</ele>
        <time>2015-04-29T13:00:56Z</time>
      </trkpt>
      <trkpt lat="45.05811" lon="3.01113">
        <ele>1036.81</ele>
        <time>2015-04-29T13:01:06Z</time>
      </trkpt>
      <trkpt lat="45.05824" lon="3.01115">
        <ele>1037.01</ele>
        <time>2015-04-29T13:01:16Z</time>
      </trkpt>
      <trkpt lat="45.05835" lon="3.01121">
        <ele>1034.5</ele>
        <time>2015-04-29T13:01:26Z</time>
      </trkpt>
      <trkpt lat="45.05839" lon="3.01127">
        <ele>1036</ele>
        <time>2015-04-29T13:01:36Z</time>
      </trkpt>
      <trkpt lat="45.05846" lon="3.01124">
        <ele>1037</ele>
        <time>2015-04-29T13:01:46Z</time>
      </trkpt>
      <trkpt lat="45.05859" lon="3.0113">
        <ele>1038.94</ele>
        <time>2015-04-29T13:01:56Z</time>
      </trkpt>
      <trkpt lat="45.0587" lon="3.01134">
        <ele>1038.81</ele>
        <time>2015-04-29T13:02:06Z</time>
      </trkpt>
      <trkpt lat="45.05884" lon="3.01138">
        <ele>1041.99</ele>
        <time>2015-04-29T13:02:16Z</time>
      </trkpt>
      <trkpt lat="45.05894" lon="3.01142">
        <ele>1042.01</ele>
        <time>2015-04-29T13:02:26Z</time>
      </trkpt>
      <trkpt lat="45.05905" lon="3.01144">
        <ele>1041.74</ele>
        <time>2015-04-29T13:02:36Z</time>
      </trkpt>
      <trkpt lat="45.05914" lon="3.01149">
        <ele>1040.25</ele>
        <time>2015-04-29T13:02:46Z</time>
      </trkpt>
      <trkpt lat="45.05913" lon="3.0116">
        <ele>1039.94</ele>
        <time>2015-04-29T13:02:56Z</time>
      </trkpt>
      <trkpt lat="45.05911" lon="3.01161">
        <ele>1039.94</ele>
        <time>2015-04-29T13:03:06Z</time>
      </trkpt>
      <trkpt lat="45.05911" lon="3.01179">
        <ele>1036.05</ele>
        <time>2015-04-29T13:03:16Z</time>
      </trkpt>
      <trkpt lat="45.05912" lon="3.01198">
        <ele>1034</ele>
        <time>2015-04-29T13:03:26Z</time>
      </trkpt>
      <trkpt lat="45.05915" lon="3.01216">
        <ele>1032.25</ele>
        <time>2015-04-29T13:03:36Z</time>
      </trkpt>
      <trkpt lat="45.05917" lon="3.01234">
        <ele>1030.25</ele>
        <time>2015-04-29T13:03:46Z</time>
      </trkpt>
      <trkpt lat="45.05919" lon="3.01252">
        <ele>1027.33</ele>
        <time>2015-04-29T13:03:56Z</time>
      </trkpt>
      <trkpt lat="45.05919" lon="3.01268">
        <ele>1029.74</ele>
        <time>2015-04-29T13:04:06Z</time>
      </trkpt>
      <trkpt lat="45.05923" lon="3.01285">
        <ele>1029.94</ele>
        <time>2015-04-29T13:04:16Z</time>
      </trkpt>
      <trkpt lat="45.05925" lon="3.01302">
        <ele>1030.81</ele>
        <time>2015-04-29T13:04:26Z</time>
      </trkpt>
      <trkpt lat="45.05925" lon="3.01318">
        <ele>1032.95</ele>
        <time>2015-04-29T13:04:36Z</time>
      </trkpt>
      <trkpt lat="45.05924" lon="3.01335">
        <ele>1032.06</ele>
        <time>2015-04-29T13:04:46Z</time>
      </trkpt>
      <trkpt lat="45.05924" lon="3.01353">
        <ele>1030.82</ele>
        <time>2015-04-29T13:04:56Z</time>
      </trkpt>
      <trkpt lat="45.05922" lon="3.01368">
        <ele>1028.16</ele>
        <time>2015-04-29T13:05:06Z</time>
      </trkpt>
      <trkpt lat="45.0592" lon="3.01383">
        <ele>1028.69</ele>
        <time>2015-04-29T13:05:16Z</time>
      </trkpt>
      <trkpt lat="45.05919" lon="3.014">
        <ele>1030.94</ele>
        <time>2015-04-29T13:05:26Z</time>
      </trkpt>
      <trkpt lat="45.05916" lon="3.01416">
        <ele>1032.94</ele>
        <time>2015-04-29T13:05:36Z</time>
      </trkpt>
      <trkpt lat="45.05912" lon="3.01434">
        <ele>1034</ele>
        <time>2015-04-29T13:05:46Z</time>
      </trkpt>
      <trkpt lat="45.05909" lon="3.0145">
        <ele>1035</ele>
        <time>2015-04-29T13:05:56Z</time>
      </trkpt>
      <trkpt lat="45.05906" lon="3.01467">
        <ele>1035.24</ele>
        <time>2015-04-29T13:06:06Z</time>
      </trkpt>
      <trkpt lat="45.05904" lon="3.01485">
        <ele>1031.9</ele>
        <time>2015-04-29T13:06:16Z</time>
      </trkpt>
      <trkpt lat="45.05901" lon="3.015">
        <ele>1029.02</ele>
        <time>2015-04-29T13:06:26Z</time>
      </trkpt>
      <trkpt lat="45.05898" lon="3.01514">
        <ele>1028.02</ele>
        <time>2015-04-29T13:06:36Z</time>
      </trkpt>
      <trkpt lat="45.05894" lon="3.0153">
        <ele>1029</ele>
        <time>2015-04-29T13:06:46Z</time>
      </trkpt>
      <trkpt lat="45.0589" lon="3.01546">
        <ele>1026.02</ele>
        <time>2015-04-29T13:06:56Z</time>
      </trkpt>
      <trkpt lat="45.05889" lon="3.01566">
        <ele>1029.97</ele>
        <time>2015-04-29T13:07:06Z</time>
      </trkpt>
      <trkpt lat="45.05892" lon="3.01586">
        <ele>1030.64</ele>
        <time>2015-04-29T13:07:16Z</time>
      </trkpt>
      <trkpt lat="45.05892" lon="3.01603">
        <ele>1030.19</ele>
        <time>2015-04-29T13:07:26Z</time>
      </trkpt>
      <trkpt lat="45.05893" lon="3.01621">
        <ele>1028.25</ele>
        <time>2015-04-29T13:07:36Z</time>
      </trkpt>
      <trkpt lat="45.05893" lon="3.01631">
        <ele>1030</ele>
        <time>2015-04-29T13:07:46Z</time>
      </trkpt>
      <trkpt lat="45.05896" lon="3.01648">
        <ele>1028.02</ele>
        <time>2015-04-29T13:07:56Z</time>
      </trkpt>
      <trkpt lat="45.05898" lon="3.01664">
        <ele>1026.02</ele>
        <time>2015-04-29T13:08:06Z</time>
      </trkpt>
      <trkpt lat="45.05902" lon="3.01682">
        <ele>1025.94</ele>
        <time>2015-04-29T13:08:16Z</time>
      </trkpt>
      <trkpt lat="45.05902" lon="3.01689">
        <ele>1025</ele>
        <time>2015-04-29T13:08:26Z</time>
      </trkpt>
      <trkpt lat="45.05902" lon="3.0169">
        <ele>1023</ele>
        <time>2015-04-29T13:08:56Z</time>
      </trkpt>
      <trkpt lat="45.05907" lon="3.01708">
        <ele>1023.16</ele>
        <time>2015-04-29T13:09:06Z</time>
      </trkpt>
      <trkpt lat="45.05908" lon="3.01726">
        <ele>1023</ele>
        <time>2015-04-29T13:09:16Z</time>
      </trkpt>
      <trkpt lat="45.0591" lon="3.01743">
        <ele>1022.75</ele>
        <time>2015-04-29T13:09:26Z</time>
      </trkpt>
      <trkpt lat="45.05912" lon="3.01762">
        <ele>1020.99</ele>
        <time>2015-04-29T13:09:36Z</time>
      </trkpt>
      <trkpt lat="45.05914" lon="3.01779">
        <ele>1020.07</ele>
        <time>2015-04-29T13:09:46Z</time>
      </trkpt>
      <trkpt lat="45.05914" lon="3.01798">
        <ele>1019</ele>
        <time>2015-04-29T13:09:56Z</time>
      </trkpt>
      <trkpt lat="45.05915" lon="3.01817">
        <ele>1021.94</ele>
        <time>2015-04-29T13:10:06Z</time>
      </trkpt>
      <trkpt lat="45.05917" lon="3.01834">
        <ele>1022.98</ele>
        <time>2015-04-29T13:10:16Z</time>
      </trkpt>
      <trkpt lat="45.05917" lon="3.01852">
        <ele>1022.76</ele>
        <time>2015-04-29T13:10:26Z</time>
      </trkpt>
      <trkpt lat="45.05917" lon="3.01868">
        <ele>1024.99</ele>
        <time>2015-04-29T13:10:36Z</time>
      </trkpt>
      <trkpt lat="45.05917" lon="3.01886">
        <ele>1027.67</ele>
        <time>2015-04-29T13:10:46Z</time>
      </trkpt>
      <trkpt lat="45.05916" lon="3.01903">
        <ele>1023.7</ele>
        <time>2015-04-29T13:10:56Z</time>
      </trkpt>
      <trkpt lat="45.05915" lon="3.0192">
        <ele>1019.5</ele>
        <time>2015-04-29T13:11:06Z</time>
      </trkpt>
      <trkpt lat="45.05917" lon="3.01934">
        <ele>1020.98</ele>
        <time>2015-04-29T13:11:16Z</time>
      </trkpt>
      <trkpt lat="45.05918" lon="3.01951">
        <ele>1023</ele>
        <time>2015-04-29T13:11:26Z</time>
      </trkpt>
      <trkpt lat="45.05923" lon="3.0197">
        <ele>1026.94</ele>
        <time>2015-04-29T13:11:36Z</time>
      </trkpt>
      <trkpt lat="45.05922" lon="3.0199">
        <ele>1028.97</ele>
        <time>2015-04-29T13:11:46Z</time>
      </trkpt>
      <trkpt lat="45.05919" lon="3.02007">
        <ele>1022.95</ele>
        <time>2015-04-29T13:11:56Z</time>
      </trkpt>
      <trkpt lat="45.05911" lon="3.02019">
        <ele>1017.33</ele>
        <time>2015-04-29T13:12:06Z</time>
      </trkpt>
      <trkpt lat="45.05906" lon="3.02036">
        <ele>1016.74</ele>
        <time>2015-04-29T13:12:16Z</time>
      </trkpt>
      <trkpt lat="45.05904" lon="3.02056">
        <ele>1018.97</ele>
        <time>2015-04-29T13:12:26Z</time>
      </trkpt>
      <trkpt lat="45.05903" lon="3.02073">
        <ele>1016.81</ele>
        <time>2015-04-29T13:12:36Z</time>
      </trkpt>
      <trkpt lat="45.05904" lon="3.0209">
        <ele>1020.98</ele>
        <time>2015-04-29T13:12:46Z</time>
      </trkpt>
      <trkpt lat="45.05902" lon="3.02108">
        <ele>1017</ele>
        <time>2015-04-29T13:12:56Z</time>
      </trkpt>
      <trkpt lat="45.05902" lon="3.02126">
        <ele>1016.01</ele>
        <time>2015-04-29T13:13:06Z</time>
      </trkpt>
      <trkpt lat="45.059" lon="3.02143">
        <ele>1016.82</ele>
        <time>2015-04-29T13:13:16Z</time>
      </trkpt>
      <trkpt lat="45.05901" lon="3.0216">
        <ele>1021.17</ele>
        <time>2015-04-29T13:13:26Z</time>
      </trkpt>
      <trkpt lat="45.05903" lon="3.02179">
        <ele>1021.98</ele>
        <time>2015-04-29T13:13:36Z</time>
      </trkpt>
      <trkpt lat="45.05899" lon="3.02197">
        <ele>1017.08</ele>
        <time>2015-04-29T13:13:46Z</time>
      </trkpt>
      <trkpt lat="45.05897" lon="3.02214">
        <ele>1016.95</ele>
        <time>2015-04-29T13:13:56Z</time>
      </trkpt>
      <trkpt lat="45.05894" lon="3.02231">
        <ele>1016.25</ele>
        <time>2015-04-29T13:14:06Z</time>
      </trkpt>
      <trkpt lat="45.05892" lon="3.02248">
        <ele>1017</ele>
        <time>2015-04-29T13:14:16Z</time>
      </trkpt>
      <trkpt lat="45.0589" lon="3.02266">
        <ele>1016.98</ele>
        <time>2015-04-29T13:14:26Z</time>
      </trkpt>
      <trkpt lat="45.05887" lon="3.02284">
        <ele>1017</ele>
        <time>2015-04-29T13:14:36Z</time>
      </trkpt>
      <trkpt lat="45.05883" lon="3.02301">
        <ele>1016</ele>
        <time>2015-04-29T13:14:46Z</time>
      </trkpt>
      <trkpt lat="45.05875" lon="3.02314">
        <ele>1014</ele>
        <time>2015-04-29T13:14:56Z</time>
      </trkpt>
      <trkpt lat="45.05866" lon="3.02325">
        <ele>1013</ele>
        <time>2015-04-29T13:15:06Z</time>
      </trkpt>
      <trkpt lat="45.05859" lon="3.02334">
        <ele>1013.81</ele>
        <time>2015-04-29T13:15:16Z</time>
      </trkpt>
      <trkpt lat="45.05854" lon="3.02343">
        <ele>1017.94</ele>
        <time>2015-04-29T13:15:26Z</time>
      </trkpt>
      <trkpt lat="45.05848" lon="3.0236">
        <ele>1020.92</ele>
        <time>2015-04-29T13:15:36Z</time>
      </trkpt>
      <trkpt lat="45.05844" lon="3.02376">
        <ele>1023.81</ele>
        <time>2015-04-29T13:15:46Z</time>
      </trkpt>
      <trkpt lat="45.05841" lon="3.02396">
        <ele>1026.27</ele>
        <time>2015-04-29T13:15:56Z</time>
      </trkpt>
      <trkpt lat="45.05837" lon="3.02416">
        <ele>1025.15</ele>
        <time>2015-04-29T13:16:06Z</time>
      </trkpt>
      <trkpt lat="45.05832" lon="3.02435">
        <ele>1026.31</ele>
        <time>2015-04-29T13:16:16Z</time>
      </trkpt>
      <trkpt lat="45.05826" lon="3.02451">
        <ele>1023.25</ele>
        <time>2015-04-29T13:16:26Z</time>
      </trkpt>
      <trkpt lat="45.05821" lon="3.02466">
        <ele>1022.75</ele>
        <time>2015-04-29T13:16:36Z</time>
      </trkpt>
      <trkpt lat="45.05816" lon="3.02479">
        <ele>1023.43</ele>
        <time>2015-04-29T13:16:46Z</time>
      </trkpt>
      <trkpt lat="45.05809" lon="3.02497">
        <ele>1022</ele>
        <time>2015-04-29T13:16:56Z</time>
      </trkpt>
      <trkpt lat="45.05804" lon="3.02511">
        <ele>1022.75</ele>
        <time>2015-04-29T13:17:06Z</time>
      </trkpt>
      <trkpt lat="45.05797" lon="3.02535">
        <ele>1016.13</ele>
        <time>2015-04-29T13:17:16Z</time>
      </trkpt>
      <trkpt lat="45.05795" lon="3.02556">
        <ele>1017.18</ele>
        <time>2015-04-29T13:17:26Z</time>
      </trkpt>
      <trkpt lat="45.05795" lon="3.02575">
        <ele>1017.2</ele>
        <time>2015-04-29T13:17:36Z</time>
      </trkpt>
      <trkpt lat="45.05792" lon="3.02592">
        <ele>1017.06</ele>
        <time>2015-04-29T13:17:46Z</time>
      </trkpt>
      <trkpt lat="45.05792" lon="3.02612">
        <ele>1014.99</ele>
        <time>2015-04-29T13:17:56Z</time>
      </trkpt>
      <trkpt lat="45.05793" lon="3.0263">
        <ele>1013.75</ele>
        <time>2015-04-29T13:18:06Z</time>
      </trkpt>
      <trkpt lat="45.05786" lon="3.02644">
        <ele>1016.85</ele>
        <time>2015-04-29T13:18:16Z</time>
      </trkpt>
      <trkpt lat="45.05779" lon="3.02655">
        <ele>1014.06</ele>
        <time>2015-04-29T13:18:26Z</time>
      </trkpt>
      <trkpt lat="45.05772" lon="3.02667">
        <ele>1015.25</ele>
        <time>2015-04-29T13:18:36Z</time>
      </trkpt>
      <trkpt lat="45.05763" lon="3.02675">
        <ele>1010.33</ele>
        <time>2015-04-29T13:18:46Z</time>
      </trkpt>
      <trkpt lat="45.05761" lon="3.02684">
        <ele>1012.06</ele>
        <time>2015-04-29T13:18:56Z</time>
      </trkpt>
      <trkpt lat="45.05754" lon="3.02694">
        <ele>1010.99</ele>
        <time>2015-04-29T13:19:06Z</time>
      </trkpt>
      <trkpt lat="45.05746" lon="3.02707">
        <ele>1008.99</ele>
        <time>2015-04-29T13:19:16Z</time>
      </trkpt>
      <trkpt lat="45.0574" lon="3.02723">
        <ele>1010.78</ele>
        <time>2015-04-29T13:19:26Z</time>
      </trkpt>
      <trkpt lat="45.05734" lon="3.02737">
        <ele>1010.94</ele>
        <time>2015-04-29T13:19:36Z</time>
      </trkpt>
      <trkpt lat="45.05732" lon="3.02754">
        <ele>1010</ele>
        <time>2015-04-29T13:19:46Z</time>
      </trkpt>
      <trkpt lat="45.05729" lon="3.02774">
        <ele>1007.82</ele>
        <time>2015-04-29T13:19:56Z</time>
      </trkpt>
      <trkpt lat="45.05726" lon="3.02794">
        <ele>1008.22</ele>
        <time>2015-04-29T13:20:06Z</time>
      </trkpt>
      <trkpt lat="45.05723" lon="3.02811">
        <ele>1008.43</ele>
        <time>2015-04-29T13:20:16Z</time>
      </trkpt>
      <trkpt lat="45.05724" lon="3.02831">
        <ele>1009.88</ele>
        <time>2015-04-29T13:20:26Z</time>
      </trkpt>
      <trkpt lat="45.05729" lon="3.02846">
        <ele>1010.91</ele>
        <time>2015-04-29T13:20:36Z</time>
      </trkpt>
      <trkpt lat="45.05731" lon="3.02864">
        <ele>1013.73</ele>
        <time>2015-04-29T13:20:46Z</time>
      </trkpt>
      <trkpt lat="45.05726" lon="3.02866">
        <ele>1013</ele>
        <time>2015-04-29T13:20:56Z</time>
      </trkpt>
      <trkpt lat="45.05725" lon="3.02867">
        <ele>1014</ele>
        <time>2015-04-29T13:21:06Z</time>
      </trkpt>
      <trkpt lat="45.05724" lon="3.02867">
        <ele>1012.23</ele>
        <time>2015-04-29T13:22:04Z</time>
      </trkpt>
      <trkpt lat="45.05725" lon="3.02867">
        <ele>1012.06</ele>
        <time>2015-04-29T13:22:53Z</time>
      </trkpt>
      <trkpt lat="45.05727" lon="3.02867">
        <ele>1016.98</ele>
        <time>2015-04-29T13:23:03Z</time>
      </trkpt>
      <trkpt lat="45.05728" lon="3.02868">
        <ele>1017.19</ele>
        <time>2015-04-29T13:23:19Z</time>
      </trkpt>
      <trkpt lat="45.05732" lon="3.02883">
        <ele>1015.01</ele>
        <time>2015-04-29T13:23:29Z</time>
      </trkpt>
      <trkpt lat="45.05735" lon="3.02897">
        <ele>1014.24</ele>
        <time>2015-04-29T13:23:39Z</time>
      </trkpt>
      <trkpt lat="45.05736" lon="3.0291">
        <ele>1014</ele>
        <time>2015-04-29T13:23:49Z</time>
      </trkpt>
      <trkpt lat="45.05736" lon="3.02927">
        <ele>1012.06</ele>
        <time>2015-04-29T13:23:59Z</time>
      </trkpt>
      <trkpt lat="45.05737" lon="3.02947">
        <ele>1008.88</ele>
        <time>2015-04-29T13:24:09Z</time>
      </trkpt>
      <trkpt lat="45.05736" lon="3.02965">
        <ele>1007.99</ele>
        <time>2015-04-29T13:24:19Z</time>
      </trkpt>
      <trkpt lat="45.05741" lon="3.02982">
        <ele>1009.77</ele>
        <time>2015-04-29T13:24:29Z</time>
      </trkpt>
      <trkpt lat="45.05742" lon="3.03002">
        <ele>1010.8</ele>
        <time>2015-04-29T13:24:39Z</time>
      </trkpt>
      <trkpt lat="45.05742" lon="3.0302">
        <ele>1008.06</ele>
        <time>2015-04-29T13:24:49Z</time>
      </trkpt>
      <trkpt lat="45.05745" lon="3.03037">
        <ele>1007.23</ele>
        <time>2015-04-29T13:24:59Z</time>
      </trkpt>
      <trkpt lat="45.05746" lon="3.03054">
        <ele>1006.89</ele>
        <time>2015-04-29T13:25:09Z</time>
      </trkpt>
      <trkpt lat="45.05748" lon="3.03067">
        <ele>1006</ele>
        <time>2015-04-29T13:25:19Z</time>
      </trkpt>
      <trkpt lat="45.05752" lon="3.03084">
        <ele>1008.43</ele>
        <time>2015-04-29T13:25:29Z</time>
      </trkpt>
      <trkpt lat="45.0575" lon="3.03102">
        <ele>1008.76</ele>
        <time>2015-04-29T13:25:39Z</time>
      </trkpt>
      <trkpt lat="45.05751" lon="3.03121">
        <ele>1006.61</ele>
        <time>2015-04-29T13:25:49Z</time>
      </trkpt>
      <trkpt lat="45.05752" lon="3.03141">
        <ele>1008.75</ele>
        <time>2015-04-29T13:25:59Z</time>
      </trkpt>
      <trkpt lat="45.05751" lon="3.03161">
        <ele>1008.4</ele>
        <time>2015-04-29T13:26:09Z</time>
      </trkpt>
      <trkpt lat="45.05755" lon="3.03179">
        <ele>1007.75</ele>
        <time>2015-04-29T13:26:19Z</time>
      </trkpt>
      <trkpt lat="45.05754" lon="3.032">
        <ele>1013.14</ele>
        <time>2015-04-29T13:26:29Z</time>
      </trkpt>
      <trkpt lat="45.05753" lon="3.03212">
        <ele>1015</ele>
        <time>2015-04-29T13:26:39Z</time>
      </trkpt>
      <trkpt lat="45.05749" lon="3.03223">
        <ele>1015.06</ele>
        <time>2015-04-29T13:26:49Z</time>
      </trkpt>
      <trkpt lat="45.05744" lon="3.03239">
        <ele>1013.01</ele>
        <time>2015-04-29T13:26:59Z</time>
      </trkpt>
      <trkpt lat="45.05738" lon="3.03248">
        <ele>1010.65</ele>
        <time>2015-04-29T13:27:09Z</time>
      </trkpt>
      <trkpt lat="45.05734" lon="3.03259">
        <ele>1010.56</ele>
        <time>2015-04-29T13:27:19Z</time>
      </trkpt>
      <trkpt lat="45.05727" lon="3.03271">
        <ele>1010.83</ele>
        <time>2015-04-29T13:27:29Z</time>
      </trkpt>
      <trkpt lat="45.05716" lon="3.03283">
        <ele>1006.57</ele>
        <time>2015-04-29T13:27:39Z</time>
      </trkpt>
      <trkpt lat="45.05713" lon="3.0329">
        <ele>1001.11</ele>
        <time>2015-04-29T13:27:49Z</time>
      </trkpt>
      <trkpt lat="45.0571" lon="3.03283">
        <ele>998.97</ele>
        <time>2015-04-29T13:27:59Z</time>
      </trkpt>
      <trkpt lat="45.05704" lon="3.03285">
        <ele>995.35</ele>
        <time>2015-04-29T13:28:09Z</time>
      </trkpt>
      <trkpt lat="45.057" lon="3.03285">
        <ele>993.73</ele>
        <time>2015-04-29T13:28:19Z</time>
      </trkpt>
      <trkpt lat="45.05689" lon="3.0329">
        <ele>992.96</ele>
        <time>2015-04-29T13:28:29Z</time>
      </trkpt>
      <trkpt lat="45.05682" lon="3.03291">
        <ele>992.76</ele>
        <time>2015-04-29T13:28:39Z</time>
      </trkpt>
      <trkpt lat="45.05676" lon="3.03288">
        <ele>995</ele>
        <time>2015-04-29T13:28:49Z</time>
      </trkpt>
      <trkpt lat="45.0567" lon="3.03284">
        <ele>988.89</ele>
        <time>2015-04-29T13:28:59Z</time>
      </trkpt>
      <trkpt lat="45.05663" lon="3.03292">
        <ele>987.86</ele>
        <time>2015-04-29T13:29:09Z</time>
      </trkpt>
      <trkpt lat="45.05656" lon="3.03302">
        <ele>987.75</ele>
        <time>2015-04-29T13:29:19Z</time>
      </trkpt>
      <trkpt lat="45.05656" lon="3.03308">
        <ele>983.28</ele>
        <time>2015-04-29T13:29:29Z</time>
      </trkpt>
      <trkpt lat="45.05654" lon="3.03326">
        <ele>976.94</ele>
        <time>2015-04-29T13:29:39Z</time>
      </trkpt>
      <trkpt lat="45.05658" lon="3.03346">
        <ele>984.58</ele>
        <time>2015-04-29T13:29:49Z</time>
      </trkpt>
      <trkpt lat="45.05663" lon="3.03363">
        <ele>981.02</ele>
        <time>2015-04-29T13:29:59Z</time>
      </trkpt>
      <trkpt lat="45.05669" lon="3.03377">
        <ele>975.31</ele>
        <time>2015-04-29T13:30:09Z</time>
      </trkpt>
      <trkpt lat="45.05675" lon="3.0339">
        <ele>973</ele>
        <time>2015-04-29T13:30:19Z</time>
      </trkpt>
      <trkpt lat="45.05682" lon="3.03407">
        <ele>973</ele>
        <time>2015-04-29T13:30:29Z</time>
      </trkpt>
      <trkpt lat="45.05689" lon="3.03422">
        <ele>973.05</ele>
        <time>2015-04-29T13:30:39Z</time>
      </trkpt>
      <trkpt lat="45.05694" lon="3.03437">
        <ele>973.73</ele>
        <time>2015-04-29T13:30:49Z</time>
      </trkpt>
      <trkpt lat="45.05702" lon="3.0345">
        <ele>974.24</ele>
        <time>2015-04-29T13:30:59Z</time>
      </trkpt>
      <trkpt lat="45.05711" lon="3.03464">
        <ele>978.47</ele>
        <time>2015-04-29T13:31:09Z</time>
      </trkpt>
      <trkpt lat="45.05721" lon="3.0348">
        <ele>980.8</ele>
        <time>2015-04-29T13:31:19Z</time>
      </trkpt>
      <trkpt lat="45.05727" lon="3.03496">
        <ele>979</ele>
        <time>2015-04-29T13:31:29Z</time>
      </trkpt>
      <trkpt lat="45.05733" lon="3.0351">
        <ele>978</ele>
        <time>2015-04-29T13:31:39Z</time>
      </trkpt>
      <trkpt lat="45.05738" lon="3.03521">
        <ele>973.08</ele>
        <time>2015-04-29T13:31:49Z</time>
      </trkpt>
      <trkpt lat="45.05741" lon="3.03534">
        <ele>970.19</ele>
        <time>2015-04-29T13:31:59Z</time>
      </trkpt>
      <trkpt lat="45.05742" lon="3.03552">
        <ele>968.08</ele>
        <time>2015-04-29T13:32:09Z</time>
      </trkpt>
      <trkpt lat="45.05745" lon="3.03567">
        <ele>966.07</ele>
        <time>2015-04-29T13:32:19Z</time>
      </trkpt>
      <trkpt lat="45.05745" lon="3.03586">
        <ele>968.91</ele>
        <time>2015-04-29T13:32:29Z</time>
      </trkpt>
      <trkpt lat="45.05745" lon="3.03601">
        <ele>968</ele>
        <time>2015-04-29T13:32:39Z</time>
      </trkpt>
      <trkpt lat="45.05748" lon="3.03613">
        <ele>966</ele>
        <time>2015-04-29T13:32:49Z</time>
      </trkpt>
      <trkpt lat="45.05747" lon="3.03632">
        <ele>967.75</ele>
        <time>2015-04-29T13:32:59Z</time>
      </trkpt>
      <trkpt lat="45.05748" lon="3.03649">
        <ele>967</ele>
        <time>2015-04-29T13:33:09Z</time>
      </trkpt>
      <trkpt lat="45.05746" lon="3.03664">
        <ele>963.75</ele>
        <time>2015-04-29T13:33:19Z</time>
      </trkpt>
      <trkpt lat="45.05747" lon="3.03683">
        <ele>961.27</ele>
        <time>2015-04-29T13:33:29Z</time>
      </trkpt>
      <trkpt lat="45.05746" lon="3.03699">
        <ele>958.27</ele>
        <time>2015-04-29T13:33:39Z</time>
      </trkpt>
      <trkpt lat="45.05744" lon="3.03716">
        <ele>957.03</ele>
        <time>2015-04-29T13:33:49Z</time>
      </trkpt>
      <trkpt lat="45.05742" lon="3.03731">
        <ele>961.87</ele>
        <time>2015-04-29T13:33:59Z</time>
      </trkpt>
      <trkpt lat="45.0575" lon="3.03749">
        <ele>965.06</ele>
        <time>2015-04-29T13:34:09Z</time>
      </trkpt>
      <trkpt lat="45.05763" lon="3.03753">
        <ele>968.94</ele>
        <time>2015-04-29T13:34:19Z</time>
      </trkpt>
      <trkpt lat="45.05762" lon="3.03752">
        <ele>965.25</ele>
        <time>2015-04-29T13:34:29Z</time>
      </trkpt>
      <trkpt lat="45.05764" lon="3.03745">
        <ele>963.76</ele>
        <time>2015-04-29T13:34:39Z</time>
      </trkpt>
      <trkpt lat="45.05775" lon="3.03736">
        <ele>962.02</ele>
        <time>2015-04-29T13:34:49Z</time>
      </trkpt>
      <trkpt lat="45.05786" lon="3.03729">
        <ele>963.69</ele>
        <time>2015-04-29T13:34:59Z</time>
      </trkpt>
      <trkpt lat="45.05797" lon="3.03716">
        <ele>965.2</ele>
        <time>2015-04-29T13:35:09Z</time>
      </trkpt>
      <trkpt lat="45.05805" lon="3.03705">
        <ele>966.04</ele>
        <time>2015-04-29T13:35:19Z</time>
      </trkpt>
      <trkpt lat="45.05812" lon="3.03694">
        <ele>965</ele>
        <time>2015-04-29T13:35:29Z</time>
      </trkpt>
      <trkpt lat="45.05819" lon="3.03681">
        <ele>963.57</ele>
        <time>2015-04-29T13:35:39Z</time>
      </trkpt>
      <trkpt lat="45.05822" lon="3.03671">
        <ele>962</ele>
        <time>2015-04-29T13:35:49Z</time>
      </trkpt>
      <trkpt lat="45.0583" lon="3.03654">
        <ele>963.93</ele>
        <time>2015-04-29T13:35:59Z</time>
      </trkpt>
      <trkpt lat="45.05837" lon="3.03638">
        <ele>964.27</ele>
        <time>2015-04-29T13:36:09Z</time>
      </trkpt>
      <trkpt lat="45.05843" lon="3.03626">
        <ele>963</ele>
        <time>2015-04-29T13:36:19Z</time>
      </trkpt>
      <trkpt lat="45.05851" lon="3.0361">
        <ele>959.32</ele>
        <time>2015-04-29T13:36:29Z</time>
      </trkpt>
      <trkpt lat="45.0586" lon="3.03596">
        <ele>961.93</ele>
        <time>2015-04-29T13:36:39Z</time>
      </trkpt>
      <trkpt lat="45.05869" lon="3.03581">
        <ele>963.2</ele>
        <time>2015-04-29T13:36:49Z</time>
      </trkpt>
      <trkpt lat="45.05875" lon="3.03564">
        <ele>962.92</ele>
        <time>2015-04-29T13:36:59Z</time>
      </trkpt>
      <trkpt lat="45.05877" lon="3.03554">
        <ele>960</ele>
        <time>2015-04-29T13:37:09Z</time>
      </trkpt>
      <trkpt lat="45.05884" lon="3.03545">
        <ele>961.8</ele>
        <time>2015-04-29T13:37:19Z</time>
      </trkpt>
      <trkpt lat="45.05892" lon="3.03533">
        <ele>962.19</ele>
        <time>2015-04-29T13:37:29Z</time>
      </trkpt>
      <trkpt lat="45.059" lon="3.03519">
        <ele>964.75</ele>
        <time>2015-04-29T13:37:39Z</time>
      </trkpt>
      <trkpt lat="45.05908" lon="3.03507">
        <ele>969.44</ele>
        <time>2015-04-29T13:37:49Z</time>
      </trkpt>
      <trkpt lat="45.05916" lon="3.03494">
        <ele>969.06</ele>
        <time>2015-04-29T13:37:59Z</time>
      </trkpt>
      <trkpt lat="45.0592" lon="3.03483">
        <ele>966.75</ele>
        <time>2015-04-29T13:38:09Z</time>
      </trkpt>
      <trkpt lat="45.05929" lon="3.03472">
        <ele>969.08</ele>
        <time>2015-04-29T13:38:19Z</time>
      </trkpt>
      <trkpt lat="45.05936" lon="3.03463">
        <ele>964.78</ele>
        <time>2015-04-29T13:38:29Z</time>
      </trkpt>
      <trkpt lat="45.05939" lon="3.0345">
        <ele>965.25</ele>
        <time>2015-04-29T13:38:39Z</time>
      </trkpt>
      <trkpt lat="45.05944" lon="3.03442">
        <ele>963.05</ele>
        <time>2015-04-29T13:38:49Z</time>
      </trkpt>
      <trkpt lat="45.05952" lon="3.03425">
        <ele>967.72</ele>
        <time>2015-04-29T13:38:59Z</time>
      </trkpt>
      <trkpt lat="45.0596" lon="3.03411">
        <ele>966.82</ele>
        <time>2015-04-29T13:39:09Z</time>
      </trkpt>
      <trkpt lat="45.05964" lon="3.03394">
        <ele>969.75</ele>
        <time>2015-04-29T13:39:19Z</time>
      </trkpt>
      <trkpt lat="45.05965" lon="3.03389">
        <ele>971</ele>
        <time>2015-04-29T13:39:29Z</time>
      </trkpt>
      <trkpt lat="45.05968" lon="3.03381">
        <ele>970.06</ele>
        <time>2015-04-29T13:39:39Z</time>
      </trkpt>
      <trkpt lat="45.05973" lon="3.0337">
        <ele>961.27</ele>
        <time>2015-04-29T13:39:49Z</time>
      </trkpt>
      <trkpt lat="45.05982" lon="3.03352">
        <ele>967.25</ele>
        <time>2015-04-29T13:39:59Z</time>
      </trkpt>
      <trkpt lat="45.06001" lon="3.03337">
        <ele>972.87</ele>
        <time>2015-04-29T13:40:09Z</time>
      </trkpt>
      <trkpt lat="45.06012" lon="3.03342">
        <ele>973.02</ele>
        <time>2015-04-29T13:40:19Z</time>
      </trkpt>
      <trkpt lat="45.06019" lon="3.03346">
        <ele>970.02</ele>
        <time>2015-04-29T13:40:29Z</time>
      </trkpt>
      <trkpt lat="45.06029" lon="3.03349">
        <ele>971.79</ele>
        <time>2015-04-29T13:40:39Z</time>
      </trkpt>
      <trkpt lat="45.06041" lon="3.0335">
        <ele>965.61</ele>
        <time>2015-04-29T13:40:49Z</time>
      </trkpt>
      <trkpt lat="45.0605" lon="3.03354">
        <ele>966.64</ele>
        <time>2015-04-29T13:40:59Z</time>
      </trkpt>
      <trkpt lat="45.06059" lon="3.03359">
        <ele>960.08</ele>
        <time>2015-04-29T13:41:09Z</time>
      </trkpt>
      <trkpt lat="45.06071" lon="3.03365">
        <ele>963.7</ele>
        <time>2015-04-29T13:41:19Z</time>
      </trkpt>
      <trkpt lat="45.06082" lon="3.0337">
        <ele>963.81</ele>
        <time>2015-04-29T13:41:29Z</time>
      </trkpt>
      <trkpt lat="45.06092" lon="3.03376">
        <ele>965.56</ele>
        <time>2015-04-29T13:41:39Z</time>
      </trkpt>
      <trkpt lat="45.06105" lon="3.03378">
        <ele>966.04</ele>
        <time>2015-04-29T13:41:49Z</time>
      </trkpt>
      <trkpt lat="45.06112" lon="3.03381">
        <ele>966.25</ele>
        <time>2015-04-29T13:41:59Z</time>
      </trkpt>
      <trkpt lat="45.0612" lon="3.03386">
        <ele>963.82</ele>
        <time>2015-04-29T13:42:09Z</time>
      </trkpt>
      <trkpt lat="45.06131" lon="3.03389">
        <ele>962.94</ele>
        <time>2015-04-29T13:42:19Z</time>
      </trkpt>
      <trkpt lat="45.06145" lon="3.03395">
        <ele>962.27</ele>
        <time>2015-04-29T13:42:29Z</time>
      </trkpt>
      <trkpt lat="45.06154" lon="3.034">
        <ele>963.99</ele>
        <time>2015-04-29T13:42:39Z</time>
      </trkpt>
      <trkpt lat="45.06165" lon="3.03407">
        <ele>962.36</ele>
        <time>2015-04-29T13:42:49Z</time>
      </trkpt>
      <trkpt lat="45.06176" lon="3.03417">
        <ele>960.45</ele>
        <time>2015-04-29T13:42:59Z</time>
      </trkpt>
      <trkpt lat="45.06189" lon="3.03425">
        <ele>964.89</ele>
        <time>2015-04-29T13:43:09Z</time>
      </trkpt>
      <trkpt lat="45.06199" lon="3.03435">
        <ele>965.94</ele>
        <time>2015-04-29T13:43:19Z</time>
      </trkpt>
      <trkpt lat="45.06209" lon="3.03443">
        <ele>966.88</ele>
        <time>2015-04-29T13:43:29Z</time>
      </trkpt>
      <trkpt lat="45.06221" lon="3.03453">
        <ele>967.21</ele>
        <time>2015-04-29T13:43:39Z</time>
      </trkpt>
      <trkpt lat="45.06227" lon="3.03469">
        <ele>966.07</ele>
        <time>2015-04-29T13:43:49Z</time>
      </trkpt>
      <trkpt lat="45.06233" lon="3.03482">
        <ele>964.99</ele>
        <time>2015-04-29T13:43:59Z</time>
      </trkpt>
      <trkpt lat="45.06243" lon="3.03486">
        <ele>963.06</ele>
        <time>2015-04-29T13:44:09Z</time>
      </trkpt>
      <trkpt lat="45.06253" lon="3.03497">
        <ele>960.58</ele>
        <time>2015-04-29T13:44:19Z</time>
      </trkpt>
      <trkpt lat="45.06261" lon="3.03503">
        <ele>962.93</ele>
        <time>2015-04-29T13:44:29Z</time>
      </trkpt>
      <trkpt lat="45.06272" lon="3.03512">
        <ele>966.91</ele>
        <time>2015-04-29T13:44:39Z</time>
      </trkpt>
      <trkpt lat="45.06282" lon="3.03521">
        <ele>964.09</ele>
        <time>2015-04-29T13:44:49Z</time>
      </trkpt>
      <trkpt lat="45.06289" lon="3.0353">
        <ele>963.97</ele>
        <time>2015-04-29T13:44:59Z</time>
      </trkpt>
      <trkpt lat="45.063" lon="3.03539">
        <ele>965.2</ele>
        <time>2015-04-29T13:45:09Z</time>
      </trkpt>
      <trkpt lat="45.06312" lon="3.03548">
        <ele>964</ele>
        <time>2015-04-29T13:45:19Z</time>
      </trkpt>
      <trkpt lat="45.0633" lon="3.03559">
        <ele>973.5</ele>
        <time>2015-04-29T13:45:29Z</time>
      </trkpt>
      <trkpt lat="45.06343" lon="3.03564">
        <ele>970.25</ele>
        <time>2015-04-29T13:45:39Z</time>
      </trkpt>
      <trkpt lat="45.06352" lon="3.0357">
        <ele>968.71</ele>
        <time>2015-04-29T13:45:49Z</time>
      </trkpt>
      <trkpt lat="45.06361" lon="3.03578">
        <ele>967.77</ele>
        <time>2015-04-29T13:45:59Z</time>
      </trkpt>
      <trkpt lat="45.06374" lon="3.03581">
        <ele>970.73</ele>
        <time>2015-04-29T13:46:09Z</time>
      </trkpt>
      <trkpt lat="45.06386" lon="3.03587">
        <ele>972.68</ele>
        <time>2015-04-29T13:46:19Z</time>
      </trkpt>
      <trkpt lat="45.06393" lon="3.03594">
        <ele>964.28</ele>
        <time>2015-04-29T13:46:29Z</time>
      </trkpt>
      <trkpt lat="45.06402" lon="3.03603">
        <ele>960.08</ele>
        <time>2015-04-29T13:46:39Z</time>
      </trkpt>
      <trkpt lat="45.0641" lon="3.03609">
        <ele>957</ele>
        <time>2015-04-29T13:46:49Z</time>
      </trkpt>
      <trkpt lat="45.0642" lon="3.03616">
        <ele>956</ele>
        <time>2015-04-29T13:46:59Z</time>
      </trkpt>
      <trkpt lat="45.06431" lon="3.03624">
        <ele>957.92</ele>
        <time>2015-04-29T13:47:09Z</time>
      </trkpt>
      <trkpt lat="45.06444" lon="3.03629">
        <ele>955.25</ele>
        <time>2015-04-29T13:47:19Z</time>
      </trkpt>
      <trkpt lat="45.06454" lon="3.03638">
        <ele>954.75</ele>
        <time>2015-04-29T13:47:29Z</time>
      </trkpt>
      <trkpt lat="45.06462" lon="3.03648">
        <ele>950.36</ele>
        <time>2015-04-29T13:47:39Z</time>
      </trkpt>
      <trkpt lat="45.0647" lon="3.03651">
        <ele>940.39</ele>
        <time>2015-04-29T13:47:49Z</time>
      </trkpt>
      <trkpt lat="45.06477" lon="3.03659">
        <ele>938.06</ele>
        <time>2015-04-29T13:47:59Z</time>
      </trkpt>
      <trkpt lat="45.06484" lon="3.03669">
        <ele>937.06</ele>
        <time>2015-04-29T13:48:09Z</time>
      </trkpt>
      <trkpt lat="45.06496" lon="3.03679">
        <ele>939</ele>
        <time>2015-04-29T13:48:19Z</time>
      </trkpt>
      <trkpt lat="45.0651" lon="3.03682">
        <ele>938.06</ele>
        <time>2015-04-29T13:48:29Z</time>
      </trkpt>
      <trkpt lat="45.06522" lon="3.03693">
        <ele>937.75</ele>
        <time>2015-04-29T13:48:39Z</time>
      </trkpt>
      <trkpt lat="45.06532" lon="3.03701">
        <ele>936.22</ele>
        <time>2015-04-29T13:48:49Z</time>
      </trkpt>
      <trkpt lat="45.06541" lon="3.03709">
        <ele>936.14</ele>
        <time>2015-04-29T13:48:59Z</time>
      </trkpt>
      <trkpt lat="45.06547" lon="3.03719">
        <ele>937.64</ele>
        <time>2015-04-29T13:49:09Z</time>
      </trkpt>
      <trkpt lat="45.06555" lon="3.03729">
        <ele>934.07</ele>
        <time>2015-04-29T13:49:19Z</time>
      </trkpt>
      <trkpt lat="45.06563" lon="3.03739">
        <ele>936.17</ele>
        <time>2015-04-29T13:49:29Z</time>
      </trkpt>
      <trkpt lat="45.06569" lon="3.03749">
        <ele>935.02</ele>
        <time>2015-04-29T13:49:39Z</time>
      </trkpt>
      <trkpt lat="45.06575" lon="3.03752">
        <ele>931.77</ele>
        <time>2015-04-29T13:49:49Z</time>
      </trkpt>
      <trkpt lat="45.0658" lon="3.03765">
        <ele>931.05</ele>
        <time>2015-04-29T13:49:59Z</time>
      </trkpt>
      <trkpt lat="45.06585" lon="3.03771">
        <ele>925.38</ele>
        <time>2015-04-29T13:50:09Z</time>
      </trkpt>
      <trkpt lat="45.06592" lon="3.0378">
        <ele>924.81</ele>
        <time>2015-04-29T13:50:19Z</time>
      </trkpt>
      <trkpt lat="45.06597" lon="3.0379">
        <ele>925.69</ele>
        <time>2015-04-29T13:50:29Z</time>
      </trkpt>
      <trkpt lat="45.06601" lon="3.03803">
        <ele>922.32</ele>
        <time>2015-04-29T13:50:39Z</time>
      </trkpt>
      <trkpt lat="45.0661" lon="3.03808">
        <ele>916.94</ele>
        <time>2015-04-29T13:50:49Z</time>
      </trkpt>
      <trkpt lat="45.06619" lon="3.03818">
        <ele>916.5</ele>
        <time>2015-04-29T13:50:59Z</time>
      </trkpt>
      <trkpt lat="45.06629" lon="3.0383">
        <ele>912.95</ele>
        <time>2015-04-29T13:51:09Z</time>
      </trkpt>
      <trkpt lat="45.0664" lon="3.0384">
        <ele>915</ele>
        <time>2015-04-29T13:51:19Z</time>
      </trkpt>
      <trkpt lat="45.06647" lon="3.03852">
        <ele>915.36</ele>
        <time>2015-04-29T13:51:29Z</time>
      </trkpt>
      <trkpt lat="45.06652" lon="3.03865">
        <ele>912.75</ele>
        <time>2015-04-29T13:51:39Z</time>
      </trkpt>
      <trkpt lat="45.06654" lon="3.03874">
        <ele>913.19</ele>
        <time>2015-04-29T13:51:49Z</time>
      </trkpt>
      <trkpt lat="45.0666" lon="3.03885">
        <ele>913.68</ele>
        <time>2015-04-29T13:51:59Z</time>
      </trkpt>
      <trkpt lat="45.06667" lon="3.03895">
        <ele>914.06</ele>
        <time>2015-04-29T13:52:09Z</time>
      </trkpt>
      <trkpt lat="45.06667" lon="3.03898">
        <ele>910.19</ele>
        <time>2015-04-29T13:52:19Z</time>
      </trkpt>
      <trkpt lat="45.06668" lon="3.03895">
        <ele>909</ele>
        <time>2015-04-29T13:52:29Z</time>
      </trkpt>
      <trkpt lat="45.06669" lon="3.03904">
        <ele>906.28</ele>
        <time>2015-04-29T13:52:39Z</time>
      </trkpt>
      <trkpt lat="45.06676" lon="3.03907">
        <ele>909.92</ele>
        <time>2015-04-29T13:52:49Z</time>
      </trkpt>
      <trkpt lat="45.06677" lon="3.03909">
        <ele>911</ele>
        <time>2015-04-29T13:52:59Z</time>
      </trkpt>
      <trkpt lat="45.06679" lon="3.0391">
        <ele>909.08</ele>
        <time>2015-04-29T13:53:11Z</time>
      </trkpt>
      <trkpt lat="45.06689" lon="3.03921">
        <ele>904.81</ele>
        <time>2015-04-29T13:53:21Z</time>
      </trkpt>
      <trkpt lat="45.06701" lon="3.03932">
        <ele>907.5</ele>
        <time>2015-04-29T13:53:31Z</time>
      </trkpt>
      <trkpt lat="45.06709" lon="3.0394">
        <ele>904.19</ele>
        <time>2015-04-29T13:53:41Z</time>
      </trkpt>
      <trkpt lat="45.06721" lon="3.03948">
        <ele>907.75</ele>
        <time>2015-04-29T13:53:51Z</time>
      </trkpt>
      <trkpt lat="45.06733" lon="3.03963">
        <ele>910.71</ele>
        <time>2015-04-29T13:54:01Z</time>
      </trkpt>
      <trkpt lat="45.06741" lon="3.03975">
        <ele>905.25</ele>
        <time>2015-04-29T13:54:11Z</time>
      </trkpt>
      <trkpt lat="45.0675" lon="3.03983">
        <ele>904.27</ele>
        <time>2015-04-29T13:54:21Z</time>
      </trkpt>
      <trkpt lat="45.06754" lon="3.03993">
        <ele>904.76</ele>
        <time>2015-04-29T13:54:31Z</time>
      </trkpt>
      <trkpt lat="45.06759" lon="3.03989">
        <ele>905</ele>
        <time>2015-04-29T13:54:41Z</time>
      </trkpt>
      <trkpt lat="45.0675" lon="3.04013">
        <ele>906.42</ele>
        <time>2015-04-29T13:54:51Z</time>
      </trkpt>
      <trkpt lat="45.06759" lon="3.0401">
        <ele>910.09</ele>
        <time>2015-04-29T13:55:01Z</time>
      </trkpt>
      <trkpt lat="45.06774" lon="3.04016">
        <ele>898.63</ele>
        <time>2015-04-29T13:55:11Z</time>
      </trkpt>
      <trkpt lat="45.0678" lon="3.04023">
        <ele>898.91</ele>
        <time>2015-04-29T13:55:21Z</time>
      </trkpt>
      <trkpt lat="45.06785" lon="3.04037">
        <ele>898.81</ele>
        <time>2015-04-29T13:55:31Z</time>
      </trkpt>
      <trkpt lat="45.06787" lon="3.04046">
        <ele>894.13</ele>
        <time>2015-04-29T13:55:41Z</time>
      </trkpt>
      <trkpt lat="45.06792" lon="3.04051">
        <ele>889.94</ele>
        <time>2015-04-29T13:55:51Z</time>
      </trkpt>
      <trkpt lat="45.06799" lon="3.04051">
        <ele>887</ele>
        <time>2015-04-29T13:56:01Z</time>
      </trkpt>
      <trkpt lat="45.06809" lon="3.04064">
        <ele>889.94</ele>
        <time>2015-04-29T13:56:11Z</time>
      </trkpt>
      <trkpt lat="45.06809" lon="3.04067">
        <ele>888</ele>
        <time>2015-04-29T13:56:21Z</time>
      </trkpt>
      <trkpt lat="45.06808" lon="3.04069">
        <ele>888</ele>
        <time>2015-04-29T13:56:31Z</time>
      </trkpt>
      <trkpt lat="45.06806" lon="3.04069">
        <ele>886.25</ele>
        <time>2015-04-29T13:57:02Z</time>
      </trkpt>
      <trkpt lat="45.06792" lon="3.0406">
        <ele>882.72</ele>
        <time>2015-04-29T13:57:12Z</time>
      </trkpt>
      <trkpt lat="45.06778" lon="3.04059">
        <ele>885</ele>
        <time>2015-04-29T13:57:22Z</time>
      </trkpt>
      <trkpt lat="45.06763" lon="3.04054">
        <ele>886.07</ele>
        <time>2015-04-29T13:57:32Z</time>
      </trkpt>
      <trkpt lat="45.06751" lon="3.04052">
        <ele>886.25</ele>
        <time>2015-04-29T13:57:42Z</time>
      </trkpt>
      <trkpt lat="45.06735" lon="3.04052">
        <ele>887.77</ele>
        <time>2015-04-29T13:57:52Z</time>
      </trkpt>
      <trkpt lat="45.06721" lon="3.04054">
        <ele>891.55</ele>
        <time>2015-04-29T13:58:02Z</time>
      </trkpt>
      <trkpt lat="45.06715" lon="3.04067">
        <ele>886.84</ele>
        <time>2015-04-29T13:58:12Z</time>
      </trkpt>
      <trkpt lat="45.06726" lon="3.04072">
        <ele>881.88</ele>
        <time>2015-04-29T13:58:22Z</time>
      </trkpt>
      <trkpt lat="45.06731" lon="3.04084">
        <ele>876.77</ele>
        <time>2015-04-29T13:58:32Z</time>
      </trkpt>
      <trkpt lat="45.06739" lon="3.04094">
        <ele>872.32</ele>
        <time>2015-04-29T13:58:42Z</time>
      </trkpt>
      <trkpt lat="45.06748" lon="3.04104">
        <ele>870.32</ele>
        <time>2015-04-29T13:58:52Z</time>
      </trkpt>
      <trkpt lat="45.06756" lon="3.04115">
        <ele>893.56</ele>
        <time>2015-04-29T13:59:02Z</time>
      </trkpt>
      <trkpt lat="45.06767" lon="3.04128">
        <ele>882.1</ele>
        <time>2015-04-29T13:59:12Z</time>
      </trkpt>
      <trkpt lat="45.06776" lon="3.04132">
        <ele>880</ele>
        <time>2015-04-29T13:59:22Z</time>
      </trkpt>
      <trkpt lat="45.06777" lon="3.04134">
        <ele>880</ele>
        <time>2015-04-29T13:59:34Z</time>
      </trkpt>
      <trkpt lat="45.06787" lon="3.04137">
        <ele>874.74</ele>
        <time>2015-04-29T13:59:44Z</time>
      </trkpt>
      <trkpt lat="45.06797" lon="3.04146">
        <ele>870.8</ele>
        <time>2015-04-29T13:59:54Z</time>
      </trkpt>
      <trkpt lat="45.06804" lon="3.04158">
        <ele>872.68</ele>
        <time>2015-04-29T14:00:04Z</time>
      </trkpt>
      <trkpt lat="45.06807" lon="3.04168">
        <ele>866.83</ele>
        <time>2015-04-29T14:00:14Z</time>
      </trkpt>
      <trkpt lat="45.06817" lon="3.04176">
        <ele>866.75</ele>
        <time>2015-04-29T14:00:24Z</time>
      </trkpt>
      <trkpt lat="45.06827" lon="3.04181">
        <ele>865</ele>
        <time>2015-04-29T14:00:34Z</time>
      </trkpt>
      <trkpt lat="45.06832" lon="3.04193">
        <ele>869.78</ele>
        <time>2015-04-29T14:00:44Z</time>
      </trkpt>
      <trkpt lat="45.06838" lon="3.0421">
        <ele>878.25</ele>
        <time>2015-04-29T14:00:54Z</time>
      </trkpt>
      <trkpt lat="45.06849" lon="3.0422">
        <ele>884.98</ele>
        <time>2015-04-29T14:01:04Z</time>
      </trkpt>
      <trkpt lat="45.06859" lon="3.04229">
        <ele>888.92</ele>
        <time>2015-04-29T14:01:14Z</time>
      </trkpt>
      <trkpt lat="45.06867" lon="3.04234">
        <ele>888</ele>
        <time>2015-04-29T14:01:24Z</time>
      </trkpt>
      <trkpt lat="45.06877" lon="3.04238">
        <ele>888.69</ele>
        <time>2015-04-29T14:01:34Z</time>
      </trkpt>
      <trkpt lat="45.06891" lon="3.04243">
        <ele>893.8</ele>
        <time>2015-04-29T14:01:44Z</time>
      </trkpt>
      <trkpt lat="45.06902" lon="3.04247">
        <ele>900.97</ele>
        <time>2015-04-29T14:01:54Z</time>
      </trkpt>
      <trkpt lat="45.06911" lon="3.04248">
        <ele>903.74</ele>
        <time>2015-04-29T14:02:04Z</time>
      </trkpt>
      <trkpt lat="45.06929" lon="3.04246">
        <ele>903.25</ele>
        <time>2015-04-29T14:02:14Z</time>
      </trkpt>
      <trkpt lat="45.06935" lon="3.04243">
        <ele>905.02</ele>
        <time>2015-04-29T14:02:24Z</time>
      </trkpt>
      <trkpt lat="45.06939" lon="3.04242">
        <ele>895.31</ele>
        <time>2015-04-29T14:02:34Z</time>
      </trkpt>
      <trkpt lat="45.0695" lon="3.04247">
        <ele>896.08</ele>
        <time>2015-04-29T14:02:44Z</time>
      </trkpt>
      <trkpt lat="45.06972" lon="3.04249">
        <ele>895.84</ele>
        <time>2015-04-29T14:02:54Z</time>
      </trkpt>
      <trkpt lat="45.06982" lon="3.0426">
        <ele>895.13</ele>
        <time>2015-04-29T14:03:04Z</time>
      </trkpt>
      <trkpt lat="45.06991" lon="3.04263">
        <ele>891.14</ele>
        <time>2015-04-29T14:03:14Z</time>
      </trkpt>
      <trkpt lat="45.06997" lon="3.0427">
        <ele>891.75</ele>
        <time>2015-04-29T14:03:24Z</time>
      </trkpt>
      <trkpt lat="45.0701" lon="3.04279">
        <ele>891.93</ele>
        <time>2015-04-29T14:03:34Z</time>
      </trkpt>
      <trkpt lat="45.07021" lon="3.04286">
        <ele>893.88</ele>
        <time>2015-04-29T14:03:44Z</time>
      </trkpt>
      <trkpt lat="45.07027" lon="3.04288">
        <ele>891.51</ele>
        <time>2015-04-29T14:03:54Z</time>
      </trkpt>
      <trkpt lat="45.07035" lon="3.0429">
        <ele>889.09</ele>
        <time>2015-04-29T14:04:04Z</time>
      </trkpt>
      <trkpt lat="45.07041" lon="3.04294">
        <ele>884.27</ele>
        <time>2015-04-29T14:04:14Z</time>
      </trkpt>
      <trkpt lat="45.07039" lon="3.043">
        <ele>880.07</ele>
        <time>2015-04-29T14:04:24Z</time>
      </trkpt>
      <trkpt lat="45.07038" lon="3.04309">
        <ele>885.69</ele>
        <time>2015-04-29T14:04:34Z</time>
      </trkpt>
      <trkpt lat="45.07038" lon="3.04313">
        <ele>896.53</ele>
        <time>2015-04-29T14:04:44Z</time>
      </trkpt>
      <trkpt lat="45.07038" lon="3.04315">
        <ele>893</ele>
        <time>2015-04-29T14:04:54Z</time>
      </trkpt>
      <trkpt lat="45.07038" lon="3.04315">
        <ele>893</ele>
        <time>2015-04-29T14:04:56Z</time>
      </trkpt>
      <trkpt lat="45.07031" lon="3.0434">
        <ele>900</ele>
        <time>2015-04-29T14:19:59Z</time>
      </trkpt>
      <trkpt lat="45.07048" lon="3.04309">
        <ele>879.19</ele>
        <time>2015-04-29T14:20:34Z</time>
      </trkpt>
      <trkpt lat="45.07038" lon="3.04299">
        <ele>881.61</ele>
        <time>2015-04-29T14:20:44Z</time>
      </trkpt>
      <trkpt lat="45.0703" lon="3.04294">
        <ele>880.75</ele>
        <time>2015-04-29T14:20:54Z</time>
      </trkpt>
      <trkpt lat="45.07026" lon="3.04293">
        <ele>882</ele>
        <time>2015-04-29T14:21:04Z</time>
      </trkpt>
      <trkpt lat="45.07025" lon="3.04294">
        <ele>883.94</ele>
        <time>2015-04-29T14:21:20Z</time>
      </trkpt>
      <trkpt lat="45.07026" lon="3.04293">
        <ele>880.06</ele>
        <time>2015-04-29T14:21:39Z</time>
      </trkpt>
      <trkpt lat="45.07019" lon="3.04282">
        <ele>872.88</ele>
        <time>2015-04-29T14:21:49Z</time>
      </trkpt>
      <trkpt lat="45.07013" lon="3.04279">
        <ele>875.98</ele>
        <time>2015-04-29T14:21:59Z</time>
      </trkpt>
      <trkpt lat="45.07009" lon="3.04276">
        <ele>873.62</ele>
        <time>2015-04-29T14:22:09Z</time>
      </trkpt>
      <trkpt lat="45.06993" lon="3.04262">
        <ele>861.72</ele>
        <time>2015-04-29T14:22:19Z</time>
      </trkpt>
      <trkpt lat="45.0697" lon="3.04254">
        <ele>860.34</ele>
        <time>2015-04-29T14:22:29Z</time>
      </trkpt>
      <trkpt lat="45.06956" lon="3.04251">
        <ele>866.03</ele>
        <time>2015-04-29T14:22:39Z</time>
      </trkpt>
      <trkpt lat="45.06942" lon="3.04251">
        <ele>876.46</ele>
        <time>2015-04-29T14:22:49Z</time>
      </trkpt>
      <trkpt lat="45.06933" lon="3.04251">
        <ele>874</ele>
        <time>2015-04-29T14:22:59Z</time>
      </trkpt>
      <trkpt lat="45.06923" lon="3.04253">
        <ele>871.45</ele>
        <time>2015-04-29T14:23:09Z</time>
      </trkpt>
      <trkpt lat="45.06906" lon="3.04249">
        <ele>872.98</ele>
        <time>2015-04-29T14:23:19Z</time>
      </trkpt>
      <trkpt lat="45.06898" lon="3.04247">
        <ele>872.93</ele>
        <time>2015-04-29T14:23:29Z</time>
      </trkpt>
      <trkpt lat="45.06894" lon="3.04246">
        <ele>870.25</ele>
        <time>2015-04-29T14:23:39Z</time>
      </trkpt>
      <trkpt lat="45.06886" lon="3.04239">
        <ele>862.02</ele>
        <time>2015-04-29T14:23:49Z</time>
      </trkpt>
      <trkpt lat="45.06879" lon="3.04227">
        <ele>856.57</ele>
        <time>2015-04-29T14:23:59Z</time>
      </trkpt>
      <trkpt lat="45.06873" lon="3.04223">
        <ele>853.06</ele>
        <time>2015-04-29T14:24:09Z</time>
      </trkpt>
      <trkpt lat="45.06867" lon="3.04216">
        <ele>849.94</ele>
        <time>2015-04-29T14:24:19Z</time>
      </trkpt>
      <trkpt lat="45.06863" lon="3.04202">
        <ele>847.73</ele>
        <time>2015-04-29T14:24:29Z</time>
      </trkpt>
      <trkpt lat="45.06851" lon="3.04189">
        <ele>853.79</ele>
        <time>2015-04-29T14:24:39Z</time>
      </trkpt>
      <trkpt lat="45.06838" lon="3.04185">
        <ele>856.75</ele>
        <time>2015-04-29T14:24:49Z</time>
      </trkpt>
      <trkpt lat="45.06825" lon="3.04172">
        <ele>867.03</ele>
        <time>2015-04-29T14:24:59Z</time>
      </trkpt>
      <trkpt lat="45.06775" lon="3.04138">
        <ele>893.67</ele>
        <time>2015-04-29T14:25:35Z</time>
      </trkpt>
      <trkpt lat="45.06738" lon="3.04132">
        <ele>933.77</ele>
        <time>2015-04-29T14:25:45Z</time>
      </trkpt>
      <trkpt lat="45.06715" lon="3.0412">
        <ele>948.92</ele>
        <time>2015-04-29T14:25:55Z</time>
      </trkpt>
      <trkpt lat="45.06744" lon="3.04106">
        <ele>896.19</ele>
        <time>2015-04-29T14:26:05Z</time>
      </trkpt>
      <trkpt lat="45.06739" lon="3.04096">
        <ele>887.31</ele>
        <time>2015-04-29T14:26:15Z</time>
      </trkpt>
      <trkpt lat="45.06736" lon="3.04088">
        <ele>883.27</ele>
        <time>2015-04-29T14:26:25Z</time>
      </trkpt>
      <trkpt lat="45.06737" lon="3.04086">
        <ele>879.25</ele>
        <time>2015-04-29T14:26:35Z</time>
      </trkpt>
      <trkpt lat="45.06732" lon="3.04079">
        <ele>881.07</ele>
        <time>2015-04-29T14:26:45Z</time>
      </trkpt>
      <trkpt lat="45.06724" lon="3.0407">
        <ele>881.06</ele>
        <time>2015-04-29T14:26:55Z</time>
      </trkpt>
      <trkpt lat="45.06716" lon="3.04064">
        <ele>881.08</ele>
        <time>2015-04-29T14:27:05Z</time>
      </trkpt>
      <trkpt lat="45.06714" lon="3.04064">
        <ele>882.75</ele>
        <time>2015-04-29T14:27:15Z</time>
      </trkpt>
      <trkpt lat="45.06707" lon="3.04079">
        <ele>882.25</ele>
        <time>2015-04-29T14:27:25Z</time>
      </trkpt>
      <trkpt lat="45.06702" lon="3.04098">
        <ele>879.83</ele>
        <time>2015-04-29T14:27:35Z</time>
      </trkpt>
      <trkpt lat="45.06698" lon="3.04096">
        <ele>876.77</ele>
        <time>2015-04-29T14:27:45Z</time>
      </trkpt>
      <trkpt lat="45.06696" lon="3.04098">
        <ele>876.25</ele>
        <time>2015-04-29T14:28:02Z</time>
      </trkpt>
      <trkpt lat="45.06685" lon="3.04117">
        <ele>874.73</ele>
        <time>2015-04-29T14:28:12Z</time>
      </trkpt>
      <trkpt lat="45.06672" lon="3.04131">
        <ele>875.73</ele>
        <time>2015-04-29T14:28:22Z</time>
      </trkpt>
      <trkpt lat="45.06662" lon="3.04138">
        <ele>874.23</ele>
        <time>2015-04-29T14:28:32Z</time>
      </trkpt>
      <trkpt lat="45.06653" lon="3.0415">
        <ele>874</ele>
        <time>2015-04-29T14:28:42Z</time>
      </trkpt>
      <trkpt lat="45.06642" lon="3.04155">
        <ele>873</ele>
        <time>2015-04-29T14:28:52Z</time>
      </trkpt>
      <trkpt lat="45.06637" lon="3.04153">
        <ele>871.98</ele>
        <time>2015-04-29T14:29:02Z</time>
      </trkpt>
      <trkpt lat="45.06628" lon="3.04162">
        <ele>876.39</ele>
        <time>2015-04-29T14:29:12Z</time>
      </trkpt>
      <trkpt lat="45.06613" lon="3.0417">
        <ele>881.94</ele>
        <time>2015-04-29T14:29:22Z</time>
      </trkpt>
      <trkpt lat="45.06602" lon="3.04176">
        <ele>881.93</ele>
        <time>2015-04-29T14:29:32Z</time>
      </trkpt>
      <trkpt lat="45.06597" lon="3.0418">
        <ele>878</ele>
        <time>2015-04-29T14:29:42Z</time>
      </trkpt>
      <trkpt lat="45.06591" lon="3.04189">
        <ele>879.7</ele>
        <time>2015-04-29T14:29:52Z</time>
      </trkpt>
      <trkpt lat="45.06579" lon="3.04205">
        <ele>883.44</ele>
        <time>2015-04-29T14:30:02Z</time>
      </trkpt>
      <trkpt lat="45.06576" lon="3.04205">
        <ele>881.06</ele>
        <time>2015-04-29T14:30:12Z</time>
      </trkpt>
      <trkpt lat="45.06576" lon="3.04204">
        <ele>882</ele>
        <time>2015-04-29T14:30:24Z</time>
      </trkpt>
      <trkpt lat="45.06576" lon="3.04203">
        <ele>881</ele>
        <time>2015-04-29T14:32:26Z</time>
      </trkpt>
      <trkpt lat="45.06575" lon="3.04204">
        <ele>881</ele>
        <time>2015-04-29T14:32:39Z</time>
      </trkpt>
      <trkpt lat="45.06573" lon="3.04213">
        <ele>881</ele>
        <time>2015-04-29T14:32:49Z</time>
      </trkpt>
      <trkpt lat="45.0657" lon="3.04229">
        <ele>882.19</ele>
        <time>2015-04-29T14:32:59Z</time>
      </trkpt>
      <trkpt lat="45.06563" lon="3.04243">
        <ele>882</ele>
        <time>2015-04-29T14:33:09Z</time>
      </trkpt>
      <trkpt lat="45.06559" lon="3.04256">
        <ele>879.69</ele>
        <time>2015-04-29T14:33:19Z</time>
      </trkpt>
      <trkpt lat="45.06555" lon="3.04272">
        <ele>879.75</ele>
        <time>2015-04-29T14:33:29Z</time>
      </trkpt>
      <trkpt lat="45.06549" lon="3.04288">
        <ele>881.92</ele>
        <time>2015-04-29T14:33:39Z</time>
      </trkpt>
      <trkpt lat="45.06541" lon="3.04302">
        <ele>881.05</ele>
        <time>2015-04-29T14:33:49Z</time>
      </trkpt>
      <trkpt lat="45.06534" lon="3.04318">
        <ele>882</ele>
        <time>2015-04-29T14:33:59Z</time>
      </trkpt>
      <trkpt lat="45.06529" lon="3.04331">
        <ele>881</ele>
        <time>2015-04-29T14:34:09Z</time>
      </trkpt>
      <trkpt lat="45.06523" lon="3.04343">
        <ele>879.02</ele>
        <time>2015-04-29T14:34:19Z</time>
      </trkpt>
      <trkpt lat="45.06517" lon="3.04358">
        <ele>878.05</ele>
        <time>2015-04-29T14:34:29Z</time>
      </trkpt>
      <trkpt lat="45.06511" lon="3.04373">
        <ele>879.98</ele>
        <time>2015-04-29T14:34:39Z</time>
      </trkpt>
      <trkpt lat="45.06505" lon="3.04388">
        <ele>880.75</ele>
        <time>2015-04-29T14:34:49Z</time>
      </trkpt>
      <trkpt lat="45.06498" lon="3.04403">
        <ele>882.74</ele>
        <time>2015-04-29T14:34:59Z</time>
      </trkpt>
      <trkpt lat="45.06493" lon="3.04416">
        <ele>881.95</ele>
        <time>2015-04-29T14:35:09Z</time>
      </trkpt>
      <trkpt lat="45.06487" lon="3.0443">
        <ele>882</ele>
        <time>2015-04-29T14:35:19Z</time>
      </trkpt>
      <trkpt lat="45.06482" lon="3.04443">
        <ele>881</ele>
        <time>2015-04-29T14:35:29Z</time>
      </trkpt>
      <trkpt lat="45.06475" lon="3.04458">
        <ele>882.93</ele>
        <time>2015-04-29T14:35:39Z</time>
      </trkpt>
      <trkpt lat="45.0647" lon="3.04473">
        <ele>879.25</ele>
        <time>2015-04-29T14:35:49Z</time>
      </trkpt>
      <trkpt lat="45.06467" lon="3.04488">
        <ele>879.2</ele>
        <time>2015-04-29T14:35:59Z</time>
      </trkpt>
      <trkpt lat="45.06462" lon="3.04502">
        <ele>879.02</ele>
        <time>2015-04-29T14:36:09Z</time>
      </trkpt>
      <trkpt lat="45.06457" lon="3.04516">
        <ele>880.05</ele>
        <time>2015-04-29T14:36:19Z</time>
      </trkpt>
      <trkpt lat="45.06451" lon="3.0453">
        <ele>880</ele>
        <time>2015-04-29T14:36:29Z</time>
      </trkpt>
      <trkpt lat="45.06445" lon="3.04543">
        <ele>880.98</ele>
        <time>2015-04-29T14:36:39Z</time>
      </trkpt>
      <trkpt lat="45.06437" lon="3.04554">
        <ele>880</ele>
        <time>2015-04-29T14:36:49Z</time>
      </trkpt>
      <trkpt lat="45.0643" lon="3.04568">
        <ele>880.24</ele>
        <time>2015-04-29T14:36:59Z</time>
      </trkpt>
      <trkpt lat="45.06423" lon="3.04582">
        <ele>881.81</ele>
        <time>2015-04-29T14:37:09Z</time>
      </trkpt>
      <trkpt lat="45.06422" lon="3.04578">
        <ele>881</ele>
        <time>2015-04-29T14:37:19Z</time>
      </trkpt>
      <trkpt lat="45.06424" lon="3.0457">
        <ele>880</ele>
        <time>2015-04-29T14:37:29Z</time>
      </trkpt>
      <trkpt lat="45.06416" lon="3.0459">
        <ele>880.99</ele>
        <time>2015-04-29T14:37:39Z</time>
      </trkpt>
      <trkpt lat="45.06407" lon="3.04609">
        <ele>880.25</ele>
        <time>2015-04-29T14:37:49Z</time>
      </trkpt>
      <trkpt lat="45.06399" lon="3.04619">
        <ele>875.27</ele>
        <time>2015-04-29T14:37:59Z</time>
      </trkpt>
      <trkpt lat="45.06394" lon="3.04633">
        <ele>876.75</ele>
        <time>2015-04-29T14:38:09Z</time>
      </trkpt>
      <trkpt lat="45.06387" lon="3.04647">
        <ele>877.77</ele>
        <time>2015-04-29T14:38:19Z</time>
      </trkpt>
      <trkpt lat="45.0638" lon="3.04663">
        <ele>880</ele>
        <time>2015-04-29T14:38:29Z</time>
      </trkpt>
      <trkpt lat="45.06375" lon="3.04683">
        <ele>881.75</ele>
        <time>2015-04-29T14:38:39Z</time>
      </trkpt>
      <trkpt lat="45.06369" lon="3.04703">
        <ele>885.93</ele>
        <time>2015-04-29T14:38:49Z</time>
      </trkpt>
      <trkpt lat="45.06362" lon="3.04721">
        <ele>887.93</ele>
        <time>2015-04-29T14:38:59Z</time>
      </trkpt>
      <trkpt lat="45.06354" lon="3.04731">
        <ele>878</ele>
        <time>2015-04-29T14:39:09Z</time>
      </trkpt>
      <trkpt lat="45.06348" lon="3.0473">
        <ele>878.95</ele>
        <time>2015-04-29T14:39:19Z</time>
      </trkpt>
      <trkpt lat="45.06341" lon="3.04741">
        <ele>877.11</ele>
        <time>2015-04-29T14:39:29Z</time>
      </trkpt>
      <trkpt lat="45.06332" lon="3.04756">
        <ele>878.25</ele>
        <time>2015-04-29T14:39:39Z</time>
      </trkpt>
      <trkpt lat="45.06323" lon="3.04772">
        <ele>879.81</ele>
        <time>2015-04-29T14:39:49Z</time>
      </trkpt>
      <trkpt lat="45.06313" lon="3.0478">
        <ele>875.98</ele>
        <time>2015-04-29T14:39:59Z</time>
      </trkpt>
      <trkpt lat="45.06304" lon="3.04793">
        <ele>880.72</ele>
        <time>2015-04-29T14:40:09Z</time>
      </trkpt>
      <trkpt lat="45.06297" lon="3.04803">
        <ele>878.75</ele>
        <time>2015-04-29T14:40:19Z</time>
      </trkpt>
      <trkpt lat="45.06287" lon="3.04812">
        <ele>879.19</ele>
        <time>2015-04-29T14:40:29Z</time>
      </trkpt>
      <trkpt lat="45.06276" lon="3.04826">
        <ele>881.24</ele>
        <time>2015-04-29T14:40:39Z</time>
      </trkpt>
      <trkpt lat="45.06265" lon="3.04833">
        <ele>883.92</ele>
        <time>2015-04-29T14:40:49Z</time>
      </trkpt>
      <trkpt lat="45.06255" lon="3.04845">
        <ele>886.19</ele>
        <time>2015-04-29T14:40:59Z</time>
      </trkpt>
      <trkpt lat="45.06246" lon="3.04859">
        <ele>888.05</ele>
        <time>2015-04-29T14:41:09Z</time>
      </trkpt>
      <trkpt lat="45.06239" lon="3.04874">
        <ele>889.06</ele>
        <time>2015-04-29T14:41:19Z</time>
      </trkpt>
      <trkpt lat="45.06232" lon="3.04892">
        <ele>892</ele>
        <time>2015-04-29T14:41:29Z</time>
      </trkpt>
      <trkpt lat="45.06224" lon="3.049">
        <ele>885.27</ele>
        <time>2015-04-29T14:41:39Z</time>
      </trkpt>
      <trkpt lat="45.06218" lon="3.04909">
        <ele>884.76</ele>
        <time>2015-04-29T14:41:49Z</time>
      </trkpt>
      <trkpt lat="45.0622" lon="3.04923">
        <ele>885.05</ele>
        <time>2015-04-29T14:41:59Z</time>
      </trkpt>
      <trkpt lat="45.06215" lon="3.04934">
        <ele>886</ele>
        <time>2015-04-29T14:42:09Z</time>
      </trkpt>
      <trkpt lat="45.0621" lon="3.0495">
        <ele>887.17</ele>
        <time>2015-04-29T14:42:19Z</time>
      </trkpt>
      <trkpt lat="45.06208" lon="3.04966">
        <ele>887.86</ele>
        <time>2015-04-29T14:42:29Z</time>
      </trkpt>
      <trkpt lat="45.06204" lon="3.04975">
        <ele>885.07</ele>
        <time>2015-04-29T14:42:39Z</time>
      </trkpt>
      <trkpt lat="45.06203" lon="3.04987">
        <ele>883.14</ele>
        <time>2015-04-29T14:42:49Z</time>
      </trkpt>
      <trkpt lat="45.06201" lon="3.05">
        <ele>883</ele>
        <time>2015-04-29T14:42:59Z</time>
      </trkpt>
      <trkpt lat="45.06194" lon="3.05012">
        <ele>884.63</ele>
        <time>2015-04-29T14:43:09Z</time>
      </trkpt>
      <trkpt lat="45.0619" lon="3.05028">
        <ele>885</ele>
        <time>2015-04-29T14:43:19Z</time>
      </trkpt>
      <trkpt lat="45.06188" lon="3.05047">
        <ele>888.73</ele>
        <time>2015-04-29T14:43:29Z</time>
      </trkpt>
      <trkpt lat="45.06185" lon="3.05069">
        <ele>892.25</ele>
        <time>2015-04-29T14:43:39Z</time>
      </trkpt>
      <trkpt lat="45.06182" lon="3.05086">
        <ele>893.49</ele>
        <time>2015-04-29T14:43:49Z</time>
      </trkpt>
      <trkpt lat="45.0618" lon="3.05105">
        <ele>896.22</ele>
        <time>2015-04-29T14:43:59Z</time>
      </trkpt>
      <trkpt lat="45.06177" lon="3.05123">
        <ele>897.75</ele>
        <time>2015-04-29T14:44:09Z</time>
      </trkpt>
      <trkpt lat="45.06178" lon="3.05145">
        <ele>900.01</ele>
        <time>2015-04-29T14:44:19Z</time>
      </trkpt>
      <trkpt lat="45.06177" lon="3.05161">
        <ele>898</ele>
        <time>2015-04-29T14:44:29Z</time>
      </trkpt>
      <trkpt lat="45.06176" lon="3.05179">
        <ele>898.98</ele>
        <time>2015-04-29T14:44:39Z</time>
      </trkpt>
      <trkpt lat="45.06176" lon="3.05198">
        <ele>900</ele>
        <time>2015-04-29T14:44:49Z</time>
      </trkpt>
      <trkpt lat="45.06168" lon="3.05207">
        <ele>902.72</ele>
        <time>2015-04-29T14:44:59Z</time>
      </trkpt>
      <trkpt lat="45.06163" lon="3.05221">
        <ele>899.25</ele>
        <time>2015-04-29T14:45:09Z</time>
      </trkpt>
      <trkpt lat="45.06154" lon="3.05231">
        <ele>898</ele>
        <time>2015-04-29T14:45:19Z</time>
      </trkpt>
      <trkpt lat="45.06152" lon="3.05251">
        <ele>900.87</ele>
        <time>2015-04-29T14:45:29Z</time>
      </trkpt>
      <trkpt lat="45.06152" lon="3.05271">
        <ele>901.21</ele>
        <time>2015-04-29T14:45:39Z</time>
      </trkpt>
      <trkpt lat="45.06149" lon="3.05287">
        <ele>895.51</ele>
        <time>2015-04-29T14:45:49Z</time>
      </trkpt>
      <trkpt lat="45.06142" lon="3.05299">
        <ele>899.97</ele>
        <time>2015-04-29T14:45:59Z</time>
      </trkpt>
      <trkpt lat="45.06135" lon="3.05313">
        <ele>900.99</ele>
        <time>2015-04-29T14:46:09Z</time>
      </trkpt>
      <trkpt lat="45.0613" lon="3.05328">
        <ele>902.95</ele>
        <time>2015-04-29T14:46:19Z</time>
      </trkpt>
      <trkpt lat="45.06126" lon="3.05342">
        <ele>901.77</ele>
        <time>2015-04-29T14:46:29Z</time>
      </trkpt>
      <trkpt lat="45.06122" lon="3.05359">
        <ele>904.06</ele>
        <time>2015-04-29T14:46:39Z</time>
      </trkpt>
      <trkpt lat="45.06116" lon="3.05377">
        <ele>908.94</ele>
        <time>2015-04-29T14:46:49Z</time>
      </trkpt>
      <trkpt lat="45.06112" lon="3.05392">
        <ele>907.94</ele>
        <time>2015-04-29T14:46:59Z</time>
      </trkpt>
      <trkpt lat="45.06106" lon="3.05408">
        <ele>909.62</ele>
        <time>2015-04-29T14:47:09Z</time>
      </trkpt>
      <trkpt lat="45.06098" lon="3.05428">
        <ele>912.31</ele>
        <time>2015-04-29T14:47:19Z</time>
      </trkpt>
      <trkpt lat="45.06091" lon="3.05439">
        <ele>908.25</ele>
        <time>2015-04-29T14:47:29Z</time>
      </trkpt>
      <trkpt lat="45.06089" lon="3.05451">
        <ele>908.68</ele>
        <time>2015-04-29T14:47:39Z</time>
      </trkpt>
      <trkpt lat="45.06087" lon="3.05456">
        <ele>910.74</ele>
        <time>2015-04-29T14:47:49Z</time>
      </trkpt>
      <trkpt lat="45.06088" lon="3.05458">
        <ele>910.01</ele>
        <time>2015-04-29T14:47:59Z</time>
      </trkpt>
      <trkpt lat="45.0609" lon="3.05458">
        <ele>907.56</ele>
        <time>2015-04-29T14:48:23Z</time>
      </trkpt>
      <trkpt lat="45.06091" lon="3.05472">
        <ele>906.78</ele>
        <time>2015-04-29T14:48:33Z</time>
      </trkpt>
      <trkpt lat="45.06092" lon="3.05486">
        <ele>903.81</ele>
        <time>2015-04-29T14:48:43Z</time>
      </trkpt>
      <trkpt lat="45.06092" lon="3.05499">
        <ele>902.74</ele>
        <time>2015-04-29T14:48:53Z</time>
      </trkpt>
      <trkpt lat="45.06091" lon="3.05513">
        <ele>901</ele>
        <time>2015-04-29T14:49:03Z</time>
      </trkpt>
      <trkpt lat="45.06091" lon="3.05528">
        <ele>902.88</ele>
        <time>2015-04-29T14:49:13Z</time>
      </trkpt>
      <trkpt lat="45.0609" lon="3.05546">
        <ele>904.75</ele>
        <time>2015-04-29T14:49:23Z</time>
      </trkpt>
      <trkpt lat="45.06088" lon="3.05563">
        <ele>905.95</ele>
        <time>2015-04-29T14:49:33Z</time>
      </trkpt>
      <trkpt lat="45.06085" lon="3.05581">
        <ele>907.75</ele>
        <time>2015-04-29T14:49:43Z</time>
      </trkpt>
      <trkpt lat="45.06082" lon="3.05598">
        <ele>907.05</ele>
        <time>2015-04-29T14:49:53Z</time>
      </trkpt>
      <trkpt lat="45.06079" lon="3.05615">
        <ele>907.74</ele>
        <time>2015-04-29T14:50:03Z</time>
      </trkpt>
      <trkpt lat="45.06076" lon="3.05634">
        <ele>907.08</ele>
        <time>2015-04-29T14:50:13Z</time>
      </trkpt>
      <trkpt lat="45.06073" lon="3.05649">
        <ele>907.93</ele>
        <time>2015-04-29T14:50:23Z</time>
      </trkpt>
      <trkpt lat="45.06068" lon="3.05665">
        <ele>909.7</ele>
        <time>2015-04-29T14:50:33Z</time>
      </trkpt>
      <trkpt lat="45.06062" lon="3.05681">
        <ele>910.19</ele>
        <time>2015-04-29T14:50:43Z</time>
      </trkpt>
      <trkpt lat="45.06058" lon="3.05696">
        <ele>910.75</ele>
        <time>2015-04-29T14:50:53Z</time>
      </trkpt>
      <trkpt lat="45.06055" lon="3.05713">
        <ele>911.5</ele>
        <time>2015-04-29T14:51:03Z</time>
      </trkpt>
      <trkpt lat="45.06056" lon="3.05731">
        <ele>912.98</ele>
        <time>2015-04-29T14:51:13Z</time>
      </trkpt>
      <trkpt lat="45.0606" lon="3.05749">
        <ele>914.05</ele>
        <time>2015-04-29T14:51:23Z</time>
      </trkpt>
      <trkpt lat="45.06059" lon="3.05767">
        <ele>914.93</ele>
        <time>2015-04-29T14:51:33Z</time>
      </trkpt>
      <trkpt lat="45.06055" lon="3.05783">
        <ele>916</ele>
        <time>2015-04-29T14:51:43Z</time>
      </trkpt>
      <trkpt lat="45.0605" lon="3.058">
        <ele>915.07</ele>
        <time>2015-04-29T14:51:53Z</time>
      </trkpt>
      <trkpt lat="45.06043" lon="3.05815">
        <ele>916.01</ele>
        <time>2015-04-29T14:52:03Z</time>
      </trkpt>
      <trkpt lat="45.06039" lon="3.05831">
        <ele>917</ele>
        <time>2015-04-29T14:52:13Z</time>
      </trkpt>
      <trkpt lat="45.06032" lon="3.05846">
        <ele>916.02</ele>
        <time>2015-04-29T14:52:23Z</time>
      </trkpt>
      <trkpt lat="45.06025" lon="3.05861">
        <ele>916.01</ele>
        <time>2015-04-29T14:52:33Z</time>
      </trkpt>
      <trkpt lat="45.0602" lon="3.05878">
        <ele>915.83</ele>
        <time>2015-04-29T14:52:43Z</time>
      </trkpt>
      <trkpt lat="45.0602" lon="3.05893">
        <ele>914.77</ele>
        <time>2015-04-29T14:52:53Z</time>
      </trkpt>
      <trkpt lat="45.06024" lon="3.05906">
        <ele>912.99</ele>
        <time>2015-04-29T14:53:03Z</time>
      </trkpt>
      <trkpt lat="45.06027" lon="3.05921">
        <ele>912.81</ele>
        <time>2015-04-29T14:53:13Z</time>
      </trkpt>
      <trkpt lat="45.06035" lon="3.05935">
        <ele>914</ele>
        <time>2015-04-29T14:53:23Z</time>
      </trkpt>
      <trkpt lat="45.06038" lon="3.05952">
        <ele>914.75</ele>
        <time>2015-04-29T14:53:33Z</time>
      </trkpt>
      <trkpt lat="45.06048" lon="3.05968">
        <ele>918</ele>
        <time>2015-04-29T14:53:43Z</time>
      </trkpt>
      <trkpt lat="45.06053" lon="3.05986">
        <ele>917.02</ele>
        <time>2015-04-29T14:53:53Z</time>
      </trkpt>
      <trkpt lat="45.06059" lon="3.05998">
        <ele>916.25</ele>
        <time>2015-04-29T14:54:03Z</time>
      </trkpt>
      <trkpt lat="45.06066" lon="3.06011">
        <ele>917.05</ele>
        <time>2015-04-29T14:54:13Z</time>
      </trkpt>
      <trkpt lat="45.06073" lon="3.06029">
        <ele>915.95</ele>
        <time>2015-04-29T14:54:23Z</time>
      </trkpt>
      <trkpt lat="45.06077" lon="3.06044">
        <ele>915.2</ele>
        <time>2015-04-29T14:54:33Z</time>
      </trkpt>
      <trkpt lat="45.06085" lon="3.06061">
        <ele>918.93</ele>
        <time>2015-04-29T14:54:43Z</time>
      </trkpt>
      <trkpt lat="45.0609" lon="3.06076">
        <ele>921</ele>
        <time>2015-04-29T14:54:53Z</time>
      </trkpt>
      <trkpt lat="45.06091" lon="3.0609">
        <ele>917.02</ele>
        <time>2015-04-29T14:55:03Z</time>
      </trkpt>
      <trkpt lat="45.06088" lon="3.06105">
        <ele>917.7</ele>
        <time>2015-04-29T14:55:13Z</time>
      </trkpt>
      <trkpt lat="45.06082" lon="3.06122">
        <ele>919.18</ele>
        <time>2015-04-29T14:55:23Z</time>
      </trkpt>
      <trkpt lat="45.06076" lon="3.06139">
        <ele>919.98</ele>
        <time>2015-04-29T14:55:33Z</time>
      </trkpt>
      <trkpt lat="45.06071" lon="3.0615">
        <ele>919</ele>
        <time>2015-04-29T14:55:43Z</time>
      </trkpt>
      <trkpt lat="45.06064" lon="3.0616">
        <ele>917.93</ele>
        <time>2015-04-29T14:55:53Z</time>
      </trkpt>
      <trkpt lat="45.06057" lon="3.06174">
        <ele>918.24</ele>
        <time>2015-04-29T14:56:03Z</time>
      </trkpt>
      <trkpt lat="45.06047" lon="3.06187">
        <ele>923.74</ele>
        <time>2015-04-29T14:56:13Z</time>
      </trkpt>
      <trkpt lat="45.0604" lon="3.06202">
        <ele>921.11</ele>
        <time>2015-04-29T14:56:23Z</time>
      </trkpt>
      <trkpt lat="45.06036" lon="3.06218">
        <ele>922.69</ele>
        <time>2015-04-29T14:56:33Z</time>
      </trkpt>
      <trkpt lat="45.06027" lon="3.06226">
        <ele>921.83</ele>
        <time>2015-04-29T14:56:43Z</time>
      </trkpt>
      <trkpt lat="45.06017" lon="3.06222">
        <ele>922.06</ele>
        <time>2015-04-29T14:56:53Z</time>
      </trkpt>
      <trkpt lat="45.0601" lon="3.06211">
        <ele>921</ele>
        <time>2015-04-29T14:57:03Z</time>
      </trkpt>
      <trkpt lat="45.0601" lon="3.06213">
        <ele>926.93</ele>
        <time>2015-04-29T14:57:13Z</time>
      </trkpt>
      <trkpt lat="45.06009" lon="3.06214">
        <ele>927</ele>
        <time>2015-04-29T14:57:23Z</time>
      </trkpt>
      <trkpt lat="45.06009" lon="3.06214">
        <ele>927.94</ele>
        <time>2015-04-29T14:57:44Z</time>
      </trkpt>
      <trkpt lat="45.06008" lon="3.06215">
        <ele>928</ele>
        <time>2015-04-29T14:58:41Z</time>
      </trkpt>
      <trkpt lat="45.06005" lon="3.06216">
        <ele>927.02</ele>
        <time>2015-04-29T14:58:51Z</time>
      </trkpt>
      <trkpt lat="45.06006" lon="3.06215">
        <ele>925.69</ele>
        <time>2015-04-29T14:59:20Z</time>
      </trkpt>
      <trkpt lat="45.06008" lon="3.06225">
        <ele>924.99</ele>
        <time>2015-04-29T14:59:30Z</time>
      </trkpt>
      <trkpt lat="45.06017" lon="3.06228">
        <ele>927</ele>
        <time>2015-04-29T14:59:40Z</time>
      </trkpt>
      <trkpt lat="45.06028" lon="3.06226">
        <ele>925.52</ele>
        <time>2015-04-29T14:59:50Z</time>
      </trkpt>
      <trkpt lat="45.06028" lon="3.06231">
        <ele>924.29</ele>
        <time>2015-04-29T15:00:00Z</time>
      </trkpt>
      <trkpt lat="45.06026" lon="3.0623">
        <ele>925.75</ele>
        <time>2015-04-29T15:00:11Z</time>
      </trkpt>
      <trkpt lat="45.06013" lon="3.06234">
        <ele>924.19</ele>
        <time>2015-04-29T15:00:21Z</time>
      </trkpt>
      <trkpt lat="45.05996" lon="3.06239">
        <ele>924.07</ele>
        <time>2015-04-29T15:00:31Z</time>
      </trkpt>
      <trkpt lat="45.05993" lon="3.06231">
        <ele>919.29</ele>
        <time>2015-04-29T15:00:41Z</time>
      </trkpt>
      <trkpt lat="45.05985" lon="3.06233">
        <ele>912.75</ele>
        <time>2015-04-29T15:00:51Z</time>
      </trkpt>
      <trkpt lat="45.05987" lon="3.06245">
        <ele>911.04</ele>
        <time>2015-04-29T15:01:01Z</time>
      </trkpt>
      <trkpt lat="45.05988" lon="3.06257">
        <ele>909.11</ele>
        <time>2015-04-29T15:01:11Z</time>
      </trkpt>
      <trkpt lat="45.05987" lon="3.06271">
        <ele>906.24</ele>
        <time>2015-04-29T15:01:21Z</time>
      </trkpt>
      <trkpt lat="45.05982" lon="3.06284">
        <ele>907</ele>
        <time>2015-04-29T15:01:31Z</time>
      </trkpt>
      <trkpt lat="45.05979" lon="3.063">
        <ele>907.83</ele>
        <time>2015-04-29T15:01:41Z</time>
      </trkpt>
      <trkpt lat="45.05981" lon="3.06315">
        <ele>906.25</ele>
        <time>2015-04-29T15:01:51Z</time>
      </trkpt>
      <trkpt lat="45.05987" lon="3.06333">
        <ele>905.81</ele>
        <time>2015-04-29T15:02:01Z</time>
      </trkpt>
      <trkpt lat="45.05987" lon="3.06343">
        <ele>907.02</ele>
        <time>2015-04-29T15:02:11Z</time>
      </trkpt>
      <trkpt lat="45.0599" lon="3.06361">
        <ele>907.75</ele>
        <time>2015-04-29T15:02:21Z</time>
      </trkpt>
      <trkpt lat="45.05991" lon="3.06382">
        <ele>906.09</ele>
        <time>2015-04-29T15:02:31Z</time>
      </trkpt>
      <trkpt lat="45.05991" lon="3.06392">
        <ele>904.42</ele>
        <time>2015-04-29T15:02:41Z</time>
      </trkpt>
      <trkpt lat="45.05988" lon="3.06395">
        <ele>874.25</ele>
        <time>2015-04-29T15:03:26Z</time>
      </trkpt>
      <trkpt lat="45.05988" lon="3.06476">
        <ele>908.54</ele>
        <time>2015-04-29T15:03:36Z</time>
      </trkpt>
      <trkpt lat="45.05984" lon="3.06502">
        <ele>910.07</ele>
        <time>2015-04-29T15:03:46Z</time>
      </trkpt>
      <trkpt lat="45.05982" lon="3.06516">
        <ele>908.05</ele>
        <time>2015-04-29T15:03:56Z</time>
      </trkpt>
      <trkpt lat="45.05979" lon="3.06527">
        <ele>906</ele>
        <time>2015-04-29T15:04:06Z</time>
      </trkpt>
      <trkpt lat="45.05979" lon="3.0654">
        <ele>903.94</ele>
        <time>2015-04-29T15:04:16Z</time>
      </trkpt>
      <trkpt lat="45.05975" lon="3.06551">
        <ele>899.3</ele>
        <time>2015-04-29T15:04:26Z</time>
      </trkpt>
      <trkpt lat="45.0597" lon="3.06566">
        <ele>900.72</ele>
        <time>2015-04-29T15:04:36Z</time>
      </trkpt>
      <trkpt lat="45.05967" lon="3.06581">
        <ele>897.55</ele>
        <time>2015-04-29T15:04:46Z</time>
      </trkpt>
      <trkpt lat="45.05963" lon="3.06595">
        <ele>895.81</ele>
        <time>2015-04-29T15:04:56Z</time>
      </trkpt>
      <trkpt lat="45.05959" lon="3.06609">
        <ele>894.94</ele>
        <time>2015-04-29T15:05:06Z</time>
      </trkpt>
      <trkpt lat="45.05954" lon="3.06621">
        <ele>894.07</ele>
        <time>2015-04-29T15:05:16Z</time>
      </trkpt>
      <trkpt lat="45.05949" lon="3.06636">
        <ele>895.05</ele>
        <time>2015-04-29T15:05:26Z</time>
      </trkpt>
      <trkpt lat="45.05946" lon="3.06653">
        <ele>895.7</ele>
        <time>2015-04-29T15:05:36Z</time>
      </trkpt>
      <trkpt lat="45.05943" lon="3.06669">
        <ele>893.25</ele>
        <time>2015-04-29T15:05:46Z</time>
      </trkpt>
      <trkpt lat="45.0594" lon="3.06685">
        <ele>893.87</ele>
        <time>2015-04-29T15:05:56Z</time>
      </trkpt>
      <trkpt lat="45.05938" lon="3.06699">
        <ele>889.27</ele>
        <time>2015-04-29T15:06:06Z</time>
      </trkpt>
      <trkpt lat="45.05937" lon="3.06713">
        <ele>889.98</ele>
        <time>2015-04-29T15:06:16Z</time>
      </trkpt>
      <trkpt lat="45.05935" lon="3.06726">
        <ele>890.95</ele>
        <time>2015-04-29T15:06:26Z</time>
      </trkpt>
      <trkpt lat="45.05937" lon="3.0674">
        <ele>887.07</ele>
        <time>2015-04-29T15:06:36Z</time>
      </trkpt>
      <trkpt lat="45.05938" lon="3.06743">
        <ele>885.25</ele>
        <time>2015-04-29T15:06:46Z</time>
      </trkpt>
      <trkpt lat="45.05938" lon="3.06745">
        <ele>884.25</ele>
        <time>2015-04-29T15:07:15Z</time>
      </trkpt>
      <trkpt lat="45.05941" lon="3.06759">
        <ele>889.82</ele>
        <time>2015-04-29T15:07:25Z</time>
      </trkpt>
      <trkpt lat="45.05936" lon="3.06776">
        <ele>892.06</ele>
        <time>2015-04-29T15:07:35Z</time>
      </trkpt>
      <trkpt lat="45.05931" lon="3.0679">
        <ele>893.23</ele>
        <time>2015-04-29T15:07:45Z</time>
      </trkpt>
      <trkpt lat="45.05903" lon="3.06796">
        <ele>870.18</ele>
        <time>2015-04-29T15:08:20Z</time>
      </trkpt>
      <trkpt lat="45.05895" lon="3.06827">
        <ele>875.86</ele>
        <time>2015-04-29T15:08:30Z</time>
      </trkpt>
      <trkpt lat="45.05892" lon="3.06863">
        <ele>891.73</ele>
        <time>2015-04-29T15:08:40Z</time>
      </trkpt>
      <trkpt lat="45.05886" lon="3.06883">
        <ele>890.06</ele>
        <time>2015-04-29T15:08:50Z</time>
      </trkpt>
      <trkpt lat="45.05878" lon="3.06898">
        <ele>890.07</ele>
        <time>2015-04-29T15:09:00Z</time>
      </trkpt>
      <trkpt lat="45.05872" lon="3.06909">
        <ele>885.01</ele>
        <time>2015-04-29T15:09:10Z</time>
      </trkpt>
      <trkpt lat="45.0587" lon="3.06924">
        <ele>880.33</ele>
        <time>2015-04-29T15:09:20Z</time>
      </trkpt>
      <trkpt lat="45.0587" lon="3.06939">
        <ele>881</ele>
        <time>2015-04-29T15:09:30Z</time>
      </trkpt>
      <trkpt lat="45.05869" lon="3.06956">
        <ele>882.55</ele>
        <time>2015-04-29T15:09:40Z</time>
      </trkpt>
      <trkpt lat="45.05868" lon="3.06968">
        <ele>881.02</ele>
        <time>2015-04-29T15:09:50Z</time>
      </trkpt>
      <trkpt lat="45.05864" lon="3.06982">
        <ele>876.75</ele>
        <time>2015-04-29T15:10:00Z</time>
      </trkpt>
      <trkpt lat="45.05861" lon="3.07">
        <ele>878.26</ele>
        <time>2015-04-29T15:10:10Z</time>
      </trkpt>
      <trkpt lat="45.05859" lon="3.07013">
        <ele>877.94</ele>
        <time>2015-04-29T15:10:20Z</time>
      </trkpt>
      <trkpt lat="45.05854" lon="3.07025">
        <ele>876.01</ele>
        <time>2015-04-29T15:10:30Z</time>
      </trkpt>
      <trkpt lat="45.05849" lon="3.0704">
        <ele>879.95</ele>
        <time>2015-04-29T15:10:40Z</time>
      </trkpt>
      <trkpt lat="45.05841" lon="3.07055">
        <ele>883.24</ele>
        <time>2015-04-29T15:10:50Z</time>
      </trkpt>
      <trkpt lat="45.05834" lon="3.07067">
        <ele>881.32</ele>
        <time>2015-04-29T15:11:00Z</time>
      </trkpt>
      <trkpt lat="45.0583" lon="3.07076">
        <ele>876.27</ele>
        <time>2015-04-29T15:11:10Z</time>
      </trkpt>
      <trkpt lat="45.05825" lon="3.07088">
        <ele>874.08</ele>
        <time>2015-04-29T15:11:20Z</time>
      </trkpt>
      <trkpt lat="45.05822" lon="3.07099">
        <ele>871</ele>
        <time>2015-04-29T15:11:30Z</time>
      </trkpt>
      <trkpt lat="45.05821" lon="3.07109">
        <ele>866.08</ele>
        <time>2015-04-29T15:11:40Z</time>
      </trkpt>
      <trkpt lat="45.0582" lon="3.07121">
        <ele>864.66</ele>
        <time>2015-04-29T15:11:50Z</time>
      </trkpt>
      <trkpt lat="45.05818" lon="3.07144">
        <ele>873.18</ele>
        <time>2015-04-29T15:12:00Z</time>
      </trkpt>
      <trkpt lat="45.0581" lon="3.07151">
        <ele>868.08</ele>
        <time>2015-04-29T15:12:10Z</time>
      </trkpt>
      <trkpt lat="45.05802" lon="3.07152">
        <ele>868.5</ele>
        <time>2015-04-29T15:12:20Z</time>
      </trkpt>
      <trkpt lat="45.05791" lon="3.0716">
        <ele>869</ele>
        <time>2015-04-29T15:12:30Z</time>
      </trkpt>
      <trkpt lat="45.05787" lon="3.07174">
        <ele>869.75</ele>
        <time>2015-04-29T15:12:40Z</time>
      </trkpt>
      <trkpt lat="45.05798" lon="3.07247">
        <ele>877.2</ele>
        <time>2015-04-29T15:13:20Z</time>
      </trkpt>
      <trkpt lat="45.0579" lon="3.07243">
        <ele>875.08</ele>
        <time>2015-04-29T15:13:30Z</time>
      </trkpt>
      <trkpt lat="45.05787" lon="3.07251">
        <ele>872.93</ele>
        <time>2015-04-29T15:13:40Z</time>
      </trkpt>
      <trkpt lat="45.05786" lon="3.07269">
        <ele>880.67</ele>
        <time>2015-04-29T15:13:50Z</time>
      </trkpt>
      <trkpt lat="45.0579" lon="3.07287">
        <ele>880.08</ele>
        <time>2015-04-29T15:14:00Z</time>
      </trkpt>
      <trkpt lat="45.0579" lon="3.073">
        <ele>879.06</ele>
        <time>2015-04-29T15:14:10Z</time>
      </trkpt>
      <trkpt lat="45.0579" lon="3.07317">
        <ele>877.99</ele>
        <time>2015-04-29T15:14:20Z</time>
      </trkpt>
      <trkpt lat="45.05788" lon="3.07334">
        <ele>881.56</ele>
        <time>2015-04-29T15:14:30Z</time>
      </trkpt>
      <trkpt lat="45.05787" lon="3.07353">
        <ele>880</ele>
        <time>2015-04-29T15:14:40Z</time>
      </trkpt>
      <trkpt lat="45.05783" lon="3.07372">
        <ele>881.82</ele>
        <time>2015-04-29T15:14:50Z</time>
      </trkpt>
      <trkpt lat="45.05774" lon="3.07384">
        <ele>883.68</ele>
        <time>2015-04-29T15:15:00Z</time>
      </trkpt>
      <trkpt lat="45.05763" lon="3.07393">
        <ele>891.06</ele>
        <time>2015-04-29T15:15:10Z</time>
      </trkpt>
      <trkpt lat="45.05758" lon="3.07409">
        <ele>885.94</ele>
        <time>2015-04-29T15:15:20Z</time>
      </trkpt>
      <trkpt lat="45.05753" lon="3.07424">
        <ele>886.86</ele>
        <time>2015-04-29T15:15:30Z</time>
      </trkpt>
      <trkpt lat="45.05753" lon="3.07437">
        <ele>886.25</ele>
        <time>2015-04-29T15:15:40Z</time>
      </trkpt>
      <trkpt lat="45.05758" lon="3.07453">
        <ele>887.92</ele>
        <time>2015-04-29T15:15:50Z</time>
      </trkpt>
      <trkpt lat="45.05765" lon="3.07471">
        <ele>891.92</ele>
        <time>2015-04-29T15:16:00Z</time>
      </trkpt>
      <trkpt lat="45.05762" lon="3.0749">
        <ele>895</ele>
        <time>2015-04-29T15:16:10Z</time>
      </trkpt>
      <trkpt lat="45.05749" lon="3.07499">
        <ele>896</ele>
        <time>2015-04-29T15:16:20Z</time>
      </trkpt>
      <trkpt lat="45.05738" lon="3.07506">
        <ele>896.75</ele>
        <time>2015-04-29T15:16:30Z</time>
      </trkpt>
      <trkpt lat="45.05727" lon="3.07516">
        <ele>893.83</ele>
        <time>2015-04-29T15:16:40Z</time>
      </trkpt>
      <trkpt lat="45.05716" lon="3.07525">
        <ele>893.98</ele>
        <time>2015-04-29T15:16:50Z</time>
      </trkpt>
      <trkpt lat="45.05704" lon="3.07528">
        <ele>891.98</ele>
        <time>2015-04-29T15:17:00Z</time>
      </trkpt>
      <trkpt lat="45.0569" lon="3.07533">
        <ele>891.06</ele>
        <time>2015-04-29T15:17:10Z</time>
      </trkpt>
      <trkpt lat="45.05677" lon="3.07537">
        <ele>890</ele>
        <time>2015-04-29T15:17:20Z</time>
      </trkpt>
      <trkpt lat="45.05664" lon="3.07539">
        <ele>890.25</ele>
        <time>2015-04-29T15:17:30Z</time>
      </trkpt>
      <trkpt lat="45.05652" lon="3.07545">
        <ele>890.79</ele>
        <time>2015-04-29T15:17:40Z</time>
      </trkpt>
      <trkpt lat="45.05591" lon="3.07573">
        <ele>889.69</ele>
        <time>2015-04-29T15:18:21Z</time>
      </trkpt>
      <trkpt lat="45.05589" lon="3.0757">
        <ele>890.25</ele>
        <time>2015-04-29T15:18:31Z</time>
      </trkpt>
      <trkpt lat="45.05578" lon="3.07573">
        <ele>891.67</ele>
        <time>2015-04-29T15:18:41Z</time>
      </trkpt>
      <trkpt lat="45.05565" lon="3.07574">
        <ele>893.94</ele>
        <time>2015-04-29T15:18:51Z</time>
      </trkpt>
      <trkpt lat="45.05552" lon="3.07575">
        <ele>890.08</ele>
        <time>2015-04-29T15:19:01Z</time>
      </trkpt>
      <trkpt lat="45.0554" lon="3.07574">
        <ele>889.98</ele>
        <time>2015-04-29T15:19:11Z</time>
      </trkpt>
      <trkpt lat="45.05528" lon="3.07573">
        <ele>890</ele>
        <time>2015-04-29T15:19:21Z</time>
      </trkpt>
      <trkpt lat="45.05523" lon="3.07573">
        <ele>891.69</ele>
        <time>2015-04-29T15:19:31Z</time>
      </trkpt>
      <trkpt lat="45.05517" lon="3.07572">
        <ele>894.68</ele>
        <time>2015-04-29T15:19:41Z</time>
      </trkpt>
      <trkpt lat="45.05506" lon="3.07573">
        <ele>895.75</ele>
        <time>2015-04-29T15:19:51Z</time>
      </trkpt>
      <trkpt lat="45.05493" lon="3.07574">
        <ele>895.98</ele>
        <time>2015-04-29T15:20:01Z</time>
      </trkpt>
      <trkpt lat="45.0548" lon="3.07574">
        <ele>892.99</ele>
        <time>2015-04-29T15:20:11Z</time>
      </trkpt>
      <trkpt lat="45.05469" lon="3.07578">
        <ele>890</ele>
        <time>2015-04-29T15:20:21Z</time>
      </trkpt>
      <trkpt lat="45.05459" lon="3.07581">
        <ele>888.06</ele>
        <time>2015-04-29T15:20:31Z</time>
      </trkpt>
      <trkpt lat="45.05447" lon="3.07582">
        <ele>888</ele>
        <time>2015-04-29T15:20:41Z</time>
      </trkpt>
      <trkpt lat="45.05437" lon="3.0758">
        <ele>887.81</ele>
        <time>2015-04-29T15:20:51Z</time>
      </trkpt>
      <trkpt lat="45.05425" lon="3.0758">
        <ele>884.22</ele>
        <time>2015-04-29T15:21:01Z</time>
      </trkpt>
      <trkpt lat="45.05413" lon="3.07582">
        <ele>883</ele>
        <time>2015-04-29T15:21:11Z</time>
      </trkpt>
      <trkpt lat="45.05401" lon="3.07585">
        <ele>884</ele>
        <time>2015-04-29T15:21:21Z</time>
      </trkpt>
      <trkpt lat="45.0539" lon="3.07589">
        <ele>885.73</ele>
        <time>2015-04-29T15:21:31Z</time>
      </trkpt>
      <trkpt lat="45.0538" lon="3.07595">
        <ele>885.24</ele>
        <time>2015-04-29T15:21:41Z</time>
      </trkpt>
      <trkpt lat="45.05369" lon="3.07605">
        <ele>885.73</ele>
        <time>2015-04-29T15:21:51Z</time>
      </trkpt>
      <trkpt lat="45.05359" lon="3.07616">
        <ele>885.94</ele>
        <time>2015-04-29T15:22:01Z</time>
      </trkpt>
      <trkpt lat="45.05348" lon="3.07622">
        <ele>885.31</ele>
        <time>2015-04-29T15:22:11Z</time>
      </trkpt>
      <trkpt lat="45.05338" lon="3.07624">
        <ele>884</ele>
        <time>2015-04-29T15:22:21Z</time>
      </trkpt>
      <trkpt lat="45.05328" lon="3.07622">
        <ele>882.27</ele>
        <time>2015-04-29T15:22:31Z</time>
      </trkpt>
      <trkpt lat="45.05317" lon="3.07622">
        <ele>882</ele>
        <time>2015-04-29T15:22:41Z</time>
      </trkpt>
      <trkpt lat="45.05263" lon="3.07656">
        <ele>872.45</ele>
        <time>2015-04-29T15:23:22Z</time>
      </trkpt>
      <trkpt lat="45.0526" lon="3.0766">
        <ele>877.94</ele>
        <time>2015-04-29T15:23:32Z</time>
      </trkpt>
      <trkpt lat="45.0525" lon="3.07666">
        <ele>877.95</ele>
        <time>2015-04-29T15:23:42Z</time>
      </trkpt>
      <trkpt lat="45.05238" lon="3.0767">
        <ele>877</ele>
        <time>2015-04-29T15:23:52Z</time>
      </trkpt>
      <trkpt lat="45.05226" lon="3.07679">
        <ele>878.06</ele>
        <time>2015-04-29T15:24:02Z</time>
      </trkpt>
      <trkpt lat="45.05215" lon="3.07686">
        <ele>879</ele>
        <time>2015-04-29T15:24:12Z</time>
      </trkpt>
      <trkpt lat="45.05203" lon="3.07693">
        <ele>880</ele>
        <time>2015-04-29T15:24:22Z</time>
      </trkpt>
      <trkpt lat="45.05193" lon="3.07703">
        <ele>880</ele>
        <time>2015-04-29T15:24:32Z</time>
      </trkpt>
      <trkpt lat="45.05182" lon="3.07714">
        <ele>881.98</ele>
        <time>2015-04-29T15:24:42Z</time>
      </trkpt>
      <trkpt lat="45.05173" lon="3.07727">
        <ele>883</ele>
        <time>2015-04-29T15:24:52Z</time>
      </trkpt>
      <trkpt lat="45.05165" lon="3.07742">
        <ele>884</ele>
        <time>2015-04-29T15:25:02Z</time>
      </trkpt>
      <trkpt lat="45.05158" lon="3.07757">
        <ele>885.94</ele>
        <time>2015-04-29T15:25:12Z</time>
      </trkpt>
      <trkpt lat="45.05151" lon="3.07774">
        <ele>887.75</ele>
        <time>2015-04-29T15:25:22Z</time>
      </trkpt>
      <trkpt lat="45.05144" lon="3.07791">
        <ele>887.82</ele>
        <time>2015-04-29T15:25:32Z</time>
      </trkpt>
      <trkpt lat="45.05135" lon="3.07804">
        <ele>884.07</ele>
        <time>2015-04-29T15:25:42Z</time>
      </trkpt>
      <trkpt lat="45.05127" lon="3.07816">
        <ele>884.98</ele>
        <time>2015-04-29T15:25:52Z</time>
      </trkpt>
      <trkpt lat="45.05121" lon="3.07824">
        <ele>880.27</ele>
        <time>2015-04-29T15:26:02Z</time>
      </trkpt>
      <trkpt lat="45.05115" lon="3.07833">
        <ele>878</ele>
        <time>2015-04-29T15:26:12Z</time>
      </trkpt>
      <trkpt lat="45.05112" lon="3.07837">
        <ele>877.06</ele>
        <time>2015-04-29T15:26:22Z</time>
      </trkpt>
      <trkpt lat="45.05107" lon="3.07851">
        <ele>875.2</ele>
        <time>2015-04-29T15:26:32Z</time>
      </trkpt>
      <trkpt lat="45.051" lon="3.07866">
        <ele>874</ele>
        <time>2015-04-29T15:26:42Z</time>
      </trkpt>
      <trkpt lat="45.05095" lon="3.07883">
        <ele>871.33</ele>
        <time>2015-04-29T15:26:52Z</time>
      </trkpt>
      <trkpt lat="45.05093" lon="3.079">
        <ele>871.25</ele>
        <time>2015-04-29T15:27:02Z</time>
      </trkpt>
      <trkpt lat="45.05083" lon="3.07904">
        <ele>869.75</ele>
        <time>2015-04-29T15:27:12Z</time>
      </trkpt>
      <trkpt lat="45.05073" lon="3.07906">
        <ele>872.77</ele>
        <time>2015-04-29T15:27:22Z</time>
      </trkpt>
      <trkpt lat="45.0506" lon="3.07907">
        <ele>869.27</ele>
        <time>2015-04-29T15:27:32Z</time>
      </trkpt>
      <trkpt lat="45.05048" lon="3.07907">
        <ele>869</ele>
        <time>2015-04-29T15:27:42Z</time>
      </trkpt>
      <trkpt lat="45.05001" lon="3.07907">
        <ele>865.75</ele>
        <time>2015-04-29T15:28:21Z</time>
      </trkpt>
      <trkpt lat="45.0499" lon="3.07917">
        <ele>865.95</ele>
        <time>2015-04-29T15:28:31Z</time>
      </trkpt>
      <trkpt lat="45.0498" lon="3.07926">
        <ele>867.12</ele>
        <time>2015-04-29T15:28:41Z</time>
      </trkpt>
      <trkpt lat="45.04972" lon="3.07933">
        <ele>865.32</ele>
        <time>2015-04-29T15:28:51Z</time>
      </trkpt>
      <trkpt lat="45.04963" lon="3.07942">
        <ele>864.05</ele>
        <time>2015-04-29T15:29:01Z</time>
      </trkpt>
      <trkpt lat="45.04954" lon="3.07952">
        <ele>863.02</ele>
        <time>2015-04-29T15:29:11Z</time>
      </trkpt>
      <trkpt lat="45.04945" lon="3.0796">
        <ele>862.19</ele>
        <time>2015-04-29T15:29:21Z</time>
      </trkpt>
      <trkpt lat="45.04936" lon="3.07969">
        <ele>861.06</ele>
        <time>2015-04-29T15:29:31Z</time>
      </trkpt>
      <trkpt lat="45.04927" lon="3.07978">
        <ele>860.06</ele>
        <time>2015-04-29T15:29:41Z</time>
      </trkpt>
      <trkpt lat="45.04918" lon="3.07989">
        <ele>861</ele>
        <time>2015-04-29T15:29:51Z</time>
      </trkpt>
      <trkpt lat="45.04909" lon="3.07997">
        <ele>858.02</ele>
        <time>2015-04-29T15:30:01Z</time>
      </trkpt>
      <trkpt lat="45.04902" lon="3.08006">
        <ele>858.25</ele>
        <time>2015-04-29T15:30:11Z</time>
      </trkpt>
      <trkpt lat="45.04894" lon="3.08017">
        <ele>859</ele>
        <time>2015-04-29T15:30:21Z</time>
      </trkpt>
      <trkpt lat="45.04887" lon="3.0803">
        <ele>860.93</ele>
        <time>2015-04-29T15:30:31Z</time>
      </trkpt>
      <trkpt lat="45.0488" lon="3.08041">
        <ele>854.31</ele>
        <time>2015-04-29T15:30:41Z</time>
      </trkpt>
      <trkpt lat="45.04876" lon="3.08051">
        <ele>853</ele>
        <time>2015-04-29T15:30:51Z</time>
      </trkpt>
      <trkpt lat="45.04872" lon="3.08061">
        <ele>849.07</ele>
        <time>2015-04-29T15:31:01Z</time>
      </trkpt>
      <trkpt lat="45.04877" lon="3.08075">
        <ele>851</ele>
        <time>2015-04-29T15:31:11Z</time>
      </trkpt>
      <trkpt lat="45.04881" lon="3.08086">
        <ele>849.25</ele>
        <time>2015-04-29T15:31:21Z</time>
      </trkpt>
      <trkpt lat="45.0489" lon="3.08095">
        <ele>846.75</ele>
        <time>2015-04-29T15:31:31Z</time>
      </trkpt>
      <trkpt lat="45.04895" lon="3.08101">
        <ele>847.94</ele>
        <time>2015-04-29T15:31:41Z</time>
      </trkpt>
      <trkpt lat="45.04901" lon="3.0811">
        <ele>849.76</ele>
        <time>2015-04-29T15:31:51Z</time>
      </trkpt>
      <trkpt lat="45.04909" lon="3.08126">
        <ele>852.99</ele>
        <time>2015-04-29T15:32:01Z</time>
      </trkpt>
      <trkpt lat="45.04914" lon="3.08136">
        <ele>856</ele>
        <time>2015-04-29T15:32:11Z</time>
      </trkpt>
      <trkpt lat="45.04917" lon="3.08141">
        <ele>854</ele>
        <time>2015-04-29T15:32:21Z</time>
      </trkpt>
      <trkpt lat="45.04924" lon="3.08149">
        <ele>852.06</ele>
        <time>2015-04-29T15:32:31Z</time>
      </trkpt>
      <trkpt lat="45.0493" lon="3.08163">
        <ele>852</ele>
        <time>2015-04-29T15:32:41Z</time>
      </trkpt>
      <trkpt lat="45.04942" lon="3.08172">
        <ele>850.8</ele>
        <time>2015-04-29T15:32:51Z</time>
      </trkpt>
      <trkpt lat="45.04965" lon="3.08186">
        <ele>844.95</ele>
        <time>2015-04-29T15:33:25Z</time>
      </trkpt>
      <trkpt lat="45.0496" lon="3.0821">
        <ele>849.2</ele>
        <time>2015-04-29T15:33:35Z</time>
      </trkpt>
      <trkpt lat="45.04965" lon="3.08247">
        <ele>861.2</ele>
        <time>2015-04-29T15:33:45Z</time>
      </trkpt>
      <trkpt lat="45.04967" lon="3.08263">
        <ele>855.26</ele>
        <time>2015-04-29T15:33:55Z</time>
      </trkpt>
      <trkpt lat="45.04968" lon="3.08279">
        <ele>850.45</ele>
        <time>2015-04-29T15:34:05Z</time>
      </trkpt>
      <trkpt lat="45.04965" lon="3.08299">
        <ele>849.44</ele>
        <time>2015-04-29T15:34:15Z</time>
      </trkpt>
      <trkpt lat="45.04967" lon="3.08314">
        <ele>849.27</ele>
        <time>2015-04-29T15:34:25Z</time>
      </trkpt>
      <trkpt lat="45.04969" lon="3.08329">
        <ele>849.96</ele>
        <time>2015-04-29T15:34:35Z</time>
      </trkpt>
      <trkpt lat="45.04971" lon="3.08351">
        <ele>853.74</ele>
        <time>2015-04-29T15:34:45Z</time>
      </trkpt>
      <trkpt lat="45.0497" lon="3.08371">
        <ele>857.49</ele>
        <time>2015-04-29T15:34:55Z</time>
      </trkpt>
      <trkpt lat="45.04971" lon="3.08389">
        <ele>860.56</ele>
        <time>2015-04-29T15:35:05Z</time>
      </trkpt>
      <trkpt lat="45.0497" lon="3.08407">
        <ele>862.99</ele>
        <time>2015-04-29T15:35:15Z</time>
      </trkpt>
      <trkpt lat="45.04969" lon="3.08422">
        <ele>855.13</ele>
        <time>2015-04-29T15:35:25Z</time>
      </trkpt>
      <trkpt lat="45.04969" lon="3.08436">
        <ele>853.74</ele>
        <time>2015-04-29T15:35:35Z</time>
      </trkpt>
      <trkpt lat="45.04968" lon="3.08452">
        <ele>849.31</ele>
        <time>2015-04-29T15:35:45Z</time>
      </trkpt>
      <trkpt lat="45.04967" lon="3.08468">
        <ele>848.58</ele>
        <time>2015-04-29T15:35:55Z</time>
      </trkpt>
      <trkpt lat="45.04964" lon="3.08483">
        <ele>848.75</ele>
        <time>2015-04-29T15:36:05Z</time>
      </trkpt>
      <trkpt lat="45.04959" lon="3.08503">
        <ele>854.75</ele>
        <time>2015-04-29T15:36:15Z</time>
      </trkpt>
      <trkpt lat="45.04952" lon="3.08523">
        <ele>860.22</ele>
        <time>2015-04-29T15:36:25Z</time>
      </trkpt>
      <trkpt lat="45.04946" lon="3.08542">
        <ele>863.75</ele>
        <time>2015-04-29T15:36:35Z</time>
      </trkpt>
      <trkpt lat="45.0494" lon="3.08557">
        <ele>863.25</ele>
        <time>2015-04-29T15:36:45Z</time>
      </trkpt>
      <trkpt lat="45.04934" lon="3.08573">
        <ele>858.13</ele>
        <time>2015-04-29T15:36:55Z</time>
      </trkpt>
      <trkpt lat="45.04927" lon="3.08586">
        <ele>858.19</ele>
        <time>2015-04-29T15:37:05Z</time>
      </trkpt>
      <trkpt lat="45.04921" lon="3.08595">
        <ele>853.54</ele>
        <time>2015-04-29T15:37:15Z</time>
      </trkpt>
      <trkpt lat="45.04911" lon="3.08601">
        <ele>858.84</ele>
        <time>2015-04-29T15:37:25Z</time>
      </trkpt>
      <trkpt lat="45.04898" lon="3.08608">
        <ele>864.96</ele>
        <time>2015-04-29T15:37:35Z</time>
      </trkpt>
      <trkpt lat="45.0489" lon="3.08616">
        <ele>865.16</ele>
        <time>2015-04-29T15:37:45Z</time>
      </trkpt>
      <trkpt lat="45.04868" lon="3.08658">
        <ele>897.58</ele>
        <time>2015-04-29T15:38:24Z</time>
      </trkpt>
      <trkpt lat="45.04847" lon="3.08669">
        <ele>898.54</ele>
        <time>2015-04-29T15:38:34Z</time>
      </trkpt>
      <trkpt lat="45.04836" lon="3.08666">
        <ele>873.68</ele>
        <time>2015-04-29T15:38:44Z</time>
      </trkpt>
      <trkpt lat="45.04825" lon="3.08662">
        <ele>868.35</ele>
        <time>2015-04-29T15:38:54Z</time>
      </trkpt>
      <trkpt lat="45.04815" lon="3.08664">
        <ele>869.2</ele>
        <time>2015-04-29T15:39:04Z</time>
      </trkpt>
      <trkpt lat="45.04803" lon="3.08666">
        <ele>865.27</ele>
        <time>2015-04-29T15:39:14Z</time>
      </trkpt>
      <trkpt lat="45.0479" lon="3.08666">
        <ele>862.63</ele>
        <time>2015-04-29T15:39:24Z</time>
      </trkpt>
      <trkpt lat="45.04777" lon="3.08667">
        <ele>856.21</ele>
        <time>2015-04-29T15:39:34Z</time>
      </trkpt>
      <trkpt lat="45.04767" lon="3.0867">
        <ele>854.61</ele>
        <time>2015-04-29T15:39:44Z</time>
      </trkpt>
      <trkpt lat="45.04756" lon="3.08681">
        <ele>856.11</ele>
        <time>2015-04-29T15:39:54Z</time>
      </trkpt>
      <trkpt lat="45.04753" lon="3.0868">
        <ele>862.27</ele>
        <time>2015-04-29T15:40:04Z</time>
      </trkpt>
      <trkpt lat="45.04752" lon="3.08679">
        <ele>857.06</ele>
        <time>2015-04-29T15:40:14Z</time>
      </trkpt>
      <trkpt lat="45.04752" lon="3.08678">
        <ele>857</ele>
        <time>2015-04-29T15:40:32Z</time>
      </trkpt>
      <trkpt lat="45.04738" lon="3.08684">
        <ele>855.92</ele>
        <time>2015-04-29T15:40:42Z</time>
      </trkpt>
      <trkpt lat="45.04727" lon="3.08691">
        <ele>854.01</ele>
        <time>2015-04-29T15:40:52Z</time>
      </trkpt>
      <trkpt lat="45.04715" lon="3.08693">
        <ele>855.69</ele>
        <time>2015-04-29T15:41:02Z</time>
      </trkpt>
      <trkpt lat="45.04704" lon="3.087">
        <ele>862.07</ele>
        <time>2015-04-29T15:41:12Z</time>
      </trkpt>
      <trkpt lat="45.04693" lon="3.08703">
        <ele>867.44</ele>
        <time>2015-04-29T15:41:22Z</time>
      </trkpt>
      <trkpt lat="45.0468" lon="3.08704">
        <ele>861</ele>
        <time>2015-04-29T15:41:32Z</time>
      </trkpt>
      <trkpt lat="45.04667" lon="3.08706">
        <ele>861.19</ele>
        <time>2015-04-29T15:41:42Z</time>
      </trkpt>
      <trkpt lat="45.04655" lon="3.08709">
        <ele>859.01</ele>
        <time>2015-04-29T15:41:52Z</time>
      </trkpt>
      <trkpt lat="45.04642" lon="3.08711">
        <ele>855.7</ele>
        <time>2015-04-29T15:42:02Z</time>
      </trkpt>
      <trkpt lat="45.04632" lon="3.08714">
        <ele>856.37</ele>
        <time>2015-04-29T15:42:12Z</time>
      </trkpt>
      <trkpt lat="45.0462" lon="3.08714">
        <ele>852.53</ele>
        <time>2015-04-29T15:42:22Z</time>
      </trkpt>
      <trkpt lat="45.0461" lon="3.08715">
        <ele>853.1</ele>
        <time>2015-04-29T15:42:32Z</time>
      </trkpt>
      <trkpt lat="45.046" lon="3.0872">
        <ele>853.21</ele>
        <time>2015-04-29T15:42:42Z</time>
      </trkpt>
      <trkpt lat="45.04587" lon="3.08722">
        <ele>853.26</ele>
        <time>2015-04-29T15:42:52Z</time>
      </trkpt>
      <trkpt lat="45.04564" lon="3.08748">
        <ele>861.32</ele>
        <time>2015-04-29T15:43:24Z</time>
      </trkpt>
      <trkpt lat="45.04543" lon="3.08744">
        <ele>863.54</ele>
        <time>2015-04-29T15:43:34Z</time>
      </trkpt>
      <trkpt lat="45.04525" lon="3.08747">
        <ele>867.94</ele>
        <time>2015-04-29T15:43:44Z</time>
      </trkpt>
      <trkpt lat="45.04515" lon="3.08751">
        <ele>862.34</ele>
        <time>2015-04-29T15:43:54Z</time>
      </trkpt>
      <trkpt lat="45.04507" lon="3.08754">
        <ele>851.52</ele>
        <time>2015-04-29T15:44:04Z</time>
      </trkpt>
      <trkpt lat="45.04497" lon="3.08759">
        <ele>850.6</ele>
        <time>2015-04-29T15:44:14Z</time>
      </trkpt>
      <trkpt lat="45.04484" lon="3.08764">
        <ele>848.19</ele>
        <time>2015-04-29T15:44:24Z</time>
      </trkpt>
      <trkpt lat="45.04472" lon="3.08772">
        <ele>849</ele>
        <time>2015-04-29T15:44:34Z</time>
      </trkpt>
      <trkpt lat="45.0446" lon="3.08779">
        <ele>849.94</ele>
        <time>2015-04-29T15:44:44Z</time>
      </trkpt>
      <trkpt lat="45.04448" lon="3.08783">
        <ele>851.77</ele>
        <time>2015-04-29T15:44:54Z</time>
      </trkpt>
      <trkpt lat="45.04435" lon="3.0879">
        <ele>851.25</ele>
        <time>2015-04-29T15:45:04Z</time>
      </trkpt>
      <trkpt lat="45.04423" lon="3.08799">
        <ele>854.99</ele>
        <time>2015-04-29T15:45:14Z</time>
      </trkpt>
      <trkpt lat="45.04413" lon="3.08812">
        <ele>856.61</ele>
        <time>2015-04-29T15:45:24Z</time>
      </trkpt>
      <trkpt lat="45.04402" lon="3.08821">
        <ele>854.13</ele>
        <time>2015-04-29T15:45:34Z</time>
      </trkpt>
      <trkpt lat="45.04394" lon="3.08829">
        <ele>848.44</ele>
        <time>2015-04-29T15:45:44Z</time>
      </trkpt>
      <trkpt lat="45.04385" lon="3.08837">
        <ele>847.93</ele>
        <time>2015-04-29T15:45:54Z</time>
      </trkpt>
      <trkpt lat="45.04374" lon="3.08845">
        <ele>850.81</ele>
        <time>2015-04-29T15:46:04Z</time>
      </trkpt>
      <trkpt lat="45.04366" lon="3.08853">
        <ele>848.82</ele>
        <time>2015-04-29T15:46:14Z</time>
      </trkpt>
      <trkpt lat="45.04357" lon="3.08863">
        <ele>851.39</ele>
        <time>2015-04-29T15:46:24Z</time>
      </trkpt>
      <trkpt lat="45.04352" lon="3.08877">
        <ele>849.25</ele>
        <time>2015-04-29T15:46:34Z</time>
      </trkpt>
      <trkpt lat="45.04348" lon="3.08882">
        <ele>851.94</ele>
        <time>2015-04-29T15:46:44Z</time>
      </trkpt>
      <trkpt lat="45.04349" lon="3.08881">
        <ele>850.13</ele>
        <time>2015-04-29T15:46:54Z</time>
      </trkpt>
      <trkpt lat="45.04347" lon="3.0888">
        <ele>853.25</ele>
        <time>2015-04-29T15:47:44Z</time>
      </trkpt>
      <trkpt lat="45.04318" lon="3.08843">
        <ele>848.96</ele>
        <time>2015-04-29T15:48:25Z</time>
      </trkpt>
      <trkpt lat="45.0431" lon="3.08855">
        <ele>860.95</ele>
        <time>2015-04-29T15:48:35Z</time>
      </trkpt>
      <trkpt lat="45.04302" lon="3.0885">
        <ele>861.12</ele>
        <time>2015-04-29T15:48:45Z</time>
      </trkpt>
      <trkpt lat="45.04293" lon="3.0886">
        <ele>859.02</ele>
        <time>2015-04-29T15:48:55Z</time>
      </trkpt>
      <trkpt lat="45.04286" lon="3.08871">
        <ele>852.04</ele>
        <time>2015-04-29T15:49:05Z</time>
      </trkpt>
      <trkpt lat="45.04278" lon="3.08883">
        <ele>850.5</ele>
        <time>2015-04-29T15:49:15Z</time>
      </trkpt>
      <trkpt lat="45.0427" lon="3.08895">
        <ele>847.03</ele>
        <time>2015-04-29T15:49:25Z</time>
      </trkpt>
      <trkpt lat="45.04263" lon="3.08911">
        <ele>849.92</ele>
        <time>2015-04-29T15:49:35Z</time>
      </trkpt>
      <trkpt lat="45.0426" lon="3.08924">
        <ele>849.75</ele>
        <time>2015-04-29T15:49:45Z</time>
      </trkpt>
      <trkpt lat="45.04252" lon="3.08941">
        <ele>855.15</ele>
        <time>2015-04-29T15:49:55Z</time>
      </trkpt>
      <trkpt lat="45.04244" lon="3.08955">
        <ele>853</ele>
        <time>2015-04-29T15:50:05Z</time>
      </trkpt>
      <trkpt lat="45.04238" lon="3.0897">
        <ele>854.75</ele>
        <time>2015-04-29T15:50:15Z</time>
      </trkpt>
      <trkpt lat="45.0423" lon="3.08986">
        <ele>855</ele>
        <time>2015-04-29T15:50:25Z</time>
      </trkpt>
      <trkpt lat="45.04224" lon="3.09002">
        <ele>857.76</ele>
        <time>2015-04-29T15:50:35Z</time>
      </trkpt>
      <trkpt lat="45.04217" lon="3.09016">
        <ele>858.72</ele>
        <time>2015-04-29T15:50:45Z</time>
      </trkpt>
      <trkpt lat="45.0421" lon="3.09032">
        <ele>860.95</ele>
        <time>2015-04-29T15:50:55Z</time>
      </trkpt>
      <trkpt lat="45.04202" lon="3.09045">
        <ele>859.49</ele>
        <time>2015-04-29T15:51:05Z</time>
      </trkpt>
      <trkpt lat="45.04192" lon="3.09046">
        <ele>856.25</ele>
        <time>2015-04-29T15:51:15Z</time>
      </trkpt>
      <trkpt lat="45.0418" lon="3.09049">
        <ele>855.02</ele>
        <time>2015-04-29T15:51:25Z</time>
      </trkpt>
      <trkpt lat="45.04173" lon="3.09054">
        <ele>851.03</ele>
        <time>2015-04-29T15:51:35Z</time>
      </trkpt>
      <trkpt lat="45.04169" lon="3.09066">
        <ele>852.93</ele>
        <time>2015-04-29T15:51:45Z</time>
      </trkpt>
      <trkpt lat="45.04169" lon="3.09083">
        <ele>853.73</ele>
        <time>2015-04-29T15:51:55Z</time>
      </trkpt>
      <trkpt lat="45.04167" lon="3.09101">
        <ele>857</ele>
        <time>2015-04-29T15:52:05Z</time>
      </trkpt>
      <trkpt lat="45.04164" lon="3.09116">
        <ele>862.25</ele>
        <time>2015-04-29T15:52:15Z</time>
      </trkpt>
      <trkpt lat="45.0416" lon="3.09128">
        <ele>861.98</ele>
        <time>2015-04-29T15:52:25Z</time>
      </trkpt>
      <trkpt lat="45.04155" lon="3.09146">
        <ele>862</ele>
        <time>2015-04-29T15:52:35Z</time>
      </trkpt>
      <trkpt lat="45.0415" lon="3.09161">
        <ele>860.88</ele>
        <time>2015-04-29T15:52:45Z</time>
      </trkpt>
      <trkpt lat="45.04129" lon="3.09215">
        <ele>870.94</ele>
        <time>2015-04-29T15:53:26Z</time>
      </trkpt>
      <trkpt lat="45.04121" lon="3.09224">
        <ele>866.35</ele>
        <time>2015-04-29T15:53:36Z</time>
      </trkpt>
      <trkpt lat="45.04112" lon="3.09232">
        <ele>870.25</ele>
        <time>2015-04-29T15:53:46Z</time>
      </trkpt>
      <trkpt lat="45.04112" lon="3.0923">
        <ele>871.02</ele>
        <time>2015-04-29T15:53:56Z</time>
      </trkpt>
      <trkpt lat="45.04114" lon="3.0923">
        <ele>865.94</ele>
        <time>2015-04-29T15:54:06Z</time>
      </trkpt>
      <trkpt lat="45.04113" lon="3.09228">
        <ele>866</ele>
        <time>2015-04-29T15:54:17Z</time>
      </trkpt>
      <trkpt lat="45.04103" lon="3.09223">
        <ele>869</ele>
        <time>2015-04-29T15:54:27Z</time>
      </trkpt>
      <trkpt lat="45.04091" lon="3.09211">
        <ele>870.43</ele>
        <time>2015-04-29T15:54:37Z</time>
      </trkpt>
      <trkpt lat="45.04079" lon="3.09202">
        <ele>875.89</ele>
        <time>2015-04-29T15:54:47Z</time>
      </trkpt>
      <trkpt lat="45.04068" lon="3.09194">
        <ele>870.52</ele>
        <time>2015-04-29T15:54:57Z</time>
      </trkpt>
      <trkpt lat="45.04057" lon="3.09188">
        <ele>871</ele>
        <time>2015-04-29T15:55:07Z</time>
      </trkpt>
      <trkpt lat="45.04046" lon="3.09183">
        <ele>871.25</ele>
        <time>2015-04-29T15:55:17Z</time>
      </trkpt>
      <trkpt lat="45.04034" lon="3.09175">
        <ele>871.75</ele>
        <time>2015-04-29T15:55:27Z</time>
      </trkpt>
      <trkpt lat="45.04025" lon="3.09163">
        <ele>869.94</ele>
        <time>2015-04-29T15:55:37Z</time>
      </trkpt>
      <trkpt lat="45.04016" lon="3.09151">
        <ele>873</ele>
        <time>2015-04-29T15:55:47Z</time>
      </trkpt>
      <trkpt lat="45.04009" lon="3.09137">
        <ele>876.05</ele>
        <time>2015-04-29T15:55:57Z</time>
      </trkpt>
      <trkpt lat="45.04001" lon="3.09122">
        <ele>876.75</ele>
        <time>2015-04-29T15:56:07Z</time>
      </trkpt>
      <trkpt lat="45.03994" lon="3.09108">
        <ele>875</ele>
        <time>2015-04-29T15:56:17Z</time>
      </trkpt>
      <trkpt lat="45.03988" lon="3.09092">
        <ele>875.19</ele>
        <time>2015-04-29T15:56:27Z</time>
      </trkpt>
      <trkpt lat="45.03986" lon="3.09074">
        <ele>874.06</ele>
        <time>2015-04-29T15:56:37Z</time>
      </trkpt>
      <trkpt lat="45.03976" lon="3.09072">
        <ele>880.5</ele>
        <time>2015-04-29T15:56:47Z</time>
      </trkpt>
      <trkpt lat="45.03968" lon="3.09077">
        <ele>887.66</ele>
        <time>2015-04-29T15:56:57Z</time>
      </trkpt>
      <trkpt lat="45.03956" lon="3.09079">
        <ele>884.05</ele>
        <time>2015-04-29T15:57:07Z</time>
      </trkpt>
      <trkpt lat="45.03942" lon="3.09083">
        <ele>885.73</ele>
        <time>2015-04-29T15:57:17Z</time>
      </trkpt>
      <trkpt lat="45.0393" lon="3.09088">
        <ele>884</ele>
        <time>2015-04-29T15:57:27Z</time>
      </trkpt>
      <trkpt lat="45.03919" lon="3.09092">
        <ele>880.95</ele>
        <time>2015-04-29T15:57:37Z</time>
      </trkpt>
      <trkpt lat="45.03907" lon="3.09097">
        <ele>880.64</ele>
        <time>2015-04-29T15:57:47Z</time>
      </trkpt>
      <trkpt lat="45.03876" lon="3.09091">
        <ele>877.45</ele>
        <time>2015-04-29T15:58:26Z</time>
      </trkpt>
      <trkpt lat="45.0386" lon="3.09127">
        <ele>883</ele>
        <time>2015-04-29T15:58:36Z</time>
      </trkpt>
      <trkpt lat="45.03847" lon="3.09133">
        <ele>880.24</ele>
        <time>2015-04-29T15:58:46Z</time>
      </trkpt>
      <trkpt lat="45.03835" lon="3.09132">
        <ele>880.77</ele>
        <time>2015-04-29T15:58:56Z</time>
      </trkpt>
      <trkpt lat="45.03822" lon="3.09129">
        <ele>879.07</ele>
        <time>2015-04-29T15:59:06Z</time>
      </trkpt>
      <trkpt lat="45.0381" lon="3.09122">
        <ele>879</ele>
        <time>2015-04-29T15:59:16Z</time>
      </trkpt>
      <trkpt lat="45.03801" lon="3.09119">
        <ele>878.01</ele>
        <time>2015-04-29T15:59:26Z</time>
      </trkpt>
      <trkpt lat="45.03791" lon="3.0912">
        <ele>879.05</ele>
        <time>2015-04-29T15:59:36Z</time>
      </trkpt>
      <trkpt lat="45.03779" lon="3.09121">
        <ele>881</ele>
        <time>2015-04-29T15:59:46Z</time>
      </trkpt>
      <trkpt lat="45.03767" lon="3.09119">
        <ele>880.19</ele>
        <time>2015-04-29T15:59:56Z</time>
      </trkpt>
      <trkpt lat="45.03755" lon="3.09114">
        <ele>880.96</ele>
        <time>2015-04-29T16:00:06Z</time>
      </trkpt>
      <trkpt lat="45.03749" lon="3.09107">
        <ele>882.94</ele>
        <time>2015-04-29T16:00:16Z</time>
      </trkpt>
      <trkpt lat="45.03744" lon="3.09096">
        <ele>884.07</ele>
        <time>2015-04-29T16:00:26Z</time>
      </trkpt>
      <trkpt lat="45.03731" lon="3.09089">
        <ele>886.8</ele>
        <time>2015-04-29T16:00:36Z</time>
      </trkpt>
      <trkpt lat="45.0372" lon="3.09079">
        <ele>887</ele>
        <time>2015-04-29T16:00:46Z</time>
      </trkpt>
      <trkpt lat="45.03709" lon="3.09064">
        <ele>887</ele>
        <time>2015-04-29T16:00:56Z</time>
      </trkpt>
      <trkpt lat="45.03699" lon="3.09054">
        <ele>888.67</ele>
        <time>2015-04-29T16:01:06Z</time>
      </trkpt>
      <trkpt lat="45.03688" lon="3.09045">
        <ele>888.97</ele>
        <time>2015-04-29T16:01:16Z</time>
      </trkpt>
      <trkpt lat="45.03676" lon="3.09039">
        <ele>889</ele>
        <time>2015-04-29T16:01:26Z</time>
      </trkpt>
      <trkpt lat="45.03664" lon="3.09034">
        <ele>890.19</ele>
        <time>2015-04-29T16:01:36Z</time>
      </trkpt>
      <trkpt lat="45.03652" lon="3.09032">
        <ele>892.31</ele>
        <time>2015-04-29T16:01:46Z</time>
      </trkpt>
      <trkpt lat="45.03647" lon="3.09027">
        <ele>891.25</ele>
        <time>2015-04-29T16:01:56Z</time>
      </trkpt>
      <trkpt lat="45.03636" lon="3.09029">
        <ele>890.19</ele>
        <time>2015-04-29T16:02:06Z</time>
      </trkpt>
      <trkpt lat="45.0362" lon="3.09036">
        <ele>892.06</ele>
        <time>2015-04-29T16:02:16Z</time>
      </trkpt>
      <trkpt lat="45.03612" lon="3.09047">
        <ele>891</ele>
        <time>2015-04-29T16:02:26Z</time>
      </trkpt>
      <trkpt lat="45.03605" lon="3.09059">
        <ele>898.61</ele>
        <time>2015-04-29T16:02:36Z</time>
      </trkpt>
      <trkpt lat="45.03608" lon="3.09068">
        <ele>899.64</ele>
        <time>2015-04-29T16:02:46Z</time>
      </trkpt>
      <trkpt lat="45.03609" lon="3.09066">
        <ele>905.7</ele>
        <time>2015-04-29T16:03:27Z</time>
      </trkpt>
      <trkpt lat="45.03605" lon="3.09049">
        <ele>901.26</ele>
        <time>2015-04-29T16:03:37Z</time>
      </trkpt>
      <trkpt lat="45.03605" lon="3.09028">
        <ele>902.11</ele>
        <time>2015-04-29T16:03:47Z</time>
      </trkpt>
      <trkpt lat="45.03608" lon="3.09008">
        <ele>900.98</ele>
        <time>2015-04-29T16:03:57Z</time>
      </trkpt>
      <trkpt lat="45.03608" lon="3.08987">
        <ele>900.99</ele>
        <time>2015-04-29T16:04:07Z</time>
      </trkpt>
      <trkpt lat="45.03603" lon="3.08976">
        <ele>900.24</ele>
        <time>2015-04-29T16:04:17Z</time>
      </trkpt>
      <trkpt lat="45.03602" lon="3.0896">
        <ele>902.17</ele>
        <time>2015-04-29T16:04:27Z</time>
      </trkpt>
      <trkpt lat="45.036" lon="3.08942">
        <ele>903.8</ele>
        <time>2015-04-29T16:04:37Z</time>
      </trkpt>
      <trkpt lat="45.036" lon="3.08924">
        <ele>904</ele>
        <time>2015-04-29T16:04:47Z</time>
      </trkpt>
      <trkpt lat="45.036" lon="3.08915">
        <ele>902.05</ele>
        <time>2015-04-29T16:04:57Z</time>
      </trkpt>
      <trkpt lat="45.03602" lon="3.08891">
        <ele>903.95</ele>
        <time>2015-04-29T16:05:07Z</time>
      </trkpt>
      <trkpt lat="45.03598" lon="3.0888">
        <ele>907.73</ele>
        <time>2015-04-29T16:05:17Z</time>
      </trkpt>
      <trkpt lat="45.03592" lon="3.08882">
        <ele>907</ele>
        <time>2015-04-29T16:05:27Z</time>
      </trkpt>
      <trkpt lat="45.03582" lon="3.08893">
        <ele>907.98</ele>
        <time>2015-04-29T16:05:37Z</time>
      </trkpt>
      <trkpt lat="45.03571" lon="3.08918">
        <ele>909.69</ele>
        <time>2015-04-29T16:05:47Z</time>
      </trkpt>
      <trkpt lat="45.03564" lon="3.08928">
        <ele>913.92</ele>
        <time>2015-04-29T16:05:57Z</time>
      </trkpt>
      <trkpt lat="45.0356" lon="3.08941">
        <ele>911.08</ele>
        <time>2015-04-29T16:06:07Z</time>
      </trkpt>
      <trkpt lat="45.03554" lon="3.08952">
        <ele>915.73</ele>
        <time>2015-04-29T16:06:17Z</time>
      </trkpt>
      <trkpt lat="45.03541" lon="3.08953">
        <ele>915.98</ele>
        <time>2015-04-29T16:06:27Z</time>
      </trkpt>
      <trkpt lat="45.03537" lon="3.08953">
        <ele>917.75</ele>
        <time>2015-04-29T16:06:37Z</time>
      </trkpt>
      <trkpt lat="45.0353" lon="3.08971">
        <ele>913</ele>
        <time>2015-04-29T16:06:47Z</time>
      </trkpt>
      <trkpt lat="45.0353" lon="3.08977">
        <ele>913.03</ele>
        <time>2015-04-29T16:06:57Z</time>
      </trkpt>
      <trkpt lat="45.03527" lon="3.08991">
        <ele>914.19</ele>
        <time>2015-04-29T16:07:07Z</time>
      </trkpt>
      <trkpt lat="45.03518" lon="3.09005">
        <ele>918.03</ele>
        <time>2015-04-29T16:07:17Z</time>
      </trkpt>
      <trkpt lat="45.03513" lon="3.09026">
        <ele>921</ele>
        <time>2015-04-29T16:07:27Z</time>
      </trkpt>
      <trkpt lat="45.03507" lon="3.09045">
        <ele>924.92</ele>
        <time>2015-04-29T16:07:37Z</time>
      </trkpt>
      <trkpt lat="45.03504" lon="3.09064">
        <ele>921.39</ele>
        <time>2015-04-29T16:07:47Z</time>
      </trkpt>
      <trkpt lat="45.03498" lon="3.09104">
        <ele>914.5</ele>
        <time>2015-04-29T16:08:26Z</time>
      </trkpt>
      <trkpt lat="45.03485" lon="3.09106">
        <ele>920.02</ele>
        <time>2015-04-29T16:08:36Z</time>
      </trkpt>
      <trkpt lat="45.03485" lon="3.09091">
        <ele>926.04</ele>
        <time>2015-04-29T16:08:46Z</time>
      </trkpt>
      <trkpt lat="45.03483" lon="3.09081">
        <ele>929.97</ele>
        <time>2015-04-29T16:08:56Z</time>
      </trkpt>
      <trkpt lat="45.03479" lon="3.09072">
        <ele>929.23</ele>
        <time>2015-04-29T16:09:06Z</time>
      </trkpt>
      <trkpt lat="45.03469" lon="3.09053">
        <ele>929.93</ele>
        <time>2015-04-29T16:09:16Z</time>
      </trkpt>
      <trkpt lat="45.0346" lon="3.0905">
        <ele>929.06</ele>
        <time>2015-04-29T16:09:26Z</time>
      </trkpt>
      <trkpt lat="45.03451" lon="3.09049">
        <ele>931.19</ele>
        <time>2015-04-29T16:09:36Z</time>
      </trkpt>
      <trkpt lat="45.03447" lon="3.09061">
        <ele>927.06</ele>
        <time>2015-04-29T16:09:46Z</time>
      </trkpt>
      <trkpt lat="45.03444" lon="3.09075">
        <ele>922.3</ele>
        <time>2015-04-29T16:09:56Z</time>
      </trkpt>
      <trkpt lat="45.03438" lon="3.09091">
        <ele>924</ele>
        <time>2015-04-29T16:10:06Z</time>
      </trkpt>
      <trkpt lat="45.03431" lon="3.09106">
        <ele>929.56</ele>
        <time>2015-04-29T16:10:16Z</time>
      </trkpt>
      <trkpt lat="45.03421" lon="3.09125">
        <ele>935.46</ele>
        <time>2015-04-29T16:10:26Z</time>
      </trkpt>
      <trkpt lat="45.03414" lon="3.09142">
        <ele>930.44</ele>
        <time>2015-04-29T16:10:36Z</time>
      </trkpt>
      <trkpt lat="45.0341" lon="3.09161">
        <ele>930.24</ele>
        <time>2015-04-29T16:10:46Z</time>
      </trkpt>
      <trkpt lat="45.03411" lon="3.0918">
        <ele>929.49</ele>
        <time>2015-04-29T16:10:56Z</time>
      </trkpt>
      <trkpt lat="45.03416" lon="3.09195">
        <ele>927.78</ele>
        <time>2015-04-29T16:11:06Z</time>
      </trkpt>
      <trkpt lat="45.03404" lon="3.09222">
        <ele>931.71</ele>
        <time>2015-04-29T16:11:16Z</time>
      </trkpt>
      <trkpt lat="45.03408" lon="3.09243">
        <ele>929.98</ele>
        <time>2015-04-29T16:11:26Z</time>
      </trkpt>
      <trkpt lat="45.03391" lon="3.0926">
        <ele>945.61</ele>
        <time>2015-04-29T16:11:36Z</time>
      </trkpt>
      <trkpt lat="45.0338" lon="3.09257">
        <ele>941.12</ele>
        <time>2015-04-29T16:11:46Z</time>
      </trkpt>
      <trkpt lat="45.03361" lon="3.09263">
        <ele>944.98</ele>
        <time>2015-04-29T16:11:56Z</time>
      </trkpt>
      <trkpt lat="45.03356" lon="3.0925">
        <ele>938.93</ele>
        <time>2015-04-29T16:12:06Z</time>
      </trkpt>
      <trkpt lat="45.03345" lon="3.0925">
        <ele>944.04</ele>
        <time>2015-04-29T16:12:16Z</time>
      </trkpt>
      <trkpt lat="45.03335" lon="3.09258">
        <ele>944.02</ele>
        <time>2015-04-29T16:12:26Z</time>
      </trkpt>
      <trkpt lat="45.0334" lon="3.09274">
        <ele>944.19</ele>
        <time>2015-04-29T16:12:36Z</time>
      </trkpt>
      <trkpt lat="45.03349" lon="3.09287">
        <ele>938.35</ele>
        <time>2015-04-29T16:12:46Z</time>
      </trkpt>
      <trkpt lat="45.0336" lon="3.09436">
        <ele>936.74</ele>
        <time>2015-04-29T16:14:02Z</time>
      </trkpt>
      <trkpt lat="45.03352" lon="3.09457">
        <ele>943.74</ele>
        <time>2015-04-29T16:14:12Z</time>
      </trkpt>
      <trkpt lat="45.03343" lon="3.09462">
        <ele>944.36</ele>
        <time>2015-04-29T16:14:22Z</time>
      </trkpt>
      <trkpt lat="45.03343" lon="3.0946">
        <ele>941.4</ele>
        <time>2015-04-29T16:14:24Z</time>
      </trkpt>
    </trkseg>
  </trk>
</gpx>